<?xml version='1.0' encoding='UTF-8'?><gpx version="1.1" creator="JPX - https://github.com/jenetics/jpx" xmlns="http://www.topografix.com/GPX/1/1"><trk><trkseg><trkpt lat="43.765451572298005" lon="11.160212872506948"><ele>38.0</ele><time>2026-03-29T06:59:59Z</time></trkpt><trkpt lat="43.76544376742982" lon="11.160110294877724"><ele>38.0</ele><time>2026-03-29T07:00:01Z</time></trkpt><trkpt lat="43.76544397208065" lon="11.159986286555108"><ele>38.0</ele><time>2026-03-29T07:00:03Z</time></trkpt><trkpt lat="43.765453213490076" lon="11.15985831612808"><ele>38.0</ele><time>2026-03-29T07:00:05Z</time></trkpt><trkpt lat="43.76544892880673" lon="11.159716988344055"><ele>38.0</ele><time>2026-03-29T07:00:07Z</time></trkpt><trkpt lat="43.76545464506487" lon="11.15957299683975"><ele>38.0</ele><time>2026-03-29T07:00:09Z</time></trkpt><trkpt lat="43.76545498684091" lon="11.159424498814262"><ele>38.0</ele><time>2026-03-29T07:00:11Z</time></trkpt><trkpt lat="43.76547796243494" lon="11.159272596220145"><ele>38.0</ele><time>2026-03-29T07:00:13Z</time></trkpt><trkpt lat="43.76548868771382" lon="11.159123522260934"><ele>38.0</ele><time>2026-03-29T07:00:15Z</time></trkpt><trkpt lat="43.76551359086322" lon="11.158976476675468"><ele>38.0</ele><time>2026-03-29T07:00:17Z</time></trkpt><trkpt lat="43.76552547708082" lon="11.158812770298754"><ele>38.0</ele><time>2026-03-29T07:00:19Z</time></trkpt><trkpt lat="43.76554112338009" lon="11.15865820033537"><ele>38.0</ele><time>2026-03-29T07:00:21Z</time></trkpt><trkpt lat="43.765556419018566" lon="11.158501610896373"><ele>38.0</ele><time>2026-03-29T07:00:23Z</time></trkpt><trkpt lat="43.76557392818285" lon="11.1583465719764"><ele>38.0</ele><time>2026-03-29T07:00:25Z</time></trkpt><trkpt lat="43.76559818654693" lon="11.158190971930813"><ele>38.25</ele><time>2026-03-29T07:00:27Z</time></trkpt><trkpt lat="43.765629611139225" lon="11.158037226434963"><ele>38.5</ele><time>2026-03-29T07:00:29Z</time></trkpt><trkpt lat="43.765698809774186" lon="11.157913746151111"><ele>38.75</ele><time>2026-03-29T07:00:31Z</time></trkpt><trkpt lat="43.76578168407053" lon="11.157798228158146"><ele>39.0</ele><time>2026-03-29T07:00:33Z</time></trkpt><trkpt lat="43.76581231075308" lon="11.157648738206397"><ele>39.0</ele><time>2026-03-29T07:00:35Z</time></trkpt><trkpt lat="43.765791392688655" lon="11.15749478514904"><ele>39.0</ele><time>2026-03-29T07:00:37Z</time></trkpt><trkpt lat="43.76573971669844" lon="11.157350161611005"><ele>39.0</ele><time>2026-03-29T07:00:39Z</time></trkpt><trkpt lat="43.76573956823041" lon="11.157188193209162"><ele>39.0</ele><time>2026-03-29T07:00:41Z</time></trkpt><trkpt lat="43.765769365578834" lon="11.157025219973093"><ele>38.75</ele><time>2026-03-29T07:00:43Z</time></trkpt><trkpt lat="43.7657942480829" lon="11.15686549177823"><ele>38.5</ele><time>2026-03-29T07:00:45Z</time></trkpt><trkpt lat="43.76581553113245" lon="11.15670331022062"><ele>38.25</ele><time>2026-03-29T07:00:47Z</time></trkpt><trkpt lat="43.76583467783044" lon="11.156541919376627"><ele>38.0</ele><time>2026-03-29T07:00:49Z</time></trkpt><trkpt lat="43.76586253234441" lon="11.156386625182773"><ele>38.0</ele><time>2026-03-29T07:00:51Z</time></trkpt><trkpt lat="43.76588331186454" lon="11.156227388454097"><ele>38.0</ele><time>2026-03-29T07:00:53Z</time></trkpt><trkpt lat="43.76590604064005" lon="11.156069955512484"><ele>38.0</ele><time>2026-03-29T07:00:55Z</time></trkpt><trkpt lat="43.76592883343235" lon="11.155909167111595"><ele>38.0</ele><time>2026-03-29T07:00:57Z</time></trkpt><trkpt lat="43.765948477816906" lon="11.155747867383369"><ele>38.5</ele><time>2026-03-29T07:00:59Z</time></trkpt><trkpt lat="43.76597026024099" lon="11.155586201145011"><ele>39.0</ele><time>2026-03-29T07:01:01Z</time></trkpt><trkpt lat="43.76598972094744" lon="11.155423120316813"><ele>39.5</ele><time>2026-03-29T07:01:03Z</time></trkpt><trkpt lat="43.766017575000085" lon="11.15526526109461"><ele>40.0</ele><time>2026-03-29T07:01:05Z</time></trkpt><trkpt lat="43.766041837391114" lon="11.15510216194506"><ele>40.4</ele><time>2026-03-29T07:01:07Z</time></trkpt><trkpt lat="43.76606005616158" lon="11.154942594174052"><ele>40.8</ele><time>2026-03-29T07:01:09Z</time></trkpt><trkpt lat="43.76607998578176" lon="11.154849064996034"><ele>41.2</ele><time>2026-03-29T07:01:10Z</time></trkpt><trkpt lat="43.76611597730166" lon="11.15469150333999"><ele>41.6</ele><time>2026-03-29T07:01:12Z</time></trkpt><trkpt lat="43.766143653675464" lon="11.154526031863881"><ele>42.0</ele><time>2026-03-29T07:01:14Z</time></trkpt><trkpt lat="43.766170850164" lon="11.154363857647324"><ele>42.0</ele><time>2026-03-29T07:01:16Z</time></trkpt><trkpt lat="43.766194476227426" lon="11.1541979180377"><ele>42.0</ele><time>2026-03-29T07:01:18Z</time></trkpt><trkpt lat="43.7662235016628" lon="11.154032875602272"><ele>42.0</ele><time>2026-03-29T07:01:20Z</time></trkpt><trkpt lat="43.76624794978318" lon="11.153871299476261"><ele>42.0</ele><time>2026-03-29T07:01:22Z</time></trkpt><trkpt lat="43.766271849962074" lon="11.153708336406611"><ele>41.5</ele><time>2026-03-29T07:01:24Z</time></trkpt><trkpt lat="43.76629711925582" lon="11.153543944533627"><ele>41.0</ele><time>2026-03-29T07:01:26Z</time></trkpt><trkpt lat="43.76632999460751" lon="11.153383331880567"><ele>40.5</ele><time>2026-03-29T07:01:28Z</time></trkpt><trkpt lat="43.76636451492983" lon="11.153221521582157"><ele>40.0</ele><time>2026-03-29T07:01:30Z</time></trkpt><trkpt lat="43.76639124091604" lon="11.153057951082914"><ele>39.4</ele><time>2026-03-29T07:01:32Z</time></trkpt><trkpt lat="43.766424336095724" lon="11.152898207049388"><ele>38.8</ele><time>2026-03-29T07:01:34Z</time></trkpt><trkpt lat="43.76645328644935" lon="11.152734321252105"><ele>38.2</ele><time>2026-03-29T07:01:36Z</time></trkpt><trkpt lat="43.76646647920345" lon="11.152639955082558"><ele>37.6</ele><time>2026-03-29T07:01:37Z</time></trkpt><trkpt lat="43.76649348322861" lon="11.152478215105473"><ele>37.0</ele><time>2026-03-29T07:01:39Z</time></trkpt><trkpt lat="43.76651839672971" lon="11.152312027838615"><ele>37.0</ele><time>2026-03-29T07:01:41Z</time></trkpt><trkpt lat="43.76654456316167" lon="11.152145228757949"><ele>37.0</ele><time>2026-03-29T07:01:43Z</time></trkpt><trkpt lat="43.76657070007775" lon="11.151978349569962"><ele>37.0</ele><time>2026-03-29T07:01:45Z</time></trkpt><trkpt lat="43.766592741278764" lon="11.151811311837504"><ele>37.0</ele><time>2026-03-29T07:01:47Z</time></trkpt><trkpt lat="43.7666148265803" lon="11.151642354015346"><ele>36.75</ele><time>2026-03-29T07:01:49Z</time></trkpt><trkpt lat="43.766642140663116" lon="11.151478914852925"><ele>36.5</ele><time>2026-03-29T07:01:51Z</time></trkpt><trkpt lat="43.76666594388768" lon="11.151315233484771"><ele>36.25</ele><time>2026-03-29T07:01:53Z</time></trkpt><trkpt lat="43.7666971609416" lon="11.151150492201099"><ele>36.0</ele><time>2026-03-29T07:01:55Z</time></trkpt><trkpt lat="43.766722203939715" lon="11.150983534507157"><ele>36.0</ele><time>2026-03-29T07:01:57Z</time></trkpt><trkpt lat="43.76675622436522" lon="11.150824744722017"><ele>36.0</ele><time>2026-03-29T07:01:59Z</time></trkpt><trkpt lat="43.766796187789495" lon="11.150665218488433"><ele>36.0</ele><time>2026-03-29T07:02:01Z</time></trkpt><trkpt lat="43.76683300274991" lon="11.150505459236227"><ele>36.0</ele><time>2026-03-29T07:02:03Z</time></trkpt><trkpt lat="43.76686740131757" lon="11.150352564544605"><ele>36.0</ele><time>2026-03-29T07:02:05Z</time></trkpt><trkpt lat="43.76690311786051" lon="11.150202810837442"><ele>36.0</ele><time>2026-03-29T07:02:07Z</time></trkpt><trkpt lat="43.766937204094084" lon="11.150051644933725"><ele>36.0</ele><time>2026-03-29T07:02:09Z</time></trkpt><trkpt lat="43.76697297568423" lon="11.149895246119916"><ele>36.0</ele><time>2026-03-29T07:02:11Z</time></trkpt><trkpt lat="43.7670060020512" lon="11.149734098243005"><ele>35.5</ele><time>2026-03-29T07:02:13Z</time></trkpt><trkpt lat="43.76703935144625" lon="11.14957079966287"><ele>35.0</ele><time>2026-03-29T07:02:15Z</time></trkpt><trkpt lat="43.76706843243142" lon="11.149407415952373"><ele>34.5</ele><time>2026-03-29T07:02:17Z</time></trkpt><trkpt lat="43.76709877464689" lon="11.14924173647163"><ele>34.0</ele><time>2026-03-29T07:02:19Z</time></trkpt><trkpt lat="43.7671278743611" lon="11.149078981372904"><ele>34.4</ele><time>2026-03-29T07:02:21Z</time></trkpt><trkpt lat="43.7671518678349" lon="11.148912114256104"><ele>34.8</ele><time>2026-03-29T07:02:23Z</time></trkpt><trkpt lat="43.767173104086396" lon="11.148751146729966"><ele>35.2</ele><time>2026-03-29T07:02:25Z</time></trkpt><trkpt lat="43.76718390667525" lon="11.148665071257462"><ele>35.6</ele><time>2026-03-29T07:02:26Z</time></trkpt><trkpt lat="43.767204349738115" lon="11.14849404741995"><ele>36.0</ele><time>2026-03-29T07:02:28Z</time></trkpt><trkpt lat="43.767230251278754" lon="11.148331243570407"><ele>36.25</ele><time>2026-03-29T07:02:30Z</time></trkpt><trkpt lat="43.767249995882594" lon="11.148163170145551"><ele>36.5</ele><time>2026-03-29T07:02:32Z</time></trkpt><trkpt lat="43.76726990104635" lon="11.147998896658747"><ele>36.75</ele><time>2026-03-29T07:02:34Z</time></trkpt><trkpt lat="43.76728739329276" lon="11.14783315105406"><ele>37.0</ele><time>2026-03-29T07:02:36Z</time></trkpt><trkpt lat="43.7673119572423" lon="11.147675601302454"><ele>37.0</ele><time>2026-03-29T07:02:38Z</time></trkpt><trkpt lat="43.76733503136506" lon="11.147510187181341"><ele>37.0</ele><time>2026-03-29T07:02:40Z</time></trkpt><trkpt lat="43.767358769723636" lon="11.1473483229107"><ele>37.0</ele><time>2026-03-29T07:02:42Z</time></trkpt><trkpt lat="43.76738626140885" lon="11.1471819163862"><ele>37.0</ele><time>2026-03-29T07:02:44Z</time></trkpt><trkpt lat="43.76740804721661" lon="11.147016968494137"><ele>37.0</ele><time>2026-03-29T07:02:46Z</time></trkpt><trkpt lat="43.76742796276158" lon="11.14685486348573"><ele>37.0</ele><time>2026-03-29T07:02:48Z</time></trkpt><trkpt lat="43.76744421481039" lon="11.146691008012535"><ele>37.0</ele><time>2026-03-29T07:02:50Z</time></trkpt><trkpt lat="43.76746714249131" lon="11.146530803202674"><ele>37.0</ele><time>2026-03-29T07:02:52Z</time></trkpt><trkpt lat="43.767491997428266" lon="11.146373257365779"><ele>36.75</ele><time>2026-03-29T07:02:54Z</time></trkpt><trkpt lat="43.76751801817004" lon="11.14620918188357"><ele>36.5</ele><time>2026-03-29T07:02:56Z</time></trkpt><trkpt lat="43.767547958054806" lon="11.14605054296926"><ele>36.25</ele><time>2026-03-29T07:02:58Z</time></trkpt><trkpt lat="43.76757386865662" lon="11.145887665742801"><ele>36.0</ele><time>2026-03-29T07:03:00Z</time></trkpt><trkpt lat="43.76760811442465" lon="11.14572624730424"><ele>35.75</ele><time>2026-03-29T07:03:02Z</time></trkpt><trkpt lat="43.76763540191419" lon="11.14555825189755"><ele>35.5</ele><time>2026-03-29T07:03:04Z</time></trkpt><trkpt lat="43.767666763778166" lon="11.145398180004213"><ele>35.25</ele><time>2026-03-29T07:03:06Z</time></trkpt><trkpt lat="43.767697984725515" lon="11.145237339974782"><ele>35.0</ele><time>2026-03-29T07:03:08Z</time></trkpt><trkpt lat="43.76772632485465" lon="11.145077500901532"><ele>35.0</ele><time>2026-03-29T07:03:10Z</time></trkpt><trkpt lat="43.76775758020422" lon="11.144916248873812"><ele>35.0</ele><time>2026-03-29T07:03:12Z</time></trkpt><trkpt lat="43.76778646596195" lon="11.144757782117946"><ele>35.0</ele><time>2026-03-29T07:03:14Z</time></trkpt><trkpt lat="43.7678094694767" lon="11.14459183234983"><ele>35.0</ele><time>2026-03-29T07:03:16Z</time></trkpt><trkpt lat="43.767827537823706" lon="11.144424667375002"><ele>35.0</ele><time>2026-03-29T07:03:18Z</time></trkpt><trkpt lat="43.76785335350212" lon="11.144268335864778"><ele>35.0</ele><time>2026-03-29T07:03:20Z</time></trkpt><trkpt lat="43.76788678654305" lon="11.144113298279548"><ele>35.0</ele><time>2026-03-29T07:03:22Z</time></trkpt><trkpt lat="43.767910466332076" lon="11.143953468990862"><ele>35.0</ele><time>2026-03-29T07:03:24Z</time></trkpt><trkpt lat="43.767937580251704" lon="11.143805829639952"><ele>35.25</ele><time>2026-03-29T07:03:26Z</time></trkpt><trkpt lat="43.7679620381464" lon="11.143647000104721"><ele>35.5</ele><time>2026-03-29T07:03:28Z</time></trkpt><trkpt lat="43.76798707727637" lon="11.143491984244765"><ele>35.75</ele><time>2026-03-29T07:03:30Z</time></trkpt><trkpt lat="43.76801037024064" lon="11.143334190104692"><ele>36.0</ele><time>2026-03-29T07:03:32Z</time></trkpt><trkpt lat="43.76803740873862" lon="11.143183154083221"><ele>35.5</ele><time>2026-03-29T07:03:34Z</time></trkpt><trkpt lat="43.768059447920685" lon="11.143034738677681"><ele>35.0</ele><time>2026-03-29T07:03:36Z</time></trkpt><trkpt lat="43.768082927774074" lon="11.142868261541985"><ele>34.5</ele><time>2026-03-29T07:03:38Z</time></trkpt><trkpt lat="43.76810138758764" lon="11.142705994871074"><ele>34.0</ele><time>2026-03-29T07:03:40Z</time></trkpt><trkpt lat="43.76811634985264" lon="11.142540580296476"><ele>34.0</ele><time>2026-03-29T07:03:42Z</time></trkpt><trkpt lat="43.76814158079664" lon="11.14238674736073"><ele>34.0</ele><time>2026-03-29T07:03:44Z</time></trkpt><trkpt lat="43.768165554408675" lon="11.142226220089103"><ele>34.0</ele><time>2026-03-29T07:03:46Z</time></trkpt><trkpt lat="43.768186259392344" lon="11.142065627734913"><ele>34.0</ele><time>2026-03-29T07:03:48Z</time></trkpt><trkpt lat="43.76821706582837" lon="11.14190548981792"><ele>34.25</ele><time>2026-03-29T07:03:50Z</time></trkpt><trkpt lat="43.768251128119644" lon="11.14174907584628"><ele>34.5</ele><time>2026-03-29T07:03:52Z</time></trkpt><trkpt lat="43.76827971194323" lon="11.14159128581411"><ele>34.75</ele><time>2026-03-29T07:03:54Z</time></trkpt><trkpt lat="43.768311255523415" lon="11.141428026444197"><ele>35.0</ele><time>2026-03-29T07:03:56Z</time></trkpt><trkpt lat="43.76834161159686" lon="11.141268293363368"><ele>35.0</ele><time>2026-03-29T07:03:58Z</time></trkpt><trkpt lat="43.768370639490286" lon="11.141112283229443"><ele>35.0</ele><time>2026-03-29T07:04:00Z</time></trkpt><trkpt lat="43.768392283680456" lon="11.140948114555643"><ele>35.0</ele><time>2026-03-29T07:04:02Z</time></trkpt><trkpt lat="43.76840146213735" lon="11.140787523066962"><ele>35.0</ele><time>2026-03-29T07:04:04Z</time></trkpt><trkpt lat="43.76841487639299" lon="11.14062176438888"><ele>35.25</ele><time>2026-03-29T07:04:06Z</time></trkpt><trkpt lat="43.768426386767985" lon="11.140460712821858"><ele>35.5</ele><time>2026-03-29T07:04:08Z</time></trkpt><trkpt lat="43.76844209848411" lon="11.140299543446902"><ele>35.75</ele><time>2026-03-29T07:04:10Z</time></trkpt><trkpt lat="43.76845471750196" lon="11.140134549633968"><ele>36.0</ele><time>2026-03-29T07:04:12Z</time></trkpt><trkpt lat="43.76846547786777" lon="11.139970918063623"><ele>36.0</ele><time>2026-03-29T07:04:14Z</time></trkpt><trkpt lat="43.7684766687506" lon="11.139808827096813"><ele>36.0</ele><time>2026-03-29T07:04:16Z</time></trkpt><trkpt lat="43.76849195024646" lon="11.139643644231446"><ele>36.0</ele><time>2026-03-29T07:04:18Z</time></trkpt><trkpt lat="43.76850539603404" lon="11.139474591058988"><ele>36.0</ele><time>2026-03-29T07:04:20Z</time></trkpt><trkpt lat="43.7685070269139" lon="11.139304891465908"><ele>35.4</ele><time>2026-03-29T07:04:22Z</time></trkpt><trkpt lat="43.768529528273106" lon="11.139143010713854"><ele>34.8</ele><time>2026-03-29T07:04:24Z</time></trkpt><trkpt lat="43.76854624546559" lon="11.138972937244962"><ele>34.199999999999996</ele><time>2026-03-29T07:04:26Z</time></trkpt><trkpt lat="43.768560045374095" lon="11.138803187265662"><ele>33.6</ele><time>2026-03-29T07:04:28Z</time></trkpt><trkpt lat="43.76856611398385" lon="11.13871364380928"><ele>33.0</ele><time>2026-03-29T07:04:29Z</time></trkpt><trkpt lat="43.76856800769073" lon="11.138545412830767"><ele>33.0</ele><time>2026-03-29T07:04:31Z</time></trkpt><trkpt lat="43.76855577203489" lon="11.138388428697619"><ele>33.0</ele><time>2026-03-29T07:04:33Z</time></trkpt><trkpt lat="43.76854863463555" lon="11.138219329220323"><ele>33.0</ele><time>2026-03-29T07:04:35Z</time></trkpt><trkpt lat="43.76852931830335" lon="11.138053432961279"><ele>33.0</ele><time>2026-03-29T07:04:37Z</time></trkpt><trkpt lat="43.76850688117748" lon="11.137897425597998"><ele>33.75</ele><time>2026-03-29T07:04:39Z</time></trkpt><trkpt lat="43.76850139823565" lon="11.137736052800989"><ele>34.5</ele><time>2026-03-29T07:04:41Z</time></trkpt><trkpt lat="43.76849516236897" lon="11.137572443898165"><ele>35.25</ele><time>2026-03-29T07:04:43Z</time></trkpt><trkpt lat="43.76848302456856" lon="11.13741039081719"><ele>36.0</ele><time>2026-03-29T07:04:45Z</time></trkpt><trkpt lat="43.768466584296675" lon="11.137247620215616"><ele>36.0</ele><time>2026-03-29T07:04:47Z</time></trkpt><trkpt lat="43.768457321349196" lon="11.137093763871581"><ele>36.0</ele><time>2026-03-29T07:04:49Z</time></trkpt><trkpt lat="43.768443640365916" lon="11.13692922857082"><ele>36.0</ele><time>2026-03-29T07:04:51Z</time></trkpt><trkpt lat="43.76844710644636" lon="11.136760801829805"><ele>36.0</ele><time>2026-03-29T07:04:53Z</time></trkpt><trkpt lat="43.76841927024844" lon="11.136598559399026"><ele>36.0</ele><time>2026-03-29T07:04:55Z</time></trkpt><trkpt lat="43.768417373438986" lon="11.136438641429216"><ele>36.0</ele><time>2026-03-29T07:04:57Z</time></trkpt><trkpt lat="43.768410098534254" lon="11.136278465799537"><ele>36.0</ele><time>2026-03-29T07:04:59Z</time></trkpt><trkpt lat="43.76840271015748" lon="11.136119072581474"><ele>36.0</ele><time>2026-03-29T07:05:01Z</time></trkpt><trkpt lat="43.76839865301401" lon="11.135961333785207"><ele>36.0</ele><time>2026-03-29T07:05:03Z</time></trkpt><trkpt lat="43.768390699612624" lon="11.135800028495794"><ele>36.0</ele><time>2026-03-29T07:05:05Z</time></trkpt><trkpt lat="43.768383480040846" lon="11.135636172494033"><ele>36.0</ele><time>2026-03-29T07:05:07Z</time></trkpt><trkpt lat="43.76837665050617" lon="11.135474907327989"><ele>36.0</ele><time>2026-03-29T07:05:09Z</time></trkpt><trkpt lat="43.76837136273868" lon="11.135307984989458"><ele>36.25</ele><time>2026-03-29T07:05:11Z</time></trkpt><trkpt lat="43.76836484042525" lon="11.135143133028642"><ele>36.5</ele><time>2026-03-29T07:05:13Z</time></trkpt><trkpt lat="43.76835934673094" lon="11.13498116942617"><ele>36.75</ele><time>2026-03-29T07:05:15Z</time></trkpt><trkpt lat="43.76836564071984" lon="11.134824193379163"><ele>37.0</ele><time>2026-03-29T07:05:17Z</time></trkpt><trkpt lat="43.768368737942765" lon="11.134665778348161"><ele>36.800000000000004</ele><time>2026-03-29T07:05:19Z</time></trkpt><trkpt lat="43.768369300051916" lon="11.13451435219377"><ele>36.6</ele><time>2026-03-29T07:05:21Z</time></trkpt><trkpt lat="43.76837632686985" lon="11.134360126525781"><ele>36.400000000000006</ele><time>2026-03-29T07:05:23Z</time></trkpt><trkpt lat="43.76838111097946" lon="11.13420274054384"><ele>36.2</ele><time>2026-03-29T07:05:25Z</time></trkpt><trkpt lat="43.76838277743015" lon="11.134047242350464"><ele>36.0</ele><time>2026-03-29T07:05:27Z</time></trkpt><trkpt lat="43.768387780420824" lon="11.1338892832943"><ele>36.0</ele><time>2026-03-29T07:05:29Z</time></trkpt><trkpt lat="43.768391114664546" lon="11.133740753203474"><ele>36.0</ele><time>2026-03-29T07:05:31Z</time></trkpt><trkpt lat="43.768390552758966" lon="11.13358956315923"><ele>36.0</ele><time>2026-03-29T07:05:33Z</time></trkpt><trkpt lat="43.76839442736565" lon="11.133441211457693"><ele>36.0</ele><time>2026-03-29T07:05:35Z</time></trkpt><trkpt lat="43.768397265660965" lon="11.133291927202652"><ele>36.0</ele><time>2026-03-29T07:05:37Z</time></trkpt><trkpt lat="43.768388772119" lon="11.133140660997888"><ele>36.2</ele><time>2026-03-29T07:05:39Z</time></trkpt><trkpt lat="43.76840379913441" lon="11.132979876222327"><ele>36.400000000000006</ele><time>2026-03-29T07:05:41Z</time></trkpt><trkpt lat="43.76839532145421" lon="11.132827364230366"><ele>36.6</ele><time>2026-03-29T07:05:43Z</time></trkpt><trkpt lat="43.768385821379404" lon="11.132693993307878"><ele>36.800000000000004</ele><time>2026-03-29T07:05:45Z</time></trkpt><trkpt lat="43.768393895541266" lon="11.13252974294141"><ele>37.0</ele><time>2026-03-29T07:05:47Z</time></trkpt><trkpt lat="43.768395720864014" lon="11.132377589948673"><ele>37.0</ele><time>2026-03-29T07:05:49Z</time></trkpt><trkpt lat="43.768395277735685" lon="11.132223637074153"><ele>37.0</ele><time>2026-03-29T07:05:51Z</time></trkpt><trkpt lat="43.76840935523114" lon="11.132053615601947"><ele>37.0</ele><time>2026-03-29T07:05:53Z</time></trkpt><trkpt lat="43.76841781889451" lon="11.131961391624655"><ele>37.0</ele><time>2026-03-29T07:05:54Z</time></trkpt><trkpt lat="43.768445767674905" lon="11.131802505788698"><ele>37.0</ele><time>2026-03-29T07:05:56Z</time></trkpt><trkpt lat="43.76846153762949" lon="11.131622658020106"><ele>37.0</ele><time>2026-03-29T07:05:58Z</time></trkpt><trkpt lat="43.768476576538056" lon="11.131536977278222"><ele>37.0</ele><time>2026-03-29T07:05:59Z</time></trkpt><trkpt lat="43.76849920884324" lon="11.131372936151227"><ele>37.0</ele><time>2026-03-29T07:06:01Z</time></trkpt><trkpt lat="43.76850549034916" lon="11.131286163656952"><ele>37.0</ele><time>2026-03-29T07:06:02Z</time></trkpt><trkpt lat="43.768520715682406" lon="11.131115316285234"><ele>37.0</ele><time>2026-03-29T07:06:04Z</time></trkpt><trkpt lat="43.76853932984994" lon="11.130957853560226"><ele>37.0</ele><time>2026-03-29T07:06:06Z</time></trkpt><trkpt lat="43.76855668556296" lon="11.130793302275775"><ele>37.0</ele><time>2026-03-29T07:06:08Z</time></trkpt><trkpt lat="43.76858453623884" lon="11.130634934652534"><ele>37.0</ele><time>2026-03-29T07:06:10Z</time></trkpt><trkpt lat="43.76859337602129" lon="11.130547209980339"><ele>37.0</ele><time>2026-03-29T07:06:11Z</time></trkpt><trkpt lat="43.76861706821484" lon="11.13038957115139"><ele>37.0</ele><time>2026-03-29T07:06:13Z</time></trkpt><trkpt lat="43.76864324566073" lon="11.130232568177114"><ele>37.0</ele><time>2026-03-29T07:06:15Z</time></trkpt><trkpt lat="43.76866586232536" lon="11.130072058564878"><ele>37.0</ele><time>2026-03-29T07:06:17Z</time></trkpt><trkpt lat="43.7686900272344" lon="11.129912749278105"><ele>37.0</ele><time>2026-03-29T07:06:19Z</time></trkpt><trkpt lat="43.76871951888819" lon="11.129751444435938"><ele>37.0</ele><time>2026-03-29T07:06:21Z</time></trkpt><trkpt lat="43.768757635411795" lon="11.129603171704883"><ele>36.800000000000004</ele><time>2026-03-29T07:06:23Z</time></trkpt><trkpt lat="43.768802127732776" lon="11.129454961572424"><ele>36.6</ele><time>2026-03-29T07:06:25Z</time></trkpt><trkpt lat="43.76882290164942" lon="11.129370635910716"><ele>36.400000000000006</ele><time>2026-03-29T07:06:26Z</time></trkpt><trkpt lat="43.76887068580416" lon="11.129224535591945"><ele>36.2</ele><time>2026-03-29T07:06:28Z</time></trkpt><trkpt lat="43.76892945503073" lon="11.129086245544567"><ele>36.0</ele><time>2026-03-29T07:06:30Z</time></trkpt><trkpt lat="43.76897303159753" lon="11.128943140398068"><ele>35.8</ele><time>2026-03-29T07:06:32Z</time></trkpt><trkpt lat="43.76899965623921" lon="11.128787024545774"><ele>35.6</ele><time>2026-03-29T07:06:34Z</time></trkpt><trkpt lat="43.769007576720725" lon="11.128616133038923"><ele>35.4</ele><time>2026-03-29T07:06:36Z</time></trkpt><trkpt lat="43.7690198446396" lon="11.128450945523607"><ele>35.2</ele><time>2026-03-29T07:06:38Z</time></trkpt><trkpt lat="43.769021110984646" lon="11.128361615293004"><ele>35.0</ele><time>2026-03-29T07:06:39Z</time></trkpt><trkpt lat="43.769039419050074" lon="11.128192515815975"><ele>35.0</ele><time>2026-03-29T07:06:41Z</time></trkpt><trkpt lat="43.76904399822337" lon="11.12803277978683"><ele>35.0</ele><time>2026-03-29T07:06:43Z</time></trkpt><trkpt lat="43.76906411424254" lon="11.127868499278954"><ele>35.0</ele><time>2026-03-29T07:06:45Z</time></trkpt><trkpt lat="43.7690815146963" lon="11.127706386360037"><ele>35.0</ele><time>2026-03-29T07:06:47Z</time></trkpt><trkpt lat="43.76910802731361" lon="11.127548647171919"><ele>35.25</ele><time>2026-03-29T07:06:49Z</time></trkpt><trkpt lat="43.769123768068226" lon="11.127388235303016"><ele>35.5</ele><time>2026-03-29T07:06:51Z</time></trkpt><trkpt lat="43.76914458959669" lon="11.1272273087968"><ele>35.75</ele><time>2026-03-29T07:06:53Z</time></trkpt><trkpt lat="43.76916556017035" lon="11.127063062142152"><ele>36.0</ele><time>2026-03-29T07:06:55Z</time></trkpt><trkpt lat="43.76918912877592" lon="11.12689985942181"><ele>36.0</ele><time>2026-03-29T07:06:57Z</time></trkpt><trkpt lat="43.769213178023456" lon="11.126735497530056"><ele>36.0</ele><time>2026-03-29T07:06:59Z</time></trkpt><trkpt lat="43.769243292004404" lon="11.126576549179566"><ele>36.0</ele><time>2026-03-29T07:07:01Z</time></trkpt><trkpt lat="43.769266702679445" lon="11.12641677273141"><ele>36.0</ele><time>2026-03-29T07:07:03Z</time></trkpt><trkpt lat="43.769311066053255" lon="11.12624958047614"><ele>35.75</ele><time>2026-03-29T07:07:05Z</time></trkpt><trkpt lat="43.769352091785926" lon="11.126098392067885"><ele>35.5</ele><time>2026-03-29T07:07:07Z</time></trkpt><trkpt lat="43.76938844209317" lon="11.125940453669985"><ele>35.25</ele><time>2026-03-29T07:07:09Z</time></trkpt><trkpt lat="43.769442406770345" lon="11.125792600984937"><ele>35.0</ele><time>2026-03-29T07:07:11Z</time></trkpt><trkpt lat="43.769468655733846" lon="11.125646605515236"><ele>35.4</ele><time>2026-03-29T07:07:13Z</time></trkpt><trkpt lat="43.769509593213506" lon="11.125494068035248"><ele>35.8</ele><time>2026-03-29T07:07:15Z</time></trkpt><trkpt lat="43.76954175143118" lon="11.125354652658855"><ele>36.2</ele><time>2026-03-29T07:07:17Z</time></trkpt><trkpt lat="43.76957524069196" lon="11.125210785697561"><ele>36.6</ele><time>2026-03-29T07:07:19Z</time></trkpt><trkpt lat="43.76961073145113" lon="11.125075417737202"><ele>37.0</ele><time>2026-03-29T07:07:21Z</time></trkpt><trkpt lat="43.7696449136274" lon="11.124937841925604"><ele>36.6</ele><time>2026-03-29T07:07:23Z</time></trkpt><trkpt lat="43.76967392506013" lon="11.124792456804546"><ele>36.2</ele><time>2026-03-29T07:07:25Z</time></trkpt><trkpt lat="43.769704935192244" lon="11.124655951124847"><ele>35.8</ele><time>2026-03-29T07:07:27Z</time></trkpt><trkpt lat="43.76972904133017" lon="11.12451507365752"><ele>35.4</ele><time>2026-03-29T07:07:29Z</time></trkpt><trkpt lat="43.769746769349084" lon="11.124374631427063"><ele>35.0</ele><time>2026-03-29T07:07:31Z</time></trkpt><trkpt lat="43.76975619480773" lon="11.124237563966055"><ele>35.0</ele><time>2026-03-29T07:07:33Z</time></trkpt><trkpt lat="43.76975783924179" lon="11.124097485698993"><ele>35.0</ele><time>2026-03-29T07:07:35Z</time></trkpt><trkpt lat="43.76975637771509" lon="11.123947923648469"><ele>35.0</ele><time>2026-03-29T07:07:37Z</time></trkpt><trkpt lat="43.76975328004488" lon="11.123809100214759"><ele>35.0</ele><time>2026-03-29T07:07:39Z</time></trkpt><trkpt lat="43.769749195626" lon="11.12366056866419"><ele>35.0</ele><time>2026-03-29T07:07:41Z</time></trkpt><trkpt lat="43.76974293348721" lon="11.123521077487442"><ele>35.2</ele><time>2026-03-29T07:07:43Z</time></trkpt><trkpt lat="43.769742121856716" lon="11.123377806507571"><ele>35.4</ele><time>2026-03-29T07:07:45Z</time></trkpt><trkpt lat="43.76974881584257" lon="11.123233754534297"><ele>35.6</ele><time>2026-03-29T07:07:47Z</time></trkpt><trkpt lat="43.769742348763735" lon="11.12308972168444"><ele>35.8</ele><time>2026-03-29T07:07:49Z</time></trkpt><trkpt lat="43.76974352602587" lon="11.122939652734528"><ele>36.0</ele><time>2026-03-29T07:07:51Z</time></trkpt><trkpt lat="43.76973635106385" lon="11.122796329164961"><ele>36.0</ele><time>2026-03-29T07:07:53Z</time></trkpt><trkpt lat="43.769732372152724" lon="11.122626585169996"><ele>36.0</ele><time>2026-03-29T07:07:55Z</time></trkpt><trkpt lat="43.76973338026741" lon="11.122456656710193"><ele>36.0</ele><time>2026-03-29T07:07:57Z</time></trkpt><trkpt lat="43.76973229411883" lon="11.122283837613296"><ele>36.0</ele><time>2026-03-29T07:07:59Z</time></trkpt><trkpt lat="43.769737004880625" lon="11.122193029400076"><ele>36.0</ele><time>2026-03-29T07:08:00Z</time></trkpt><trkpt lat="43.76972981189803" lon="11.122105239345865"><ele>36.166666666666664</ele><time>2026-03-29T07:08:01Z</time></trkpt><trkpt lat="43.76972599042902" lon="11.122013852831323"><ele>36.333333333333336</ele><time>2026-03-29T07:08:02Z</time></trkpt><trkpt lat="43.769723787534645" lon="11.121923853206486"><ele>36.5</ele><time>2026-03-29T07:08:03Z</time></trkpt><trkpt lat="43.76972328393755" lon="11.121834470541378"><ele>36.66666666666667</ele><time>2026-03-29T07:08:04Z</time></trkpt><trkpt lat="43.76972173516745" lon="11.121661436598172"><ele>36.833333333333336</ele><time>2026-03-29T07:08:06Z</time></trkpt><trkpt lat="43.769715793597975" lon="11.121572804441286"><ele>37.0</ele><time>2026-03-29T07:08:07Z</time></trkpt><trkpt lat="43.76971355194405" lon="11.121474494617724"><ele>36.714285714285715</ele><time>2026-03-29T07:08:08Z</time></trkpt><trkpt lat="43.76971396315552" lon="11.121378088783175"><ele>36.42857142857143</ele><time>2026-03-29T07:08:09Z</time></trkpt><trkpt lat="43.769729759782635" lon="11.121283800692161"><ele>36.14285714285714</ele><time>2026-03-29T07:08:10Z</time></trkpt><trkpt lat="43.76976187253251" lon="11.121196281416813"><ele>35.85714285714286</ele><time>2026-03-29T07:08:11Z</time></trkpt><trkpt lat="43.76979972457742" lon="11.121112568070487"><ele>35.57142857142857</ele><time>2026-03-29T07:08:12Z</time></trkpt><trkpt lat="43.76984020093962" lon="11.121032168609059"><ele>35.285714285714285</ele><time>2026-03-29T07:08:13Z</time></trkpt><trkpt lat="43.76987505115332" lon="11.120952312939076"><ele>35.0</ele><time>2026-03-29T07:08:14Z</time></trkpt><trkpt lat="43.76989506153905" lon="11.120862054106036"><ele>35.0</ele><time>2026-03-29T07:08:15Z</time></trkpt><trkpt lat="43.7698890239027" lon="11.120763078918012"><ele>35.0</ele><time>2026-03-29T07:08:16Z</time></trkpt><trkpt lat="43.769853067962146" lon="11.120676068906866"><ele>35.0</ele><time>2026-03-29T07:08:17Z</time></trkpt><trkpt lat="43.76976971838058" lon="11.120526622157666"><ele>35.0</ele><time>2026-03-29T07:08:19Z</time></trkpt><trkpt lat="43.76973400676414" lon="11.120446147025238"><ele>35.0</ele><time>2026-03-29T07:08:20Z</time></trkpt><trkpt lat="43.76971415000644" lon="11.120351834026385"><ele>35.0</ele><time>2026-03-29T07:08:21Z</time></trkpt><trkpt lat="43.76970637748017" lon="11.120254671320257"><ele>35.2</ele><time>2026-03-29T07:08:22Z</time></trkpt><trkpt lat="43.769704582770224" lon="11.120165031141942"><ele>35.4</ele><time>2026-03-29T07:08:23Z</time></trkpt><trkpt lat="43.76970916188694" lon="11.119989947937466"><ele>35.6</ele><time>2026-03-29T07:08:25Z</time></trkpt><trkpt lat="43.769710791775104" lon="11.119818091578763"><ele>35.8</ele><time>2026-03-29T07:08:27Z</time></trkpt><trkpt lat="43.76970291628294" lon="11.119652167978481"><ele>36.0</ele><time>2026-03-29T07:08:29Z</time></trkpt><trkpt lat="43.76970682400995" lon="11.119491313927503"><ele>36.0</ele><time>2026-03-29T07:08:31Z</time></trkpt><trkpt lat="43.76971644977725" lon="11.119326488759258"><ele>36.0</ele><time>2026-03-29T07:08:33Z</time></trkpt><trkpt lat="43.76972434544217" lon="11.119237003519196"><ele>36.0</ele><time>2026-03-29T07:08:34Z</time></trkpt><trkpt lat="43.76973068299336" lon="11.1190707905601"><ele>36.0</ele><time>2026-03-29T07:08:36Z</time></trkpt><trkpt lat="43.76973664874531" lon="11.11891427916977"><ele>36.0</ele><time>2026-03-29T07:08:38Z</time></trkpt><trkpt lat="43.76974338074621" lon="11.118746158665644"><ele>36.0</ele><time>2026-03-29T07:08:40Z</time></trkpt><trkpt lat="43.769741754858934" lon="11.118573098110327"><ele>36.0</ele><time>2026-03-29T07:08:42Z</time></trkpt><trkpt lat="43.769754757823215" lon="11.118427228972699"><ele>36.0</ele><time>2026-03-29T07:08:44Z</time></trkpt><trkpt lat="43.76975934173774" lon="11.118266155657631"><ele>36.0</ele><time>2026-03-29T07:08:46Z</time></trkpt><trkpt lat="43.76975881867333" lon="11.118100605350651"><ele>35.75</ele><time>2026-03-29T07:08:48Z</time></trkpt><trkpt lat="43.769765249679075" lon="11.117936565716438"><ele>35.5</ele><time>2026-03-29T07:08:50Z</time></trkpt><trkpt lat="43.76977293391498" lon="11.117777771758249"><ele>35.25</ele><time>2026-03-29T07:08:52Z</time></trkpt><trkpt lat="43.76977617064385" lon="11.117613176508614"><ele>35.0</ele><time>2026-03-29T07:08:54Z</time></trkpt><trkpt lat="43.76978064512549" lon="11.1174507626227"><ele>35.5</ele><time>2026-03-29T07:08:56Z</time></trkpt><trkpt lat="43.76978989701936" lon="11.117284857526549"><ele>36.0</ele><time>2026-03-29T07:08:58Z</time></trkpt><trkpt lat="43.76978966924539" lon="11.117122199593323"><ele>36.5</ele><time>2026-03-29T07:09:00Z</time></trkpt><trkpt lat="43.76979314316164" lon="11.116961947462524"><ele>37.0</ele><time>2026-03-29T07:09:02Z</time></trkpt><trkpt lat="43.76979163763674" lon="11.11679953386434"><ele>37.0</ele><time>2026-03-29T07:09:04Z</time></trkpt><trkpt lat="43.76979649838312" lon="11.116635203205817"><ele>37.0</ele><time>2026-03-29T07:09:06Z</time></trkpt><trkpt lat="43.76980177135634" lon="11.116473317578059"><ele>37.0</ele><time>2026-03-29T07:09:08Z</time></trkpt><trkpt lat="43.769804456105405" lon="11.116310824974793"><ele>37.0</ele><time>2026-03-29T07:09:10Z</time></trkpt><trkpt lat="43.76980619496175" lon="11.11615081267933"><ele>37.0</ele><time>2026-03-29T07:09:12Z</time></trkpt><trkpt lat="43.76981079555144" lon="11.115986597216978"><ele>37.0</ele><time>2026-03-29T07:09:14Z</time></trkpt><trkpt lat="43.76981390401743" lon="11.115823419746132"><ele>37.0</ele><time>2026-03-29T07:09:16Z</time></trkpt><trkpt lat="43.76982083855073" lon="11.115660247404763"><ele>37.0</ele><time>2026-03-29T07:09:18Z</time></trkpt><trkpt lat="43.769823960480515" lon="11.115494969829475"><ele>36.75</ele><time>2026-03-29T07:09:20Z</time></trkpt><trkpt lat="43.76982794447999" lon="11.11532602421677"><ele>36.5</ele><time>2026-03-29T07:09:22Z</time></trkpt><trkpt lat="43.769836859588516" lon="11.115161786582966"><ele>36.25</ele><time>2026-03-29T07:09:24Z</time></trkpt><trkpt lat="43.76984969563688" lon="11.114999801552758"><ele>36.0</ele><time>2026-03-29T07:09:26Z</time></trkpt><trkpt lat="43.769865913939" lon="11.114838367054059"><ele>36.6</ele><time>2026-03-29T07:09:28Z</time></trkpt><trkpt lat="43.7698810971357" lon="11.114672011533251"><ele>37.2</ele><time>2026-03-29T07:09:30Z</time></trkpt><trkpt lat="43.76989620329376" lon="11.114519492814955"><ele>37.8</ele><time>2026-03-29T07:09:32Z</time></trkpt><trkpt lat="43.769916995503266" lon="11.114384579236292"><ele>38.4</ele><time>2026-03-29T07:09:34Z</time></trkpt><trkpt lat="43.76995081848681" lon="11.114249119786788"><ele>39.0</ele><time>2026-03-29T07:09:36Z</time></trkpt><trkpt lat="43.76998581174474" lon="11.114085988317019"><ele>38.75</ele><time>2026-03-29T07:09:38Z</time></trkpt><trkpt lat="43.77002881074675" lon="11.113918340028704"><ele>38.5</ele><time>2026-03-29T07:09:40Z</time></trkpt><trkpt lat="43.77006766864516" lon="11.113756081678444"><ele>38.25</ele><time>2026-03-29T07:09:42Z</time></trkpt><trkpt lat="43.77010351745704" lon="11.113589589501034"><ele>38.0</ele><time>2026-03-29T07:09:44Z</time></trkpt><trkpt lat="43.7701259929032" lon="11.113423016430074"><ele>38.0</ele><time>2026-03-29T07:09:46Z</time></trkpt><trkpt lat="43.770130109521844" lon="11.113258814779082"><ele>38.0</ele><time>2026-03-29T07:09:48Z</time></trkpt><trkpt lat="43.77013527677154" lon="11.113093975792019"><ele>38.0</ele><time>2026-03-29T07:09:50Z</time></trkpt><trkpt lat="43.77022963694707" lon="11.112986072532857"><ele>38.0</ele><time>2026-03-29T07:09:52Z</time></trkpt><trkpt lat="43.770260388109875" lon="11.112908164242212"><ele>38.0</ele><time>2026-03-29T07:09:53Z</time></trkpt><trkpt lat="43.77028867877102" lon="11.112744071744247"><ele>37.5</ele><time>2026-03-29T07:09:55Z</time></trkpt><trkpt lat="43.770337208301" lon="11.112591510469807"><ele>37.0</ele><time>2026-03-29T07:09:57Z</time></trkpt><trkpt lat="43.77037337682429" lon="11.112440396965859"><ele>36.5</ele><time>2026-03-29T07:09:59Z</time></trkpt><trkpt lat="43.770414299715625" lon="11.112280162494008"><ele>36.0</ele><time>2026-03-29T07:10:01Z</time></trkpt><trkpt lat="43.77045340094999" lon="11.11212772872543"><ele>36.0</ele><time>2026-03-29T07:10:03Z</time></trkpt><trkpt lat="43.77049472400115" lon="11.111970047599437"><ele>36.0</ele><time>2026-03-29T07:10:05Z</time></trkpt><trkpt lat="43.770526703974056" lon="11.111809042919786"><ele>36.0</ele><time>2026-03-29T07:10:07Z</time></trkpt><trkpt lat="43.77056394332693" lon="11.111655348090618"><ele>36.0</ele><time>2026-03-29T07:10:09Z</time></trkpt><trkpt lat="43.770605706686865" lon="11.111502920818994"><ele>36.0</ele><time>2026-03-29T07:10:11Z</time></trkpt><trkpt lat="43.77064740455326" lon="11.111352739310739"><ele>36.0</ele><time>2026-03-29T07:10:13Z</time></trkpt><trkpt lat="43.77068402168009" lon="11.111190553923825"><ele>36.0</ele><time>2026-03-29T07:10:15Z</time></trkpt><trkpt lat="43.77069975795327" lon="11.111026091295614"><ele>36.0</ele><time>2026-03-29T07:10:17Z</time></trkpt><trkpt lat="43.77071221585351" lon="11.110864578129299"><ele>36.4</ele><time>2026-03-29T07:10:19Z</time></trkpt><trkpt lat="43.77074028675888" lon="11.110708603706003"><ele>36.8</ele><time>2026-03-29T07:10:21Z</time></trkpt><trkpt lat="43.77076470073816" lon="11.110545641118996"><ele>37.199999999999996</ele><time>2026-03-29T07:10:23Z</time></trkpt><trkpt lat="43.77079215786709" lon="11.110403313035661"><ele>37.6</ele><time>2026-03-29T07:10:25Z</time></trkpt><trkpt lat="43.77082768760685" lon="11.110271480797318"><ele>38.0</ele><time>2026-03-29T07:10:27Z</time></trkpt><trkpt lat="43.770866023831424" lon="11.110133156103306"><ele>38.0</ele><time>2026-03-29T07:10:29Z</time></trkpt><trkpt lat="43.770886897230135" lon="11.1099890058087"><ele>38.0</ele><time>2026-03-29T07:10:31Z</time></trkpt><trkpt lat="43.770926700189705" lon="11.109847261064536"><ele>38.0</ele><time>2026-03-29T07:10:33Z</time></trkpt><trkpt lat="43.77095482465671" lon="11.109698137610803"><ele>38.0</ele><time>2026-03-29T07:10:35Z</time></trkpt><trkpt lat="43.77098070615162" lon="11.109549997727912"><ele>38.0</ele><time>2026-03-29T07:10:37Z</time></trkpt><trkpt lat="43.77099751117931" lon="11.1094021508419"><ele>38.0</ele><time>2026-03-29T07:10:39Z</time></trkpt><trkpt lat="43.771014752163325" lon="11.109246679108077"><ele>38.0</ele><time>2026-03-29T07:10:41Z</time></trkpt><trkpt lat="43.77104981424387" lon="11.1091120447312"><ele>38.0</ele><time>2026-03-29T07:10:43Z</time></trkpt><trkpt lat="43.77108653726212" lon="11.108986286554911"><ele>38.0</ele><time>2026-03-29T07:10:45Z</time></trkpt><trkpt lat="43.77113136061975" lon="11.10905188660969"><ele>38.0</ele><time>2026-03-29T07:10:46Z</time></trkpt><trkpt lat="43.77123932007131" lon="11.109081916887359"><ele>37.6</ele><time>2026-03-29T07:10:48Z</time></trkpt><trkpt lat="43.77133772238347" lon="11.109105974080615"><ele>37.199999999999996</ele><time>2026-03-29T07:10:50Z</time></trkpt><trkpt lat="43.77145026016581" lon="11.109065854132645"><ele>36.8</ele><time>2026-03-29T07:10:52Z</time></trkpt><trkpt lat="43.771493161498285" lon="11.108996617427916"><ele>36.4</ele><time>2026-03-29T07:10:53Z</time></trkpt><trkpt lat="43.771521044888814" lon="11.108841837439083"><ele>36.0</ele><time>2026-03-29T07:10:55Z</time></trkpt><trkpt lat="43.771575000331595" lon="11.108706305445189"><ele>36.0</ele><time>2026-03-29T07:10:57Z</time></trkpt><trkpt lat="43.77161881911818" lon="11.10856838445236"><ele>36.0</ele><time>2026-03-29T07:10:59Z</time></trkpt><trkpt lat="43.77167117763866" lon="11.108432164141888"><ele>36.0</ele><time>2026-03-29T07:11:01Z</time></trkpt><trkpt lat="43.77170348810374" lon="11.108283805128352"><ele>36.0</ele><time>2026-03-29T07:11:03Z</time></trkpt><trkpt lat="43.77175156246305" lon="11.108149737015342"><ele>36.0</ele><time>2026-03-29T07:11:05Z</time></trkpt><trkpt lat="43.7717991786907" lon="11.108005286486895"><ele>36.0</ele><time>2026-03-29T07:11:07Z</time></trkpt><trkpt lat="43.77184642494405" lon="11.1078713449237"><ele>36.0</ele><time>2026-03-29T07:11:09Z</time></trkpt><trkpt lat="43.77189135144455" lon="11.107721449205965"><ele>36.0</ele><time>2026-03-29T07:11:11Z</time></trkpt><trkpt lat="43.771931841828454" lon="11.107580651620363"><ele>36.0</ele><time>2026-03-29T07:11:13Z</time></trkpt><trkpt lat="43.771973398855536" lon="11.10744197144966"><ele>36.0</ele><time>2026-03-29T07:11:15Z</time></trkpt><trkpt lat="43.772025799046645" lon="11.107315856329144"><ele>36.0</ele><time>2026-03-29T07:11:17Z</time></trkpt><trkpt lat="43.77206395268612" lon="11.107190432612134"><ele>36.0</ele><time>2026-03-29T07:11:19Z</time></trkpt><trkpt lat="43.77209180624017" lon="11.107055577189778"><ele>36.0</ele><time>2026-03-29T07:11:21Z</time></trkpt><trkpt lat="43.77213496782093" lon="11.10692801012344"><ele>36.0</ele><time>2026-03-29T07:11:23Z</time></trkpt><trkpt lat="43.7721656945727" lon="11.10679477202417"><ele>36.0</ele><time>2026-03-29T07:11:25Z</time></trkpt><trkpt lat="43.772167316280246" lon="11.106655447744476"><ele>36.0</ele><time>2026-03-29T07:11:27Z</time></trkpt><trkpt lat="43.77212483894705" lon="11.106522887750225"><ele>36.0</ele><time>2026-03-29T07:11:29Z</time></trkpt><trkpt lat="43.77204437564099" lon="11.106422668683715"><ele>36.0</ele><time>2026-03-29T07:11:31Z</time></trkpt><trkpt lat="43.77195257976589" lon="11.106347022179888"><ele>36.0</ele><time>2026-03-29T07:11:33Z</time></trkpt><trkpt lat="43.77186580778686" lon="11.106253434550757"><ele>36.0</ele><time>2026-03-29T07:11:35Z</time></trkpt><trkpt lat="43.77179271716927" lon="11.10614642982533"><ele>36.0</ele><time>2026-03-29T07:11:37Z</time></trkpt><trkpt lat="43.771724848103354" lon="11.106143564549198"><ele>36.0</ele><time>2026-03-29T07:11:39Z</time></trkpt><trkpt lat="43.77177763105217" lon="11.105951778880302"><ele>36.0</ele><time>2026-03-29T07:11:40Z</time></trkpt><trkpt lat="43.771789701630205" lon="11.105799228279533"><ele>36.0</ele><time>2026-03-29T07:11:42Z</time></trkpt><trkpt lat="43.77179187427183" lon="11.105648722845425"><ele>36.0</ele><time>2026-03-29T07:11:44Z</time></trkpt><trkpt lat="43.77181725989948" lon="11.105492973782091"><ele>36.0</ele><time>2026-03-29T07:11:46Z</time></trkpt><trkpt lat="43.77183091674216" lon="11.105342793126631"><ele>36.0</ele><time>2026-03-29T07:11:48Z</time></trkpt><trkpt lat="43.771844081618646" lon="11.10519203425855"><ele>36.0</ele><time>2026-03-29T07:11:50Z</time></trkpt><trkpt lat="43.77185825921118" lon="11.105048837682464"><ele>36.0</ele><time>2026-03-29T07:11:52Z</time></trkpt><trkpt lat="43.77186199313144" lon="11.104910658586139"><ele>36.0</ele><time>2026-03-29T07:11:54Z</time></trkpt><trkpt lat="43.771867369226094" lon="11.104777854298561"><ele>35.4</ele><time>2026-03-29T07:11:56Z</time></trkpt><trkpt lat="43.77186869956108" lon="11.104647534740328"><ele>34.8</ele><time>2026-03-29T07:11:58Z</time></trkpt><trkpt lat="43.771875277256086" lon="11.104520326231107"><ele>34.199999999999996</ele><time>2026-03-29T07:12:00Z</time></trkpt><trkpt lat="43.77187428336075" lon="11.104388286783902"><ele>33.6</ele><time>2026-03-29T07:12:02Z</time></trkpt><trkpt lat="43.771882885231676" lon="11.104258210883382"><ele>33.0</ele><time>2026-03-29T07:12:04Z</time></trkpt><trkpt lat="43.77188588030911" lon="11.104119740680122"><ele>33.4</ele><time>2026-03-29T07:12:06Z</time></trkpt><trkpt lat="43.77188906085979" lon="11.103980639074296"><ele>33.8</ele><time>2026-03-29T07:12:08Z</time></trkpt><trkpt lat="43.771888914552726" lon="11.10384037967542"><ele>34.2</ele><time>2026-03-29T07:12:10Z</time></trkpt><trkpt lat="43.77189056841089" lon="11.10369554897985"><ele>34.6</ele><time>2026-03-29T07:12:12Z</time></trkpt><trkpt lat="43.77189168655751" lon="11.103551669132187"><ele>35.0</ele><time>2026-03-29T07:12:14Z</time></trkpt><trkpt lat="43.77189786845318" lon="11.103405548983117"><ele>35.0</ele><time>2026-03-29T07:12:16Z</time></trkpt><trkpt lat="43.77190835142994" lon="11.103252641045518"><ele>35.0</ele><time>2026-03-29T07:12:18Z</time></trkpt><trkpt lat="43.77191119732694" lon="11.103108574332376"><ele>35.0</ele><time>2026-03-29T07:12:20Z</time></trkpt><trkpt lat="43.77189479424099" lon="11.102946820825276"><ele>35.0</ele><time>2026-03-29T07:12:22Z</time></trkpt><trkpt lat="43.77189541926531" lon="11.102799706991318"><ele>35.0</ele><time>2026-03-29T07:12:24Z</time></trkpt><trkpt lat="43.771895244426794" lon="11.102662230042737"><ele>35.0</ele><time>2026-03-29T07:12:26Z</time></trkpt><trkpt lat="43.77190310273544" lon="11.102512740205148"><ele>35.0</ele><time>2026-03-29T07:12:28Z</time></trkpt><trkpt lat="43.77190668632368" lon="11.102365829579304"><ele>35.0</ele><time>2026-03-29T07:12:30Z</time></trkpt><trkpt lat="43.77190570178756" lon="11.102220390044684"><ele>35.0</ele><time>2026-03-29T07:12:32Z</time></trkpt><trkpt lat="43.77190947449048" lon="11.102073999972509"><ele>35.0</ele><time>2026-03-29T07:12:34Z</time></trkpt><trkpt lat="43.771912642976325" lon="11.101926921371014"><ele>35.0</ele><time>2026-03-29T07:12:36Z</time></trkpt><trkpt lat="43.771915410220394" lon="11.101777605173433"><ele>35.0</ele><time>2026-03-29T07:12:38Z</time></trkpt><trkpt lat="43.77191821364381" lon="11.10162828797684"><ele>35.0</ele><time>2026-03-29T07:12:40Z</time></trkpt><trkpt lat="43.771917766290414" lon="11.101473165404853"><ele>35.0</ele><time>2026-03-29T07:12:42Z</time></trkpt><trkpt lat="43.77191956875066" lon="11.101319656647787"><ele>35.0</ele><time>2026-03-29T07:12:44Z</time></trkpt><trkpt lat="43.77192181349599" lon="11.10116405455588"><ele>35.0</ele><time>2026-03-29T07:12:46Z</time></trkpt><trkpt lat="43.77193074398291" lon="11.101006564623459"><ele>35.0</ele><time>2026-03-29T07:12:48Z</time></trkpt><trkpt lat="43.77193730357268" lon="11.100851360636307"><ele>35.0</ele><time>2026-03-29T07:12:50Z</time></trkpt><trkpt lat="43.771945857743816" lon="11.100692231993037"><ele>35.0</ele><time>2026-03-29T07:12:52Z</time></trkpt><trkpt lat="43.7719507624393" lon="11.100533242760921"><ele>35.5</ele><time>2026-03-29T07:12:54Z</time></trkpt><trkpt lat="43.77195722453755" lon="11.100376357864826"><ele>36.0</ele><time>2026-03-29T07:12:56Z</time></trkpt><trkpt lat="43.771969945276666" lon="11.100218759658302"><ele>36.5</ele><time>2026-03-29T07:12:58Z</time></trkpt><trkpt lat="43.77198642972234" lon="11.100065622311519"><ele>37.0</ele><time>2026-03-29T07:13:00Z</time></trkpt><trkpt lat="43.77198299711631" lon="11.099904119234731"><ele>37.0</ele><time>2026-03-29T07:13:02Z</time></trkpt><trkpt lat="43.77199218273133" lon="11.099737797337317"><ele>37.0</ele><time>2026-03-29T07:13:04Z</time></trkpt><trkpt lat="43.772001249963296" lon="11.09957685012176"><ele>37.0</ele><time>2026-03-29T07:13:06Z</time></trkpt><trkpt lat="43.772021413035745" lon="11.099417452982449"><ele>37.0</ele><time>2026-03-29T07:13:08Z</time></trkpt><trkpt lat="43.772031057723055" lon="11.099174340356502"><ele>37.0</ele><time>2026-03-29T07:13:11Z</time></trkpt><trkpt lat="43.772018592038854" lon="11.099088688375108"><ele>37.0</ele><time>2026-03-29T07:13:12Z</time></trkpt><trkpt lat="43.77203835248721" lon="11.098990462045863"><ele>37.0</ele><time>2026-03-29T07:13:13Z</time></trkpt><trkpt lat="43.77202991894184" lon="11.098851755872559"><ele>37.0</ele><time>2026-03-29T07:13:15Z</time></trkpt><trkpt lat="43.772053549106566" lon="11.098690947460252"><ele>37.0</ele><time>2026-03-29T07:13:17Z</time></trkpt><trkpt lat="43.772051747132494" lon="11.098523206176386"><ele>36.800000000000004</ele><time>2026-03-29T07:13:19Z</time></trkpt><trkpt lat="43.772061094918776" lon="11.09837797351135"><ele>36.6</ele><time>2026-03-29T07:13:21Z</time></trkpt><trkpt lat="43.7720636685009" lon="11.098234305427347"><ele>36.400000000000006</ele><time>2026-03-29T07:13:23Z</time></trkpt><trkpt lat="43.77207718549378" lon="11.098086193471294"><ele>36.2</ele><time>2026-03-29T07:13:25Z</time></trkpt><trkpt lat="43.77207782446441" lon="11.097951375072242"><ele>36.0</ele><time>2026-03-29T07:13:27Z</time></trkpt><trkpt lat="43.77209184245497" lon="11.097804258287095"><ele>35.833333333333336</ele><time>2026-03-29T07:13:29Z</time></trkpt><trkpt lat="43.77208171173991" lon="11.097660189341578"><ele>35.666666666666664</ele><time>2026-03-29T07:13:31Z</time></trkpt><trkpt lat="43.772123723646395" lon="11.097578739459443"><ele>35.5</ele><time>2026-03-29T07:13:33Z</time></trkpt><trkpt lat="43.77214632838237" lon="11.09748477564915"><ele>35.33333333333333</ele><time>2026-03-29T07:14:36Z</time></trkpt><trkpt lat="43.77216334866299" lon="11.097345881319168"><ele>35.166666666666664</ele><time>2026-03-29T07:14:39Z</time></trkpt><trkpt lat="43.77216173976499" lon="11.09721474702682"><ele>35.0</ele><time>2026-03-29T07:14:41Z</time></trkpt><trkpt lat="43.772173955616374" lon="11.097068662358812"><ele>34.8</ele><time>2026-03-29T07:14:43Z</time></trkpt><trkpt lat="43.7721781320677" lon="11.096911030636818"><ele>34.6</ele><time>2026-03-29T07:14:45Z</time></trkpt><trkpt lat="43.772183565618334" lon="11.096741159063109"><ele>34.4</ele><time>2026-03-29T07:14:47Z</time></trkpt><trkpt lat="43.77218820587951" lon="11.096651838788398"><ele>34.2</ele><time>2026-03-29T07:14:48Z</time></trkpt><trkpt lat="43.77219101177957" lon="11.096563821796797"><ele>34.0</ele><time>2026-03-29T07:14:49Z</time></trkpt><trkpt lat="43.77219459789153" lon="11.096412444718137"><ele>33.833333333333336</ele><time>2026-03-29T07:14:51Z</time></trkpt><trkpt lat="43.77215248684953" lon="11.096324193160704"><ele>33.66666666666667</ele><time>2026-03-29T07:14:53Z</time></trkpt><trkpt lat="43.77212688919229" lon="11.09622143602072"><ele>33.5</ele><time>2026-03-29T07:14:55Z</time></trkpt><trkpt lat="43.77212267922112" lon="11.096102939340069"><ele>33.333333333333336</ele><time>2026-03-29T07:14:57Z</time></trkpt><trkpt lat="43.77210301071976" lon="11.095958815323986"><ele>33.166666666666664</ele><time>2026-03-29T07:14:59Z</time></trkpt><trkpt lat="43.77215190700725" lon="11.095903069265422"><ele>33.0</ele><time>2026-03-29T07:15:00Z</time></trkpt><trkpt lat="43.772151133326716" lon="11.095805547148343"><ele>33.25</ele><time>2026-03-29T07:15:01Z</time></trkpt><trkpt lat="43.7721506503984" lon="11.09564411578036"><ele>33.5</ele><time>2026-03-29T07:15:03Z</time></trkpt><trkpt lat="43.772152076803586" lon="11.09548820061305"><ele>33.75</ele><time>2026-03-29T07:15:05Z</time></trkpt><trkpt lat="43.77215703249352" lon="11.095326913466259"><ele>34.0</ele><time>2026-03-29T07:15:07Z</time></trkpt><trkpt lat="43.77216107913886" lon="11.095167659818479"><ele>34.0</ele><time>2026-03-29T07:15:09Z</time></trkpt><trkpt lat="43.772163909454996" lon="11.09500848686331"><ele>34.0</ele><time>2026-03-29T07:15:11Z</time></trkpt><trkpt lat="43.77216666756245" lon="11.094853374642774"><ele>34.0</ele><time>2026-03-29T07:15:13Z</time></trkpt><trkpt lat="43.77216922877309" lon="11.094691508896535"><ele>34.0</ele><time>2026-03-29T07:15:15Z</time></trkpt><trkpt lat="43.77217143189351" lon="11.094531318843554"><ele>34.25</ele><time>2026-03-29T07:15:17Z</time></trkpt><trkpt lat="43.77217820473678" lon="11.094370798501332"><ele>34.5</ele><time>2026-03-29T07:15:19Z</time></trkpt><trkpt lat="43.7721966266954" lon="11.094209409086766"><ele>34.75</ele><time>2026-03-29T07:15:21Z</time></trkpt><trkpt lat="43.77222028900574" lon="11.094046647429955"><ele>35.0</ele><time>2026-03-29T07:15:23Z</time></trkpt><trkpt lat="43.77224168998712" lon="11.093886679235405"><ele>35.0</ele><time>2026-03-29T07:15:25Z</time></trkpt><trkpt lat="43.77226166861601" lon="11.093723267656985"><ele>35.0</ele><time>2026-03-29T07:15:27Z</time></trkpt><trkpt lat="43.7722821586587" lon="11.093555673261656"><ele>35.0</ele><time>2026-03-29T07:15:29Z</time></trkpt><trkpt lat="43.77228766932795" lon="11.093385610253208"><ele>35.0</ele><time>2026-03-29T07:15:31Z</time></trkpt><trkpt lat="43.77230670546362" lon="11.093225885462298"><ele>35.0</ele><time>2026-03-29T07:15:33Z</time></trkpt><trkpt lat="43.77232021520353" lon="11.093069452789882"><ele>35.0</ele><time>2026-03-29T07:15:35Z</time></trkpt><trkpt lat="43.77234329221101" lon="11.092917793005505"><ele>35.0</ele><time>2026-03-29T07:15:37Z</time></trkpt><trkpt lat="43.77235902516983" lon="11.092762969807943"><ele>35.0</ele><time>2026-03-29T07:15:39Z</time></trkpt><trkpt lat="43.7723884312423" lon="11.092623665286764"><ele>35.0</ele><time>2026-03-29T07:15:41Z</time></trkpt><trkpt lat="43.77242356091057" lon="11.092470224091311"><ele>35.75</ele><time>2026-03-29T07:15:43Z</time></trkpt><trkpt lat="43.772446090695574" lon="11.092311572792285"><ele>36.5</ele><time>2026-03-29T07:15:45Z</time></trkpt><trkpt lat="43.772455285689055" lon="11.09214672013135"><ele>37.25</ele><time>2026-03-29T07:15:47Z</time></trkpt><trkpt lat="43.77245250385383" lon="11.091980599158271"><ele>38.0</ele><time>2026-03-29T07:15:49Z</time></trkpt><trkpt lat="43.77245200704897" lon="11.09181037179584"><ele>38.0</ele><time>2026-03-29T07:15:51Z</time></trkpt><trkpt lat="43.772462553706525" lon="11.091639285673818"><ele>38.0</ele><time>2026-03-29T07:15:53Z</time></trkpt><trkpt lat="43.772494103317335" lon="11.091472981192064"><ele>38.0</ele><time>2026-03-29T07:15:55Z</time></trkpt><trkpt lat="43.772530742174254" lon="11.091310066800778"><ele>38.0</ele><time>2026-03-29T07:15:57Z</time></trkpt><trkpt lat="43.77258829165095" lon="11.091164375407647"><ele>37.75</ele><time>2026-03-29T07:15:59Z</time></trkpt><trkpt lat="43.77264232006838" lon="11.091013043934506"><ele>37.5</ele><time>2026-03-29T07:16:01Z</time></trkpt><trkpt lat="43.77270459700454" lon="11.090871237674175"><ele>37.25</ele><time>2026-03-29T07:16:03Z</time></trkpt><trkpt lat="43.77277169674989" lon="11.090734398850806"><ele>37.0</ele><time>2026-03-29T07:16:05Z</time></trkpt><trkpt lat="43.772819070994345" lon="11.090585655792507"><ele>37.8</ele><time>2026-03-29T07:16:07Z</time></trkpt><trkpt lat="43.77288447510498" lon="11.090472107603578"><ele>38.6</ele><time>2026-03-29T07:16:09Z</time></trkpt><trkpt lat="43.77295112897867" lon="11.090345145007074"><ele>39.4</ele><time>2026-03-29T07:16:11Z</time></trkpt><trkpt lat="43.773013326939065" lon="11.090206676695807"><ele>40.199999999999996</ele><time>2026-03-29T07:16:13Z</time></trkpt><trkpt lat="43.77308150818632" lon="11.0901113720965"><ele>41.0</ele><time>2026-03-29T07:16:15Z</time></trkpt><trkpt lat="43.77312581292401" lon="11.089961980735907"><ele>41.199999999999996</ele><time>2026-03-29T07:16:17Z</time></trkpt><trkpt lat="43.77317920194358" lon="11.089826605961983"><ele>41.4</ele><time>2026-03-29T07:16:19Z</time></trkpt><trkpt lat="43.77325177215486" lon="11.089714557073414"><ele>41.6</ele><time>2026-03-29T07:16:21Z</time></trkpt><trkpt lat="43.77332575132398" lon="11.089611303207441"><ele>41.8</ele><time>2026-03-29T07:16:23Z</time></trkpt><trkpt lat="43.7733953420101" lon="11.089479777335375"><ele>42.0</ele><time>2026-03-29T07:16:25Z</time></trkpt><trkpt lat="43.77346505120484" lon="11.089369671260116"><ele>42.0</ele><time>2026-03-29T07:16:27Z</time></trkpt><trkpt lat="43.773509215750494" lon="11.089307479596103"><ele>42.0</ele><time>2026-03-29T07:16:28Z</time></trkpt><trkpt lat="43.773598827583136" lon="11.089202360028313"><ele>42.0</ele><time>2026-03-29T07:16:30Z</time></trkpt><trkpt lat="43.773691087229096" lon="11.089105047942779"><ele>42.0</ele><time>2026-03-29T07:16:32Z</time></trkpt><trkpt lat="43.77376807108414" lon="11.088989735852827"><ele>42.0</ele><time>2026-03-29T07:16:34Z</time></trkpt><trkpt lat="43.77379480323927" lon="11.088850518248744"><ele>41.8</ele><time>2026-03-29T07:16:36Z</time></trkpt><trkpt lat="43.77387001405559" lon="11.088822801388249"><ele>41.6</ele><time>2026-03-29T07:16:37Z</time></trkpt><trkpt lat="43.773963829212526" lon="11.08874606937967"><ele>41.4</ele><time>2026-03-29T07:16:39Z</time></trkpt><trkpt lat="43.774050325496745" lon="11.08864950564879"><ele>41.199999999999996</ele><time>2026-03-29T07:16:41Z</time></trkpt><trkpt lat="43.77414165393751" lon="11.088555279347771"><ele>41.0</ele><time>2026-03-29T07:16:43Z</time></trkpt><trkpt lat="43.77423526775586" lon="11.088456561794649"><ele>41.0</ele><time>2026-03-29T07:16:45Z</time></trkpt><trkpt lat="43.774328443304775" lon="11.088355941408073"><ele>41.0</ele><time>2026-03-29T07:16:47Z</time></trkpt><trkpt lat="43.77442225975808" lon="11.088251700916603"><ele>41.0</ele><time>2026-03-29T07:16:49Z</time></trkpt><trkpt lat="43.77451750633066" lon="11.088142920491302"><ele>41.0</ele><time>2026-03-29T07:16:51Z</time></trkpt><trkpt lat="43.77461278876538" lon="11.088037847486968"><ele>40.83333333333333</ele><time>2026-03-29T07:16:53Z</time></trkpt><trkpt lat="43.774661496908855" lon="11.087981298365829"><ele>40.666666666666664</ele><time>2026-03-29T07:16:54Z</time></trkpt><trkpt lat="43.77471114560773" lon="11.08792247979133"><ele>40.5</ele><time>2026-03-29T07:16:55Z</time></trkpt><trkpt lat="43.77480095884624" lon="11.08781233332803"><ele>40.333333333333336</ele><time>2026-03-29T07:16:57Z</time></trkpt><trkpt lat="43.7748520522254" lon="11.087754888695889"><ele>40.16666666666667</ele><time>2026-03-29T07:16:58Z</time></trkpt><trkpt lat="43.774948669447" lon="11.087649030658051"><ele>40.0</ele><time>2026-03-29T07:17:00Z</time></trkpt><trkpt lat="43.774998992655355" lon="11.087594217323854"><ele>40.0</ele><time>2026-03-29T07:17:01Z</time></trkpt><trkpt lat="43.77504670409885" lon="11.087535859689934"><ele>40.0</ele><time>2026-03-29T07:17:02Z</time></trkpt><trkpt lat="43.775140942905054" lon="11.087422412283967"><ele>40.0</ele><time>2026-03-29T07:17:04Z</time></trkpt><trkpt lat="43.77523465023746" lon="11.087313240158691"><ele>40.0</ele><time>2026-03-29T07:17:06Z</time></trkpt><trkpt lat="43.7753272232126" lon="11.087202203085536"><ele>40.0</ele><time>2026-03-29T07:17:08Z</time></trkpt><trkpt lat="43.775420276201544" lon="11.087094510143357"><ele>40.2</ele><time>2026-03-29T07:17:10Z</time></trkpt><trkpt lat="43.775512633079586" lon="11.08698037376131"><ele>40.4</ele><time>2026-03-29T07:17:12Z</time></trkpt><trkpt lat="43.7755577632367" lon="11.08691915985779"><ele>40.599999999999994</ele><time>2026-03-29T07:17:13Z</time></trkpt><trkpt lat="43.77564778440616" lon="11.086786107660647"><ele>40.8</ele><time>2026-03-29T07:17:15Z</time></trkpt><trkpt lat="43.77573412449377" lon="11.086661825550998"><ele>41.0</ele><time>2026-03-29T07:17:17Z</time></trkpt><trkpt lat="43.77577704923651" lon="11.086593702941627"><ele>40.99999999999999</ele><time>2026-03-29T07:17:18Z</time></trkpt><trkpt lat="43.775818362634645" lon="11.086522948327554"><ele>41.0</ele><time>2026-03-29T07:17:19Z</time></trkpt><trkpt lat="43.775860303818156" lon="11.086455812757313"><ele>41.0</ele><time>2026-03-29T07:17:20Z</time></trkpt><trkpt lat="43.7758978220607" lon="11.086380975415393"><ele>41.0</ele><time>2026-03-29T07:17:21Z</time></trkpt><trkpt lat="43.775935046970055" lon="11.086305920097674"><ele>41.0</ele><time>2026-03-29T07:17:22Z</time></trkpt><trkpt lat="43.77597821682273" lon="11.086235705966777"><ele>40.99999999999999</ele><time>2026-03-29T07:17:23Z</time></trkpt><trkpt lat="43.77601964299285" lon="11.086166699445194"><ele>41.0</ele><time>2026-03-29T07:17:24Z</time></trkpt><trkpt lat="43.77605855299978" lon="11.086097089334721"><ele>39.8</ele><time>2026-03-29T07:17:25Z</time></trkpt><trkpt lat="43.77609653010633" lon="11.086021544614486"><ele>38.599999999999994</ele><time>2026-03-29T07:17:26Z</time></trkpt><trkpt lat="43.77613524859042" lon="11.085949247709753"><ele>37.4</ele><time>2026-03-29T07:17:27Z</time></trkpt><trkpt lat="43.77620818752729" lon="11.085801081214417"><ele>36.2</ele><time>2026-03-29T07:17:29Z</time></trkpt><trkpt lat="43.77628140897799" lon="11.085660279568028"><ele>35.0</ele><time>2026-03-29T07:17:31Z</time></trkpt><trkpt lat="43.776350304587666" lon="11.085519065865412"><ele>35.0</ele><time>2026-03-29T07:17:33Z</time></trkpt><trkpt lat="43.77641885106214" lon="11.085378681946361"><ele>35.0</ele><time>2026-03-29T07:17:35Z</time></trkpt><trkpt lat="43.776485305005245" lon="11.085229219805251"><ele>35.0</ele><time>2026-03-29T07:17:37Z</time></trkpt><trkpt lat="43.77654914461406" lon="11.085084500324333"><ele>35.0</ele><time>2026-03-29T07:17:39Z</time></trkpt><trkpt lat="43.776606332433424" lon="11.08493324320488"><ele>36.5</ele><time>2026-03-29T07:17:41Z</time></trkpt><trkpt lat="43.77666029893046" lon="11.08478098423526"><ele>38.0</ele><time>2026-03-29T07:17:43Z</time></trkpt><trkpt lat="43.77672283501717" lon="11.084628068292869"><ele>39.5</ele><time>2026-03-29T07:17:45Z</time></trkpt><trkpt lat="43.77677621279107" lon="11.08447691626818"><ele>41.0</ele><time>2026-03-29T07:17:47Z</time></trkpt><trkpt lat="43.7768266659342" lon="11.084323359861733"><ele>40.0</ele><time>2026-03-29T07:17:49Z</time></trkpt><trkpt lat="43.77688584552956" lon="11.084175173035353"><ele>39.0</ele><time>2026-03-29T07:17:51Z</time></trkpt><trkpt lat="43.77694318978542" lon="11.084019291625873"><ele>38.0</ele><time>2026-03-29T07:17:53Z</time></trkpt><trkpt lat="43.77699918739855" lon="11.083869981461834"><ele>37.0</ele><time>2026-03-29T07:17:55Z</time></trkpt><trkpt lat="43.777029264021046" lon="11.083793258959906"><ele>36.0</ele><time>2026-03-29T07:17:56Z</time></trkpt><trkpt lat="43.777088198859786" lon="11.083645840493134"><ele>36.0</ele><time>2026-03-29T07:17:58Z</time></trkpt><trkpt lat="43.777142663195335" lon="11.083491209416199"><ele>36.0</ele><time>2026-03-29T07:18:00Z</time></trkpt><trkpt lat="43.777204427754775" lon="11.083345682956082"><ele>36.0</ele><time>2026-03-29T07:18:02Z</time></trkpt><trkpt lat="43.777264553187045" lon="11.083197965236343"><ele>36.0</ele><time>2026-03-29T07:18:04Z</time></trkpt><trkpt lat="43.77731628533651" lon="11.083049235170382"><ele>36.666666666666664</ele><time>2026-03-29T07:18:06Z</time></trkpt><trkpt lat="43.777349787551465" lon="11.082971394948752"><ele>37.333333333333336</ele><time>2026-03-29T07:18:07Z</time></trkpt><trkpt lat="43.777415210064895" lon="11.082829848296543"><ele>38.0</ele><time>2026-03-29T07:18:09Z</time></trkpt><trkpt lat="43.777446799763545" lon="11.082752574839226"><ele>38.66666666666667</ele><time>2026-03-29T07:18:10Z</time></trkpt><trkpt lat="43.77750755395505" lon="11.082608487618312"><ele>39.333333333333336</ele><time>2026-03-29T07:18:12Z</time></trkpt><trkpt lat="43.777534595777524" lon="11.082529281567668"><ele>40.0</ele><time>2026-03-29T07:18:13Z</time></trkpt><trkpt lat="43.77756635567349" lon="11.082447330355889"><ele>40.6</ele><time>2026-03-29T07:18:14Z</time></trkpt><trkpt lat="43.77764408871882" lon="11.082321149614305"><ele>41.2</ele><time>2026-03-29T07:18:16Z</time></trkpt><trkpt lat="43.777672502623574" lon="11.082241425455523"><ele>41.8</ele><time>2026-03-29T07:18:17Z</time></trkpt><trkpt lat="43.777743668864275" lon="11.08208984043953"><ele>42.4</ele><time>2026-03-29T07:18:19Z</time></trkpt><trkpt lat="43.77779458957385" lon="11.081941176242081"><ele>43.0</ele><time>2026-03-29T07:18:21Z</time></trkpt><trkpt lat="43.77781642428518" lon="11.08185645119703"><ele>42.16666666666667</ele><time>2026-03-29T07:18:22Z</time></trkpt><trkpt lat="43.777845998730996" lon="11.081776639570949"><ele>41.333333333333336</ele><time>2026-03-29T07:18:23Z</time></trkpt><trkpt lat="43.77788439947158" lon="11.081704915215578"><ele>40.5</ele><time>2026-03-29T07:18:24Z</time></trkpt><trkpt lat="43.777941237906106" lon="11.081558720446514"><ele>39.666666666666664</ele><time>2026-03-29T07:18:26Z</time></trkpt><trkpt lat="43.778002297424926" lon="11.081418577970796"><ele>38.83333333333333</ele><time>2026-03-29T07:18:28Z</time></trkpt><trkpt lat="43.77802668450152" lon="11.081329986713008"><ele>38.0</ele><time>2026-03-29T07:18:29Z</time></trkpt><trkpt lat="43.77810813044418" lon="11.081178294358676"><ele>38.0</ele><time>2026-03-29T07:18:31Z</time></trkpt><trkpt lat="43.7781589046371" lon="11.081028120613427"><ele>38.0</ele><time>2026-03-29T07:18:33Z</time></trkpt><trkpt lat="43.77818965655422" lon="11.08094690323672"><ele>38.0</ele><time>2026-03-29T07:18:34Z</time></trkpt><trkpt lat="43.77823741874168" lon="11.080791793076546"><ele>38.0</ele><time>2026-03-29T07:18:36Z</time></trkpt><trkpt lat="43.778264989269594" lon="11.080708361338848"><ele>38.0</ele><time>2026-03-29T07:18:37Z</time></trkpt><trkpt lat="43.77829924093574" lon="11.080635102625243"><ele>38.0</ele><time>2026-03-29T07:18:38Z</time></trkpt><trkpt lat="43.77836669318309" lon="11.08048409656071"><ele>38.0</ele><time>2026-03-29T07:18:40Z</time></trkpt><trkpt lat="43.7783928366603" lon="11.080401110344788"><ele>38.0</ele><time>2026-03-29T07:18:41Z</time></trkpt><trkpt lat="43.77845678108089" lon="11.080255297632313"><ele>38.0</ele><time>2026-03-29T07:18:43Z</time></trkpt><trkpt lat="43.778477910245314" lon="11.080171504809938"><ele>38.0</ele><time>2026-03-29T07:18:44Z</time></trkpt><trkpt lat="43.77852206203673" lon="11.080106787529646"><ele>38.0</ele><time>2026-03-29T07:18:45Z</time></trkpt><trkpt lat="43.778577829198085" lon="11.079952900456703"><ele>38.0</ele><time>2026-03-29T07:18:47Z</time></trkpt><trkpt lat="43.77863835823069" lon="11.079795019951588"><ele>38.0</ele><time>2026-03-29T07:18:49Z</time></trkpt><trkpt lat="43.77870215206866" lon="11.079643614983672"><ele>38.0</ele><time>2026-03-29T07:18:51Z</time></trkpt><trkpt lat="43.7787330981184" lon="11.07956720959211"><ele>38.0</ele><time>2026-03-29T07:18:52Z</time></trkpt><trkpt lat="43.778776579065806" lon="11.079494840870558"><ele>38.0</ele><time>2026-03-29T07:18:53Z</time></trkpt><trkpt lat="43.77882820472166" lon="11.079334174242973"><ele>38.0</ele><time>2026-03-29T07:18:55Z</time></trkpt><trkpt lat="43.77886331463266" lon="11.079255196911232"><ele>38.0</ele><time>2026-03-29T07:18:56Z</time></trkpt><trkpt lat="43.77889766288109" lon="11.07917720985723"><ele>38.0</ele><time>2026-03-29T07:18:57Z</time></trkpt><trkpt lat="43.77892741163389" lon="11.079098556439236"><ele>38.0</ele><time>2026-03-29T07:18:58Z</time></trkpt><trkpt lat="43.77898847371968" lon="11.078945164699226"><ele>38.0</ele><time>2026-03-29T07:19:00Z</time></trkpt><trkpt lat="43.77904933915236" lon="11.078783405373809"><ele>38.0</ele><time>2026-03-29T07:19:02Z</time></trkpt><trkpt lat="43.77912536303713" lon="11.078654370634068"><ele>37.8</ele><time>2026-03-29T07:19:04Z</time></trkpt><trkpt lat="43.77915371733186" lon="11.078571521133112"><ele>37.599999999999994</ele><time>2026-03-29T07:19:05Z</time></trkpt><trkpt lat="43.77921512599789" lon="11.078422767374253"><ele>37.400000000000006</ele><time>2026-03-29T07:19:07Z</time></trkpt><trkpt lat="43.779282757978514" lon="11.078270028974767"><ele>37.2</ele><time>2026-03-29T07:19:09Z</time></trkpt><trkpt lat="43.77934558898977" lon="11.0781261976276"><ele>37.0</ele><time>2026-03-29T07:19:11Z</time></trkpt><trkpt lat="43.7794089497719" lon="11.07797849421015"><ele>37.0</ele><time>2026-03-29T07:19:13Z</time></trkpt><trkpt lat="43.77947819122998" lon="11.077833534925778"><ele>37.0</ele><time>2026-03-29T07:19:15Z</time></trkpt><trkpt lat="43.779544316248234" lon="11.077698368347972"><ele>37.0</ele><time>2026-03-29T07:19:17Z</time></trkpt><trkpt lat="43.77961017149893" lon="11.077552648092118"><ele>37.0</ele><time>2026-03-29T07:19:19Z</time></trkpt><trkpt lat="43.779669545439816" lon="11.077408661758065"><ele>38.0</ele><time>2026-03-29T07:19:21Z</time></trkpt><trkpt lat="43.77973822190273" lon="11.0772669842177"><ele>39.0</ele><time>2026-03-29T07:19:23Z</time></trkpt><trkpt lat="43.779805301853266" lon="11.077119436539673"><ele>40.0</ele><time>2026-03-29T07:19:25Z</time></trkpt><trkpt lat="43.77986750226279" lon="11.076975087545682"><ele>41.0</ele><time>2026-03-29T07:19:27Z</time></trkpt><trkpt lat="43.779936503845754" lon="11.076835342072458"><ele>41.0</ele><time>2026-03-29T07:19:29Z</time></trkpt><trkpt lat="43.77996901968011" lon="11.076760047287927"><ele>41.0</ele><time>2026-03-29T07:19:30Z</time></trkpt><trkpt lat="43.78003259137815" lon="11.0766115579747"><ele>41.0</ele><time>2026-03-29T07:19:32Z</time></trkpt><trkpt lat="43.78008736772529" lon="11.076461171654014"><ele>41.0</ele><time>2026-03-29T07:19:34Z</time></trkpt><trkpt lat="43.78013940556875" lon="11.076320990740319"><ele>41.0</ele><time>2026-03-29T07:19:36Z</time></trkpt><trkpt lat="43.78016957578835" lon="11.076236156694913"><ele>40.199999999999996</ele><time>2026-03-29T07:19:37Z</time></trkpt><trkpt lat="43.780194985298195" lon="11.076156119588603"><ele>39.4</ele><time>2026-03-29T07:19:38Z</time></trkpt><trkpt lat="43.78024263036895" lon="11.075994521917758"><ele>38.6</ele><time>2026-03-29T07:19:40Z</time></trkpt><trkpt lat="43.78028788804467" lon="11.075836781861398"><ele>37.8</ele><time>2026-03-29T07:19:42Z</time></trkpt><trkpt lat="43.78033568435121" lon="11.07567821544255"><ele>37.0</ele><time>2026-03-29T07:19:44Z</time></trkpt><trkpt lat="43.78037622869695" lon="11.075523180103126"><ele>37.0</ele><time>2026-03-29T07:19:46Z</time></trkpt><trkpt lat="43.780418590746294" lon="11.075367215194662"><ele>37.0</ele><time>2026-03-29T07:19:48Z</time></trkpt><trkpt lat="43.78045339882566" lon="11.07521004967699"><ele>37.0</ele><time>2026-03-29T07:19:50Z</time></trkpt><trkpt lat="43.7804912875745" lon="11.075047398456407"><ele>37.0</ele><time>2026-03-29T07:19:52Z</time></trkpt><trkpt lat="43.780522876099525" lon="11.074899550158044"><ele>37.2</ele><time>2026-03-29T07:19:54Z</time></trkpt><trkpt lat="43.78054578302122" lon="11.074749066054897"><ele>37.400000000000006</ele><time>2026-03-29T07:19:56Z</time></trkpt><trkpt lat="43.78056768288321" lon="11.074605022058769"><ele>37.599999999999994</ele><time>2026-03-29T07:19:58Z</time></trkpt><trkpt lat="43.78058595202509" lon="11.074465021963977"><ele>37.8</ele><time>2026-03-29T07:20:00Z</time></trkpt><trkpt lat="43.780599077761195" lon="11.074316075695164"><ele>38.0</ele><time>2026-03-29T07:20:02Z</time></trkpt><trkpt lat="43.78061398209695" lon="11.07417416376734"><ele>38.199999999999996</ele><time>2026-03-29T07:20:04Z</time></trkpt><trkpt lat="43.78061866941762" lon="11.074027552949964"><ele>38.4</ele><time>2026-03-29T07:20:06Z</time></trkpt><trkpt lat="43.78060839842911" lon="11.07388317422612"><ele>38.599999999999994</ele><time>2026-03-29T07:20:08Z</time></trkpt><trkpt lat="43.7805914827825" lon="11.073745361429806"><ele>38.8</ele><time>2026-03-29T07:20:10Z</time></trkpt><trkpt lat="43.78056989047123" lon="11.073609589083194"><ele>39.0</ele><time>2026-03-29T07:20:12Z</time></trkpt><trkpt lat="43.78053910822948" lon="11.073475615895637"><ele>39.0</ele><time>2026-03-29T07:20:14Z</time></trkpt><trkpt lat="43.78050291458465" lon="11.073344061559052"><ele>39.0</ele><time>2026-03-29T07:20:16Z</time></trkpt><trkpt lat="43.78046596381543" lon="11.073209183847233"><ele>39.0</ele><time>2026-03-29T07:20:18Z</time></trkpt><trkpt lat="43.78042890526461" lon="11.073078134386181"><ele>39.0</ele><time>2026-03-29T07:20:20Z</time></trkpt><trkpt lat="43.78039132028363" lon="11.072946875481223"><ele>39.0</ele><time>2026-03-29T07:20:22Z</time></trkpt><trkpt lat="43.78035017412775" lon="11.072821703360146"><ele>38.8</ele><time>2026-03-29T07:20:24Z</time></trkpt><trkpt lat="43.780308305473405" lon="11.07269753172283"><ele>38.599999999999994</ele><time>2026-03-29T07:20:26Z</time></trkpt><trkpt lat="43.78026753906911" lon="11.072576367650912"><ele>38.4</ele><time>2026-03-29T07:20:28Z</time></trkpt><trkpt lat="43.78022526676592" lon="11.072450442127451"><ele>38.199999999999996</ele><time>2026-03-29T07:20:30Z</time></trkpt><trkpt lat="43.780183049100806" lon="11.07233098782864"><ele>38.0</ele><time>2026-03-29T07:20:32Z</time></trkpt><trkpt lat="43.78012768988813" lon="11.072211245836344"><ele>38.0</ele><time>2026-03-29T07:20:34Z</time></trkpt><trkpt lat="43.780054923200886" lon="11.072092560483794"><ele>38.0</ele><time>2026-03-29T07:20:36Z</time></trkpt><trkpt lat="43.77997024339914" lon="11.07197435005899"><ele>38.0</ele><time>2026-03-29T07:20:38Z</time></trkpt><trkpt lat="43.77987399792103" lon="11.071860321066893"><ele>38.0</ele><time>2026-03-29T07:20:40Z</time></trkpt><trkpt lat="43.77981993982549" lon="11.07181273064275"><ele>38.0</ele><time>2026-03-29T07:20:41Z</time></trkpt><trkpt lat="43.7797665363203" lon="11.071764275256712"><ele>38.0</ele><time>2026-03-29T07:20:42Z</time></trkpt><trkpt lat="43.77970489393542" lon="11.071723177286952"><ele>38.0</ele><time>2026-03-29T07:20:43Z</time></trkpt><trkpt lat="43.77964203994359" lon="11.071672723874913"><ele>38.0</ele><time>2026-03-29T07:20:44Z</time></trkpt><trkpt lat="43.77958152791843" lon="11.071621912425215"><ele>38.0</ele><time>2026-03-29T07:20:45Z</time></trkpt><trkpt lat="43.77951795566085" lon="11.071572609067564"><ele>38.0</ele><time>2026-03-29T07:20:46Z</time></trkpt><trkpt lat="43.77945237310514" lon="11.071522678418384"><ele>38.0</ele><time>2026-03-29T07:20:47Z</time></trkpt><trkpt lat="43.77938437539537" lon="11.071472309972021"><ele>38.0</ele><time>2026-03-29T07:20:48Z</time></trkpt><trkpt lat="43.77931489445077" lon="11.07141909823547"><ele>37.5</ele><time>2026-03-29T07:20:49Z</time></trkpt><trkpt lat="43.77924264774763" lon="11.071365370734611"><ele>37.0</ele><time>2026-03-29T07:20:50Z</time></trkpt><trkpt lat="43.77916943907216" lon="11.07131002168469"><ele>36.5</ele><time>2026-03-29T07:20:51Z</time></trkpt><trkpt lat="43.779095557037245" lon="11.071255071454594"><ele>36.0</ele><time>2026-03-29T07:20:52Z</time></trkpt><trkpt lat="43.779019604976554" lon="11.071198819050608"><ele>35.5</ele><time>2026-03-29T07:20:53Z</time></trkpt><trkpt lat="43.77894300739872" lon="11.071142892641145"><ele>35.0</ele><time>2026-03-29T07:20:54Z</time></trkpt><trkpt lat="43.778864908012444" lon="11.071088303757666"><ele>35.0</ele><time>2026-03-29T07:20:55Z</time></trkpt><trkpt lat="43.77878736861947" lon="11.071033897885412"><ele>35.0</ele><time>2026-03-29T07:20:56Z</time></trkpt><trkpt lat="43.77871061003092" lon="11.07098217221217"><ele>35.0</ele><time>2026-03-29T07:20:57Z</time></trkpt><trkpt lat="43.77863228162059" lon="11.070934778992823"><ele>35.0</ele><time>2026-03-29T07:20:58Z</time></trkpt><trkpt lat="43.77855321740291" lon="11.070887750672783"><ele>35.0</ele><time>2026-03-29T07:20:59Z</time></trkpt><trkpt lat="43.77847712156111" lon="11.070842388946735"><ele>35.0</ele><time>2026-03-29T07:21:00Z</time></trkpt><trkpt lat="43.77840061862737" lon="11.070800413417947"><ele>34.5</ele><time>2026-03-29T07:21:01Z</time></trkpt><trkpt lat="43.77832518867973" lon="11.070760372602935"><ele>34.0</ele><time>2026-03-29T07:21:02Z</time></trkpt><trkpt lat="43.77824979234922" lon="11.070726153160457"><ele>33.5</ele><time>2026-03-29T07:21:03Z</time></trkpt><trkpt lat="43.778174463006174" lon="11.070697032331681"><ele>33.0</ele><time>2026-03-29T07:21:04Z</time></trkpt><trkpt lat="43.778100337298966" lon="11.070667467206025"><ele>32.5</ele><time>2026-03-29T07:21:05Z</time></trkpt><trkpt lat="43.77802923332746" lon="11.07063858097384"><ele>32.0</ele><time>2026-03-29T07:21:06Z</time></trkpt><trkpt lat="43.77795978124209" lon="11.070608857117227"><ele>32.0</ele><time>2026-03-29T07:21:07Z</time></trkpt><trkpt lat="43.777892489646305" lon="11.070580248581258"><ele>31.999999999999996</ele><time>2026-03-29T07:21:08Z</time></trkpt><trkpt lat="43.77782711836664" lon="11.070544483122555"><ele>32.0</ele><time>2026-03-29T07:21:09Z</time></trkpt><trkpt lat="43.777770483541715" lon="11.070484843470796"><ele>32.0</ele><time>2026-03-29T07:21:10Z</time></trkpt><trkpt lat="43.77771547195738" lon="11.070416211207375"><ele>31.999999999999996</ele><time>2026-03-29T07:21:11Z</time></trkpt><trkpt lat="43.77765913352439" lon="11.070366656983941"><ele>32.0</ele><time>2026-03-29T07:21:12Z</time></trkpt><trkpt lat="43.777595841533476" lon="11.07033840417534"><ele>32.0</ele><time>2026-03-29T07:21:13Z</time></trkpt><trkpt lat="43.77752300844407" lon="11.070418930110934"><ele>32.4</ele><time>2026-03-29T07:21:14Z</time></trkpt><trkpt lat="43.77741422168705" lon="11.07038019865528"><ele>32.800000000000004</ele><time>2026-03-29T07:21:16Z</time></trkpt><trkpt lat="43.77731054778141" lon="11.070349989323917"><ele>33.2</ele><time>2026-03-29T07:21:18Z</time></trkpt><trkpt lat="43.77720787590273" lon="11.070334734291174"><ele>33.6</ele><time>2026-03-29T07:21:20Z</time></trkpt><trkpt lat="43.77714306980869" lon="11.070299840361049"><ele>34.0</ele><time>2026-03-29T07:21:24Z</time></trkpt><trkpt lat="43.777071791317454" lon="11.070283820142013"><ele>34.0</ele><time>2026-03-29T07:21:40Z</time></trkpt><trkpt lat="43.776987622407255" lon="11.070289972611475"><ele>34.0</ele><time>2026-03-29T07:21:43Z</time></trkpt><trkpt lat="43.77691590043933" lon="11.070284478023733"><ele>34.0</ele><time>2026-03-29T07:21:45Z</time></trkpt><trkpt lat="43.77684017753185" lon="11.070275101083402"><ele>34.0</ele><time>2026-03-29T07:21:47Z</time></trkpt><trkpt lat="43.776751644162765" lon="11.070263262873883"><ele>34.0</ele><time>2026-03-29T07:21:49Z</time></trkpt><trkpt lat="43.77665819156811" lon="11.070248166462008"><ele>34.0</ele><time>2026-03-29T07:21:51Z</time></trkpt><trkpt lat="43.77655771034228" lon="11.070234489961802"><ele>34.2</ele><time>2026-03-29T07:21:53Z</time></trkpt><trkpt lat="43.77645639299793" lon="11.07022024351393"><ele>34.4</ele><time>2026-03-29T07:21:55Z</time></trkpt><trkpt lat="43.77635446718559" lon="11.070202505333636"><ele>34.6</ele><time>2026-03-29T07:21:57Z</time></trkpt><trkpt lat="43.776252539236616" lon="11.07018794456233"><ele>34.8</ele><time>2026-03-29T07:21:59Z</time></trkpt><trkpt lat="43.77615085398521" lon="11.07016809228752"><ele>35.0</ele><time>2026-03-29T07:22:01Z</time></trkpt><trkpt lat="43.776043674159055" lon="11.070150885508701"><ele>35.6</ele><time>2026-03-29T07:22:03Z</time></trkpt><trkpt lat="43.775931641294626" lon="11.07014199058621"><ele>36.2</ele><time>2026-03-29T07:22:05Z</time></trkpt><trkpt lat="43.77582228515966" lon="11.070126237110669"><ele>36.8</ele><time>2026-03-29T07:22:07Z</time></trkpt><trkpt lat="43.77571033901482" lon="11.070102307286561"><ele>37.4</ele><time>2026-03-29T07:22:09Z</time></trkpt><trkpt lat="43.77559952310518" lon="11.070081599878616"><ele>38.0</ele><time>2026-03-29T07:22:11Z</time></trkpt><trkpt lat="43.775492385757246" lon="11.07003048612506"><ele>38.0</ele><time>2026-03-29T07:22:13Z</time></trkpt><trkpt lat="43.77539035156472" lon="11.06996514346934"><ele>38.0</ele><time>2026-03-29T07:22:15Z</time></trkpt><trkpt lat="43.77529851149381" lon="11.069888578510387"><ele>38.0</ele><time>2026-03-29T07:22:17Z</time></trkpt><trkpt lat="43.77521942508896" lon="11.069799833002296"><ele>38.0</ele><time>2026-03-29T07:22:19Z</time></trkpt><trkpt lat="43.77515096018017" lon="11.069701368680832"><ele>38.0</ele><time>2026-03-29T07:22:21Z</time></trkpt><trkpt lat="43.775086523444536" lon="11.06959761003088"><ele>38.599999999999994</ele><time>2026-03-29T07:22:23Z</time></trkpt><trkpt lat="43.77503163497854" lon="11.0694811843016"><ele>39.199999999999996</ele><time>2026-03-29T07:22:25Z</time></trkpt><trkpt lat="43.77499052718284" lon="11.069356709218626"><ele>39.8</ele><time>2026-03-29T07:22:27Z</time></trkpt><trkpt lat="43.77495052204535" lon="11.06921687425205"><ele>40.4</ele><time>2026-03-29T07:22:29Z</time></trkpt><trkpt lat="43.77493160179249" lon="11.069074646343049"><ele>41.0</ele><time>2026-03-29T07:22:31Z</time></trkpt><trkpt lat="43.77492209981869" lon="11.068930817868516"><ele>43.0</ele><time>2026-03-29T07:22:33Z</time></trkpt><trkpt lat="43.77492028909793" lon="11.068787943260231"><ele>45.0</ele><time>2026-03-29T07:22:35Z</time></trkpt><trkpt lat="43.77492511260993" lon="11.06863893236921"><ele>47.0</ele><time>2026-03-29T07:22:37Z</time></trkpt><trkpt lat="43.77493895362214" lon="11.068499883642284"><ele>49.0</ele><time>2026-03-29T07:22:39Z</time></trkpt><trkpt lat="43.774957237370465" lon="11.068361836686064"><ele>51.0</ele><time>2026-03-29T07:22:41Z</time></trkpt><trkpt lat="43.77498082071384" lon="11.068218223435265"><ele>52.8</ele><time>2026-03-29T07:22:43Z</time></trkpt><trkpt lat="43.77500852730495" lon="11.068082293029327"><ele>54.599999999999994</ele><time>2026-03-29T07:22:45Z</time></trkpt><trkpt lat="43.7750326422211" lon="11.067947560591"><ele>56.4</ele><time>2026-03-29T07:22:47Z</time></trkpt><trkpt lat="43.77507531140429" lon="11.067816492172748"><ele>58.2</ele><time>2026-03-29T07:22:49Z</time></trkpt><trkpt lat="43.77510375092975" lon="11.067684971411175"><ele>60.0</ele><time>2026-03-29T07:22:51Z</time></trkpt><trkpt lat="43.77514430253882" lon="11.067552444946566"><ele>60.6</ele><time>2026-03-29T07:22:53Z</time></trkpt><trkpt lat="43.77518444018965" lon="11.067413581878206"><ele>61.2</ele><time>2026-03-29T07:22:55Z</time></trkpt><trkpt lat="43.77522985197387" lon="11.067284654284299"><ele>61.8</ele><time>2026-03-29T07:22:57Z</time></trkpt><trkpt lat="43.7752628291653" lon="11.067152176967838"><ele>62.4</ele><time>2026-03-29T07:22:59Z</time></trkpt><trkpt lat="43.775307394303354" lon="11.06702062749191"><ele>63.0</ele><time>2026-03-29T07:23:01Z</time></trkpt><trkpt lat="43.77534633118044" lon="11.06689471841179"><ele>58.4</ele><time>2026-03-29T07:23:03Z</time></trkpt><trkpt lat="43.775382072511434" lon="11.066770605084109"><ele>53.8</ele><time>2026-03-29T07:23:05Z</time></trkpt><trkpt lat="43.77542642969229" lon="11.066634669785376"><ele>49.2</ele><time>2026-03-29T07:23:07Z</time></trkpt><trkpt lat="43.77546226581208" lon="11.066491082926992"><ele>44.6</ele><time>2026-03-29T07:23:09Z</time></trkpt><trkpt lat="43.775496958682616" lon="11.066329821673081"><ele>40.0</ele><time>2026-03-29T07:23:11Z</time></trkpt><trkpt lat="43.77551386594006" lon="11.066237182454246"><ele>40.0</ele><time>2026-03-29T07:23:12Z</time></trkpt><trkpt lat="43.775534923037135" lon="11.066146870625058"><ele>40.0</ele><time>2026-03-29T07:23:13Z</time></trkpt><trkpt lat="43.77554728442557" lon="11.066043609235509"><ele>40.0</ele><time>2026-03-29T07:23:14Z</time></trkpt><trkpt lat="43.7755633489608" lon="11.06594359461052"><ele>40.0</ele><time>2026-03-29T07:23:15Z</time></trkpt><trkpt lat="43.775575596858246" lon="11.065846073571963"><ele>40.0</ele><time>2026-03-29T07:23:16Z</time></trkpt><trkpt lat="43.77558884368373" lon="11.065743049253696"><ele>40.0</ele><time>2026-03-29T07:23:17Z</time></trkpt><trkpt lat="43.77559997540531" lon="11.065639076888722"><ele>40.0</ele><time>2026-03-29T07:23:18Z</time></trkpt><trkpt lat="43.77560770104382" lon="11.065526625873854"><ele>39.66666666666667</ele><time>2026-03-29T07:23:19Z</time></trkpt><trkpt lat="43.77561115607709" lon="11.065416283878871"><ele>39.333333333333336</ele><time>2026-03-29T07:23:20Z</time></trkpt><trkpt lat="43.77561099750171" lon="11.065301555738234"><ele>39.0</ele><time>2026-03-29T07:23:21Z</time></trkpt><trkpt lat="43.775596311281234" lon="11.065184577075073"><ele>38.666666666666664</ele><time>2026-03-29T07:23:22Z</time></trkpt><trkpt lat="43.775576834559786" lon="11.065067672940044"><ele>38.33333333333333</ele><time>2026-03-29T07:23:23Z</time></trkpt><trkpt lat="43.775559286948024" lon="11.064953649515672"><ele>38.0</ele><time>2026-03-29T07:23:24Z</time></trkpt><trkpt lat="43.77553240881119" lon="11.064834843435513"><ele>37.5</ele><time>2026-03-29T07:23:25Z</time></trkpt><trkpt lat="43.77549796155539" lon="11.064724228802005"><ele>37.0</ele><time>2026-03-29T07:23:26Z</time></trkpt><trkpt lat="43.77546213262213" lon="11.064611972264712"><ele>36.5</ele><time>2026-03-29T07:23:27Z</time></trkpt><trkpt lat="43.775420754051794" lon="11.064503122739811"><ele>36.0</ele><time>2026-03-29T07:23:28Z</time></trkpt><trkpt lat="43.77537721754752" lon="11.064398708895238"><ele>35.5</ele><time>2026-03-29T07:23:29Z</time></trkpt><trkpt lat="43.77532872135374" lon="11.064298476723556"><ele>35.0</ele><time>2026-03-29T07:23:30Z</time></trkpt><trkpt lat="43.775275181416596" lon="11.064202896471135"><ele>35.33333333333333</ele><time>2026-03-29T07:23:31Z</time></trkpt><trkpt lat="43.775223228192246" lon="11.064111017983537"><ele>35.666666666666664</ele><time>2026-03-29T07:23:32Z</time></trkpt><trkpt lat="43.77516635330425" lon="11.064025469259985"><ele>36.0</ele><time>2026-03-29T07:23:33Z</time></trkpt><trkpt lat="43.77510541348059" lon="11.063941356531737"><ele>36.333333333333336</ele><time>2026-03-29T07:23:34Z</time></trkpt><trkpt lat="43.77504920076193" lon="11.063856960738695"><ele>36.66666666666667</ele><time>2026-03-29T07:23:35Z</time></trkpt><trkpt lat="43.77499611513315" lon="11.063772378284003"><ele>37.0</ele><time>2026-03-29T07:23:36Z</time></trkpt><trkpt lat="43.77493626988483" lon="11.063688890487985"><ele>37.5</ele><time>2026-03-29T07:23:37Z</time></trkpt><trkpt lat="43.77487979199797" lon="11.063613362125333"><ele>38.0</ele><time>2026-03-29T07:23:38Z</time></trkpt><trkpt lat="43.774815644905296" lon="11.063541925213064"><ele>38.5</ele><time>2026-03-29T07:23:39Z</time></trkpt><trkpt lat="43.774750575696245" lon="11.063477533759285"><ele>39.0</ele><time>2026-03-29T07:23:40Z</time></trkpt><trkpt lat="43.77467875824464" lon="11.063416573126432"><ele>39.5</ele><time>2026-03-29T07:23:41Z</time></trkpt><trkpt lat="43.774607457309834" lon="11.06336594144473"><ele>40.0</ele><time>2026-03-29T07:23:42Z</time></trkpt><trkpt lat="43.77453440651176" lon="11.063316154267943"><ele>39.5</ele><time>2026-03-29T07:23:43Z</time></trkpt><trkpt lat="43.77446026061783" lon="11.063263968360866"><ele>39.0</ele><time>2026-03-29T07:23:44Z</time></trkpt><trkpt lat="43.7743834525854" lon="11.06321979407523"><ele>38.5</ele><time>2026-03-29T07:23:45Z</time></trkpt><trkpt lat="43.774304318206156" lon="11.063182140496341"><ele>38.0</ele><time>2026-03-29T07:23:46Z</time></trkpt><trkpt lat="43.7742233344572" lon="11.063152556495144"><ele>37.5</ele><time>2026-03-29T07:23:47Z</time></trkpt><trkpt lat="43.77414153182955" lon="11.063132485100688"><ele>37.0</ele><time>2026-03-29T07:23:48Z</time></trkpt><trkpt lat="43.77405783789418" lon="11.06311280578925"><ele>36.5</ele><time>2026-03-29T07:23:49Z</time></trkpt><trkpt lat="43.77397425592626" lon="11.063090772213299"><ele>36.0</ele><time>2026-03-29T07:23:50Z</time></trkpt><trkpt lat="43.77389081502402" lon="11.063072043858492"><ele>35.5</ele><time>2026-03-29T07:23:51Z</time></trkpt><trkpt lat="43.773808296383855" lon="11.063051091712516"><ele>35.0</ele><time>2026-03-29T07:23:52Z</time></trkpt><trkpt lat="43.77372819513296" lon="11.063038429591412"><ele>34.5</ele><time>2026-03-29T07:23:53Z</time></trkpt><trkpt lat="43.773646927410425" lon="11.0630156705503"><ele>34.0</ele><time>2026-03-29T07:23:54Z</time></trkpt><trkpt lat="43.77356686085191" lon="11.062996245305715"><ele>34.0</ele><time>2026-03-29T07:23:55Z</time></trkpt><trkpt lat="43.77348639669843" lon="11.062978889329615"><ele>34.0</ele><time>2026-03-29T07:23:56Z</time></trkpt><trkpt lat="43.77340723136283" lon="11.062956135899734"><ele>34.0</ele><time>2026-03-29T07:23:57Z</time></trkpt><trkpt lat="43.773332528529345" lon="11.06294123160411"><ele>34.0</ele><time>2026-03-29T07:23:58Z</time></trkpt><trkpt lat="43.77325764167671" lon="11.06292466466852"><ele>34.0</ele><time>2026-03-29T07:23:59Z</time></trkpt><trkpt lat="43.77318289826782" lon="11.062907308761982"><ele>34.0</ele><time>2026-03-29T07:24:00Z</time></trkpt><trkpt lat="43.77310847441025" lon="11.06289261849034"><ele>33.99999999999999</ele><time>2026-03-29T07:24:01Z</time></trkpt><trkpt lat="43.77303716973353" lon="11.062875633795333"><ele>34.0</ele><time>2026-03-29T07:24:02Z</time></trkpt><trkpt lat="43.77296595486441" lon="11.062860150480368"><ele>34.0</ele><time>2026-03-29T07:24:03Z</time></trkpt><trkpt lat="43.77289634047176" lon="11.062840755399778"><ele>34.0</ele><time>2026-03-29T07:24:04Z</time></trkpt><trkpt lat="43.77282753570639" lon="11.06282610424148"><ele>34.0</ele><time>2026-03-29T07:24:05Z</time></trkpt><trkpt lat="43.77275699625181" lon="11.06280759389004"><ele>33.99999999999999</ele><time>2026-03-29T07:24:06Z</time></trkpt><trkpt lat="43.77268926511053" lon="11.062793266822101"><ele>34.0</ele><time>2026-03-29T07:24:07Z</time></trkpt><trkpt lat="43.77262279249867" lon="11.062777838771169"><ele>34.285714285714285</ele><time>2026-03-29T07:24:08Z</time></trkpt><trkpt lat="43.77255403719027" lon="11.062761492395937"><ele>34.57142857142857</ele><time>2026-03-29T07:24:09Z</time></trkpt><trkpt lat="43.772486356894184" lon="11.062749591073429"><ele>34.85714285714286</ele><time>2026-03-29T07:24:10Z</time></trkpt><trkpt lat="43.7724194102043" lon="11.062735628253362"><ele>35.14285714285714</ele><time>2026-03-29T07:24:11Z</time></trkpt><trkpt lat="43.77235047943245" lon="11.062721141842284"><ele>35.42857142857143</ele><time>2026-03-29T07:24:12Z</time></trkpt><trkpt lat="43.77228246125087" lon="11.062708514549202"><ele>35.714285714285715</ele><time>2026-03-29T07:24:13Z</time></trkpt><trkpt lat="43.77221432217865" lon="11.062691287366912"><ele>36.0</ele><time>2026-03-29T07:24:14Z</time></trkpt><trkpt lat="43.7721480645786" lon="11.06266584960445"><ele>36.00000000000001</ele><time>2026-03-29T07:24:15Z</time></trkpt><trkpt lat="43.772082438327104" lon="11.062643749526355"><ele>36.0</ele><time>2026-03-29T07:24:16Z</time></trkpt><trkpt lat="43.77201459200266" lon="11.062618744999494"><ele>36.0</ele><time>2026-03-29T07:24:17Z</time></trkpt><trkpt lat="43.77194939297205" lon="11.062594725217874"><ele>36.0</ele><time>2026-03-29T07:24:18Z</time></trkpt><trkpt lat="43.771884346001364" lon="11.062571732787646"><ele>36.0</ele><time>2026-03-29T07:24:19Z</time></trkpt><trkpt lat="43.77182047562476" lon="11.062540820983038"><ele>36.00000000000001</ele><time>2026-03-29T07:24:20Z</time></trkpt><trkpt lat="43.77175737304011" lon="11.062503002504865"><ele>36.0</ele><time>2026-03-29T07:24:21Z</time></trkpt><trkpt lat="43.77169449291434" lon="11.06247109892633"><ele>35.714285714285715</ele><time>2026-03-29T07:24:22Z</time></trkpt><trkpt lat="43.77162865689496" lon="11.062439911773986"><ele>35.42857142857143</ele><time>2026-03-29T07:24:23Z</time></trkpt><trkpt lat="43.77156301780988" lon="11.062410238436154"><ele>35.14285714285714</ele><time>2026-03-29T07:24:24Z</time></trkpt><trkpt lat="43.771495487126195" lon="11.062380781030688"><ele>34.85714285714286</ele><time>2026-03-29T07:24:25Z</time></trkpt><trkpt lat="43.77142874804105" lon="11.062350301301384"><ele>34.57142857142857</ele><time>2026-03-29T07:24:26Z</time></trkpt><trkpt lat="43.77136237455965" lon="11.062318531584038"><ele>34.285714285714285</ele><time>2026-03-29T07:24:27Z</time></trkpt><trkpt lat="43.7712940793284" lon="11.062284802755554"><ele>34.0</ele><time>2026-03-29T07:24:28Z</time></trkpt><trkpt lat="43.771226051930086" lon="11.062251906282869"><ele>33.99999999999999</ele><time>2026-03-29T07:24:29Z</time></trkpt><trkpt lat="43.77115618515067" lon="11.06221849523629"><ele>34.0</ele><time>2026-03-29T07:24:30Z</time></trkpt><trkpt lat="43.77108590965286" lon="11.06218215870992"><ele>34.0</ele><time>2026-03-29T07:24:31Z</time></trkpt><trkpt lat="43.77101596386184" lon="11.062146661629082"><ele>34.0</ele><time>2026-03-29T07:24:32Z</time></trkpt><trkpt lat="43.770947703142994" lon="11.062111937058376"><ele>34.0</ele><time>2026-03-29T07:24:33Z</time></trkpt><trkpt lat="43.77088052136803" lon="11.062078009021016"><ele>33.99999999999999</ele><time>2026-03-29T07:24:34Z</time></trkpt><trkpt lat="43.77081001584669" lon="11.06203730410782"><ele>34.0</ele><time>2026-03-29T07:24:35Z</time></trkpt><trkpt lat="43.77074379592565" lon="11.062023501352447"><ele>34.285714285714285</ele><time>2026-03-29T07:24:36Z</time></trkpt><trkpt lat="43.77067593641637" lon="11.061987914596111"><ele>34.57142857142857</ele><time>2026-03-29T07:24:37Z</time></trkpt><trkpt lat="43.77060873907713" lon="11.061954619535042"><ele>34.85714285714286</ele><time>2026-03-29T07:24:38Z</time></trkpt><trkpt lat="43.77054066874526" lon="11.061917707731622"><ele>35.14285714285714</ele><time>2026-03-29T07:24:39Z</time></trkpt><trkpt lat="43.770473775852246" lon="11.06187866969567"><ele>35.42857142857143</ele><time>2026-03-29T07:24:40Z</time></trkpt><trkpt lat="43.770406864840766" lon="11.061841816291674"><ele>35.714285714285715</ele><time>2026-03-29T07:24:41Z</time></trkpt><trkpt lat="43.77034537182589" lon="11.061787544079214"><ele>36.0</ele><time>2026-03-29T07:24:42Z</time></trkpt><trkpt lat="43.770281039754614" lon="11.061745625162674"><ele>36.00000000000001</ele><time>2026-03-29T07:24:43Z</time></trkpt><trkpt lat="43.770218589732536" lon="11.061703236067114"><ele>36.0</ele><time>2026-03-29T07:24:44Z</time></trkpt><trkpt lat="43.7701549848881" lon="11.061658762803589"><ele>36.0</ele><time>2026-03-29T07:24:45Z</time></trkpt><trkpt lat="43.77009027028691" lon="11.06161144232632"><ele>36.0</ele><time>2026-03-29T07:24:46Z</time></trkpt><trkpt lat="43.770026801841745" lon="11.061567528629869"><ele>36.0</ele><time>2026-03-29T07:24:47Z</time></trkpt><trkpt lat="43.769962371864594" lon="11.061519710840116"><ele>36.00000000000001</ele><time>2026-03-29T07:24:48Z</time></trkpt><trkpt lat="43.76990064398261" lon="11.061471722513177"><ele>36.0</ele><time>2026-03-29T07:24:49Z</time></trkpt><trkpt lat="43.76983643723547" lon="11.061428135607967"><ele>36.00000000000001</ele><time>2026-03-29T07:24:50Z</time></trkpt><trkpt lat="43.76977479018466" lon="11.061378507341832"><ele>36.0</ele><time>2026-03-29T07:24:51Z</time></trkpt><trkpt lat="43.769710350302965" lon="11.061333907428"><ele>36.0</ele><time>2026-03-29T07:24:52Z</time></trkpt><trkpt lat="43.76964596310311" lon="11.061289844975262"><ele>36.0</ele><time>2026-03-29T07:24:53Z</time></trkpt><trkpt lat="43.76958418252976" lon="11.061247641645895"><ele>36.0</ele><time>2026-03-29T07:24:54Z</time></trkpt><trkpt lat="43.76952377401463" lon="11.061200636095597"><ele>36.00000000000001</ele><time>2026-03-29T07:24:55Z</time></trkpt><trkpt lat="43.76946372489663" lon="11.06114807984532"><ele>36.0</ele><time>2026-03-29T07:24:56Z</time></trkpt><trkpt lat="43.76940211748472" lon="11.061105419516483"><ele>37.00000000000001</ele><time>2026-03-29T07:24:57Z</time></trkpt><trkpt lat="43.76933956892525" lon="11.061060530149348"><ele>38.0</ele><time>2026-03-29T07:24:58Z</time></trkpt><trkpt lat="43.76927816878168" lon="11.061020221786915"><ele>39.0</ele><time>2026-03-29T07:24:59Z</time></trkpt><trkpt lat="43.769215290807864" lon="11.060979369204567"><ele>40.0</ele><time>2026-03-29T07:25:00Z</time></trkpt><trkpt lat="43.76915454325936" lon="11.060933977819209"><ele>41.0</ele><time>2026-03-29T07:25:01Z</time></trkpt><trkpt lat="43.769092974479655" lon="11.060892714199593"><ele>42.00000000000001</ele><time>2026-03-29T07:25:02Z</time></trkpt><trkpt lat="43.76902806114042" lon="11.060854612113355"><ele>43.0</ele><time>2026-03-29T07:25:03Z</time></trkpt><trkpt lat="43.76896733030575" lon="11.060810343683789"><ele>42.00000000000001</ele><time>2026-03-29T07:25:04Z</time></trkpt><trkpt lat="43.76890521005667" lon="11.060769982938684"><ele>41.0</ele><time>2026-03-29T07:25:05Z</time></trkpt><trkpt lat="43.768843056466956" lon="11.060731571265713"><ele>40.0</ele><time>2026-03-29T07:25:06Z</time></trkpt><trkpt lat="43.768781502608626" lon="11.060694594783536"><ele>39.0</ele><time>2026-03-29T07:25:07Z</time></trkpt><trkpt lat="43.76871730823629" lon="11.060656959970833"><ele>38.0</ele><time>2026-03-29T07:25:08Z</time></trkpt><trkpt lat="43.76864983593149" lon="11.06062356557277"><ele>37.00000000000001</ele><time>2026-03-29T07:25:09Z</time></trkpt><trkpt lat="43.76858943032931" lon="11.060582654811219"><ele>36.0</ele><time>2026-03-29T07:25:10Z</time></trkpt><trkpt lat="43.76852488576455" lon="11.06054468962583"><ele>36.00000000000001</ele><time>2026-03-29T07:25:11Z</time></trkpt><trkpt lat="43.768462844421116" lon="11.060508822119203"><ele>36.0</ele><time>2026-03-29T07:25:12Z</time></trkpt><trkpt lat="43.76839737261705" lon="11.060478284226143"><ele>36.0</ele><time>2026-03-29T07:25:13Z</time></trkpt><trkpt lat="43.768329506164584" lon="11.060446193659672"><ele>36.0</ele><time>2026-03-29T07:25:14Z</time></trkpt><trkpt lat="43.76826499117924" lon="11.060411564747671"><ele>36.0</ele><time>2026-03-29T07:25:15Z</time></trkpt><trkpt lat="43.768198645675454" lon="11.060374547263429"><ele>36.00000000000001</ele><time>2026-03-29T07:25:16Z</time></trkpt><trkpt lat="43.76813562126398" lon="11.060336697913845"><ele>36.0</ele><time>2026-03-29T07:25:17Z</time></trkpt><trkpt lat="43.768066688505506" lon="11.060313109318471"><ele>36.0</ele><time>2026-03-29T07:25:18Z</time></trkpt><trkpt lat="43.768001497664656" lon="11.060277691295454"><ele>36.0</ele><time>2026-03-29T07:25:19Z</time></trkpt><trkpt lat="43.76793441260191" lon="11.060247062889538"><ele>36.0</ele><time>2026-03-29T07:25:20Z</time></trkpt><trkpt lat="43.76786475171023" lon="11.060211745233005"><ele>36.0</ele><time>2026-03-29T07:25:21Z</time></trkpt><trkpt lat="43.767737308975114" lon="11.060158920613006"><ele>36.0</ele><time>2026-03-29T07:25:23Z</time></trkpt><trkpt lat="43.767672100808724" lon="11.06013067751699"><ele>36.0</ele><time>2026-03-29T07:25:24Z</time></trkpt><trkpt lat="43.767604291963664" lon="11.060101288387417"><ele>35.42857142857143</ele><time>2026-03-29T07:25:25Z</time></trkpt><trkpt lat="43.767538599598" lon="11.06006351772582"><ele>34.85714285714286</ele><time>2026-03-29T07:25:26Z</time></trkpt><trkpt lat="43.767472378252435" lon="11.060037876341093"><ele>34.285714285714285</ele><time>2026-03-29T07:25:27Z</time></trkpt><trkpt lat="43.76740711917585" lon="11.06001060104842"><ele>33.714285714285715</ele><time>2026-03-29T07:25:28Z</time></trkpt><trkpt lat="43.76734354766446" lon="11.059978663839738"><ele>33.14285714285714</ele><time>2026-03-29T07:25:29Z</time></trkpt><trkpt lat="43.767278885076365" lon="11.05995247274855"><ele>32.57142857142857</ele><time>2026-03-29T07:25:30Z</time></trkpt><trkpt lat="43.767211869301455" lon="11.059920819749648"><ele>32.0</ele><time>2026-03-29T07:25:31Z</time></trkpt><trkpt lat="43.76714597857299" lon="11.059890041600974"><ele>32.0</ele><time>2026-03-29T07:25:32Z</time></trkpt><trkpt lat="43.76708179854448" lon="11.05986148563627"><ele>31.999999999999996</ele><time>2026-03-29T07:25:33Z</time></trkpt><trkpt lat="43.76701612277137" lon="11.059834089060905"><ele>32.0</ele><time>2026-03-29T07:25:34Z</time></trkpt><trkpt lat="43.76695161961546" lon="11.059807449840141"><ele>32.0</ele><time>2026-03-29T07:25:35Z</time></trkpt><trkpt lat="43.766886886427386" lon="11.059777058098847"><ele>31.999999999999996</ele><time>2026-03-29T07:25:36Z</time></trkpt><trkpt lat="43.76682618240699" lon="11.059749083232772"><ele>32.0</ele><time>2026-03-29T07:25:37Z</time></trkpt><trkpt lat="43.76676151981367" lon="11.059724904561156"><ele>32.0</ele><time>2026-03-29T07:25:38Z</time></trkpt><trkpt lat="43.766692258951814" lon="11.059700074102022"><ele>32.14285714285714</ele><time>2026-03-29T07:25:39Z</time></trkpt><trkpt lat="43.76663181382137" lon="11.059671446322733"><ele>32.285714285714285</ele><time>2026-03-29T07:25:40Z</time></trkpt><trkpt lat="43.76656630264627" lon="11.05965111763855"><ele>32.42857142857143</ele><time>2026-03-29T07:25:41Z</time></trkpt><trkpt lat="43.766502236322694" lon="11.059633111625994"><ele>32.57142857142857</ele><time>2026-03-29T07:25:42Z</time></trkpt><trkpt lat="43.7664380110803" lon="11.059610301615177"><ele>32.714285714285715</ele><time>2026-03-29T07:25:43Z</time></trkpt><trkpt lat="43.76637239609575" lon="11.05958807856454"><ele>32.857142857142854</ele><time>2026-03-29T07:25:44Z</time></trkpt><trkpt lat="43.76630612770358" lon="11.059573333546101"><ele>33.0</ele><time>2026-03-29T07:25:45Z</time></trkpt><trkpt lat="43.76624144915993" lon="11.059557016774638"><ele>33.0</ele><time>2026-03-29T07:25:46Z</time></trkpt><trkpt lat="43.76617419870694" lon="11.059548291275869"><ele>33.0</ele><time>2026-03-29T07:25:47Z</time></trkpt><trkpt lat="43.76610704275937" lon="11.059542492999377"><ele>33.0</ele><time>2026-03-29T07:25:48Z</time></trkpt><trkpt lat="43.76604296468351" lon="11.059535489083494"><ele>33.0</ele><time>2026-03-29T07:25:49Z</time></trkpt><trkpt lat="43.765973394838895" lon="11.059532443301563"><ele>33.0</ele><time>2026-03-29T07:25:50Z</time></trkpt><trkpt lat="43.76590891559019" lon="11.05952592834409"><ele>33.0</ele><time>2026-03-29T07:25:51Z</time></trkpt><trkpt lat="43.76584164212274" lon="11.059515045316576"><ele>33.0</ele><time>2026-03-29T07:25:52Z</time></trkpt><trkpt lat="43.76577285799908" lon="11.059513212417519"><ele>33.199999999999996</ele><time>2026-03-29T07:25:53Z</time></trkpt><trkpt lat="43.76570343506607" lon="11.059505212433292"><ele>33.4</ele><time>2026-03-29T07:25:54Z</time></trkpt><trkpt lat="43.76557553427621" lon="11.059495094703045"><ele>33.599999999999994</ele><time>2026-03-29T07:25:56Z</time></trkpt><trkpt lat="43.76550596712977" lon="11.059493746666526"><ele>33.8</ele><time>2026-03-29T07:25:57Z</time></trkpt><trkpt lat="43.76537798190569" lon="11.059483415879907"><ele>34.0</ele><time>2026-03-29T07:25:59Z</time></trkpt><trkpt lat="43.765313074512214" lon="11.059477920467664"><ele>34.14285714285714</ele><time>2026-03-29T07:26:00Z</time></trkpt><trkpt lat="43.76518533981167" lon="11.059483114829082"><ele>34.285714285714285</ele><time>2026-03-29T07:26:02Z</time></trkpt><trkpt lat="43.76511999723455" lon="11.059483049271591"><ele>34.42857142857143</ele><time>2026-03-29T07:26:03Z</time></trkpt><trkpt lat="43.765057093513335" lon="11.05947817955261"><ele>34.57142857142857</ele><time>2026-03-29T07:26:04Z</time></trkpt><trkpt lat="43.76499399783976" lon="11.059490238237032"><ele>34.714285714285715</ele><time>2026-03-29T07:26:05Z</time></trkpt><trkpt lat="43.764930358445184" lon="11.05950377461232"><ele>34.857142857142854</ele><time>2026-03-29T07:26:06Z</time></trkpt><trkpt lat="43.76486576661053" lon="11.059512367474078"><ele>35.0</ele><time>2026-03-29T07:26:07Z</time></trkpt><trkpt lat="43.764743249098096" lon="11.059522968496514"><ele>35.0</ele><time>2026-03-29T07:26:09Z</time></trkpt><trkpt lat="43.764680800352" lon="11.059536537384679"><ele>35.0</ele><time>2026-03-29T07:26:10Z</time></trkpt><trkpt lat="43.764555385691736" lon="11.059562571766824"><ele>35.0</ele><time>2026-03-29T07:26:12Z</time></trkpt><trkpt lat="43.76449256127728" lon="11.059587967016272"><ele>35.0</ele><time>2026-03-29T07:26:13Z</time></trkpt><trkpt lat="43.76442465743465" lon="11.059583593703707"><ele>35.0</ele><time>2026-03-29T07:26:14Z</time></trkpt><trkpt lat="43.76435723006537" lon="11.059595584567791"><ele>35.0</ele><time>2026-03-29T07:26:15Z</time></trkpt><trkpt lat="43.76428719909297" lon="11.059606416359452"><ele>35.0</ele><time>2026-03-29T07:26:16Z</time></trkpt><trkpt lat="43.76421268819406" lon="11.059603921796294"><ele>35.0</ele><time>2026-03-29T07:26:17Z</time></trkpt><trkpt lat="43.76414681729193" lon="11.059590024881574"><ele>35.0</ele><time>2026-03-29T07:26:18Z</time></trkpt><trkpt lat="43.764078697481835" lon="11.05959336801433"><ele>35.0</ele><time>2026-03-29T07:26:19Z</time></trkpt><trkpt lat="43.76399850313023" lon="11.05959731200893"><ele>35.0</ele><time>2026-03-29T07:26:20Z</time></trkpt><trkpt lat="43.76392341661391" lon="11.059601004791823"><ele>35.0</ele><time>2026-03-29T07:26:21Z</time></trkpt><trkpt lat="43.763853904634125" lon="11.059604423405109"><ele>35.0</ele><time>2026-03-29T07:26:22Z</time></trkpt><trkpt lat="43.76372898053372" lon="11.05961056720383"><ele>35.0</ele><time>2026-03-29T07:26:24Z</time></trkpt><trkpt lat="43.763653716869605" lon="11.05961584781423"><ele>35.0</ele><time>2026-03-29T07:26:25Z</time></trkpt><trkpt lat="43.76358238220365" lon="11.059621971521842"><ele>35.0</ele><time>2026-03-29T07:26:26Z</time></trkpt><trkpt lat="43.763518896171156" lon="11.05963962870351"><ele>35.0</ele><time>2026-03-29T07:26:27Z</time></trkpt><trkpt lat="43.763451583002286" lon="11.059651415962298"><ele>35.0</ele><time>2026-03-29T07:26:28Z</time></trkpt><trkpt lat="43.76338692655796" lon="11.059659558245436"><ele>35.0</ele><time>2026-03-29T07:26:29Z</time></trkpt><trkpt lat="43.76325958567449" lon="11.059670751068396"><ele>35.0</ele><time>2026-03-29T07:26:31Z</time></trkpt><trkpt lat="43.76319242310354" lon="11.059676510779813"><ele>35.0</ele><time>2026-03-29T07:26:32Z</time></trkpt><trkpt lat="43.76312660909986" lon="11.059685309578725"><ele>35.0</ele><time>2026-03-29T07:26:33Z</time></trkpt><trkpt lat="43.76306260265968" lon="11.05969360427718"><ele>35.0</ele><time>2026-03-29T07:26:34Z</time></trkpt><trkpt lat="43.76299719177209" lon="11.059708637278558"><ele>35.0</ele><time>2026-03-29T07:26:35Z</time></trkpt><trkpt lat="43.76293310897018" lon="11.0597185634357"><ele>35.0</ele><time>2026-03-29T07:26:36Z</time></trkpt><trkpt lat="43.762866923587694" lon="11.059728760478452"><ele>35.0</ele><time>2026-03-29T07:26:37Z</time></trkpt><trkpt lat="43.762741194735334" lon="11.059773360107119"><ele>34.666666666666664</ele><time>2026-03-29T07:26:39Z</time></trkpt><trkpt lat="43.7626717079546" lon="11.059775558785375"><ele>34.33333333333333</ele><time>2026-03-29T07:26:40Z</time></trkpt><trkpt lat="43.76260448328852" lon="11.059778297224085"><ele>34.0</ele><time>2026-03-29T07:26:41Z</time></trkpt><trkpt lat="43.76253666976763" lon="11.05977843428055"><ele>33.666666666666664</ele><time>2026-03-29T07:26:42Z</time></trkpt><trkpt lat="43.76247208454671" lon="11.059779228963738"><ele>33.333333333333336</ele><time>2026-03-29T07:26:43Z</time></trkpt><trkpt lat="43.76234897262807" lon="11.059760067102825"><ele>33.0</ele><time>2026-03-29T07:26:45Z</time></trkpt><trkpt lat="43.76223621316845" lon="11.059735557791361"><ele>33.0</ele><time>2026-03-29T07:26:47Z</time></trkpt><trkpt lat="43.76212397392862" lon="11.059715458530588"><ele>33.0</ele><time>2026-03-29T07:26:49Z</time></trkpt><trkpt lat="43.762009836233716" lon="11.059681352862004"><ele>33.0</ele><time>2026-03-29T07:26:51Z</time></trkpt><trkpt lat="43.76189733825017" lon="11.05965928320901"><ele>33.0</ele><time>2026-03-29T07:26:53Z</time></trkpt><trkpt lat="43.7617783803832" lon="11.059634473261704"><ele>33.166666666666664</ele><time>2026-03-29T07:26:55Z</time></trkpt><trkpt lat="43.761662696420046" lon="11.059602666938408"><ele>33.333333333333336</ele><time>2026-03-29T07:26:57Z</time></trkpt><trkpt lat="43.76159720402389" lon="11.059591233988797"><ele>33.5</ele><time>2026-03-29T07:26:58Z</time></trkpt><trkpt lat="43.76147432931209" lon="11.059560132616356"><ele>33.66666666666667</ele><time>2026-03-29T07:27:00Z</time></trkpt><trkpt lat="43.76140710467192" lon="11.05954150396823"><ele>33.833333333333336</ele><time>2026-03-29T07:27:01Z</time></trkpt><trkpt lat="43.761343481365365" lon="11.059525063995158"><ele>34.0</ele><time>2026-03-29T07:27:02Z</time></trkpt><trkpt lat="43.76127234131345" lon="11.059506794305449"><ele>33.99999999999999</ele><time>2026-03-29T07:27:03Z</time></trkpt><trkpt lat="43.761204097090356" lon="11.059488600841613"><ele>34.0</ele><time>2026-03-29T07:27:04Z</time></trkpt><trkpt lat="43.76113389599284" lon="11.059467325889212"><ele>34.0</ele><time>2026-03-29T07:27:05Z</time></trkpt><trkpt lat="43.761063262747555" lon="11.05944353999941"><ele>34.0</ele><time>2026-03-29T07:27:06Z</time></trkpt><trkpt lat="43.76099383985235" lon="11.05942036462773"><ele>34.0</ele><time>2026-03-29T07:27:07Z</time></trkpt><trkpt lat="43.760924975637195" lon="11.059396484231405"><ele>33.99999999999999</ele><time>2026-03-29T07:27:08Z</time></trkpt><trkpt lat="43.760863884480905" lon="11.059368286877934"><ele>34.0</ele><time>2026-03-29T07:27:09Z</time></trkpt><trkpt lat="43.760790647577004" lon="11.059344614118912"><ele>33.99999999999999</ele><time>2026-03-29T07:27:10Z</time></trkpt><trkpt lat="43.7607218648644" lon="11.059311333898009"><ele>34.0</ele><time>2026-03-29T07:27:11Z</time></trkpt><trkpt lat="43.76065931918898" lon="11.059285761411415"><ele>34.0</ele><time>2026-03-29T07:27:12Z</time></trkpt><trkpt lat="43.76059505983188" lon="11.059261926575198"><ele>34.0</ele><time>2026-03-29T07:27:13Z</time></trkpt><trkpt lat="43.76053124509454" lon="11.059234529872116"><ele>34.0</ele><time>2026-03-29T07:27:14Z</time></trkpt><trkpt lat="43.76046721637568" lon="11.059204172082575"><ele>33.99999999999999</ele><time>2026-03-29T07:27:15Z</time></trkpt><trkpt lat="43.760402904068734" lon="11.059174074431574"><ele>34.0</ele><time>2026-03-29T07:27:16Z</time></trkpt><trkpt lat="43.76034031510314" lon="11.059146150145533"><ele>33.857142857142854</ele><time>2026-03-29T07:27:17Z</time></trkpt><trkpt lat="43.760278268943985" lon="11.059106164916674"><ele>33.714285714285715</ele><time>2026-03-29T07:27:18Z</time></trkpt><trkpt lat="43.76021755493176" lon="11.059070393019912"><ele>33.57142857142857</ele><time>2026-03-29T07:27:19Z</time></trkpt><trkpt lat="43.760152809320566" lon="11.05903723660409"><ele>33.42857142857143</ele><time>2026-03-29T07:27:20Z</time></trkpt><trkpt lat="43.76009169159652" lon="11.059006237816424"><ele>33.285714285714285</ele><time>2026-03-29T07:27:21Z</time></trkpt><trkpt lat="43.76003155910456" lon="11.058976168079113"><ele>33.14285714285714</ele><time>2026-03-29T07:27:22Z</time></trkpt><trkpt lat="43.75997101553362" lon="11.058947954247392"><ele>33.0</ele><time>2026-03-29T07:27:23Z</time></trkpt><trkpt lat="43.759909821706216" lon="11.058917010221165"><ele>33.0</ele><time>2026-03-29T07:27:24Z</time></trkpt><trkpt lat="43.75984772764652" lon="11.058881507295084"><ele>33.0</ele><time>2026-03-29T07:27:25Z</time></trkpt><trkpt lat="43.759786070680164" lon="11.058848550538826"><ele>33.0</ele><time>2026-03-29T07:27:26Z</time></trkpt><trkpt lat="43.7597230738483" lon="11.058823028879061"><ele>33.0</ele><time>2026-03-29T07:27:27Z</time></trkpt><trkpt lat="43.75965980458912" lon="11.05879531583855"><ele>33.0</ele><time>2026-03-29T07:27:28Z</time></trkpt><trkpt lat="43.759597676407694" lon="11.058758895791788"><ele>33.0</ele><time>2026-03-29T07:27:29Z</time></trkpt><trkpt lat="43.75953676347835" lon="11.058724101675727"><ele>33.0</ele><time>2026-03-29T07:27:30Z</time></trkpt><trkpt lat="43.759477126923365" lon="11.05868583303506"><ele>33.0</ele><time>2026-03-29T07:27:31Z</time></trkpt><trkpt lat="43.75941492784999" lon="11.058644123423644"><ele>33.0</ele><time>2026-03-29T07:27:32Z</time></trkpt><trkpt lat="43.759335689043894" lon="11.058598499369964"><ele>33.0</ele><time>2026-03-29T07:27:33Z</time></trkpt><trkpt lat="43.75923188443724" lon="11.05850235893021"><ele>33.0</ele><time>2026-03-29T07:27:35Z</time></trkpt><trkpt lat="43.7591748599132" lon="11.05845147882685"><ele>33.0</ele><time>2026-03-29T07:27:36Z</time></trkpt><trkpt lat="43.75911256745704" lon="11.058396306429255"><ele>33.0</ele><time>2026-03-29T07:27:37Z</time></trkpt><trkpt lat="43.759063903988825" lon="11.058330971095588"><ele>33.0</ele><time>2026-03-29T07:27:38Z</time></trkpt><trkpt lat="43.75901752296463" lon="11.058253916238483"><ele>33.0</ele><time>2026-03-29T07:27:39Z</time></trkpt><trkpt lat="43.75897955158857" lon="11.058175624509959"><ele>33.0</ele><time>2026-03-29T07:27:40Z</time></trkpt><trkpt lat="43.75895898573251" lon="11.058083847106575"><ele>33.0</ele><time>2026-03-29T07:27:41Z</time></trkpt><trkpt lat="43.75889299458139" lon="11.057938253927386"><ele>33.0</ele><time>2026-03-29T07:27:43Z</time></trkpt><trkpt lat="43.75884628207926" lon="11.05778267562035"><ele>33.0</ele><time>2026-03-29T07:27:45Z</time></trkpt><trkpt lat="43.758790279319" lon="11.057630730927535"><ele>33.0</ele><time>2026-03-29T07:27:47Z</time></trkpt><trkpt lat="43.75873719312118" lon="11.057476916969058"><ele>33.0</ele><time>2026-03-29T07:27:49Z</time></trkpt><trkpt lat="43.7586881155798" lon="11.057327830290195"><ele>33.0</ele><time>2026-03-29T07:27:51Z</time></trkpt><trkpt lat="43.75863612777059" lon="11.057178640893328"><ele>32.5</ele><time>2026-03-29T07:27:53Z</time></trkpt><trkpt lat="43.75858511180447" lon="11.05703419763582"><ele>32.0</ele><time>2026-03-29T07:27:55Z</time></trkpt><trkpt lat="43.75853286079058" lon="11.056890133108979"><ele>31.5</ele><time>2026-03-29T07:27:57Z</time></trkpt><trkpt lat="43.75847621217966" lon="11.056751041888718"><ele>31.0</ele><time>2026-03-29T07:27:59Z</time></trkpt><trkpt lat="43.75841854222738" lon="11.05661628082625"><ele>33.25</ele><time>2026-03-29T07:28:01Z</time></trkpt><trkpt lat="43.75834354801479" lon="11.056488852794907"><ele>35.5</ele><time>2026-03-29T07:28:03Z</time></trkpt><trkpt lat="43.758294790500514" lon="11.056344791804488"><ele>37.75</ele><time>2026-03-29T07:28:05Z</time></trkpt><trkpt lat="43.75823684556523" lon="11.05620968795047"><ele>40.0</ele><time>2026-03-29T07:28:07Z</time></trkpt><trkpt lat="43.75818870658536" lon="11.05606690210165"><ele>40.0</ele><time>2026-03-29T07:28:09Z</time></trkpt><trkpt lat="43.758140159642885" lon="11.055923218494108"><ele>40.0</ele><time>2026-03-29T07:28:11Z</time></trkpt><trkpt lat="43.75810079275366" lon="11.05577302222016"><ele>40.0</ele><time>2026-03-29T07:28:13Z</time></trkpt><trkpt lat="43.75806841167892" lon="11.055618733220445"><ele>40.0</ele><time>2026-03-29T07:28:15Z</time></trkpt><trkpt lat="43.75804099820996" lon="11.055470687497596"><ele>39.0</ele><time>2026-03-29T07:28:17Z</time></trkpt><trkpt lat="43.75801477587529" lon="11.055321532393958"><ele>38.0</ele><time>2026-03-29T07:28:19Z</time></trkpt><trkpt lat="43.7579863342801" lon="11.055168708935168"><ele>37.0</ele><time>2026-03-29T07:28:21Z</time></trkpt><trkpt lat="43.757961047292284" lon="11.0550146852788"><ele>36.0</ele><time>2026-03-29T07:28:23Z</time></trkpt><trkpt lat="43.75794266537801" lon="11.054847951458743"><ele>36.00000000000001</ele><time>2026-03-29T07:28:25Z</time></trkpt><trkpt lat="43.75794202317521" lon="11.054677891070112"><ele>36.0</ele><time>2026-03-29T07:28:27Z</time></trkpt><trkpt lat="43.75794370488976" lon="11.054588411475935"><ele>36.0</ele><time>2026-03-29T07:28:28Z</time></trkpt><trkpt lat="43.75794885330144" lon="11.05450124412355"><ele>36.0</ele><time>2026-03-29T07:28:29Z</time></trkpt><trkpt lat="43.75795543070272" lon="11.05441321488247"><ele>36.0</ele><time>2026-03-29T07:28:30Z</time></trkpt><trkpt lat="43.75796360713195" lon="11.054322496152157"><ele>36.00000000000001</ele><time>2026-03-29T07:28:31Z</time></trkpt><trkpt lat="43.75797952112645" lon="11.054237482171366"><ele>36.0</ele><time>2026-03-29T07:28:32Z</time></trkpt><trkpt lat="43.75799743753545" lon="11.054148211609464"><ele>37.42857142857143</ele><time>2026-03-29T07:28:33Z</time></trkpt><trkpt lat="43.758017343015055" lon="11.054061230827793"><ele>38.85714285714286</ele><time>2026-03-29T07:28:34Z</time></trkpt><trkpt lat="43.75804011391166" lon="11.053975779658407"><ele>40.28571428571429</ele><time>2026-03-29T07:28:35Z</time></trkpt><trkpt lat="43.758065378561774" lon="11.053895651671874"><ele>41.714285714285715</ele><time>2026-03-29T07:28:36Z</time></trkpt><trkpt lat="43.75809320564646" lon="11.053812344167067"><ele>43.14285714285714</ele><time>2026-03-29T07:28:37Z</time></trkpt><trkpt lat="43.758122259642306" lon="11.053732520669506"><ele>44.57142857142858</ele><time>2026-03-29T07:28:38Z</time></trkpt><trkpt lat="43.7581761445947" lon="11.053578883596517"><ele>46.0</ele><time>2026-03-29T07:28:40Z</time></trkpt><trkpt lat="43.758203984458426" lon="11.053496428566923"><ele>46.0</ele><time>2026-03-29T07:28:41Z</time></trkpt><trkpt lat="43.758235544027784" lon="11.053334265150301"><ele>46.0</ele><time>2026-03-29T07:28:43Z</time></trkpt><trkpt lat="43.758254188532504" lon="11.053247389603907"><ele>46.0</ele><time>2026-03-29T07:28:44Z</time></trkpt><trkpt lat="43.75826960746873" lon="11.053161910113348"><ele>46.0</ele><time>2026-03-29T07:28:45Z</time></trkpt><trkpt lat="43.75830827839349" lon="11.053000661396489"><ele>46.0</ele><time>2026-03-29T07:28:47Z</time></trkpt><trkpt lat="43.75833460921896" lon="11.05283314572823"><ele>48.0</ele><time>2026-03-29T07:28:49Z</time></trkpt><trkpt lat="43.75835256912419" lon="11.052747684898787"><ele>50.0</ele><time>2026-03-29T07:28:50Z</time></trkpt><trkpt lat="43.75838586579272" lon="11.052582745931206"><ele>51.99999999999999</ele><time>2026-03-29T07:28:52Z</time></trkpt><trkpt lat="43.758426001777785" lon="11.052418689700952"><ele>54.0</ele><time>2026-03-29T07:28:54Z</time></trkpt><trkpt lat="43.758469037107695" lon="11.052260249704196"><ele>56.0</ele><time>2026-03-29T07:28:56Z</time></trkpt><trkpt lat="43.75851470095904" lon="11.05211049766284"><ele>54.0</ele><time>2026-03-29T07:28:58Z</time></trkpt><trkpt lat="43.75856588345603" lon="11.051954253434314"><ele>51.99999999999999</ele><time>2026-03-29T07:29:00Z</time></trkpt><trkpt lat="43.75859351123422" lon="11.05187386775766"><ele>50.0</ele><time>2026-03-29T07:29:01Z</time></trkpt><trkpt lat="43.758645788813745" lon="11.051717389326509"><ele>48.0</ele><time>2026-03-29T07:29:03Z</time></trkpt><trkpt lat="43.7586960744117" lon="11.051560891346314"><ele>46.0</ele><time>2026-03-29T07:29:05Z</time></trkpt><trkpt lat="43.75872766974502" lon="11.051475207925087"><ele>46.0</ele><time>2026-03-29T07:29:06Z</time></trkpt><trkpt lat="43.75876814862039" lon="11.051383857178482"><ele>46.0</ele><time>2026-03-29T07:29:07Z</time></trkpt><trkpt lat="43.75884151017541" lon="11.051241867097072"><ele>46.0</ele><time>2026-03-29T07:29:09Z</time></trkpt><trkpt lat="43.75887716608262" lon="11.051161990881921"><ele>46.0</ele><time>2026-03-29T07:29:10Z</time></trkpt><trkpt lat="43.758915335068316" lon="11.051076689392715"><ele>46.0</ele><time>2026-03-29T07:29:11Z</time></trkpt><trkpt lat="43.75895919920757" lon="11.051004285287613"><ele>46.0</ele><time>2026-03-29T07:29:12Z</time></trkpt><trkpt lat="43.75899324197729" lon="11.050919541343513"><ele>46.0</ele><time>2026-03-29T07:29:13Z</time></trkpt><trkpt lat="43.75904446601042" lon="11.0508391603561"><ele>46.0</ele><time>2026-03-29T07:29:14Z</time></trkpt><trkpt lat="43.759081069014115" lon="11.050762098735538"><ele>46.0</ele><time>2026-03-29T07:29:15Z</time></trkpt><trkpt lat="43.75911583456507" lon="11.050684940921409"><ele>46.0</ele><time>2026-03-29T07:29:16Z</time></trkpt><trkpt lat="43.75916319740828" lon="11.050605635959231"><ele>46.0</ele><time>2026-03-29T07:29:17Z</time></trkpt><trkpt lat="43.75920303889442" lon="11.05052748418373"><ele>46.0</ele><time>2026-03-29T07:29:18Z</time></trkpt><trkpt lat="43.75923337345808" lon="11.050444746160002"><ele>46.0</ele><time>2026-03-29T07:29:19Z</time></trkpt><trkpt lat="43.75927162847467" lon="11.050362837161853"><ele>45.0</ele><time>2026-03-29T07:29:20Z</time></trkpt><trkpt lat="43.75931278141296" lon="11.050285637022657"><ele>44.0</ele><time>2026-03-29T07:29:21Z</time></trkpt><trkpt lat="43.75935123399412" lon="11.05020227107135"><ele>43.0</ele><time>2026-03-29T07:29:22Z</time></trkpt><trkpt lat="43.75939022178063" lon="11.050123524832715"><ele>42.0</ele><time>2026-03-29T07:29:23Z</time></trkpt><trkpt lat="43.75942360689483" lon="11.050041859277604"><ele>41.0</ele><time>2026-03-29T07:29:24Z</time></trkpt><trkpt lat="43.759469569020354" lon="11.049961946340392"><ele>40.0</ele><time>2026-03-29T07:29:25Z</time></trkpt><trkpt lat="43.75950586751802" lon="11.049881393354555"><ele>39.0</ele><time>2026-03-29T07:29:26Z</time></trkpt><trkpt lat="43.75954281824694" lon="11.049797912165829"><ele>39.0</ele><time>2026-03-29T07:29:27Z</time></trkpt><trkpt lat="43.75957668343575" lon="11.04971134517197"><ele>39.0</ele><time>2026-03-29T07:29:28Z</time></trkpt><trkpt lat="43.75961082241301" lon="11.049629826243406"><ele>39.0</ele><time>2026-03-29T07:29:29Z</time></trkpt><trkpt lat="43.75963854481878" lon="11.049540965943752"><ele>39.0</ele><time>2026-03-29T07:29:30Z</time></trkpt><trkpt lat="43.75967020484238" lon="11.049451338259505"><ele>39.0</ele><time>2026-03-29T07:29:31Z</time></trkpt><trkpt lat="43.75970562473741" lon="11.049366561256065"><ele>39.0</ele><time>2026-03-29T07:29:32Z</time></trkpt><trkpt lat="43.759741117364904" lon="11.049283398208596"><ele>39.0</ele><time>2026-03-29T07:29:33Z</time></trkpt><trkpt lat="43.75977875078767" lon="11.04920635270439"><ele>39.0</ele><time>2026-03-29T07:29:34Z</time></trkpt><trkpt lat="43.75982308693071" lon="11.04912888977354"><ele>39.0</ele><time>2026-03-29T07:29:35Z</time></trkpt><trkpt lat="43.75986044991701" lon="11.049054600821853"><ele>39.0</ele><time>2026-03-29T07:29:36Z</time></trkpt><trkpt lat="43.75991293562346" lon="11.048985844233254"><ele>39.0</ele><time>2026-03-29T07:29:37Z</time></trkpt><trkpt lat="43.75997437567241" lon="11.04886889925493"><ele>39.0</ele><time>2026-03-29T07:29:39Z</time></trkpt><trkpt lat="43.76001267121098" lon="11.048787921677574"><ele>39.0</ele><time>2026-03-29T07:29:40Z</time></trkpt><trkpt lat="43.760048898475375" lon="11.048713641295762"><ele>39.0</ele><time>2026-03-29T07:29:41Z</time></trkpt><trkpt lat="43.760119780104674" lon="11.048586771596597"><ele>38.0</ele><time>2026-03-29T07:29:43Z</time></trkpt><trkpt lat="43.76019997354672" lon="11.048451416612696"><ele>37.0</ele><time>2026-03-29T07:29:45Z</time></trkpt><trkpt lat="43.760264523820574" lon="11.048308799051675"><ele>36.0</ele><time>2026-03-29T07:29:47Z</time></trkpt><trkpt lat="43.760299634919384" lon="11.048236375400451"><ele>35.0</ele><time>2026-03-29T07:29:48Z</time></trkpt><trkpt lat="43.760339668481556" lon="11.048166387050475"><ele>34.0</ele><time>2026-03-29T07:29:49Z</time></trkpt><trkpt lat="43.76038746742846" lon="11.048097396175523"><ele>33.0</ele><time>2026-03-29T07:29:50Z</time></trkpt><trkpt lat="43.76043520312831" lon="11.04802833784214"><ele>35.285714285714285</ele><time>2026-03-29T07:29:51Z</time></trkpt><trkpt lat="43.76048635984433" lon="11.047958518440275"><ele>37.57142857142857</ele><time>2026-03-29T07:29:52Z</time></trkpt><trkpt lat="43.760533176524305" lon="11.047893387340933"><ele>39.85714285714286</ele><time>2026-03-29T07:29:53Z</time></trkpt><trkpt lat="43.76058759431084" lon="11.047832639059768"><ele>42.14285714285714</ele><time>2026-03-29T07:29:54Z</time></trkpt><trkpt lat="43.76064574380732" lon="11.047777015086885"><ele>44.42857142857143</ele><time>2026-03-29T07:29:55Z</time></trkpt><trkpt lat="43.76070844468347" lon="11.04772912877337"><ele>46.714285714285715</ele><time>2026-03-29T07:29:56Z</time></trkpt><trkpt lat="43.76077341047932" lon="11.04769364311965"><ele>49.0</ele><time>2026-03-29T07:29:57Z</time></trkpt><trkpt lat="43.76083824524762" lon="11.047657001502445"><ele>48.99999999999999</ele><time>2026-03-29T07:29:58Z</time></trkpt><trkpt lat="43.76090157987134" lon="11.047615847005172"><ele>49.0</ele><time>2026-03-29T07:29:59Z</time></trkpt><trkpt lat="43.76096459045266" lon="11.047588570704486"><ele>49.0</ele><time>2026-03-29T07:30:00Z</time></trkpt><trkpt lat="43.761025858962185" lon="11.047565962382379"><ele>49.0</ele><time>2026-03-29T07:30:01Z</time></trkpt><trkpt lat="43.76108589560334" lon="11.047533846166163"><ele>48.99999999999999</ele><time>2026-03-29T07:30:02Z</time></trkpt><trkpt lat="43.761147331325596" lon="11.047506060893815"><ele>49.0</ele><time>2026-03-29T07:30:03Z</time></trkpt><trkpt lat="43.761265828604046" lon="11.047446685270769"><ele>50.99999999999999</ele><time>2026-03-29T07:30:05Z</time></trkpt><trkpt lat="43.76137803055469" lon="11.047379634569092"><ele>53.0</ele><time>2026-03-29T07:30:07Z</time></trkpt><trkpt lat="43.76143530153963" lon="11.04733853555769"><ele>55.0</ele><time>2026-03-29T07:30:08Z</time></trkpt><trkpt lat="43.76153842205379" lon="11.047244287660156"><ele>57.0</ele><time>2026-03-29T07:30:10Z</time></trkpt><trkpt lat="43.76159591248405" lon="11.047198870970078"><ele>58.99999999999999</ele><time>2026-03-29T07:30:11Z</time></trkpt><trkpt lat="43.76165030167748" lon="11.04715212094147"><ele>61.0</ele><time>2026-03-29T07:30:12Z</time></trkpt><trkpt lat="43.7617082058369" lon="11.047107576931827"><ele>60.99999999999999</ele><time>2026-03-29T07:30:13Z</time></trkpt><trkpt lat="43.761765640442995" lon="11.04706163186468"><ele>61.0</ele><time>2026-03-29T07:30:14Z</time></trkpt><trkpt lat="43.761824259891895" lon="11.04701586484357"><ele>60.99999999999999</ele><time>2026-03-29T07:30:15Z</time></trkpt><trkpt lat="43.76188039223163" lon="11.046972385879627"><ele>60.99999999999999</ele><time>2026-03-29T07:30:16Z</time></trkpt><trkpt lat="43.76193854268781" lon="11.04692899419666"><ele>61.0</ele><time>2026-03-29T07:30:17Z</time></trkpt><trkpt lat="43.76199789818696" lon="11.046883322906075"><ele>60.99999999999999</ele><time>2026-03-29T07:30:18Z</time></trkpt><trkpt lat="43.76206123046541" lon="11.046841884525012"><ele>60.99999999999999</ele><time>2026-03-29T07:30:19Z</time></trkpt><trkpt lat="43.76211557028781" lon="11.04679759482039"><ele>63.28571428571428</ele><time>2026-03-29T07:30:20Z</time></trkpt><trkpt lat="43.762172068020945" lon="11.04675573215242"><ele>65.57142857142857</ele><time>2026-03-29T07:30:21Z</time></trkpt><trkpt lat="43.76222064403005" lon="11.046693786482953"><ele>67.85714285714286</ele><time>2026-03-29T07:30:22Z</time></trkpt><trkpt lat="43.76228073661174" lon="11.04665069752754"><ele>70.14285714285714</ele><time>2026-03-29T07:30:23Z</time></trkpt><trkpt lat="43.76233602522386" lon="11.04660833404745"><ele>72.42857142857143</ele><time>2026-03-29T07:30:24Z</time></trkpt><trkpt lat="43.762396849145595" lon="11.046567943186197"><ele>74.71428571428571</ele><time>2026-03-29T07:30:25Z</time></trkpt><trkpt lat="43.76245775888792" lon="11.046528589741191"><ele>77.0</ele><time>2026-03-29T07:30:26Z</time></trkpt><trkpt lat="43.76251357952476" lon="11.046481960403545"><ele>77.0</ele><time>2026-03-29T07:30:27Z</time></trkpt><trkpt lat="43.76257552929994" lon="11.046437894992613"><ele>77.0</ele><time>2026-03-29T07:30:28Z</time></trkpt><trkpt lat="43.76263327337907" lon="11.046395527720911"><ele>77.0</ele><time>2026-03-29T07:30:29Z</time></trkpt><trkpt lat="43.76269334648525" lon="11.046355533255719"><ele>77.0</ele><time>2026-03-29T07:30:30Z</time></trkpt><trkpt lat="43.76275351312494" lon="11.046309825120312"><ele>77.0</ele><time>2026-03-29T07:30:31Z</time></trkpt><trkpt lat="43.76281799720744" lon="11.046283052340417"><ele>77.0</ele><time>2026-03-29T07:30:32Z</time></trkpt><trkpt lat="43.76288761711322" lon="11.04626575951036"><ele>77.0</ele><time>2026-03-29T07:30:33Z</time></trkpt><trkpt lat="43.762957980771816" lon="11.046244650039903"><ele>72.83333333333334</ele><time>2026-03-29T07:30:34Z</time></trkpt><trkpt lat="43.76303125871613" lon="11.046231773917995"><ele>68.66666666666667</ele><time>2026-03-29T07:30:35Z</time></trkpt><trkpt lat="43.76310265988359" lon="11.046211698109733"><ele>64.5</ele><time>2026-03-29T07:30:36Z</time></trkpt><trkpt lat="43.763175849630734" lon="11.046188518049977"><ele>60.33333333333333</ele><time>2026-03-29T07:30:37Z</time></trkpt><trkpt lat="43.76324873549439" lon="11.046158080584846"><ele>56.166666666666664</ele><time>2026-03-29T07:30:38Z</time></trkpt><trkpt lat="43.76331836369578" lon="11.046117022196437"><ele>52.0</ele><time>2026-03-29T07:30:39Z</time></trkpt><trkpt lat="43.76338786486926" lon="11.04607201526784"><ele>52.0</ele><time>2026-03-29T07:30:40Z</time></trkpt><trkpt lat="43.76345015286746" lon="11.046013039425171"><ele>52.0</ele><time>2026-03-29T07:30:41Z</time></trkpt><trkpt lat="43.7635157255428" lon="11.045954279592387"><ele>52.0</ele><time>2026-03-29T07:30:42Z</time></trkpt><trkpt lat="43.76357868540147" lon="11.045895293236743"><ele>52.0</ele><time>2026-03-29T07:30:43Z</time></trkpt><trkpt lat="43.763642030660804" lon="11.045837748428989"><ele>52.0</ele><time>2026-03-29T07:30:44Z</time></trkpt><trkpt lat="43.76370005101002" lon="11.04577992979067"><ele>52.0</ele><time>2026-03-29T07:30:45Z</time></trkpt><trkpt lat="43.763750107122135" lon="11.045713074766967"><ele>52.0</ele><time>2026-03-29T07:30:46Z</time></trkpt><trkpt lat="43.76379681021652" lon="11.045650766900904"><ele>50.857142857142854</ele><time>2026-03-29T07:30:47Z</time></trkpt><trkpt lat="43.763851339109515" lon="11.045589489538182"><ele>49.714285714285715</ele><time>2026-03-29T07:30:48Z</time></trkpt><trkpt lat="43.76391152620108" lon="11.045531415465007"><ele>48.57142857142857</ele><time>2026-03-29T07:30:49Z</time></trkpt><trkpt lat="43.7639612241706" lon="11.045467350729217"><ele>47.42857142857143</ele><time>2026-03-29T07:30:50Z</time></trkpt><trkpt lat="43.7640110934596" lon="11.04539362332853"><ele>46.285714285714285</ele><time>2026-03-29T07:30:51Z</time></trkpt><trkpt lat="43.76405953202471" lon="11.045325933954183"><ele>45.142857142857146</ele><time>2026-03-29T07:30:52Z</time></trkpt><trkpt lat="43.764110175611556" lon="11.045255265720257"><ele>44.0</ele><time>2026-03-29T07:30:53Z</time></trkpt><trkpt lat="43.764162760356975" lon="11.045190197699373"><ele>44.0</ele><time>2026-03-29T07:30:54Z</time></trkpt><trkpt lat="43.76421050749108" lon="11.045123955357676"><ele>44.0</ele><time>2026-03-29T07:30:55Z</time></trkpt><trkpt lat="43.76425860891153" lon="11.04505660298693"><ele>44.0</ele><time>2026-03-29T07:30:56Z</time></trkpt><trkpt lat="43.76431274464537" lon="11.044992462753664"><ele>44.0</ele><time>2026-03-29T07:30:57Z</time></trkpt><trkpt lat="43.764361881066144" lon="11.044924899079625"><ele>44.0</ele><time>2026-03-29T07:30:58Z</time></trkpt><trkpt lat="43.76440977083062" lon="11.044861405530064"><ele>44.0</ele><time>2026-03-29T07:30:59Z</time></trkpt><trkpt lat="43.76445975738376" lon="11.044795443424352"><ele>44.0</ele><time>2026-03-29T07:31:00Z</time></trkpt><trkpt lat="43.764516050784586" lon="11.044734538414739"><ele>42.6</ele><time>2026-03-29T07:31:01Z</time></trkpt><trkpt lat="43.76456053087355" lon="11.04467026861972"><ele>41.2</ele><time>2026-03-29T07:31:02Z</time></trkpt><trkpt lat="43.76465122324792" lon="11.04454769841994"><ele>39.800000000000004</ele><time>2026-03-29T07:31:04Z</time></trkpt><trkpt lat="43.764736614692445" lon="11.044423730343002"><ele>38.400000000000006</ele><time>2026-03-29T07:31:06Z</time></trkpt><trkpt lat="43.76481012044642" lon="11.044281421664609"><ele>37.0</ele><time>2026-03-29T07:31:08Z</time></trkpt><trkpt lat="43.76484486897524" lon="11.044200159990732"><ele>37.16666666666667</ele><time>2026-03-29T07:31:09Z</time></trkpt><trkpt lat="43.76487944151028" lon="11.044109147412732"><ele>37.333333333333336</ele><time>2026-03-29T07:31:10Z</time></trkpt><trkpt lat="43.764913720366614" lon="11.044013206913913"><ele>37.5</ele><time>2026-03-29T07:31:11Z</time></trkpt><trkpt lat="43.76494835982622" lon="11.04391295750717"><ele>37.666666666666664</ele><time>2026-03-29T07:31:12Z</time></trkpt><trkpt lat="43.76498163393636" lon="11.043808847191908"><ele>37.83333333333333</ele><time>2026-03-29T07:31:13Z</time></trkpt><trkpt lat="43.76501500849802" lon="11.043700093282618"><ele>38.0</ele><time>2026-03-29T07:31:14Z</time></trkpt><trkpt lat="43.76504758366634" lon="11.043585590761277"><ele>38.0</ele><time>2026-03-29T07:31:15Z</time></trkpt><trkpt lat="43.76508553930049" lon="11.043474642212322"><ele>38.0</ele><time>2026-03-29T07:31:16Z</time></trkpt><trkpt lat="43.765122091209506" lon="11.043362959530096"><ele>38.0</ele><time>2026-03-29T07:31:17Z</time></trkpt><trkpt lat="43.76515763470341" lon="11.043251197768118"><ele>38.0</ele><time>2026-03-29T07:31:18Z</time></trkpt><trkpt lat="43.76519637906047" lon="11.043137841595"><ele>38.0</ele><time>2026-03-29T07:31:19Z</time></trkpt><trkpt lat="43.76523012095737" lon="11.043027229819097"><ele>38.0</ele><time>2026-03-29T07:31:20Z</time></trkpt><trkpt lat="43.765265212818484" lon="11.042914768421104"><ele>37.33333333333333</ele><time>2026-03-29T07:31:21Z</time></trkpt><trkpt lat="43.765298400144474" lon="11.042807122266783"><ele>36.666666666666664</ele><time>2026-03-29T07:31:22Z</time></trkpt><trkpt lat="43.76532976545098" lon="11.04269719431308"><ele>36.0</ele><time>2026-03-29T07:31:23Z</time></trkpt><trkpt lat="43.76535631897926" lon="11.042586965605606"><ele>35.333333333333336</ele><time>2026-03-29T07:31:24Z</time></trkpt><trkpt lat="43.765385124419936" lon="11.042475343046931"><ele>34.66666666666667</ele><time>2026-03-29T07:31:25Z</time></trkpt><trkpt lat="43.765418370129964" lon="11.042368765273158"><ele>34.0</ele><time>2026-03-29T07:31:26Z</time></trkpt><trkpt lat="43.76544347669851" lon="11.042263963538693"><ele>34.0</ele><time>2026-03-29T07:31:27Z</time></trkpt><trkpt lat="43.76546403867906" lon="11.042158253499599"><ele>34.0</ele><time>2026-03-29T07:31:28Z</time></trkpt><trkpt lat="43.765495150549995" lon="11.042057830051794"><ele>34.0</ele><time>2026-03-29T07:31:29Z</time></trkpt><trkpt lat="43.765521559098794" lon="11.041956314439606"><ele>34.0</ele><time>2026-03-29T07:31:30Z</time></trkpt><trkpt lat="43.76554846436702" lon="11.04186086276303"><ele>34.0</ele><time>2026-03-29T07:31:31Z</time></trkpt><trkpt lat="43.76557320280366" lon="11.041762608290684"><ele>34.0</ele><time>2026-03-29T07:31:32Z</time></trkpt><trkpt lat="43.765599675428646" lon="11.041663331417832"><ele>34.14285714285714</ele><time>2026-03-29T07:31:33Z</time></trkpt><trkpt lat="43.765623029406996" lon="11.04156874169054"><ele>34.285714285714285</ele><time>2026-03-29T07:31:34Z</time></trkpt><trkpt lat="43.76564183954539" lon="11.041471276562055"><ele>34.42857142857143</ele><time>2026-03-29T07:31:35Z</time></trkpt><trkpt lat="43.76566154255539" lon="11.041375666160759"><ele>34.57142857142857</ele><time>2026-03-29T07:31:36Z</time></trkpt><trkpt lat="43.76567914796989" lon="11.041281322329866"><ele>34.714285714285715</ele><time>2026-03-29T07:31:37Z</time></trkpt><trkpt lat="43.76569464457561" lon="11.041185738637965"><ele>34.857142857142854</ele><time>2026-03-29T07:31:38Z</time></trkpt><trkpt lat="43.76570780136572" lon="11.041095883473021"><ele>35.0</ele><time>2026-03-29T07:31:39Z</time></trkpt><trkpt lat="43.76571824268689" lon="11.040996774097172"><ele>35.0</ele><time>2026-03-29T07:31:40Z</time></trkpt><trkpt lat="43.76572822791357" lon="11.040903188330963"><ele>35.0</ele><time>2026-03-29T07:31:41Z</time></trkpt><trkpt lat="43.76574245050022" lon="11.040811751175843"><ele>35.0</ele><time>2026-03-29T07:31:42Z</time></trkpt><trkpt lat="43.765754294355986" lon="11.040720858562441"><ele>35.0</ele><time>2026-03-29T07:31:43Z</time></trkpt><trkpt lat="43.76576330017388" lon="11.040624475168888"><ele>35.0</ele><time>2026-03-29T07:31:44Z</time></trkpt><trkpt lat="43.765770427447904" lon="11.040528418924227"><ele>35.0</ele><time>2026-03-29T07:31:45Z</time></trkpt><trkpt lat="43.76578044210129" lon="11.0404359129365"><ele>35.0</ele><time>2026-03-29T07:31:46Z</time></trkpt><trkpt lat="43.765788112964124" lon="11.04034546114051"><ele>35.0</ele><time>2026-03-29T07:31:47Z</time></trkpt><trkpt lat="43.76579216704873" lon="11.040253489541826"><ele>35.0</ele><time>2026-03-29T07:31:48Z</time></trkpt><trkpt lat="43.76579393477897" lon="11.040163339458267"><ele>35.0</ele><time>2026-03-29T07:31:49Z</time></trkpt><trkpt lat="43.7658039355281" lon="11.040073943706556"><ele>35.0</ele><time>2026-03-29T07:31:50Z</time></trkpt><trkpt lat="43.765813392128855" lon="11.039983931112465"><ele>35.0</ele><time>2026-03-29T07:31:51Z</time></trkpt><trkpt lat="43.76581499727756" lon="11.039894435590938"><ele>35.0</ele><time>2026-03-29T07:31:52Z</time></trkpt><trkpt lat="43.76581706114309" lon="11.03980443805434"><ele>35.0</ele><time>2026-03-29T07:31:53Z</time></trkpt><trkpt lat="43.76581789724069" lon="11.039715050735907"><ele>35.0</ele><time>2026-03-29T07:31:54Z</time></trkpt><trkpt lat="43.76582196800312" lon="11.039624446117799"><ele>35.0</ele><time>2026-03-29T07:31:55Z</time></trkpt><trkpt lat="43.76582712759429" lon="11.039532292256428"><ele>35.0</ele><time>2026-03-29T07:31:56Z</time></trkpt><trkpt lat="43.76583256898315" lon="11.039439700029812"><ele>35.0</ele><time>2026-03-29T07:31:57Z</time></trkpt><trkpt lat="43.76583787153972" lon="11.039348745722204"><ele>35.0</ele><time>2026-03-29T07:31:58Z</time></trkpt><trkpt lat="43.76583938786261" lon="11.039259190417374"><ele>35.0</ele><time>2026-03-29T07:31:59Z</time></trkpt><trkpt lat="43.7658411544058" lon="11.03916686628946"><ele>35.0</ele><time>2026-03-29T07:32:00Z</time></trkpt><trkpt lat="43.76583565717988" lon="11.038990594921133"><ele>34.83333333333333</ele><time>2026-03-29T07:32:02Z</time></trkpt><trkpt lat="43.7658292133191" lon="11.038899186630301"><ele>34.666666666666664</ele><time>2026-03-29T07:32:03Z</time></trkpt><trkpt lat="43.76581583503221" lon="11.038724942958002"><ele>34.5</ele><time>2026-03-29T07:32:05Z</time></trkpt><trkpt lat="43.76580374437585" lon="11.038636557456115"><ele>34.333333333333336</ele><time>2026-03-29T07:32:06Z</time></trkpt><trkpt lat="43.76579058665801" lon="11.038547511614288"><ele>34.16666666666667</ele><time>2026-03-29T07:32:07Z</time></trkpt><trkpt lat="43.76577323550253" lon="11.038457736075479"><ele>34.0</ele><time>2026-03-29T07:32:08Z</time></trkpt><trkpt lat="43.76576219864687" lon="11.038366870874615"><ele>33.71428571428571</ele><time>2026-03-29T07:32:09Z</time></trkpt><trkpt lat="43.76574631157931" lon="11.038280664537156"><ele>33.42857142857143</ele><time>2026-03-29T07:32:10Z</time></trkpt><trkpt lat="43.76573048439273" lon="11.038194198775795"><ele>33.14285714285714</ele><time>2026-03-29T07:32:11Z</time></trkpt><trkpt lat="43.76571381599789" lon="11.038107640381707"><ele>32.857142857142854</ele><time>2026-03-29T07:32:12Z</time></trkpt><trkpt lat="43.76569669101811" lon="11.038018823006407"><ele>32.57142857142857</ele><time>2026-03-29T07:32:13Z</time></trkpt><trkpt lat="43.76568364216565" lon="11.037930635057545"><ele>32.285714285714285</ele><time>2026-03-29T07:32:14Z</time></trkpt><trkpt lat="43.76566837134987" lon="11.037844572570437"><ele>32.0</ele><time>2026-03-29T07:32:15Z</time></trkpt><trkpt lat="43.76563823512561" lon="11.037677094022621"><ele>31.999999999999996</ele><time>2026-03-29T07:32:17Z</time></trkpt><trkpt lat="43.76562237556088" lon="11.037589097021634"><ele>32.0</ele><time>2026-03-29T07:32:18Z</time></trkpt><trkpt lat="43.76559054006077" lon="11.037425222887329"><ele>32.0</ele><time>2026-03-29T07:32:20Z</time></trkpt><trkpt lat="43.76555850478702" lon="11.03725682814742"><ele>32.0</ele><time>2026-03-29T07:32:22Z</time></trkpt><trkpt lat="43.76554703266236" lon="11.037168157822913"><ele>31.999999999999996</ele><time>2026-03-29T07:32:23Z</time></trkpt><trkpt lat="43.76552898350907" lon="11.03708263809371"><ele>32.0</ele><time>2026-03-29T07:32:24Z</time></trkpt><trkpt lat="43.76549860798612" lon="11.036906646983129"><ele>32.14285714285714</ele><time>2026-03-29T07:32:26Z</time></trkpt><trkpt lat="43.765482332173676" lon="11.036820699194307"><ele>32.285714285714285</ele><time>2026-03-29T07:32:27Z</time></trkpt><trkpt lat="43.765463827332425" lon="11.036731054615286"><ele>32.42857142857143</ele><time>2026-03-29T07:32:28Z</time></trkpt><trkpt lat="43.7654465577531" lon="11.036647173358078"><ele>32.57142857142857</ele><time>2026-03-29T07:32:29Z</time></trkpt><trkpt lat="43.76543315241266" lon="11.036561742800108"><ele>32.714285714285715</ele><time>2026-03-29T07:32:30Z</time></trkpt><trkpt lat="43.765402015180015" lon="11.036394913107388"><ele>32.857142857142854</ele><time>2026-03-29T07:32:32Z</time></trkpt><trkpt lat="43.765384035922175" lon="11.036308817715287"><ele>33.0</ele><time>2026-03-29T07:32:33Z</time></trkpt><trkpt lat="43.76535126561641" lon="11.03614356190642"><ele>33.0</ele><time>2026-03-29T07:32:35Z</time></trkpt><trkpt lat="43.76532103028521" lon="11.03597502585557"><ele>33.0</ele><time>2026-03-29T07:32:37Z</time></trkpt><trkpt lat="43.765284653108395" lon="11.035810033462628"><ele>33.0</ele><time>2026-03-29T07:32:39Z</time></trkpt><trkpt lat="43.765260654105184" lon="11.0356447638674"><ele>33.0</ele><time>2026-03-29T07:32:41Z</time></trkpt><trkpt lat="43.765224708149795" lon="11.035480696685035"><ele>33.0</ele><time>2026-03-29T07:32:43Z</time></trkpt><trkpt lat="43.765210238118094" lon="11.035395291542988"><ele>33.0</ele><time>2026-03-29T07:32:44Z</time></trkpt><trkpt lat="43.76517527745768" lon="11.035232679576092"><ele>33.0</ele><time>2026-03-29T07:32:46Z</time></trkpt><trkpt lat="43.76514169923766" lon="11.03507078555308"><ele>33.0</ele><time>2026-03-29T07:32:48Z</time></trkpt><trkpt lat="43.765108855163064" lon="11.034911789569735"><ele>33.0</ele><time>2026-03-29T07:32:50Z</time></trkpt><trkpt lat="43.76507704606124" lon="11.03475311007279"><ele>33.0</ele><time>2026-03-29T07:32:52Z</time></trkpt><trkpt lat="43.765049052334525" lon="11.034598578486648"><ele>33.0</ele><time>2026-03-29T07:32:54Z</time></trkpt><trkpt lat="43.76501664065282" lon="11.034445394618901"><ele>33.0</ele><time>2026-03-29T07:32:56Z</time></trkpt><trkpt lat="43.76498224087169" lon="11.034289386762069"><ele>33.0</ele><time>2026-03-29T07:32:58Z</time></trkpt><trkpt lat="43.76494915660825" lon="11.034133210836044"><ele>33.0</ele><time>2026-03-29T07:33:00Z</time></trkpt><trkpt lat="43.76491920562736" lon="11.033970046587424"><ele>33.0</ele><time>2026-03-29T07:33:02Z</time></trkpt><trkpt lat="43.764899096914064" lon="11.033886723946718"><ele>33.0</ele><time>2026-03-29T07:33:03Z</time></trkpt><trkpt lat="43.76485877646706" lon="11.033715199056912"><ele>33.0</ele><time>2026-03-29T07:33:05Z</time></trkpt><trkpt lat="43.7648386756373" lon="11.033625146836819"><ele>33.0</ele><time>2026-03-29T07:33:06Z</time></trkpt><trkpt lat="43.76481009905957" lon="11.033541026728908"><ele>33.0</ele><time>2026-03-29T07:33:07Z</time></trkpt><trkpt lat="43.764779676048576" lon="11.033452119836358"><ele>33.0</ele><time>2026-03-29T07:33:08Z</time></trkpt><trkpt lat="43.76474620348246" lon="11.033368164670309"><ele>33.0</ele><time>2026-03-29T07:33:09Z</time></trkpt><trkpt lat="43.76470607279091" lon="11.033283393489928"><ele>33.0</ele><time>2026-03-29T07:33:10Z</time></trkpt><trkpt lat="43.764663903394606" lon="11.033204375365441"><ele>33.0</ele><time>2026-03-29T07:33:11Z</time></trkpt><trkpt lat="43.76461405580178" lon="11.03312769241244"><ele>33.0</ele><time>2026-03-29T07:33:12Z</time></trkpt><trkpt lat="43.76457150849411" lon="11.033049690159599"><ele>33.0</ele><time>2026-03-29T07:33:13Z</time></trkpt><trkpt lat="43.764527721521944" lon="11.032970235461717"><ele>33.333333333333336</ele><time>2026-03-29T07:33:14Z</time></trkpt><trkpt lat="43.76448335644047" lon="11.032894142617124"><ele>33.666666666666664</ele><time>2026-03-29T07:33:15Z</time></trkpt><trkpt lat="43.76443093712709" lon="11.032815422266006"><ele>34.0</ele><time>2026-03-29T07:33:16Z</time></trkpt><trkpt lat="43.76439532272764" lon="11.03273237069826"><ele>34.33333333333333</ele><time>2026-03-29T07:33:17Z</time></trkpt><trkpt lat="43.7643223780274" lon="11.032592864112242"><ele>34.666666666666664</ele><time>2026-03-29T07:33:19Z</time></trkpt><trkpt lat="43.76427806496083" lon="11.032518128665487"><ele>35.0</ele><time>2026-03-29T07:33:20Z</time></trkpt><trkpt lat="43.76423721785513" lon="11.032443579316823"><ele>35.0</ele><time>2026-03-29T07:33:21Z</time></trkpt><trkpt lat="43.76416330145366" lon="11.032299238866281"><ele>35.0</ele><time>2026-03-29T07:33:23Z</time></trkpt><trkpt lat="43.764118470922725" lon="11.032229711179854"><ele>35.0</ele><time>2026-03-29T07:33:24Z</time></trkpt><trkpt lat="43.76407964135062" lon="11.032160081492389"><ele>35.0</ele><time>2026-03-29T07:33:25Z</time></trkpt><trkpt lat="43.764036455760255" lon="11.032092847560113"><ele>35.0</ele><time>2026-03-29T07:33:26Z</time></trkpt><trkpt lat="43.76395832570065" lon="11.031958443896247"><ele>35.0</ele><time>2026-03-29T07:33:28Z</time></trkpt><trkpt lat="43.76387384156254" lon="11.031833230455462"><ele>35.0</ele><time>2026-03-29T07:33:30Z</time></trkpt><trkpt lat="43.763827549894074" lon="11.031770128867857"><ele>35.0</ele><time>2026-03-29T07:33:31Z</time></trkpt><trkpt lat="43.763781565143155" lon="11.031708087167992"><ele>35.0</ele><time>2026-03-29T07:33:32Z</time></trkpt><trkpt lat="43.763733996900925" lon="11.031646994313336"><ele>35.0</ele><time>2026-03-29T07:33:33Z</time></trkpt><trkpt lat="43.76368741386975" lon="11.031583788711742"><ele>35.0</ele><time>2026-03-29T07:33:34Z</time></trkpt><trkpt lat="43.76359564907471" lon="11.031465058128633"><ele>35.0</ele><time>2026-03-29T07:33:36Z</time></trkpt><trkpt lat="43.763550992267604" lon="11.031403200643835"><ele>35.0</ele><time>2026-03-29T07:33:37Z</time></trkpt><trkpt lat="43.763505428899386" lon="11.031342526438413"><ele>35.5</ele><time>2026-03-29T07:33:38Z</time></trkpt><trkpt lat="43.76345812083409" lon="11.031276607821287"><ele>36.0</ele><time>2026-03-29T07:33:39Z</time></trkpt><trkpt lat="43.76340945442205" lon="11.031216885148671"><ele>36.5</ele><time>2026-03-29T07:33:40Z</time></trkpt><trkpt lat="43.763361013553265" lon="11.031153536494147"><ele>37.0</ele><time>2026-03-29T07:33:41Z</time></trkpt><trkpt lat="43.76327066013228" lon="11.031033125131083"><ele>37.5</ele><time>2026-03-29T07:33:43Z</time></trkpt><trkpt lat="43.763218438630645" lon="11.030977357232098"><ele>38.0</ele><time>2026-03-29T07:33:44Z</time></trkpt><trkpt lat="43.76312687421174" lon="11.030867713330569"><ele>38.0</ele><time>2026-03-29T07:33:46Z</time></trkpt><trkpt lat="43.76307618907691" lon="11.030811839361025"><ele>38.0</ele><time>2026-03-29T07:33:47Z</time></trkpt><trkpt lat="43.76301404574867" lon="11.030750795714429"><ele>38.0</ele><time>2026-03-29T07:33:48Z</time></trkpt><trkpt lat="43.762958558983286" lon="11.030699434624655"><ele>38.0</ele><time>2026-03-29T07:33:49Z</time></trkpt><trkpt lat="43.76290710680747" lon="11.030626477480633"><ele>38.0</ele><time>2026-03-29T07:33:50Z</time></trkpt><trkpt lat="43.76280788570665" lon="11.030538078349618"><ele>38.0</ele><time>2026-03-29T07:33:52Z</time></trkpt><trkpt lat="43.76271791992449" lon="11.030461222152223"><ele>37.57142857142857</ele><time>2026-03-29T07:33:54Z</time></trkpt><trkpt lat="43.76261140706506" lon="11.030373108194201"><ele>37.142857142857146</ele><time>2026-03-29T07:33:56Z</time></trkpt><trkpt lat="43.762560307722666" lon="11.030320126275221"><ele>36.714285714285715</ele><time>2026-03-29T07:33:57Z</time></trkpt><trkpt lat="43.76250474805467" lon="11.030273565049542"><ele>36.285714285714285</ele><time>2026-03-29T07:33:58Z</time></trkpt><trkpt lat="43.76244631728" lon="11.030232191730898"><ele>35.85714285714286</ele><time>2026-03-29T07:33:59Z</time></trkpt><trkpt lat="43.76238852790179" lon="11.030197417598423"><ele>35.42857142857143</ele><time>2026-03-29T07:34:00Z</time></trkpt><trkpt lat="43.7623293096648" lon="11.030163283900244"><ele>35.0</ele><time>2026-03-29T07:34:01Z</time></trkpt><trkpt lat="43.76222226565707" lon="11.030108817292218"><ele>35.0</ele><time>2026-03-29T07:34:03Z</time></trkpt><trkpt lat="43.76210001650118" lon="11.030065601068904"><ele>35.0</ele><time>2026-03-29T07:34:05Z</time></trkpt><trkpt lat="43.76198069983411" lon="11.030031001508146"><ele>35.0</ele><time>2026-03-29T07:34:07Z</time></trkpt><trkpt lat="43.76186178685087" lon="11.029995841778371"><ele>35.0</ele><time>2026-03-29T07:34:09Z</time></trkpt><trkpt lat="43.76174307726825" lon="11.029950964936502"><ele>34.4</ele><time>2026-03-29T07:34:11Z</time></trkpt><trkpt lat="43.76163033560175" lon="11.029911502224897"><ele>33.8</ele><time>2026-03-29T07:34:13Z</time></trkpt><trkpt lat="43.7615076724841" lon="11.029875473114283"><ele>33.2</ele><time>2026-03-29T07:34:15Z</time></trkpt><trkpt lat="43.761415882363906" lon="11.029837631816223"><ele>32.6</ele><time>2026-03-29T07:34:17Z</time></trkpt><trkpt lat="43.76133741816105" lon="11.029777888934547"><ele>32.0</ele><time>2026-03-29T07:34:19Z</time></trkpt><trkpt lat="43.76125665982619" lon="11.029732552039166"><ele>32.0</ele><time>2026-03-29T07:34:21Z</time></trkpt><trkpt lat="43.761168747889585" lon="11.029687797143286"><ele>32.0</ele><time>2026-03-29T07:34:23Z</time></trkpt><trkpt lat="43.76103657484632" lon="11.029661081048735"><ele>32.0</ele><time>2026-03-29T07:34:25Z</time></trkpt><trkpt lat="43.76090983899257" lon="11.029650554220343"><ele>32.0</ele><time>2026-03-29T07:34:26Z</time></trkpt><trkpt lat="43.76084433460327" lon="11.02963528254623"><ele>32.0</ele><time>2026-03-29T07:34:27Z</time></trkpt><trkpt lat="43.76076680340556" lon="11.029614991027168"><ele>32.2</ele><time>2026-03-29T07:34:28Z</time></trkpt><trkpt lat="43.7606752834664" lon="11.029601481099611"><ele>32.400000000000006</ele><time>2026-03-29T07:34:29Z</time></trkpt><trkpt lat="43.76057086031785" lon="11.02959984964797"><ele>32.599999999999994</ele><time>2026-03-29T07:34:30Z</time></trkpt><trkpt lat="43.7604619765525" lon="11.029603115843608"><ele>32.8</ele><time>2026-03-29T07:34:31Z</time></trkpt><trkpt lat="43.76035785904543" lon="11.029566935080616"><ele>33.0</ele><time>2026-03-29T07:34:32Z</time></trkpt><trkpt lat="43.76047386656539" lon="11.029571095488398"><ele>33.0</ele><time>2026-03-29T07:34:33Z</time></trkpt><trkpt lat="43.7603612837713" lon="11.029557346335732"><ele>33.0</ele><time>2026-03-29T07:34:35Z</time></trkpt><trkpt lat="43.76024969062966" lon="11.029542203646805"><ele>33.0</ele><time>2026-03-29T07:34:37Z</time></trkpt><trkpt lat="43.760131492103966" lon="11.029530594102381"><ele>33.0</ele><time>2026-03-29T07:34:39Z</time></trkpt><trkpt lat="43.76001251662967" lon="11.029521816481026"><ele>33.0</ele><time>2026-03-29T07:34:41Z</time></trkpt><trkpt lat="43.759893436676634" lon="11.029514336104608"><ele>33.0</ele><time>2026-03-29T07:34:43Z</time></trkpt><trkpt lat="43.75977054856834" lon="11.029509256359432"><ele>33.0</ele><time>2026-03-29T07:34:45Z</time></trkpt><trkpt lat="43.759706939480175" lon="11.029512133296269"><ele>33.0</ele><time>2026-03-29T07:34:46Z</time></trkpt><trkpt lat="43.75958602067004" lon="11.0295152703918"><ele>33.0</ele><time>2026-03-29T07:34:48Z</time></trkpt><trkpt lat="43.75952056624007" lon="11.029517313532834"><ele>33.0</ele><time>2026-03-29T07:34:49Z</time></trkpt><trkpt lat="43.759453667293734" lon="11.029520691001373"><ele>33.0</ele><time>2026-03-29T07:34:50Z</time></trkpt><trkpt lat="43.75932462170469" lon="11.02952599970603"><ele>33.0</ele><time>2026-03-29T07:34:52Z</time></trkpt><trkpt lat="43.75925542349394" lon="11.029529991616423"><ele>33.0</ele><time>2026-03-29T07:34:53Z</time></trkpt><trkpt lat="43.759186410882435" lon="11.029529635370604"><ele>33.0</ele><time>2026-03-29T07:34:54Z</time></trkpt><trkpt lat="43.75911390403902" lon="11.02953765241258"><ele>33.0</ele><time>2026-03-29T07:34:55Z</time></trkpt><trkpt lat="43.75904745707985" lon="11.0295426007157"><ele>33.14285714285714</ele><time>2026-03-29T07:34:56Z</time></trkpt><trkpt lat="43.75898245080568" lon="11.02955012095517"><ele>33.285714285714285</ele><time>2026-03-29T07:34:57Z</time></trkpt><trkpt lat="43.75890933917164" lon="11.029552239214166"><ele>33.42857142857143</ele><time>2026-03-29T07:34:58Z</time></trkpt><trkpt lat="43.75884239668934" lon="11.029558428678056"><ele>33.57142857142857</ele><time>2026-03-29T07:34:59Z</time></trkpt><trkpt lat="43.75877463594444" lon="11.029566745151943"><ele>33.714285714285715</ele><time>2026-03-29T07:35:00Z</time></trkpt><trkpt lat="43.75870287707424" lon="11.029566934215907"><ele>33.857142857142854</ele><time>2026-03-29T07:35:01Z</time></trkpt><trkpt lat="43.75863232587693" lon="11.029572536037758"><ele>34.0</ele><time>2026-03-29T07:35:02Z</time></trkpt><trkpt lat="43.758562639716025" lon="11.029581460256246"><ele>33.57142857142857</ele><time>2026-03-29T07:35:03Z</time></trkpt><trkpt lat="43.758488129003716" lon="11.029594154716776"><ele>33.14285714285714</ele><time>2026-03-29T07:35:04Z</time></trkpt><trkpt lat="43.75842012748581" lon="11.029607144461322"><ele>32.714285714285715</ele><time>2026-03-29T07:35:05Z</time></trkpt><trkpt lat="43.75834754314341" lon="11.029620295035212"><ele>32.285714285714285</ele><time>2026-03-29T07:35:06Z</time></trkpt><trkpt lat="43.75827737495883" lon="11.029633867569324"><ele>31.85714285714286</ele><time>2026-03-29T07:35:07Z</time></trkpt><trkpt lat="43.75820789316064" lon="11.029649768978489"><ele>31.42857142857143</ele><time>2026-03-29T07:35:08Z</time></trkpt><trkpt lat="43.75813698027435" lon="11.02966486473132"><ele>31.0</ele><time>2026-03-29T07:35:09Z</time></trkpt><trkpt lat="43.7580714593545" lon="11.029681203089481"><ele>31.0</ele><time>2026-03-29T07:35:10Z</time></trkpt><trkpt lat="43.7579983418032" lon="11.029703430123641"><ele>31.000000000000004</ele><time>2026-03-29T07:35:11Z</time></trkpt><trkpt lat="43.75792671942456" lon="11.02972014612685"><ele>31.0</ele><time>2026-03-29T07:35:12Z</time></trkpt><trkpt lat="43.75785553727639" lon="11.029735354283206"><ele>31.0</ele><time>2026-03-29T07:35:13Z</time></trkpt><trkpt lat="43.75778853924755" lon="11.029751642981383"><ele>31.000000000000004</ele><time>2026-03-29T07:35:14Z</time></trkpt><trkpt lat="43.75771931732529" lon="11.029773536189586"><ele>31.0</ele><time>2026-03-29T07:35:15Z</time></trkpt><trkpt lat="43.75765026031618" lon="11.029794212911753"><ele>31.0</ele><time>2026-03-29T07:35:16Z</time></trkpt><trkpt lat="43.75758372544447" lon="11.029801764540156"><ele>31.142857142857146</ele><time>2026-03-29T07:35:17Z</time></trkpt><trkpt lat="43.75751858220253" lon="11.029825390469325"><ele>31.28571428571429</ele><time>2026-03-29T07:35:18Z</time></trkpt><trkpt lat="43.75745061339379" lon="11.029840858941236"><ele>31.42857142857143</ele><time>2026-03-29T07:35:19Z</time></trkpt><trkpt lat="43.75738605479295" lon="11.029854316611267"><ele>31.57142857142857</ele><time>2026-03-29T07:35:20Z</time></trkpt><trkpt lat="43.75731881631788" lon="11.029867512261376"><ele>31.71428571428571</ele><time>2026-03-29T07:35:21Z</time></trkpt><trkpt lat="43.75725594177886" lon="11.029883966280034"><ele>31.857142857142854</ele><time>2026-03-29T07:35:22Z</time></trkpt><trkpt lat="43.757193445574124" lon="11.029900388235644"><ele>32.0</ele><time>2026-03-29T07:35:23Z</time></trkpt><trkpt lat="43.757127963814895" lon="11.029914407174157"><ele>32.0</ele><time>2026-03-29T07:35:24Z</time></trkpt><trkpt lat="43.757064534027705" lon="11.029930804364152"><ele>32.0</ele><time>2026-03-29T07:35:25Z</time></trkpt><trkpt lat="43.75694287539451" lon="11.029967500202508"><ele>32.0</ele><time>2026-03-29T07:35:27Z</time></trkpt><trkpt lat="43.75688079580836" lon="11.029983364984215"><ele>32.0</ele><time>2026-03-29T07:35:28Z</time></trkpt><trkpt lat="43.756753164173944" lon="11.030013706128733"><ele>32.0</ele><time>2026-03-29T07:35:30Z</time></trkpt><trkpt lat="43.75663374108087" lon="11.03004686485526"><ele>32.33333333333333</ele><time>2026-03-29T07:35:32Z</time></trkpt><trkpt lat="43.756513024380034" lon="11.03007840665976"><ele>32.666666666666664</ele><time>2026-03-29T07:35:34Z</time></trkpt><trkpt lat="43.75644962456302" lon="11.030099852737912"><ele>33.0</ele><time>2026-03-29T07:35:35Z</time></trkpt><trkpt lat="43.756325594195985" lon="11.030130392577552"><ele>33.333333333333336</ele><time>2026-03-29T07:35:37Z</time></trkpt><trkpt lat="43.75626300997278" lon="11.030146882174549"><ele>33.66666666666667</ele><time>2026-03-29T07:35:38Z</time></trkpt><trkpt lat="43.75619797910625" lon="11.030161258792198"><ele>34.0</ele><time>2026-03-29T07:35:39Z</time></trkpt><trkpt lat="43.75613598817703" lon="11.03017650279889"><ele>33.71428571428571</ele><time>2026-03-29T07:35:40Z</time></trkpt><trkpt lat="43.756009601460235" lon="11.030203049856546"><ele>33.42857142857143</ele><time>2026-03-29T07:35:42Z</time></trkpt><trkpt lat="43.755947401158615" lon="11.03022200424087"><ele>33.14285714285714</ele><time>2026-03-29T07:35:43Z</time></trkpt><trkpt lat="43.755884156196764" lon="11.030235200044967"><ele>32.857142857142854</ele><time>2026-03-29T07:35:44Z</time></trkpt><trkpt lat="43.755821969656054" lon="11.030250239512462"><ele>32.57142857142857</ele><time>2026-03-29T07:35:45Z</time></trkpt><trkpt lat="43.755758662192584" lon="11.030261565911074"><ele>32.285714285714285</ele><time>2026-03-29T07:35:46Z</time></trkpt><trkpt lat="43.75569388757551" lon="11.030270605059693"><ele>32.0</ele><time>2026-03-29T07:35:47Z</time></trkpt><trkpt lat="43.755627869802396" lon="11.030285467707108"><ele>31.999999999999996</ele><time>2026-03-29T07:35:48Z</time></trkpt><trkpt lat="43.75556202681355" lon="11.0302974070281"><ele>32.0</ele><time>2026-03-29T07:35:49Z</time></trkpt><trkpt lat="43.75543606815977" lon="11.030327939517582"><ele>32.0</ele><time>2026-03-29T07:35:51Z</time></trkpt><trkpt lat="43.75537160860761" lon="11.030334145674908"><ele>32.0</ele><time>2026-03-29T07:35:52Z</time></trkpt><trkpt lat="43.75530756072057" lon="11.030340811466433"><ele>31.999999999999996</ele><time>2026-03-29T07:35:53Z</time></trkpt><trkpt lat="43.75524260373622" lon="11.030354037861825"><ele>32.0</ele><time>2026-03-29T07:35:54Z</time></trkpt><trkpt lat="43.755180036985635" lon="11.030364239779345"><ele>31.999999999999996</ele><time>2026-03-29T07:35:55Z</time></trkpt><trkpt lat="43.75511356198789" lon="11.030376353264181"><ele>32.0</ele><time>2026-03-29T07:35:56Z</time></trkpt><trkpt lat="43.7550472661295" lon="11.030386640867421"><ele>32.0</ele><time>2026-03-29T07:35:57Z</time></trkpt><trkpt lat="43.75492085151557" lon="11.030413000540966"><ele>32.0</ele><time>2026-03-29T07:35:59Z</time></trkpt><trkpt lat="43.75485842143678" lon="11.030427847861615"><ele>31.999999999999996</ele><time>2026-03-29T07:36:00Z</time></trkpt><trkpt lat="43.754795909532355" lon="11.03044803407721"><ele>32.0</ele><time>2026-03-29T07:36:01Z</time></trkpt><trkpt lat="43.75473397561492" lon="11.030474619052073"><ele>32.0</ele><time>2026-03-29T07:36:02Z</time></trkpt><trkpt lat="43.75461791504686" lon="11.030537179668748"><ele>32.0</ele><time>2026-03-29T07:36:04Z</time></trkpt><trkpt lat="43.754560715763645" lon="11.030580973065106"><ele>32.0</ele><time>2026-03-29T07:36:05Z</time></trkpt><trkpt lat="43.754456071820826" lon="11.030674475174319"><ele>32.0</ele><time>2026-03-29T07:36:07Z</time></trkpt><trkpt lat="43.75439942870947" lon="11.030719254934962"><ele>32.0</ele><time>2026-03-29T07:36:08Z</time></trkpt><trkpt lat="43.754297169769146" lon="11.03081618627688"><ele>32.4</ele><time>2026-03-29T07:36:10Z</time></trkpt><trkpt lat="43.75418856222898" lon="11.030904821058718"><ele>32.800000000000004</ele><time>2026-03-29T07:36:12Z</time></trkpt><trkpt lat="43.75413393690966" lon="11.030950000492268"><ele>33.2</ele><time>2026-03-29T07:36:13Z</time></trkpt><trkpt lat="43.754036089725126" lon="11.031043086528815"><ele>33.6</ele><time>2026-03-29T07:36:15Z</time></trkpt><trkpt lat="43.75393220101505" lon="11.03113163144868"><ele>34.0</ele><time>2026-03-29T07:36:17Z</time></trkpt><trkpt lat="43.75387774323629" lon="11.031177085804277"><ele>34.0</ele><time>2026-03-29T07:36:18Z</time></trkpt><trkpt lat="43.75378207673633" lon="11.031258749208694"><ele>34.0</ele><time>2026-03-29T07:36:20Z</time></trkpt><trkpt lat="43.75368309507637" lon="11.031350171095598"><ele>34.0</ele><time>2026-03-29T07:36:22Z</time></trkpt><trkpt lat="43.75358495806577" lon="11.031431069776849"><ele>34.0</ele><time>2026-03-29T07:36:24Z</time></trkpt><trkpt lat="43.7534905309623" lon="11.031520216716864"><ele>33.2</ele><time>2026-03-29T07:36:26Z</time></trkpt><trkpt lat="43.75338732035817" lon="11.031605836078798"><ele>32.4</ele><time>2026-03-29T07:36:28Z</time></trkpt><trkpt lat="43.75328538302856" lon="11.031699563299856"><ele>31.6</ele><time>2026-03-29T07:36:30Z</time></trkpt><trkpt lat="43.75317977655091" lon="11.03179413773225"><ele>30.8</ele><time>2026-03-29T07:36:32Z</time></trkpt><trkpt lat="43.75311835732199" lon="11.031834518354303"><ele>30.0</ele><time>2026-03-29T07:36:33Z</time></trkpt><trkpt lat="43.753060478899066" lon="11.031882600239465"><ele>30.285714285714285</ele><time>2026-03-29T07:36:34Z</time></trkpt><trkpt lat="43.7530028177345" lon="11.031934143271668"><ele>30.57142857142857</ele><time>2026-03-29T07:36:35Z</time></trkpt><trkpt lat="43.75294270196242" lon="11.031971721078081"><ele>30.857142857142854</ele><time>2026-03-29T07:36:36Z</time></trkpt><trkpt lat="43.75288460323863" lon="11.032010319848151"><ele>31.142857142857142</ele><time>2026-03-29T07:36:37Z</time></trkpt><trkpt lat="43.752821621316514" lon="11.03204481840091"><ele>31.428571428571423</ele><time>2026-03-29T07:36:38Z</time></trkpt><trkpt lat="43.75275937582513" lon="11.032071932196404"><ele>31.71428571428571</ele><time>2026-03-29T07:36:39Z</time></trkpt><trkpt lat="43.752701543626586" lon="11.032107532035722"><ele>32.0</ele><time>2026-03-29T07:36:40Z</time></trkpt><trkpt lat="43.75263945474499" lon="11.032143114222835"><ele>31.999999999999996</ele><time>2026-03-29T07:36:41Z</time></trkpt><trkpt lat="43.75258005787777" lon="11.032175834705596"><ele>32.0</ele><time>2026-03-29T07:36:42Z</time></trkpt><trkpt lat="43.7524550906884" lon="11.032229088930453"><ele>32.0</ele><time>2026-03-29T07:36:44Z</time></trkpt><trkpt lat="43.75239205180854" lon="11.032255141388323"><ele>32.0</ele><time>2026-03-29T07:36:45Z</time></trkpt><trkpt lat="43.75233092271938" lon="11.032279392394287"><ele>31.999999999999996</ele><time>2026-03-29T07:36:46Z</time></trkpt><trkpt lat="43.75221012202224" lon="11.032313807969436"><ele>32.0</ele><time>2026-03-29T07:36:48Z</time></trkpt><trkpt lat="43.75209068374738" lon="11.032352828366278"><ele>31.999999999999996</ele><time>2026-03-29T07:36:50Z</time></trkpt><trkpt lat="43.75197020054417" lon="11.03240173080279"><ele>32.0</ele><time>2026-03-29T07:36:52Z</time></trkpt><trkpt lat="43.75185435014397" lon="11.032465310202342"><ele>32.0</ele><time>2026-03-29T07:36:54Z</time></trkpt><trkpt lat="43.751793534322125" lon="11.03249528545266"><ele>32.0</ele><time>2026-03-29T07:36:55Z</time></trkpt><trkpt lat="43.75173212600341" lon="11.032528070832752"><ele>31.999999999999996</ele><time>2026-03-29T07:36:56Z</time></trkpt><trkpt lat="43.75167212341717" lon="11.032559005852745"><ele>32.0</ele><time>2026-03-29T07:36:57Z</time></trkpt><trkpt lat="43.75161407275075" lon="11.03259502898649"><ele>32.42857142857143</ele><time>2026-03-29T07:36:58Z</time></trkpt><trkpt lat="43.75155352254038" lon="11.03262475597706"><ele>32.857142857142854</ele><time>2026-03-29T07:36:59Z</time></trkpt><trkpt lat="43.751493432392934" lon="11.032653551651421"><ele>33.285714285714285</ele><time>2026-03-29T07:37:00Z</time></trkpt><trkpt lat="43.751432460651536" lon="11.032681895842066"><ele>33.714285714285715</ele><time>2026-03-29T07:37:01Z</time></trkpt><trkpt lat="43.75137294962689" lon="11.032712756448007"><ele>34.14285714285714</ele><time>2026-03-29T07:37:02Z</time></trkpt><trkpt lat="43.75131322121422" lon="11.032744006297873"><ele>34.57142857142857</ele><time>2026-03-29T07:37:03Z</time></trkpt><trkpt lat="43.75119453972794" lon="11.03279599493478"><ele>35.0</ele><time>2026-03-29T07:37:05Z</time></trkpt><trkpt lat="43.751138286335284" lon="11.032835771652017"><ele>34.0</ele><time>2026-03-29T07:37:06Z</time></trkpt><trkpt lat="43.75102116616388" lon="11.032895001399112"><ele>33.0</ele><time>2026-03-29T07:37:08Z</time></trkpt><trkpt lat="43.75096180383479" lon="11.032931311413304"><ele>32.0</ele><time>2026-03-29T07:37:09Z</time></trkpt><trkpt lat="43.750845058762266" lon="11.032998550574119"><ele>31.0</ele><time>2026-03-29T07:37:11Z</time></trkpt><trkpt lat="43.75073124003541" lon="11.03307026566452"><ele>30.0</ele><time>2026-03-29T07:37:13Z</time></trkpt><trkpt lat="43.750616099701304" lon="11.033133868033339"><ele>30.0</ele><time>2026-03-29T07:37:15Z</time></trkpt><trkpt lat="43.75050048302331" lon="11.033195864912688"><ele>30.0</ele><time>2026-03-29T07:37:17Z</time></trkpt><trkpt lat="43.75038953225181" lon="11.033255100179286"><ele>30.0</ele><time>2026-03-29T07:37:19Z</time></trkpt><trkpt lat="43.75028074844198" lon="11.033307454097683"><ele>30.0</ele><time>2026-03-29T07:37:21Z</time></trkpt><trkpt lat="43.750173978009116" lon="11.03335526852768"><ele>30.6</ele><time>2026-03-29T07:37:23Z</time></trkpt><trkpt lat="43.75006405843736" lon="11.033392977311202"><ele>31.2</ele><time>2026-03-29T07:37:25Z</time></trkpt><trkpt lat="43.749959656206286" lon="11.033422900972777"><ele>31.799999999999997</ele><time>2026-03-29T07:37:27Z</time></trkpt><trkpt lat="43.74985163748827" lon="11.033455128372722"><ele>32.4</ele><time>2026-03-29T07:37:29Z</time></trkpt><trkpt lat="43.74974122599351" lon="11.033487071429459"><ele>33.0</ele><time>2026-03-29T07:37:31Z</time></trkpt><trkpt lat="43.74962958440643" lon="11.033522503402818"><ele>33.0</ele><time>2026-03-29T07:37:33Z</time></trkpt><trkpt lat="43.74951966543475" lon="11.033560890408253"><ele>33.0</ele><time>2026-03-29T07:37:35Z</time></trkpt><trkpt lat="43.74940760517491" lon="11.033595282795247"><ele>33.0</ele><time>2026-03-29T07:37:37Z</time></trkpt><trkpt lat="43.74929847475567" lon="11.033622356121782"><ele>33.0</ele><time>2026-03-29T07:37:39Z</time></trkpt><trkpt lat="43.749189067920305" lon="11.03365283152719"><ele>32.25</ele><time>2026-03-29T07:37:41Z</time></trkpt><trkpt lat="43.74908439640933" lon="11.033692802277224"><ele>31.5</ele><time>2026-03-29T07:37:43Z</time></trkpt><trkpt lat="43.74896963423283" lon="11.033721754501807"><ele>30.75</ele><time>2026-03-29T07:37:45Z</time></trkpt><trkpt lat="43.74885734159522" lon="11.033752950758648"><ele>30.0</ele><time>2026-03-29T07:37:47Z</time></trkpt><trkpt lat="43.748743158789566" lon="11.03378655495031"><ele>30.0</ele><time>2026-03-29T07:37:49Z</time></trkpt><trkpt lat="43.748627680090316" lon="11.03381834335637"><ele>30.0</ele><time>2026-03-29T07:37:51Z</time></trkpt><trkpt lat="43.74851014719445" lon="11.033840930365258"><ele>30.0</ele><time>2026-03-29T07:37:53Z</time></trkpt><trkpt lat="43.74838821538675" lon="11.033859240474834"><ele>30.0</ele><time>2026-03-29T07:37:55Z</time></trkpt><trkpt lat="43.748265102922936" lon="11.033867734934292"><ele>29.6</ele><time>2026-03-29T07:37:57Z</time></trkpt><trkpt lat="43.7481409918578" lon="11.033871372348235"><ele>29.2</ele><time>2026-03-29T07:37:59Z</time></trkpt><trkpt lat="43.7480224644812" lon="11.033875899952365"><ele>28.799999999999997</ele><time>2026-03-29T07:38:01Z</time></trkpt><trkpt lat="43.74790238018276" lon="11.033868143346858"><ele>28.4</ele><time>2026-03-29T07:38:03Z</time></trkpt><trkpt lat="43.74783859891297" lon="11.033859727980618"><ele>28.0</ele><time>2026-03-29T07:38:04Z</time></trkpt><trkpt lat="43.74777376616999" lon="11.033852822421455"><ele>28.4</ele><time>2026-03-29T07:38:05Z</time></trkpt><trkpt lat="43.7476498583865" lon="11.033834620472353"><ele>28.799999999999997</ele><time>2026-03-29T07:38:07Z</time></trkpt><trkpt lat="43.74758402891896" lon="11.033826907997021"><ele>29.2</ele><time>2026-03-29T07:38:08Z</time></trkpt><trkpt lat="43.747519167288196" lon="11.033815869374024"><ele>29.6</ele><time>2026-03-29T07:38:09Z</time></trkpt><trkpt lat="43.747404538395784" lon="11.033801791239151"><ele>30.0</ele><time>2026-03-29T07:38:11Z</time></trkpt><trkpt lat="43.74729963696693" lon="11.033781157797984"><ele>30.0</ele><time>2026-03-29T07:38:13Z</time></trkpt><trkpt lat="43.74719655080291" lon="11.033753676834552"><ele>30.0</ele><time>2026-03-29T07:38:15Z</time></trkpt><trkpt lat="43.74708530526719" lon="11.033732371062381"><ele>30.0</ele><time>2026-03-29T07:38:17Z</time></trkpt><trkpt lat="43.746976884334764" lon="11.033705967997678"><ele>30.0</ele><time>2026-03-29T07:38:19Z</time></trkpt><trkpt lat="43.746868690026744" lon="11.033671149052521"><ele>30.0</ele><time>2026-03-29T07:38:21Z</time></trkpt><trkpt lat="43.74675994708966" lon="11.033629820853442"><ele>31.0</ele><time>2026-03-29T07:38:23Z</time></trkpt><trkpt lat="43.74665093658631" lon="11.033572682043573"><ele>32.0</ele><time>2026-03-29T07:38:25Z</time></trkpt><trkpt lat="43.74653846163975" lon="11.03350317143202"><ele>33.0</ele><time>2026-03-29T07:38:27Z</time></trkpt><trkpt lat="43.74643219568441" lon="11.033428603850334"><ele>34.0</ele><time>2026-03-29T07:38:29Z</time></trkpt><trkpt lat="43.7463339147578" lon="11.033335862413614"><ele>32.99999999999999</ele><time>2026-03-29T07:38:31Z</time></trkpt><trkpt lat="43.74628304352243" lon="11.033279078029809"><ele>32.0</ele><time>2026-03-29T07:38:32Z</time></trkpt><trkpt lat="43.746231222179624" lon="11.03322191139898"><ele>31.0</ele><time>2026-03-29T07:38:33Z</time></trkpt><trkpt lat="43.74617888165022" lon="11.033168679006408"><ele>30.0</ele><time>2026-03-29T07:38:34Z</time></trkpt><trkpt lat="43.74612893219682" lon="11.03311483838587"><ele>29.0</ele><time>2026-03-29T07:38:35Z</time></trkpt><trkpt lat="43.746077277701964" lon="11.033061145999906"><ele>28.0</ele><time>2026-03-29T07:38:36Z</time></trkpt><trkpt lat="43.745980395414065" lon="11.032954733664548"><ele>27.0</ele><time>2026-03-29T07:38:38Z</time></trkpt><trkpt lat="43.7458856155277" lon="11.032852817438249"><ele>28.5</ele><time>2026-03-29T07:38:40Z</time></trkpt><trkpt lat="43.74579233514574" lon="11.032754824240419"><ele>30.0</ele><time>2026-03-29T07:38:42Z</time></trkpt><trkpt lat="43.74570050305985" lon="11.03266536381799"><ele>31.5</ele><time>2026-03-29T07:38:44Z</time></trkpt><trkpt lat="43.74561086265873" lon="11.032569565339555"><ele>33.0</ele><time>2026-03-29T07:38:46Z</time></trkpt><trkpt lat="43.74553188723581" lon="11.03246065570622"><ele>33.0</ele><time>2026-03-29T07:38:48Z</time></trkpt><trkpt lat="43.745471407379995" lon="11.032348948958768"><ele>33.0</ele><time>2026-03-29T07:38:50Z</time></trkpt><trkpt lat="43.745359488302206" lon="11.032266334413322"><ele>33.0</ele><time>2026-03-29T07:38:52Z</time></trkpt><trkpt lat="43.74530427780139" lon="11.032219187062138"><ele>33.0</ele><time>2026-03-29T07:38:53Z</time></trkpt><trkpt lat="43.745249328263306" lon="11.03216726659558"><ele>33.0</ele><time>2026-03-29T07:38:54Z</time></trkpt><trkpt lat="43.74519127320307" lon="11.032107217450076"><ele>33.0</ele><time>2026-03-29T07:38:55Z</time></trkpt><trkpt lat="43.74512669283848" lon="11.032042043578175"><ele>33.6</ele><time>2026-03-29T07:38:56Z</time></trkpt><trkpt lat="43.74505502389219" lon="11.031966911122778"><ele>34.199999999999996</ele><time>2026-03-29T07:38:57Z</time></trkpt><trkpt lat="43.74497614394162" lon="11.031887981109389"><ele>34.8</ele><time>2026-03-29T07:38:58Z</time></trkpt><trkpt lat="43.74489169301346" lon="11.031805211012248"><ele>35.4</ele><time>2026-03-29T07:38:59Z</time></trkpt><trkpt lat="43.744793867003715" lon="11.031717368288753"><ele>36.0</ele><time>2026-03-29T07:39:00Z</time></trkpt><trkpt lat="43.74470022248718" lon="11.031617675658941"><ele>34.5</ele><time>2026-03-29T07:39:01Z</time></trkpt><trkpt lat="43.74460020474209" lon="11.031505773244108"><ele>33.0</ele><time>2026-03-29T07:39:02Z</time></trkpt><trkpt lat="43.74449602518634" lon="11.031410268625281"><ele>31.5</ele><time>2026-03-29T07:39:03Z</time></trkpt><trkpt lat="43.74439165168377" lon="11.031311723046748"><ele>30.0</ele><time>2026-03-29T07:39:04Z</time></trkpt><trkpt lat="43.74428414182112" lon="11.03121384299227"><ele>30.0</ele><time>2026-03-29T07:39:05Z</time></trkpt><trkpt lat="43.744167674427565" lon="11.031136614713088"><ele>30.0</ele><time>2026-03-29T07:39:06Z</time></trkpt><trkpt lat="43.744084106156606" lon="11.03104985200018"><ele>30.0</ele><time>2026-03-29T07:39:07Z</time></trkpt><trkpt lat="43.74401533647049" lon="11.030973727658504"><ele>30.0</ele><time>2026-03-29T07:39:08Z</time></trkpt><trkpt lat="43.743946264358925" lon="11.030910925466005"><ele>30.0</ele><time>2026-03-29T07:39:09Z</time></trkpt><trkpt lat="43.74386652116628" lon="11.030871332933158"><ele>30.0</ele><time>2026-03-29T07:39:10Z</time></trkpt><trkpt lat="43.74379094384334" lon="11.030835249398468"><ele>30.0</ele><time>2026-03-29T07:39:11Z</time></trkpt><trkpt lat="43.74370805523872" lon="11.030785407379128"><ele>30.0</ele><time>2026-03-29T07:39:12Z</time></trkpt><trkpt lat="43.743628741395234" lon="11.030761951021866"><ele>30.0</ele><time>2026-03-29T07:39:13Z</time></trkpt><trkpt lat="43.74354908676431" lon="11.030743844179074"><ele>30.0</ele><time>2026-03-29T07:39:14Z</time></trkpt><trkpt lat="43.743472290394074" lon="11.030724544688317"><ele>30.0</ele><time>2026-03-29T07:39:15Z</time></trkpt><trkpt lat="43.74339512949574" lon="11.03070399671613"><ele>29.714285714285715</ele><time>2026-03-29T07:39:16Z</time></trkpt><trkpt lat="43.74331758818924" lon="11.030675813574172"><ele>29.428571428571427</ele><time>2026-03-29T07:39:17Z</time></trkpt><trkpt lat="43.743244337392575" lon="11.030653420172733"><ele>29.142857142857142</ele><time>2026-03-29T07:39:18Z</time></trkpt><trkpt lat="43.74317005813344" lon="11.030632080780263"><ele>28.857142857142858</ele><time>2026-03-29T07:39:19Z</time></trkpt><trkpt lat="43.743097588239884" lon="11.03061983897177"><ele>28.57142857142857</ele><time>2026-03-29T07:39:20Z</time></trkpt><trkpt lat="43.74302174968665" lon="11.030603567705937"><ele>28.285714285714285</ele><time>2026-03-29T07:39:21Z</time></trkpt><trkpt lat="43.74295767991352" lon="11.030583513192173"><ele>28.0</ele><time>2026-03-29T07:39:22Z</time></trkpt><trkpt lat="43.742843443317035" lon="11.030525437299719"><ele>28.4</ele><time>2026-03-29T07:39:24Z</time></trkpt><trkpt lat="43.742714014040715" lon="11.0304931833853"><ele>28.799999999999997</ele><time>2026-03-29T07:39:26Z</time></trkpt><trkpt lat="43.74264847557954" lon="11.030472415958565"><ele>29.2</ele><time>2026-03-29T07:39:27Z</time></trkpt><trkpt lat="43.74258485026029" lon="11.030453204230856"><ele>29.6</ele><time>2026-03-29T07:39:28Z</time></trkpt><trkpt lat="43.7425178858724" lon="11.030437253094428"><ele>30.0</ele><time>2026-03-29T07:39:29Z</time></trkpt><trkpt lat="43.74239419978929" lon="11.030405943225515"><ele>30.0</ele><time>2026-03-29T07:39:31Z</time></trkpt><trkpt lat="43.74233144440605" lon="11.030391454121823"><ele>30.0</ele><time>2026-03-29T07:39:32Z</time></trkpt><trkpt lat="43.74221003145403" lon="11.03034645699409"><ele>30.0</ele><time>2026-03-29T07:39:34Z</time></trkpt><trkpt lat="43.74209358203594" lon="11.030296887418478"><ele>30.0</ele><time>2026-03-29T07:39:36Z</time></trkpt><trkpt lat="43.74203491928947" lon="11.030260427601467"><ele>30.0</ele><time>2026-03-29T07:39:37Z</time></trkpt><trkpt lat="43.74197218737417" lon="11.03021241121244"><ele>30.0</ele><time>2026-03-29T07:39:38Z</time></trkpt><trkpt lat="43.74191673921074" lon="11.030163380012873"><ele>30.142857142857146</ele><time>2026-03-29T07:39:39Z</time></trkpt><trkpt lat="43.7418596885631" lon="11.03011604160365"><ele>30.285714285714285</ele><time>2026-03-29T07:39:40Z</time></trkpt><trkpt lat="43.741806586443204" lon="11.030067573334666"><ele>30.42857142857143</ele><time>2026-03-29T07:39:41Z</time></trkpt><trkpt lat="43.74176515094662" lon="11.029992143185217"><ele>30.571428571428573</ele><time>2026-03-29T07:39:42Z</time></trkpt><trkpt lat="43.741719357720406" lon="11.029932064372243"><ele>30.714285714285715</ele><time>2026-03-29T07:39:43Z</time></trkpt><trkpt lat="43.74167176690886" lon="11.029868200217518"><ele>30.857142857142858</ele><time>2026-03-29T07:39:44Z</time></trkpt><trkpt lat="43.74162372286427" lon="11.029803626386387"><ele>31.0</ele><time>2026-03-29T07:39:45Z</time></trkpt><trkpt lat="43.741573027075034" lon="11.02973548872748"><ele>31.0</ele><time>2026-03-29T07:39:46Z</time></trkpt><trkpt lat="43.74152344183671" lon="11.029669587889265"><ele>31.000000000000004</ele><time>2026-03-29T07:39:47Z</time></trkpt><trkpt lat="43.74145715790674" lon="11.02962180793407"><ele>31.0</ele><time>2026-03-29T07:39:48Z</time></trkpt><trkpt lat="43.74140769814805" lon="11.02955696866607"><ele>31.0</ele><time>2026-03-29T07:39:49Z</time></trkpt><trkpt lat="43.741357655426086" lon="11.02949285749996"><ele>31.000000000000004</ele><time>2026-03-29T07:39:50Z</time></trkpt><trkpt lat="43.741307035607896" lon="11.029431931846975"><ele>31.0</ele><time>2026-03-29T07:39:51Z</time></trkpt><trkpt lat="43.741256824927554" lon="11.029364717374683"><ele>31.0</ele><time>2026-03-29T07:39:52Z</time></trkpt><trkpt lat="43.74122886080998" lon="11.02927231231031"><ele>31.0</ele><time>2026-03-29T07:39:53Z</time></trkpt><trkpt lat="43.74118090642734" lon="11.02920738239479"><ele>31.000000000000004</ele><time>2026-03-29T07:39:54Z</time></trkpt><trkpt lat="43.74113230607857" lon="11.02914157784265"><ele>31.0</ele><time>2026-03-29T07:39:55Z</time></trkpt><trkpt lat="43.74108289141956" lon="11.029074670716334"><ele>31.0</ele><time>2026-03-29T07:39:56Z</time></trkpt><trkpt lat="43.741036612497844" lon="11.02901200934039"><ele>31.000000000000004</ele><time>2026-03-29T07:39:57Z</time></trkpt><trkpt lat="43.74098950754073" lon="11.028948229526598"><ele>31.0</ele><time>2026-03-29T07:39:58Z</time></trkpt><trkpt lat="43.740941572396956" lon="11.028884864981633"><ele>31.0</ele><time>2026-03-29T07:39:59Z</time></trkpt><trkpt lat="43.74089298290675" lon="11.028822211630995"><ele>30.833333333333336</ele><time>2026-03-29T07:40:00Z</time></trkpt><trkpt lat="43.740843489246494" lon="11.028760637946947"><ele>30.666666666666668</ele><time>2026-03-29T07:40:01Z</time></trkpt><trkpt lat="43.740790685046065" lon="11.028696843883088"><ele>30.5</ele><time>2026-03-29T07:40:02Z</time></trkpt><trkpt lat="43.74073637723876" lon="11.028645243387865"><ele>30.333333333333336</ele><time>2026-03-29T07:40:03Z</time></trkpt><trkpt lat="43.740643385818586" lon="11.028542918812201"><ele>30.166666666666668</ele><time>2026-03-29T07:40:05Z</time></trkpt><trkpt lat="43.74057540521571" lon="11.028452377630439"><ele>30.0</ele><time>2026-03-29T07:40:07Z</time></trkpt><trkpt lat="43.74051796385069" lon="11.028382868068372"><ele>30.0</ele><time>2026-03-29T07:40:09Z</time></trkpt><trkpt lat="43.74046913175702" lon="11.028303653867209"><ele>30.0</ele><time>2026-03-29T07:40:12Z</time></trkpt><trkpt lat="43.740420702049185" lon="11.028241747610128"><ele>30.0</ele><time>2026-03-29T07:40:16Z</time></trkpt><trkpt lat="43.740360019564164" lon="11.02816047757638"><ele>30.0</ele><time>2026-03-29T07:40:19Z</time></trkpt><trkpt lat="43.74030014042353" lon="11.028080037183367"><ele>30.0</ele><time>2026-03-29T07:40:22Z</time></trkpt><trkpt lat="43.740252879186556" lon="11.02801654744412"><ele>30.0</ele><time>2026-03-29T07:40:24Z</time></trkpt><trkpt lat="43.74019542209401" lon="11.027939360810361"><ele>30.0</ele><time>2026-03-29T07:40:26Z</time></trkpt><trkpt lat="43.74013628450061" lon="11.02785991660231"><ele>30.0</ele><time>2026-03-29T07:40:28Z</time></trkpt><trkpt lat="43.74007381517255" lon="11.027775847312695"><ele>30.0</ele><time>2026-03-29T07:40:30Z</time></trkpt><trkpt lat="43.74000293238556" lon="11.027679906195345"><ele>30.0</ele><time>2026-03-29T07:40:32Z</time></trkpt><trkpt lat="43.73993953581296" lon="11.0275940978322"><ele>30.0</ele><time>2026-03-29T07:40:34Z</time></trkpt><trkpt lat="43.73988385109765" lon="11.027516558668502"><ele>30.0</ele><time>2026-03-29T07:40:36Z</time></trkpt><trkpt lat="43.73982219930089" lon="11.027431191255005"><ele>30.0</ele><time>2026-03-29T07:40:38Z</time></trkpt><trkpt lat="43.73975932590261" lon="11.027337815694656"><ele>30.0</ele><time>2026-03-29T07:40:40Z</time></trkpt><trkpt lat="43.739692546264216" lon="11.027255520849911"><ele>30.0</ele><time>2026-03-29T07:40:42Z</time></trkpt><trkpt lat="43.73963094805006" lon="11.02718559507901"><ele>30.0</ele><time>2026-03-29T07:40:44Z</time></trkpt><trkpt lat="43.73957105193317" lon="11.027094382917975"><ele>30.0</ele><time>2026-03-29T07:40:46Z</time></trkpt><trkpt lat="43.73952968963527" lon="11.027027773804393"><ele>30.0</ele><time>2026-03-29T07:40:47Z</time></trkpt><trkpt lat="43.73945403741425" lon="11.026961559342366"><ele>30.0</ele><time>2026-03-29T07:40:49Z</time></trkpt><trkpt lat="43.73938584342387" lon="11.026852950432893"><ele>30.0</ele><time>2026-03-29T07:40:51Z</time></trkpt><trkpt lat="43.739304052654084" lon="11.02675186779658"><ele>30.0</ele><time>2026-03-29T07:40:53Z</time></trkpt><trkpt lat="43.739219557639" lon="11.026668461933955"><ele>30.0</ele><time>2026-03-29T07:40:55Z</time></trkpt><trkpt lat="43.739139282389615" lon="11.026554632040384"><ele>30.0</ele><time>2026-03-29T07:40:57Z</time></trkpt><trkpt lat="43.73905019560891" lon="11.026429356123371"><ele>30.166666666666668</ele><time>2026-03-29T07:40:59Z</time></trkpt><trkpt lat="43.738967599582026" lon="11.026305983958913"><ele>30.333333333333336</ele><time>2026-03-29T07:41:01Z</time></trkpt><trkpt lat="43.738920841815485" lon="11.026236672285739"><ele>30.5</ele><time>2026-03-29T07:41:02Z</time></trkpt><trkpt lat="43.73885236922215" lon="11.026183919117367"><ele>30.666666666666668</ele><time>2026-03-29T07:41:03Z</time></trkpt><trkpt lat="43.73879321261827" lon="11.026143992835841"><ele>30.833333333333336</ele><time>2026-03-29T07:41:04Z</time></trkpt><trkpt lat="43.73874894257013" lon="11.026080036388052"><ele>31.0</ele><time>2026-03-29T07:41:05Z</time></trkpt><trkpt lat="43.73866076148411" lon="11.025999350645185"><ele>31.000000000000004</ele><time>2026-03-29T07:41:07Z</time></trkpt><trkpt lat="43.73855351181363" lon="11.025921283838693"><ele>31.0</ele><time>2026-03-29T07:41:09Z</time></trkpt><trkpt lat="43.73850298849735" lon="11.025857984292754"><ele>31.0</ele><time>2026-03-29T07:41:10Z</time></trkpt><trkpt lat="43.73845198659597" lon="11.025795549778515"><ele>31.0</ele><time>2026-03-29T07:41:11Z</time></trkpt><trkpt lat="43.73839469572674" lon="11.025738037126015"><ele>31.000000000000004</ele><time>2026-03-29T07:41:12Z</time></trkpt><trkpt lat="43.738338267855305" lon="11.025680716122741"><ele>31.0</ele><time>2026-03-29T07:41:13Z</time></trkpt><trkpt lat="43.73827701895696" lon="11.025634604933288"><ele>31.0</ele><time>2026-03-29T07:41:14Z</time></trkpt><trkpt lat="43.738223997526404" lon="11.025569523983432"><ele>31.000000000000004</ele><time>2026-03-29T07:41:15Z</time></trkpt><trkpt lat="43.73816967273289" lon="11.02550841124745"><ele>31.0</ele><time>2026-03-29T07:41:16Z</time></trkpt><trkpt lat="43.738113859088436" lon="11.025448864939076"><ele>31.0</ele><time>2026-03-29T07:41:17Z</time></trkpt><trkpt lat="43.738059135975774" lon="11.025396897203642"><ele>31.000000000000004</ele><time>2026-03-29T07:41:18Z</time></trkpt><trkpt lat="43.73800700282929" lon="11.025336918839145"><ele>31.0</ele><time>2026-03-29T07:41:19Z</time></trkpt><trkpt lat="43.73795596413422" lon="11.02527266203073"><ele>31.0</ele><time>2026-03-29T07:41:20Z</time></trkpt><trkpt lat="43.73790023807187" lon="11.025222406527678"><ele>31.000000000000004</ele><time>2026-03-29T07:41:21Z</time></trkpt><trkpt lat="43.73784287818457" lon="11.025179180620361"><ele>31.0</ele><time>2026-03-29T07:41:22Z</time></trkpt><trkpt lat="43.737790322747806" lon="11.025124819855485"><ele>31.0</ele><time>2026-03-29T07:41:23Z</time></trkpt><trkpt lat="43.73773900439683" lon="11.025062795385782"><ele>31.0</ele><time>2026-03-29T07:41:24Z</time></trkpt><trkpt lat="43.737686410693705" lon="11.025004580013553"><ele>31.000000000000004</ele><time>2026-03-29T07:41:25Z</time></trkpt><trkpt lat="43.73758909043034" lon="11.02489169540024"><ele>31.0</ele><time>2026-03-29T07:41:27Z</time></trkpt><trkpt lat="43.737532824300686" lon="11.024851326238075"><ele>31.000000000000004</ele><time>2026-03-29T07:41:28Z</time></trkpt><trkpt lat="43.7374808990584" lon="11.0248005413795"><ele>31.0</ele><time>2026-03-29T07:41:29Z</time></trkpt><trkpt lat="43.73743071294943" lon="11.024734493065361"><ele>31.0</ele><time>2026-03-29T07:41:30Z</time></trkpt><trkpt lat="43.737380713939324" lon="11.024673216770497"><ele>31.0</ele><time>2026-03-29T07:41:31Z</time></trkpt><trkpt lat="43.737281437109985" lon="11.02457075120425"><ele>31.000000000000004</ele><time>2026-03-29T07:41:33Z</time></trkpt><trkpt lat="43.73722849691586" lon="11.024522772541008"><ele>31.0</ele><time>2026-03-29T07:41:34Z</time></trkpt><trkpt lat="43.737124886671346" lon="11.024421620923004"><ele>31.0</ele><time>2026-03-29T07:41:36Z</time></trkpt><trkpt lat="43.73702961969648" lon="11.02431565725152"><ele>31.0</ele><time>2026-03-29T07:41:38Z</time></trkpt><trkpt lat="43.7369350538048" lon="11.024207737145138"><ele>31.0</ele><time>2026-03-29T07:41:40Z</time></trkpt><trkpt lat="43.736835115223094" lon="11.024097857445208"><ele>31.0</ele><time>2026-03-29T07:41:42Z</time></trkpt><trkpt lat="43.7367893634883" lon="11.024034219279766"><ele>31.0</ele><time>2026-03-29T07:41:43Z</time></trkpt><trkpt lat="43.73673862114629" lon="11.023977807065812"><ele>31.000000000000004</ele><time>2026-03-29T07:41:44Z</time></trkpt><trkpt lat="43.73668759946607" lon="11.023921399321528"><ele>31.0</ele><time>2026-03-29T07:41:45Z</time></trkpt><trkpt lat="43.7366354171259" lon="11.023868359561835"><ele>31.0</ele><time>2026-03-29T07:41:46Z</time></trkpt><trkpt lat="43.73658134831275" lon="11.023817345401818"><ele>31.0</ele><time>2026-03-29T07:41:47Z</time></trkpt><trkpt lat="43.736525957745236" lon="11.023766440173308"><ele>31.000000000000004</ele><time>2026-03-29T07:41:48Z</time></trkpt><trkpt lat="43.73647747764927" lon="11.02370259232995"><ele>31.0</ele><time>2026-03-29T07:41:49Z</time></trkpt><trkpt lat="43.73637368602303" lon="11.02360393553039"><ele>31.0</ele><time>2026-03-29T07:41:51Z</time></trkpt><trkpt lat="43.73627691125037" lon="11.023487013034101"><ele>31.0</ele><time>2026-03-29T07:41:53Z</time></trkpt><trkpt lat="43.73622323580297" lon="11.023423975627535"><ele>31.0</ele><time>2026-03-29T07:41:54Z</time></trkpt><trkpt lat="43.73612926627034" lon="11.023334833696463"><ele>31.0</ele><time>2026-03-29T07:41:56Z</time></trkpt><trkpt lat="43.736035748597565" lon="11.02322036199966"><ele>31.0</ele><time>2026-03-29T07:41:58Z</time></trkpt><trkpt lat="43.73598453915495" lon="11.023166076526396"><ele>31.166666666666668</ele><time>2026-03-29T07:41:59Z</time></trkpt><trkpt lat="43.73593176943987" lon="11.023110526343386"><ele>31.333333333333336</ele><time>2026-03-29T07:42:00Z</time></trkpt><trkpt lat="43.735876657741606" lon="11.023052053067703"><ele>31.5</ele><time>2026-03-29T07:42:01Z</time></trkpt><trkpt lat="43.73582167537057" lon="11.022993680860846"><ele>31.666666666666664</ele><time>2026-03-29T07:42:02Z</time></trkpt><trkpt lat="43.73572973560549" lon="11.022896072761137"><ele>31.833333333333332</ele><time>2026-03-29T07:42:04Z</time></trkpt><trkpt lat="43.73563191696128" lon="11.022789420242468"><ele>32.0</ele><time>2026-03-29T07:42:06Z</time></trkpt><trkpt lat="43.735545970207006" lon="11.022691023329626"><ele>31.999999999999996</ele><time>2026-03-29T07:42:08Z</time></trkpt><trkpt lat="43.735485100802094" lon="11.02263461441323"><ele>32.0</ele><time>2026-03-29T07:42:09Z</time></trkpt><trkpt lat="43.73543080533404" lon="11.022588350920026"><ele>32.0</ele><time>2026-03-29T07:42:10Z</time></trkpt><trkpt lat="43.735336494585745" lon="11.022485445842214"><ele>32.0</ele><time>2026-03-29T07:42:12Z</time></trkpt><trkpt lat="43.735277410531374" lon="11.022448537142473"><ele>31.999999999999996</ele><time>2026-03-29T07:42:13Z</time></trkpt><trkpt lat="43.73518051245845" lon="11.022339278000715"><ele>32.0</ele><time>2026-03-29T07:42:15Z</time></trkpt><trkpt lat="43.73508182536512" lon="11.022237537203337"><ele>32.0</ele><time>2026-03-29T07:42:17Z</time></trkpt><trkpt lat="43.73499040268735" lon="11.022143219929076"><ele>32.0</ele><time>2026-03-29T07:42:19Z</time></trkpt><trkpt lat="43.73489645385101" lon="11.022042485505677"><ele>32.0</ele><time>2026-03-29T07:42:21Z</time></trkpt><trkpt lat="43.734802507515646" lon="11.02194558831776"><ele>32.0</ele><time>2026-03-29T07:42:23Z</time></trkpt><trkpt lat="43.73471036820895" lon="11.02183825421758"><ele>31.999999999999996</ele><time>2026-03-29T07:42:25Z</time></trkpt><trkpt lat="43.73464599270673" lon="11.02170044022272"><ele>32.0</ele><time>2026-03-29T07:42:27Z</time></trkpt><trkpt lat="43.73470328703407" lon="11.021567612766367"><ele>32.0</ele><time>2026-03-29T07:42:29Z</time></trkpt><trkpt lat="43.7347370779595" lon="11.021493456064672"><ele>32.0</ele><time>2026-03-29T07:42:30Z</time></trkpt><trkpt lat="43.734768104337235" lon="11.021413447899588"><ele>31.999999999999996</ele><time>2026-03-29T07:42:31Z</time></trkpt><trkpt lat="43.73478863242683" lon="11.021323601623072"><ele>32.0</ele><time>2026-03-29T07:42:32Z</time></trkpt><trkpt lat="43.734820060173575" lon="11.021246207160756"><ele>31.833333333333332</ele><time>2026-03-29T07:42:33Z</time></trkpt><trkpt lat="43.73486085951229" lon="11.021084934679514"><ele>31.666666666666664</ele><time>2026-03-29T07:42:35Z</time></trkpt><trkpt lat="43.73487315050293" lon="11.020995739969738"><ele>31.5</ele><time>2026-03-29T07:42:36Z</time></trkpt><trkpt lat="43.7348443770681" lon="11.020904334046955"><ele>31.333333333333336</ele><time>2026-03-29T07:42:37Z</time></trkpt><trkpt lat="43.73478225651242" lon="11.020843986174462"><ele>31.166666666666668</ele><time>2026-03-29T07:42:38Z</time></trkpt><trkpt lat="43.734731369789756" lon="11.020790258182776"><ele>31.0</ele><time>2026-03-29T07:42:39Z</time></trkpt><trkpt lat="43.73462490964642" lon="11.020702382226292"><ele>31.142857142857146</ele><time>2026-03-29T07:42:41Z</time></trkpt><trkpt lat="43.73456761994111" lon="11.020664575343359"><ele>31.28571428571429</ele><time>2026-03-29T07:42:42Z</time></trkpt><trkpt lat="43.73451030014054" lon="11.020622039952501"><ele>31.42857142857143</ele><time>2026-03-29T07:42:43Z</time></trkpt><trkpt lat="43.73445308997609" lon="11.020575964503053"><ele>31.57142857142857</ele><time>2026-03-29T07:42:44Z</time></trkpt><trkpt lat="43.734394094377855" lon="11.02053180702158"><ele>31.71428571428571</ele><time>2026-03-29T07:42:45Z</time></trkpt><trkpt lat="43.73433499058895" lon="11.020484685538623"><ele>31.857142857142854</ele><time>2026-03-29T07:42:46Z</time></trkpt><trkpt lat="43.734275093624355" lon="11.020437262131649"><ele>32.0</ele><time>2026-03-29T07:42:47Z</time></trkpt><trkpt lat="43.73422406647647" lon="11.020369998261128"><ele>32.0</ele><time>2026-03-29T07:42:48Z</time></trkpt><trkpt lat="43.73415566344966" lon="11.020341232519161"><ele>31.999999999999996</ele><time>2026-03-29T07:42:49Z</time></trkpt><trkpt lat="43.7340956386912" lon="11.020291955286886"><ele>32.0</ele><time>2026-03-29T07:42:50Z</time></trkpt><trkpt lat="43.73403772933214" lon="11.020247764698318"><ele>32.0</ele><time>2026-03-29T07:42:51Z</time></trkpt><trkpt lat="43.73398518020462" lon="11.020180362690304"><ele>31.999999999999996</ele><time>2026-03-29T07:42:52Z</time></trkpt><trkpt lat="43.733926294906354" lon="11.020134872071512"><ele>32.0</ele><time>2026-03-29T07:42:53Z</time></trkpt><trkpt lat="43.733866533644914" lon="11.020088704743522"><ele>32.0</ele><time>2026-03-29T07:42:54Z</time></trkpt><trkpt lat="43.73381056593239" lon="11.020045468047442"><ele>31.999999999999996</ele><time>2026-03-29T07:42:55Z</time></trkpt><trkpt lat="43.73375455354526" lon="11.020002196835664"><ele>32.0</ele><time>2026-03-29T07:42:56Z</time></trkpt><trkpt lat="43.73369832220049" lon="11.019958692360856"><ele>32.0</ele><time>2026-03-29T07:42:57Z</time></trkpt><trkpt lat="43.73359024455136" lon="11.019878775938954"><ele>32.0</ele><time>2026-03-29T07:42:59Z</time></trkpt><trkpt lat="43.733496706072565" lon="11.019814956615122"><ele>31.999999999999996</ele><time>2026-03-29T07:43:01Z</time></trkpt><trkpt lat="43.733431943857084" lon="11.019763178601188"><ele>32.0</ele><time>2026-03-29T07:43:03Z</time></trkpt><trkpt lat="43.733363097293264" lon="11.019686879890058"><ele>31.8</ele><time>2026-03-29T07:43:05Z</time></trkpt><trkpt lat="43.73326257931465" lon="11.019747885520946"><ele>31.6</ele><time>2026-03-29T07:43:07Z</time></trkpt><trkpt lat="43.73317611064771" lon="11.019812240485736"><ele>31.400000000000002</ele><time>2026-03-29T07:43:09Z</time></trkpt><trkpt lat="43.73308479619127" lon="11.019884314527967"><ele>31.200000000000003</ele><time>2026-03-29T07:43:11Z</time></trkpt><trkpt lat="43.73304457389631" lon="11.020024300688934"><ele>31.0</ele><time>2026-03-29T07:43:13Z</time></trkpt><trkpt lat="43.73306955450386" lon="11.020177967399222"><ele>31.0</ele><time>2026-03-29T07:43:15Z</time></trkpt><trkpt lat="43.733082928250795" lon="11.02032328157056"><ele>31.0</ele><time>2026-03-29T07:43:17Z</time></trkpt><trkpt lat="43.7330772186266" lon="11.020448875366576"><ele>31.0</ele><time>2026-03-29T07:43:19Z</time></trkpt><trkpt lat="43.73306843788225" lon="11.020556209527543"><ele>31.0</ele><time>2026-03-29T07:43:21Z</time></trkpt><trkpt lat="43.73303940757331" lon="11.020681722678123"><ele>31.0</ele><time>2026-03-29T07:43:24Z</time></trkpt><trkpt lat="43.73300174844716" lon="11.02077857686709"><ele>31.6</ele><time>2026-03-29T07:43:27Z</time></trkpt><trkpt lat="43.73304979246612" lon="11.02084510274717"><ele>32.2</ele><time>2026-03-29T07:43:29Z</time></trkpt><trkpt lat="43.73317498892284" lon="11.020962429667682"><ele>32.8</ele><time>2026-03-29T07:43:34Z</time></trkpt><trkpt lat="43.733219863140754" lon="11.021053383637705"><ele>33.4</ele><time>2026-03-29T07:43:37Z</time></trkpt><trkpt lat="43.73322611421866" lon="11.021154292488173"><ele>34.0</ele><time>2026-03-29T07:43:40Z</time></trkpt><trkpt lat="43.73322112299947" lon="11.021278921849284"><ele>34.0</ele><time>2026-03-29T07:43:43Z</time></trkpt><trkpt lat="43.73321406442432" lon="11.021396751842921"><ele>34.0</ele><time>2026-03-29T07:43:46Z</time></trkpt><trkpt lat="43.73318579857625" lon="11.02148407176808"><ele>34.0</ele><time>2026-03-29T07:43:48Z</time></trkpt><trkpt lat="43.73318286236705" lon="11.021602186705007"><ele>34.0</ele><time>2026-03-29T07:43:51Z</time></trkpt><trkpt lat="43.73317555141662" lon="11.021693029522881"><ele>34.0</ele><time>2026-03-29T07:43:53Z</time></trkpt><trkpt lat="43.73315902484464" lon="11.021816814290188"><ele>34.0</ele><time>2026-03-29T07:43:56Z</time></trkpt><trkpt lat="43.73314249109172" lon="11.021908695589474"><ele>34.5</ele><time>2026-03-29T07:43:58Z</time></trkpt><trkpt lat="43.73310976929466" lon="11.021999973230809"><ele>35.0</ele><time>2026-03-29T07:44:00Z</time></trkpt><trkpt lat="43.733094106287446" lon="11.022101418214035"><ele>35.5</ele><time>2026-03-29T07:44:02Z</time></trkpt><trkpt lat="43.733062647862184" lon="11.022195798217052"><ele>36.0</ele><time>2026-03-29T07:44:04Z</time></trkpt><trkpt lat="43.73299404403914" lon="11.022267479311036"><ele>36.5</ele><time>2026-03-29T07:44:06Z</time></trkpt><trkpt lat="43.73295854957735" lon="11.0223667987222"><ele>37.0</ele><time>2026-03-29T07:44:08Z</time></trkpt><trkpt lat="43.732948520747755" lon="11.02248093321213"><ele>37.4</ele><time>2026-03-29T07:44:10Z</time></trkpt><trkpt lat="43.73289331386736" lon="11.022569185450983"><ele>37.800000000000004</ele><time>2026-03-29T07:44:12Z</time></trkpt><trkpt lat="43.73281185730996" lon="11.022632022011788"><ele>38.2</ele><time>2026-03-29T07:44:14Z</time></trkpt><trkpt lat="43.732721088941595" lon="11.022669039804756"><ele>38.6</ele><time>2026-03-29T07:44:16Z</time></trkpt><trkpt lat="43.7326196020349" lon="11.022731813893284"><ele>39.0</ele><time>2026-03-29T07:44:18Z</time></trkpt><trkpt lat="43.73252320389008" lon="11.022772647951571"><ele>38.8</ele><time>2026-03-29T07:44:20Z</time></trkpt><trkpt lat="43.732461123250765" lon="11.022890180809313"><ele>38.599999999999994</ele><time>2026-03-29T07:44:22Z</time></trkpt><trkpt lat="43.73239411350306" lon="11.02300434609219"><ele>38.4</ele><time>2026-03-29T07:44:24Z</time></trkpt><trkpt lat="43.732318944131585" lon="11.023120345724742"><ele>38.199999999999996</ele><time>2026-03-29T07:44:26Z</time></trkpt><trkpt lat="43.732240932503224" lon="11.023239155419283"><ele>38.0</ele><time>2026-03-29T07:44:28Z</time></trkpt><trkpt lat="43.73217047383045" lon="11.023360770007868"><ele>38.0</ele><time>2026-03-29T07:44:30Z</time></trkpt><trkpt lat="43.73210164749074" lon="11.023491376922363"><ele>38.0</ele><time>2026-03-29T07:44:32Z</time></trkpt><trkpt lat="43.73205026695935" lon="11.023543634967652"><ele>38.0</ele><time>2026-03-29T07:44:33Z</time></trkpt><trkpt lat="43.73198656835023" lon="11.023677613686779"><ele>38.0</ele><time>2026-03-29T07:44:35Z</time></trkpt><trkpt lat="43.73191511173811" lon="11.023796303864076"><ele>38.0</ele><time>2026-03-29T07:44:37Z</time></trkpt><trkpt lat="43.731838117691744" lon="11.023913414294624"><ele>38.0</ele><time>2026-03-29T07:44:39Z</time></trkpt><trkpt lat="43.731757763428725" lon="11.024033041489544"><ele>38.0</ele><time>2026-03-29T07:44:41Z</time></trkpt><trkpt lat="43.7316890228563" lon="11.024158265950401"><ele>38.0</ele><time>2026-03-29T07:44:43Z</time></trkpt><trkpt lat="43.7316049548199" lon="11.024272240805796"><ele>38.0</ele><time>2026-03-29T07:44:45Z</time></trkpt><trkpt lat="43.73151505805143" lon="11.024363494610741"><ele>38.0</ele><time>2026-03-29T07:44:47Z</time></trkpt><trkpt lat="43.731431698405565" lon="11.024461577341997"><ele>38.0</ele><time>2026-03-29T07:44:49Z</time></trkpt><trkpt lat="43.731342759970396" lon="11.024565828240172"><ele>38.0</ele><time>2026-03-29T07:44:51Z</time></trkpt><trkpt lat="43.731242520303184" lon="11.024645356343887"><ele>38.0</ele><time>2026-03-29T07:44:53Z</time></trkpt><trkpt lat="43.73114001131504" lon="11.024716360326547"><ele>38.25</ele><time>2026-03-29T07:44:55Z</time></trkpt><trkpt lat="43.731042580416315" lon="11.024781119942292"><ele>38.5</ele><time>2026-03-29T07:44:57Z</time></trkpt><trkpt lat="43.73093971892369" lon="11.024869593478693"><ele>38.75</ele><time>2026-03-29T07:44:59Z</time></trkpt><trkpt lat="43.73083777031778" lon="11.024941202204413"><ele>39.0</ele><time>2026-03-29T07:45:01Z</time></trkpt><trkpt lat="43.73072815241755" lon="11.025011303846622"><ele>39.0</ele><time>2026-03-29T07:45:03Z</time></trkpt><trkpt lat="43.730615333843545" lon="11.025093646292278"><ele>39.0</ele><time>2026-03-29T07:45:05Z</time></trkpt><trkpt lat="43.730499069320665" lon="11.025152812597556"><ele>39.0</ele><time>2026-03-29T07:45:07Z</time></trkpt><trkpt lat="43.73043999153871" lon="11.025195158109353"><ele>39.0</ele><time>2026-03-29T07:45:08Z</time></trkpt><trkpt lat="43.73038109569718" lon="11.025237373213892"><ele>39.0</ele><time>2026-03-29T07:45:09Z</time></trkpt><trkpt lat="43.73032871845247" lon="11.025289383568307"><ele>39.0</ele><time>2026-03-29T07:45:10Z</time></trkpt><trkpt lat="43.73026652328639" lon="11.025319348372467"><ele>38.0</ele><time>2026-03-29T07:45:11Z</time></trkpt><trkpt lat="43.73021009283523" lon="11.025359591838495"><ele>37.0</ele><time>2026-03-29T07:45:12Z</time></trkpt><trkpt lat="43.73014911437921" lon="11.025403078715993"><ele>36.0</ele><time>2026-03-29T07:45:13Z</time></trkpt><trkpt lat="43.73009132619036" lon="11.025444290452999"><ele>35.0</ele><time>2026-03-29T07:45:14Z</time></trkpt><trkpt lat="43.73003568559362" lon="11.025507123907431"><ele>34.0</ele><time>2026-03-29T07:45:15Z</time></trkpt><trkpt lat="43.72997602523311" lon="11.025540253539797"><ele>33.0</ele><time>2026-03-29T07:45:16Z</time></trkpt><trkpt lat="43.72991754579546" lon="11.025582653617235"><ele>32.0</ele><time>2026-03-29T07:45:17Z</time></trkpt><trkpt lat="43.72985668340313" lon="11.025622455088673"><ele>31.999999999999996</ele><time>2026-03-29T07:45:18Z</time></trkpt><trkpt lat="43.7297955142385" lon="11.02565858549633"><ele>32.0</ele><time>2026-03-29T07:45:19Z</time></trkpt><trkpt lat="43.72973658932759" lon="11.025706372803755"><ele>32.0</ele><time>2026-03-29T07:45:20Z</time></trkpt><trkpt lat="43.729677234172605" lon="11.025746052877057"><ele>32.0</ele><time>2026-03-29T07:45:21Z</time></trkpt><trkpt lat="43.72956471672866" lon="11.025823788092657"><ele>31.999999999999996</ele><time>2026-03-29T07:45:23Z</time></trkpt><trkpt lat="43.729504027566755" lon="11.025860886667836"><ele>32.0</ele><time>2026-03-29T07:45:24Z</time></trkpt><trkpt lat="43.729446191671684" lon="11.025901305382385"><ele>32.6</ele><time>2026-03-29T07:45:25Z</time></trkpt><trkpt lat="43.72938777024992" lon="11.0259438598222"><ele>33.2</ele><time>2026-03-29T07:45:26Z</time></trkpt><trkpt lat="43.72927926698591" lon="11.026010452652613"><ele>33.8</ele><time>2026-03-29T07:45:28Z</time></trkpt><trkpt lat="43.729173708536884" lon="11.026088430748626"><ele>34.4</ele><time>2026-03-29T07:45:30Z</time></trkpt><trkpt lat="43.72908178583005" lon="11.026169856661596"><ele>35.0</ele><time>2026-03-29T07:45:32Z</time></trkpt><trkpt lat="43.72897670724128" lon="11.026236845935548"><ele>35.0</ele><time>2026-03-29T07:45:34Z</time></trkpt><trkpt lat="43.728878635014816" lon="11.02632527405106"><ele>35.0</ele><time>2026-03-29T07:45:36Z</time></trkpt><trkpt lat="43.728791021522326" lon="11.026435914088477"><ele>35.0</ele><time>2026-03-29T07:45:38Z</time></trkpt><trkpt lat="43.72870235056925" lon="11.026551379292906"><ele>35.0</ele><time>2026-03-29T07:45:40Z</time></trkpt><trkpt lat="43.728612858566095" lon="11.026654887482549"><ele>35.0</ele><time>2026-03-29T07:45:42Z</time></trkpt><trkpt lat="43.72852861176141" lon="11.026776066047338"><ele>35.0</ele><time>2026-03-29T07:45:44Z</time></trkpt><trkpt lat="43.728448783879266" lon="11.026898549948685"><ele>35.0</ele><time>2026-03-29T07:45:46Z</time></trkpt><trkpt lat="43.72836389440015" lon="11.027014732018735"><ele>35.0</ele><time>2026-03-29T07:45:48Z</time></trkpt><trkpt lat="43.728279399089544" lon="11.02712819749767"><ele>35.0</ele><time>2026-03-29T07:45:50Z</time></trkpt><trkpt lat="43.72819465357367" lon="11.027225229182227"><ele>35.0</ele><time>2026-03-29T07:45:52Z</time></trkpt><trkpt lat="43.72810472942558" lon="11.027261865774761"><ele>35.0</ele><time>2026-03-29T07:45:54Z</time></trkpt><trkpt lat="43.72801617676025" lon="11.027222735952327"><ele>35.0</ele><time>2026-03-29T07:45:57Z</time></trkpt><trkpt lat="43.72793228985425" lon="11.027200144332769"><ele>35.0</ele><time>2026-03-29T07:45:59Z</time></trkpt><trkpt lat="43.727836793221805" lon="11.027218654522986"><ele>35.0</ele><time>2026-03-29T07:46:01Z</time></trkpt><trkpt lat="43.72776689399084" lon="11.02733223766075"><ele>35.0</ele><time>2026-03-29T07:46:03Z</time></trkpt><trkpt lat="43.727761081259295" lon="11.02747440468353"><ele>35.0</ele><time>2026-03-29T07:46:05Z</time></trkpt><trkpt lat="43.72781191715529" lon="11.027589776341"><ele>35.0</ele><time>2026-03-29T07:46:07Z</time></trkpt><trkpt lat="43.72778397106145" lon="11.02776728110858"><ele>35.0</ele><time>2026-03-29T07:46:09Z</time></trkpt><trkpt lat="43.72773654051925" lon="11.027844968523409"><ele>35.25</ele><time>2026-03-29T07:46:10Z</time></trkpt><trkpt lat="43.727669329859104" lon="11.027979956149668"><ele>35.5</ele><time>2026-03-29T07:46:12Z</time></trkpt><trkpt lat="43.72758992672083" lon="11.028095572292951"><ele>35.75</ele><time>2026-03-29T07:46:14Z</time></trkpt><trkpt lat="43.72751917919423" lon="11.028220017156306"><ele>36.0</ele><time>2026-03-29T07:46:16Z</time></trkpt><trkpt lat="43.72743891947309" lon="11.02832790472258"><ele>36.2</ele><time>2026-03-29T07:46:18Z</time></trkpt><trkpt lat="43.72735257110335" lon="11.028429160547839"><ele>36.400000000000006</ele><time>2026-03-29T07:46:20Z</time></trkpt><trkpt lat="43.72727285243306" lon="11.02854144194342"><ele>36.6</ele><time>2026-03-29T07:46:22Z</time></trkpt><trkpt lat="43.72720056508154" lon="11.0286493012791"><ele>36.800000000000004</ele><time>2026-03-29T07:46:24Z</time></trkpt><trkpt lat="43.7271262480477" lon="11.028755496179974"><ele>37.0</ele><time>2026-03-29T07:46:26Z</time></trkpt><trkpt lat="43.72705066870706" lon="11.028873141018765"><ele>37.0</ele><time>2026-03-29T07:46:28Z</time></trkpt><trkpt lat="43.72697153542976" lon="11.028987695733845"><ele>37.0</ele><time>2026-03-29T07:46:30Z</time></trkpt><trkpt lat="43.72689580236907" lon="11.029100238404569"><ele>37.0</ele><time>2026-03-29T07:46:32Z</time></trkpt><trkpt lat="43.72682104950478" lon="11.029213109764823"><ele>37.0</ele><time>2026-03-29T07:46:34Z</time></trkpt><trkpt lat="43.72675044266159" lon="11.029330032008039"><ele>37.0</ele><time>2026-03-29T07:46:36Z</time></trkpt><trkpt lat="43.726685709038414" lon="11.029452860518193"><ele>37.0</ele><time>2026-03-29T07:46:38Z</time></trkpt><trkpt lat="43.726624576217795" lon="11.02957862570861"><ele>37.0</ele><time>2026-03-29T07:46:40Z</time></trkpt><trkpt lat="43.726556232285304" lon="11.02970131426358"><ele>37.0</ele><time>2026-03-29T07:46:42Z</time></trkpt><trkpt lat="43.72649356565879" lon="11.029830291784464"><ele>37.0</ele><time>2026-03-29T07:46:44Z</time></trkpt><trkpt lat="43.726434811639876" lon="11.029963375666247"><ele>37.0</ele><time>2026-03-29T07:46:46Z</time></trkpt><trkpt lat="43.72637904570931" lon="11.030094179611101"><ele>37.8</ele><time>2026-03-29T07:46:48Z</time></trkpt><trkpt lat="43.72632981968979" lon="11.030221597602713"><ele>38.6</ele><time>2026-03-29T07:46:50Z</time></trkpt><trkpt lat="43.72627759361885" lon="11.030353631920512"><ele>39.4</ele><time>2026-03-29T07:46:52Z</time></trkpt><trkpt lat="43.72622523949564" lon="11.03047812528563"><ele>40.199999999999996</ele><time>2026-03-29T07:46:54Z</time></trkpt><trkpt lat="43.726170603750305" lon="11.030601001369348"><ele>41.0</ele><time>2026-03-29T07:46:56Z</time></trkpt><trkpt lat="43.726107909926974" lon="11.030725544132642"><ele>41.0</ele><time>2026-03-29T07:46:58Z</time></trkpt><trkpt lat="43.72600831923785" lon="11.030821185315743"><ele>41.0</ele><time>2026-03-29T07:47:00Z</time></trkpt><trkpt lat="43.72589561079386" lon="11.030883755627595"><ele>41.0</ele><time>2026-03-29T07:47:02Z</time></trkpt><trkpt lat="43.72583821560812" lon="11.030922605012497"><ele>41.0</ele><time>2026-03-29T07:47:03Z</time></trkpt><trkpt lat="43.72577878550563" lon="11.030962403031344"><ele>41.0</ele><time>2026-03-29T07:47:04Z</time></trkpt><trkpt lat="43.72572103546491" lon="11.0310128828457"><ele>41.0</ele><time>2026-03-29T07:47:05Z</time></trkpt><trkpt lat="43.72560369406471" lon="11.031107500202236"><ele>40.99999999999999</ele><time>2026-03-29T07:47:07Z</time></trkpt><trkpt lat="43.725544853663344" lon="11.031163494637573"><ele>41.0</ele><time>2026-03-29T07:47:08Z</time></trkpt><trkpt lat="43.72548241427044" lon="11.031218661902319"><ele>41.0</ele><time>2026-03-29T07:47:09Z</time></trkpt><trkpt lat="43.72541981466481" lon="11.031273114566735"><ele>41.0</ele><time>2026-03-29T07:47:10Z</time></trkpt><trkpt lat="43.72536278350658" lon="11.03133576154378"><ele>41.0</ele><time>2026-03-29T07:47:11Z</time></trkpt><trkpt lat="43.72530624193001" lon="11.031399496562669"><ele>40.99999999999999</ele><time>2026-03-29T07:47:12Z</time></trkpt><trkpt lat="43.725246436045694" lon="11.031472493695297"><ele>41.0</ele><time>2026-03-29T07:47:13Z</time></trkpt><trkpt lat="43.72519903766357" lon="11.031538650998026"><ele>40.99999999999999</ele><time>2026-03-29T07:47:14Z</time></trkpt><trkpt lat="43.725139986253915" lon="11.03159790932802"><ele>41.0</ele><time>2026-03-29T07:47:15Z</time></trkpt><trkpt lat="43.72508345583673" lon="11.031671959443464"><ele>41.0</ele><time>2026-03-29T07:47:16Z</time></trkpt><trkpt lat="43.72503206892959" lon="11.031738970222142"><ele>41.0</ele><time>2026-03-29T07:47:17Z</time></trkpt><trkpt lat="43.724976541713815" lon="11.031803872122556"><ele>41.0</ele><time>2026-03-29T07:47:18Z</time></trkpt><trkpt lat="43.72492403410493" lon="11.031871432262498"><ele>40.99999999999999</ele><time>2026-03-29T07:47:19Z</time></trkpt><trkpt lat="43.7248737588765" lon="11.031938353297422"><ele>41.0</ele><time>2026-03-29T07:47:20Z</time></trkpt><trkpt lat="43.724822431076994" lon="11.032003559904332"><ele>40.99999999999999</ele><time>2026-03-29T07:47:21Z</time></trkpt><trkpt lat="43.72477312300595" lon="11.032066915625878"><ele>41.0</ele><time>2026-03-29T07:47:22Z</time></trkpt><trkpt lat="43.724730198495365" lon="11.032136085707647"><ele>41.0</ele><time>2026-03-29T07:47:23Z</time></trkpt><trkpt lat="43.72468610489474" lon="11.03220640796268"><ele>41.0</ele><time>2026-03-29T07:47:24Z</time></trkpt><trkpt lat="43.72464160907382" lon="11.032275326510897"><ele>41.0</ele><time>2026-03-29T07:47:25Z</time></trkpt><trkpt lat="43.724602465164566" lon="11.032347612465816"><ele>40.99999999999999</ele><time>2026-03-29T07:47:26Z</time></trkpt><trkpt lat="43.72456315234331" lon="11.032421265315"><ele>41.0</ele><time>2026-03-29T07:47:27Z</time></trkpt><trkpt lat="43.72452246040303" lon="11.032488730682958"><ele>40.71428571428571</ele><time>2026-03-29T07:47:28Z</time></trkpt><trkpt lat="43.72448079472942" lon="11.032565039271145"><ele>40.42857142857143</ele><time>2026-03-29T07:47:29Z</time></trkpt><trkpt lat="43.724443935300826" lon="11.032643237279684"><ele>40.14285714285714</ele><time>2026-03-29T07:47:30Z</time></trkpt><trkpt lat="43.72440932940188" lon="11.03271986773983"><ele>39.857142857142854</ele><time>2026-03-29T07:47:31Z</time></trkpt><trkpt lat="43.724370144753784" lon="11.032794658626512"><ele>39.57142857142857</ele><time>2026-03-29T07:47:32Z</time></trkpt><trkpt lat="43.724330300742146" lon="11.032865564398493"><ele>39.285714285714285</ele><time>2026-03-29T07:47:33Z</time></trkpt><trkpt lat="43.724291458098534" lon="11.0329381063077"><ele>39.0</ele><time>2026-03-29T07:47:34Z</time></trkpt><trkpt lat="43.724253366754965" lon="11.03301149324735"><ele>39.0</ele><time>2026-03-29T07:47:35Z</time></trkpt><trkpt lat="43.724217747224984" lon="11.033087361711813"><ele>39.0</ele><time>2026-03-29T07:47:36Z</time></trkpt><trkpt lat="43.724146675471324" lon="11.033226982031541"><ele>39.0</ele><time>2026-03-29T07:47:38Z</time></trkpt><trkpt lat="43.724102651815905" lon="11.033297865858598"><ele>39.0</ele><time>2026-03-29T07:47:39Z</time></trkpt><trkpt lat="43.72403793911285" lon="11.033439485768845"><ele>39.0</ele><time>2026-03-29T07:47:41Z</time></trkpt><trkpt lat="43.723966917282226" lon="11.033578155355453"><ele>39.8</ele><time>2026-03-29T07:47:43Z</time></trkpt><trkpt lat="43.72392938280546" lon="11.033648842294992"><ele>40.599999999999994</ele><time>2026-03-29T07:47:44Z</time></trkpt><trkpt lat="43.723874663399926" lon="11.033795740039105"><ele>41.4</ele><time>2026-03-29T07:47:46Z</time></trkpt><trkpt lat="43.723819588236346" lon="11.033953397933079"><ele>42.199999999999996</ele><time>2026-03-29T07:47:48Z</time></trkpt><trkpt lat="43.7237668911133" lon="11.034105630623118"><ele>43.0</ele><time>2026-03-29T07:47:50Z</time></trkpt><trkpt lat="43.7237383210607" lon="11.034185836782633"><ele>41.833333333333336</ele><time>2026-03-29T07:47:51Z</time></trkpt><trkpt lat="43.72370624590999" lon="11.034270094541077"><ele>40.66666666666667</ele><time>2026-03-29T07:47:52Z</time></trkpt><trkpt lat="43.723677739864755" lon="11.03434829724556"><ele>39.5</ele><time>2026-03-29T07:47:53Z</time></trkpt><trkpt lat="43.72364571497303" lon="11.034431092297064"><ele>38.333333333333336</ele><time>2026-03-29T07:47:54Z</time></trkpt><trkpt lat="43.723594888404776" lon="11.034586685119146"><ele>37.166666666666664</ele><time>2026-03-29T07:47:56Z</time></trkpt><trkpt lat="43.723562875726195" lon="11.034671473274344"><ele>36.0</ele><time>2026-03-29T07:47:57Z</time></trkpt><trkpt lat="43.72350613330399" lon="11.034820914747188"><ele>37.5</ele><time>2026-03-29T07:47:59Z</time></trkpt><trkpt lat="43.72344848504002" lon="11.034974890966867"><ele>39.0</ele><time>2026-03-29T07:48:01Z</time></trkpt><trkpt lat="43.72339187107921" lon="11.035131054641024"><ele>40.5</ele><time>2026-03-29T07:48:03Z</time></trkpt><trkpt lat="43.723338937919465" lon="11.035292293941888"><ele>42.0</ele><time>2026-03-29T07:48:05Z</time></trkpt><trkpt lat="43.723281463219294" lon="11.03544315388961"><ele>42.0</ele><time>2026-03-29T07:48:07Z</time></trkpt><trkpt lat="43.72322270439978" lon="11.03559344201433"><ele>42.0</ele><time>2026-03-29T07:48:09Z</time></trkpt><trkpt lat="43.72317999139495" lon="11.035735899062228"><ele>42.0</ele><time>2026-03-29T07:48:11Z</time></trkpt><trkpt lat="43.723125676312804" lon="11.035876040570852"><ele>42.0</ele><time>2026-03-29T07:48:13Z</time></trkpt><trkpt lat="43.72307293640034" lon="11.036019858229055"><ele>42.8</ele><time>2026-03-29T07:48:15Z</time></trkpt><trkpt lat="43.72301803439209" lon="11.036169588451104"><ele>43.6</ele><time>2026-03-29T07:48:17Z</time></trkpt><trkpt lat="43.722990089664414" lon="11.036252571314426"><ele>44.4</ele><time>2026-03-29T07:48:18Z</time></trkpt><trkpt lat="43.72293337782706" lon="11.03639446271903"><ele>45.199999999999996</ele><time>2026-03-29T07:48:20Z</time></trkpt><trkpt lat="43.72286367104297" lon="11.036523676146043"><ele>46.0</ele><time>2026-03-29T07:48:22Z</time></trkpt><trkpt lat="43.72279420446075" lon="11.036637646177157"><ele>44.4</ele><time>2026-03-29T07:48:24Z</time></trkpt><trkpt lat="43.72272195636632" lon="11.036752093593417"><ele>42.8</ele><time>2026-03-29T07:48:26Z</time></trkpt><trkpt lat="43.722646178840186" lon="11.036876407809093"><ele>41.199999999999996</ele><time>2026-03-29T07:48:28Z</time></trkpt><trkpt lat="43.72260407136028" lon="11.036942248372684"><ele>39.599999999999994</ele><time>2026-03-29T07:48:29Z</time></trkpt><trkpt lat="43.72252787648764" lon="11.037077278403459"><ele>38.0</ele><time>2026-03-29T07:48:31Z</time></trkpt><trkpt lat="43.72244859033105" lon="11.037204196654415"><ele>38.0</ele><time>2026-03-29T07:48:33Z</time></trkpt><trkpt lat="43.72237349738846" lon="11.03733898041513"><ele>38.0</ele><time>2026-03-29T07:48:35Z</time></trkpt><trkpt lat="43.72229354174485" lon="11.03746819375287"><ele>38.0</ele><time>2026-03-29T07:48:37Z</time></trkpt><trkpt lat="43.72221347075745" lon="11.037598723972225"><ele>38.0</ele><time>2026-03-29T07:48:39Z</time></trkpt><trkpt lat="43.72212636912044" lon="11.037720013427853"><ele>37.6</ele><time>2026-03-29T07:48:41Z</time></trkpt><trkpt lat="43.7220354152643" lon="11.037835550078933"><ele>37.199999999999996</ele><time>2026-03-29T07:48:43Z</time></trkpt><trkpt lat="43.72198469075298" lon="11.037892843589564"><ele>36.8</ele><time>2026-03-29T07:48:44Z</time></trkpt><trkpt lat="43.72188451580221" lon="11.038002771725296"><ele>36.4</ele><time>2026-03-29T07:48:46Z</time></trkpt><trkpt lat="43.721784637071245" lon="11.03810255922279"><ele>36.0</ele><time>2026-03-29T07:48:48Z</time></trkpt><trkpt lat="43.721726253289184" lon="11.03814566391645"><ele>36.00000000000001</ele><time>2026-03-29T07:48:49Z</time></trkpt><trkpt lat="43.72166876862565" lon="11.038190526323614"><ele>36.0</ele><time>2026-03-29T07:48:50Z</time></trkpt><trkpt lat="43.72161354960382" lon="11.038236167339955"><ele>36.0</ele><time>2026-03-29T07:48:51Z</time></trkpt><trkpt lat="43.72155669533846" lon="11.038274738456881"><ele>36.0</ele><time>2026-03-29T07:48:52Z</time></trkpt><trkpt lat="43.72149902853478" lon="11.038314906033449"><ele>36.0</ele><time>2026-03-29T07:48:53Z</time></trkpt><trkpt lat="43.721388407000155" lon="11.038381462185061"><ele>36.00000000000001</ele><time>2026-03-29T07:48:55Z</time></trkpt><trkpt lat="43.721328627360066" lon="11.038425931608343"><ele>36.0</ele><time>2026-03-29T07:48:56Z</time></trkpt><trkpt lat="43.72121753549561" lon="11.038490929653582"><ele>36.2</ele><time>2026-03-29T07:48:58Z</time></trkpt><trkpt lat="43.72110621907302" lon="11.038560700578168"><ele>36.400000000000006</ele><time>2026-03-29T07:49:00Z</time></trkpt><trkpt lat="43.72099298415964" lon="11.038632049722006"><ele>36.6</ele><time>2026-03-29T07:49:02Z</time></trkpt><trkpt lat="43.72093374034359" lon="11.038668609565969"><ele>36.800000000000004</ele><time>2026-03-29T07:49:03Z</time></trkpt><trkpt lat="43.72082248028589" lon="11.038736559243487"><ele>37.0</ele><time>2026-03-29T07:49:05Z</time></trkpt><trkpt lat="43.720710811845045" lon="11.038812395804628"><ele>37.0</ele><time>2026-03-29T07:49:07Z</time></trkpt><trkpt lat="43.72059882219908" lon="11.038886910820361"><ele>37.0</ele><time>2026-03-29T07:49:09Z</time></trkpt><trkpt lat="43.72054007731552" lon="11.038922310828616"><ele>37.0</ele><time>2026-03-29T07:49:10Z</time></trkpt><trkpt lat="43.720428128470715" lon="11.038995052491574"><ele>37.0</ele><time>2026-03-29T07:49:12Z</time></trkpt><trkpt lat="43.720321399052864" lon="11.039074699910618"><ele>37.0</ele><time>2026-03-29T07:49:14Z</time></trkpt><trkpt lat="43.72022101118981" lon="11.039171751088789"><ele>37.0</ele><time>2026-03-29T07:49:16Z</time></trkpt><trkpt lat="43.720135986154816" lon="11.039287378810444"><ele>37.0</ele><time>2026-03-29T07:49:18Z</time></trkpt><trkpt lat="43.72006271939129" lon="11.03942350040744"><ele>37.0</ele><time>2026-03-29T07:49:20Z</time></trkpt><trkpt lat="43.72000288830631" lon="11.039571435948476"><ele>37.0</ele><time>2026-03-29T07:49:22Z</time></trkpt><trkpt lat="43.7199559319545" lon="11.039727698067765"><ele>37.0</ele><time>2026-03-29T07:49:24Z</time></trkpt><trkpt lat="43.719933404235164" lon="11.039810940183092"><ele>37.0</ele><time>2026-03-29T07:49:25Z</time></trkpt><trkpt lat="43.71989615467225" lon="11.0399610484844"><ele>37.0</ele><time>2026-03-29T07:49:27Z</time></trkpt><trkpt lat="43.71985760783589" lon="11.04011038833999"><ele>37.0</ele><time>2026-03-29T07:49:29Z</time></trkpt><trkpt lat="43.719815537657105" lon="11.040259199585066"><ele>37.0</ele><time>2026-03-29T07:49:31Z</time></trkpt><trkpt lat="43.71977068845014" lon="11.04040632622782"><ele>37.4</ele><time>2026-03-29T07:49:33Z</time></trkpt><trkpt lat="43.71973086149107" lon="11.040549277662237"><ele>37.800000000000004</ele><time>2026-03-29T07:49:35Z</time></trkpt><trkpt lat="43.71969220587071" lon="11.040695907913468"><ele>38.2</ele><time>2026-03-29T07:49:37Z</time></trkpt><trkpt lat="43.7196519886797" lon="11.040839667758535"><ele>38.6</ele><time>2026-03-29T07:49:39Z</time></trkpt><trkpt lat="43.71961604307376" lon="11.040985039799851"><ele>39.0</ele><time>2026-03-29T07:49:41Z</time></trkpt><trkpt lat="43.71957877703807" lon="11.041128514476176"><ele>40.0</ele><time>2026-03-29T07:49:43Z</time></trkpt><trkpt lat="43.719537488859864" lon="11.04127300102236"><ele>41.0</ele><time>2026-03-29T07:49:45Z</time></trkpt><trkpt lat="43.71949444389833" lon="11.041412656572955"><ele>42.0</ele><time>2026-03-29T07:49:47Z</time></trkpt><trkpt lat="43.719456729628725" lon="11.041557087180122"><ele>43.0</ele><time>2026-03-29T07:49:49Z</time></trkpt><trkpt lat="43.71940905240715" lon="11.041705760490295"><ele>42.8</ele><time>2026-03-29T07:49:51Z</time></trkpt><trkpt lat="43.71936965418652" lon="11.041827049490413"><ele>42.599999999999994</ele><time>2026-03-29T07:49:53Z</time></trkpt><trkpt lat="43.719333755409004" lon="11.041961784790091"><ele>42.400000000000006</ele><time>2026-03-29T07:49:55Z</time></trkpt><trkpt lat="43.71929077665714" lon="11.042086833735883"><ele>42.2</ele><time>2026-03-29T07:49:57Z</time></trkpt><trkpt lat="43.7192644172244" lon="11.042220794786969"><ele>42.0</ele><time>2026-03-29T07:49:59Z</time></trkpt><trkpt lat="43.71921171463534" lon="11.042398317025661"><ele>41.75</ele><time>2026-03-29T07:50:01Z</time></trkpt><trkpt lat="43.71917174225885" lon="11.042548058672024"><ele>41.5</ele><time>2026-03-29T07:50:03Z</time></trkpt><trkpt lat="43.719128673118306" lon="11.042699619940999"><ele>41.25</ele><time>2026-03-29T07:50:05Z</time></trkpt><trkpt lat="43.71908649986825" lon="11.042849549704883"><ele>41.0</ele><time>2026-03-29T07:50:07Z</time></trkpt><trkpt lat="43.719047696966896" lon="11.043006242448616"><ele>41.0</ele><time>2026-03-29T07:50:09Z</time></trkpt><trkpt lat="43.7190018015053" lon="11.043154327643364"><ele>41.0</ele><time>2026-03-29T07:50:11Z</time></trkpt><trkpt lat="43.718958538160024" lon="11.043299617003315"><ele>41.0</ele><time>2026-03-29T07:50:13Z</time></trkpt><trkpt lat="43.7189140284908" lon="11.04345055285697"><ele>41.0</ele><time>2026-03-29T07:50:15Z</time></trkpt><trkpt lat="43.718873121799305" lon="11.043600919123108"><ele>41.5</ele><time>2026-03-29T07:50:17Z</time></trkpt><trkpt lat="43.718835420899865" lon="11.043750624471643"><ele>42.0</ele><time>2026-03-29T07:50:19Z</time></trkpt><trkpt lat="43.71879075958182" lon="11.043897473765194"><ele>42.5</ele><time>2026-03-29T07:50:21Z</time></trkpt><trkpt lat="43.71874486354935" lon="11.044046117668739"><ele>43.0</ele><time>2026-03-29T07:50:23Z</time></trkpt><trkpt lat="43.71870249699031" lon="11.04419217165912"><ele>42.0</ele><time>2026-03-29T07:50:25Z</time></trkpt><trkpt lat="43.7186561189531" lon="11.044340868801534"><ele>41.0</ele><time>2026-03-29T07:50:27Z</time></trkpt><trkpt lat="43.71860786618962" lon="11.044484717456081"><ele>40.0</ele><time>2026-03-29T07:50:29Z</time></trkpt><trkpt lat="43.71854939887305" lon="11.044620881151298"><ele>39.0</ele><time>2026-03-29T07:50:31Z</time></trkpt><trkpt lat="43.718473116583056" lon="11.044752419698286"><ele>39.0</ele><time>2026-03-29T07:50:33Z</time></trkpt><trkpt lat="43.718397452321845" lon="11.04487490476661"><ele>39.0</ele><time>2026-03-29T07:50:35Z</time></trkpt><trkpt lat="43.718317533586905" lon="11.04499600050243"><ele>39.0</ele><time>2026-03-29T07:50:37Z</time></trkpt><trkpt lat="43.71824144851599" lon="11.045117123852133"><ele>39.0</ele><time>2026-03-29T07:50:39Z</time></trkpt><trkpt lat="43.71816470576916" lon="11.045238408416353"><ele>40.5</ele><time>2026-03-29T07:50:41Z</time></trkpt><trkpt lat="43.71808712458466" lon="11.04534885884833"><ele>42.0</ele><time>2026-03-29T07:50:43Z</time></trkpt><trkpt lat="43.71801121443728" lon="11.04547301654782"><ele>43.5</ele><time>2026-03-29T07:50:45Z</time></trkpt><trkpt lat="43.71792794416881" lon="11.0455963731949"><ele>45.0</ele><time>2026-03-29T07:50:47Z</time></trkpt><trkpt lat="43.717847731807204" lon="11.045726723773537"><ele>44.75</ele><time>2026-03-29T07:50:49Z</time></trkpt><trkpt lat="43.71777208933273" lon="11.045851575855249"><ele>44.5</ele><time>2026-03-29T07:50:51Z</time></trkpt><trkpt lat="43.717691134303614" lon="11.045976803585285"><ele>44.25</ele><time>2026-03-29T07:50:53Z</time></trkpt><trkpt lat="43.71762115801491" lon="11.046110325221061"><ele>44.0</ele><time>2026-03-29T07:50:55Z</time></trkpt><trkpt lat="43.717537878459865" lon="11.046233661749483"><ele>44.0</ele><time>2026-03-29T07:50:57Z</time></trkpt><trkpt lat="43.717473648245885" lon="11.046366619450739"><ele>44.0</ele><time>2026-03-29T07:50:59Z</time></trkpt><trkpt lat="43.71740518626673" lon="11.046499072120712"><ele>44.0</ele><time>2026-03-29T07:51:01Z</time></trkpt><trkpt lat="43.717331560383" lon="11.046625965555341"><ele>44.0</ele><time>2026-03-29T07:51:03Z</time></trkpt><trkpt lat="43.717269465038186" lon="11.046761350833716"><ele>46.5</ele><time>2026-03-29T07:51:05Z</time></trkpt><trkpt lat="43.71720776811264" lon="11.046891653710485"><ele>49.0</ele><time>2026-03-29T07:51:07Z</time></trkpt><trkpt lat="43.717140309725586" lon="11.047023451063314"><ele>51.5</ele><time>2026-03-29T07:51:09Z</time></trkpt><trkpt lat="43.717076849884535" lon="11.047158481775867"><ele>54.0</ele><time>2026-03-29T07:51:11Z</time></trkpt><trkpt lat="43.7170234296498" lon="11.047286789696225"><ele>54.0</ele><time>2026-03-29T07:51:13Z</time></trkpt><trkpt lat="43.71695931068443" lon="11.047422429013025"><ele>54.0</ele><time>2026-03-29T07:51:15Z</time></trkpt><trkpt lat="43.71691161550018" lon="11.04755925672158"><ele>54.0</ele><time>2026-03-29T07:51:17Z</time></trkpt><trkpt lat="43.71685571153821" lon="11.047706325186624"><ele>54.0</ele><time>2026-03-29T07:51:19Z</time></trkpt><trkpt lat="43.7168025599052" lon="11.047853539464025"><ele>51.5</ele><time>2026-03-29T07:51:21Z</time></trkpt><trkpt lat="43.71675057522918" lon="11.048004257910135"><ele>49.0</ele><time>2026-03-29T07:51:23Z</time></trkpt><trkpt lat="43.71670265883589" lon="11.048159829530984"><ele>46.5</ele><time>2026-03-29T07:51:25Z</time></trkpt><trkpt lat="43.716656315803064" lon="11.048305038423765"><ele>44.0</ele><time>2026-03-29T07:51:27Z</time></trkpt><trkpt lat="43.71661442220494" lon="11.048447280212109"><ele>44.0</ele><time>2026-03-29T07:51:29Z</time></trkpt><trkpt lat="43.71658344303378" lon="11.048596608428266"><ele>44.0</ele><time>2026-03-29T07:51:31Z</time></trkpt><trkpt lat="43.716546308148665" lon="11.048744018546474"><ele>44.0</ele><time>2026-03-29T07:51:33Z</time></trkpt><trkpt lat="43.716510715111134" lon="11.048882550911088"><ele>44.0</ele><time>2026-03-29T07:51:35Z</time></trkpt><trkpt lat="43.71647148569259" lon="11.049033460842436"><ele>44.0</ele><time>2026-03-29T07:51:37Z</time></trkpt><trkpt lat="43.71642646711523" lon="11.049190520174214"><ele>45.25</ele><time>2026-03-29T07:51:39Z</time></trkpt><trkpt lat="43.71638124728752" lon="11.04933811063409"><ele>46.5</ele><time>2026-03-29T07:51:41Z</time></trkpt><trkpt lat="43.71634539975697" lon="11.04949101727058"><ele>47.75</ele><time>2026-03-29T07:51:43Z</time></trkpt><trkpt lat="43.71630546844216" lon="11.049639456966247"><ele>49.0</ele><time>2026-03-29T07:51:45Z</time></trkpt><trkpt lat="43.716260993253705" lon="11.049788539330125"><ele>49.0</ele><time>2026-03-29T07:51:47Z</time></trkpt><trkpt lat="43.71621707837646" lon="11.049928426877946"><ele>49.0</ele><time>2026-03-29T07:51:49Z</time></trkpt><trkpt lat="43.71617196512063" lon="11.050074421877916"><ele>49.0</ele><time>2026-03-29T07:51:51Z</time></trkpt><trkpt lat="43.71612518020177" lon="11.050218657199686"><ele>49.0</ele><time>2026-03-29T07:51:53Z</time></trkpt><trkpt lat="43.71608688178292" lon="11.050362207714176"><ele>48.75</ele><time>2026-03-29T07:51:55Z</time></trkpt><trkpt lat="43.716033782680384" lon="11.050506714456692"><ele>48.5</ele><time>2026-03-29T07:51:57Z</time></trkpt><trkpt lat="43.715979763514234" lon="11.050647812274542"><ele>48.25</ele><time>2026-03-29T07:51:59Z</time></trkpt><trkpt lat="43.71593412313529" lon="11.0507964063913"><ele>48.0</ele><time>2026-03-29T07:52:01Z</time></trkpt><trkpt lat="43.71588707214336" lon="11.050936578536914"><ele>48.0</ele><time>2026-03-29T07:52:03Z</time></trkpt><trkpt lat="43.715833062561344" lon="11.051074347071562"><ele>48.0</ele><time>2026-03-29T07:52:05Z</time></trkpt><trkpt lat="43.71579057467326" lon="11.051215658763134"><ele>48.0</ele><time>2026-03-29T07:52:07Z</time></trkpt><trkpt lat="43.715744567164315" lon="11.051351002616487"><ele>48.0</ele><time>2026-03-29T07:52:09Z</time></trkpt><trkpt lat="43.715698250517626" lon="11.051486707246578"><ele>48.0</ele><time>2026-03-29T07:52:11Z</time></trkpt><trkpt lat="43.715650435305534" lon="11.051624062776273"><ele>49.4</ele><time>2026-03-29T07:52:13Z</time></trkpt><trkpt lat="43.715605738102504" lon="11.051754564707322"><ele>50.8</ele><time>2026-03-29T07:52:15Z</time></trkpt><trkpt lat="43.71555661226567" lon="11.051884881667474"><ele>52.2</ele><time>2026-03-29T07:52:17Z</time></trkpt><trkpt lat="43.71551064229568" lon="11.05202221903584"><ele>53.6</ele><time>2026-03-29T07:52:19Z</time></trkpt><trkpt lat="43.715461760203915" lon="11.052155860055015"><ele>55.0</ele><time>2026-03-29T07:52:21Z</time></trkpt><trkpt lat="43.71540570092427" lon="11.052283339324875"><ele>55.0</ele><time>2026-03-29T07:52:23Z</time></trkpt><trkpt lat="43.71535446563928" lon="11.05241944121081"><ele>55.0</ele><time>2026-03-29T07:52:25Z</time></trkpt><trkpt lat="43.71530290163895" lon="11.052544921639416"><ele>55.0</ele><time>2026-03-29T07:52:27Z</time></trkpt><trkpt lat="43.71526198572669" lon="11.052616361387226"><ele>55.0</ele><time>2026-03-29T07:52:28Z</time></trkpt><trkpt lat="43.71521652822345" lon="11.052741795919465"><ele>55.0</ele><time>2026-03-29T07:52:30Z</time></trkpt><trkpt lat="43.71516104753949" lon="11.052903632498085"><ele>55.2</ele><time>2026-03-29T07:52:32Z</time></trkpt><trkpt lat="43.7151072020261" lon="11.053003590395674"><ele>55.4</ele><time>2026-03-29T07:52:34Z</time></trkpt><trkpt lat="43.71505533509673" lon="11.05313279408199"><ele>55.599999999999994</ele><time>2026-03-29T07:52:36Z</time></trkpt><trkpt lat="43.71499932968362" lon="11.053264462140278"><ele>55.8</ele><time>2026-03-29T07:52:38Z</time></trkpt><trkpt lat="43.714946997155884" lon="11.053395884870087"><ele>56.0</ele><time>2026-03-29T07:52:40Z</time></trkpt><trkpt lat="43.714890399177165" lon="11.05353496706064"><ele>56.0</ele><time>2026-03-29T07:52:42Z</time></trkpt><trkpt lat="43.714839847758206" lon="11.053675761813459"><ele>56.0</ele><time>2026-03-29T07:52:44Z</time></trkpt><trkpt lat="43.7148079940919" lon="11.053820408173237"><ele>56.0</ele><time>2026-03-29T07:52:46Z</time></trkpt><trkpt lat="43.71474387140463" lon="11.053929633274173"><ele>56.0</ele><time>2026-03-29T07:52:48Z</time></trkpt><trkpt lat="43.714680327239115" lon="11.054100734332426"><ele>58.0</ele><time>2026-03-29T07:52:50Z</time></trkpt><trkpt lat="43.71461227917864" lon="11.054238332267959"><ele>60.0</ele><time>2026-03-29T07:52:52Z</time></trkpt><trkpt lat="43.7145516589386" lon="11.05437994646816"><ele>62.0</ele><time>2026-03-29T07:52:54Z</time></trkpt><trkpt lat="43.7144910032998" lon="11.054525467187178"><ele>64.0</ele><time>2026-03-29T07:52:56Z</time></trkpt><trkpt lat="43.71443677994397" lon="11.054669328115116"><ele>63.166666666666664</ele><time>2026-03-29T07:52:58Z</time></trkpt><trkpt lat="43.714393946029844" lon="11.054772704395756"><ele>62.33333333333333</ele><time>2026-03-29T07:53:00Z</time></trkpt><trkpt lat="43.714350394847656" lon="11.054853818796873"><ele>61.5</ele><time>2026-03-29T07:53:01Z</time></trkpt><trkpt lat="43.714318119209295" lon="11.054936237279499"><ele>60.66666666666667</ele><time>2026-03-29T07:53:02Z</time></trkpt><trkpt lat="43.71428349213067" lon="11.055013158201113"><ele>59.833333333333336</ele><time>2026-03-29T07:53:03Z</time></trkpt><trkpt lat="43.71422377489565" lon="11.055162997103094"><ele>59.0</ele><time>2026-03-29T07:53:05Z</time></trkpt><trkpt lat="43.714193909104765" lon="11.055240032494542"><ele>59.00000000000001</ele><time>2026-03-29T07:53:06Z</time></trkpt><trkpt lat="43.71416320952446" lon="11.055317965469763"><ele>59.0</ele><time>2026-03-29T07:53:07Z</time></trkpt><trkpt lat="43.714128832840174" lon="11.055393029139656"><ele>59.0</ele><time>2026-03-29T07:53:08Z</time></trkpt><trkpt lat="43.71409623604286" lon="11.055472405645556"><ele>59.0</ele><time>2026-03-29T07:53:09Z</time></trkpt><trkpt lat="43.714036078868084" lon="11.055626987891591"><ele>59.00000000000001</ele><time>2026-03-29T07:53:11Z</time></trkpt><trkpt lat="43.71400166554858" lon="11.055720921023864"><ele>59.0</ele><time>2026-03-29T07:53:12Z</time></trkpt><trkpt lat="43.71394359148304" lon="11.055879198682675"><ele>59.14285714285714</ele><time>2026-03-29T07:53:14Z</time></trkpt><trkpt lat="43.71391015879175" lon="11.055955282279692"><ele>59.28571428571429</ele><time>2026-03-29T07:53:15Z</time></trkpt><trkpt lat="43.713877620063585" lon="11.05603213625494"><ele>59.42857142857143</ele><time>2026-03-29T07:53:16Z</time></trkpt><trkpt lat="43.71384475423351" lon="11.05610715273352"><ele>59.57142857142857</ele><time>2026-03-29T07:53:17Z</time></trkpt><trkpt lat="43.71381512442674" lon="11.0561872922816"><ele>59.71428571428571</ele><time>2026-03-29T07:53:18Z</time></trkpt><trkpt lat="43.713782972995745" lon="11.056268302264877"><ele>59.85714285714286</ele><time>2026-03-29T07:53:19Z</time></trkpt><trkpt lat="43.71375118800498" lon="11.056347930619316"><ele>60.0</ele><time>2026-03-29T07:53:20Z</time></trkpt><trkpt lat="43.713719340361756" lon="11.056427156682943"><ele>60.0</ele><time>2026-03-29T07:53:21Z</time></trkpt><trkpt lat="43.713688556553365" lon="11.056510243492696"><ele>60.0</ele><time>2026-03-29T07:53:22Z</time></trkpt><trkpt lat="43.713658931466256" lon="11.05658841627575"><ele>60.0</ele><time>2026-03-29T07:53:23Z</time></trkpt><trkpt lat="43.71362656406728" lon="11.05666640334179"><ele>60.0</ele><time>2026-03-29T07:53:24Z</time></trkpt><trkpt lat="43.71356456944495" lon="11.056816844219362"><ele>60.0</ele><time>2026-03-29T07:53:26Z</time></trkpt><trkpt lat="43.71353324983618" lon="11.056893588356532"><ele>60.0</ele><time>2026-03-29T07:53:27Z</time></trkpt><trkpt lat="43.71347083666615" lon="11.057043914647384"><ele>58.8</ele><time>2026-03-29T07:53:29Z</time></trkpt><trkpt lat="43.71344054645556" lon="11.0571227249302"><ele>57.6</ele><time>2026-03-29T07:53:30Z</time></trkpt><trkpt lat="43.713407140387474" lon="11.057200872905728"><ele>56.400000000000006</ele><time>2026-03-29T07:53:31Z</time></trkpt><trkpt lat="43.713374791291436" lon="11.057281906522038"><ele>55.2</ele><time>2026-03-29T07:53:32Z</time></trkpt><trkpt lat="43.7133093358057" lon="11.057430797109872"><ele>54.0</ele><time>2026-03-29T07:53:34Z</time></trkpt><trkpt lat="43.71326000943565" lon="11.057592299984647"><ele>54.0</ele><time>2026-03-29T07:53:36Z</time></trkpt><trkpt lat="43.713217221982404" lon="11.057750543066787"><ele>54.0</ele><time>2026-03-29T07:53:38Z</time></trkpt><trkpt lat="43.71319462832634" lon="11.057834155204757"><ele>54.0</ele><time>2026-03-29T07:53:39Z</time></trkpt><trkpt lat="43.71317801352382" lon="11.05792636067108"><ele>54.0</ele><time>2026-03-29T07:53:40Z</time></trkpt><trkpt lat="43.71315654361841" lon="11.05809553054591"><ele>54.0</ele><time>2026-03-29T07:53:42Z</time></trkpt><trkpt lat="43.713141709735" lon="11.05818239514048"><ele>54.0</ele><time>2026-03-29T07:53:43Z</time></trkpt><trkpt lat="43.713127754387784" lon="11.058269618300562"><ele>55.2</ele><time>2026-03-29T07:53:44Z</time></trkpt><trkpt lat="43.713118442992354" lon="11.058360240119734"><ele>56.400000000000006</ele><time>2026-03-29T07:53:45Z</time></trkpt><trkpt lat="43.71310481310062" lon="11.058445752083234"><ele>57.6</ele><time>2026-03-29T07:53:46Z</time></trkpt><trkpt lat="43.713088751022326" lon="11.058531256470006"><ele>58.8</ele><time>2026-03-29T07:53:47Z</time></trkpt><trkpt lat="43.713058032701504" lon="11.058712164227236"><ele>60.0</ele><time>2026-03-29T07:53:49Z</time></trkpt><trkpt lat="43.713012040704626" lon="11.05887351119002"><ele>60.0</ele><time>2026-03-29T07:53:51Z</time></trkpt><trkpt lat="43.71298879980345" lon="11.058958264420784"><ele>60.0</ele><time>2026-03-29T07:53:52Z</time></trkpt><trkpt lat="43.712959189948165" lon="11.059039003108063"><ele>60.0</ele><time>2026-03-29T07:53:53Z</time></trkpt><trkpt lat="43.71293285909332" lon="11.05912177688916"><ele>60.0</ele><time>2026-03-29T07:53:54Z</time></trkpt><trkpt lat="43.71290866903708" lon="11.059210976840152"><ele>60.0</ele><time>2026-03-29T07:53:55Z</time></trkpt><trkpt lat="43.71288359150422" lon="11.059297075526963"><ele>60.0</ele><time>2026-03-29T07:53:56Z</time></trkpt><trkpt lat="43.71285665407828" lon="11.0593794237618"><ele>60.0</ele><time>2026-03-29T07:53:57Z</time></trkpt><trkpt lat="43.71282965243219" lon="11.059466980816525"><ele>60.666666666666664</ele><time>2026-03-29T07:53:58Z</time></trkpt><trkpt lat="43.71280762340934" lon="11.059551423032937"><ele>61.33333333333333</ele><time>2026-03-29T07:53:59Z</time></trkpt><trkpt lat="43.712783585991176" lon="11.05963811071971"><ele>62.0</ele><time>2026-03-29T07:54:00Z</time></trkpt><trkpt lat="43.71275449163169" lon="11.059721513323998"><ele>62.666666666666664</ele><time>2026-03-29T07:54:01Z</time></trkpt><trkpt lat="43.71272663160162" lon="11.059806399087105"><ele>63.33333333333333</ele><time>2026-03-29T07:54:02Z</time></trkpt><trkpt lat="43.71269699384888" lon="11.059896908273066"><ele>64.0</ele><time>2026-03-29T07:54:03Z</time></trkpt><trkpt lat="43.71263755283268" lon="11.060054762088026"><ele>61.666666666666664</ele><time>2026-03-29T07:54:05Z</time></trkpt><trkpt lat="43.71261025392493" lon="11.060136345646354"><ele>59.33333333333333</ele><time>2026-03-29T07:54:06Z</time></trkpt><trkpt lat="43.71257846958986" lon="11.06021409043658"><ele>57.0</ele><time>2026-03-29T07:54:07Z</time></trkpt><trkpt lat="43.71254389495412" lon="11.060288785447423"><ele>54.66666666666667</ele><time>2026-03-29T07:54:08Z</time></trkpt><trkpt lat="43.7124779923279" lon="11.060442701103591"><ele>52.333333333333336</ele><time>2026-03-29T07:54:10Z</time></trkpt><trkpt lat="43.71244632063625" lon="11.060518142489167"><ele>50.0</ele><time>2026-03-29T07:54:11Z</time></trkpt><trkpt lat="43.712408399331295" lon="11.06059605985677"><ele>50.00000000000001</ele><time>2026-03-29T07:54:12Z</time></trkpt><trkpt lat="43.712365937770414" lon="11.060663264676302"><ele>50.0</ele><time>2026-03-29T07:54:13Z</time></trkpt><trkpt lat="43.71231792492258" lon="11.060736705368702"><ele>50.0</ele><time>2026-03-29T07:54:14Z</time></trkpt><trkpt lat="43.71227019531686" lon="11.060811022931302"><ele>50.0</ele><time>2026-03-29T07:54:15Z</time></trkpt><trkpt lat="43.7122303769326" lon="11.060897648499784"><ele>50.0</ele><time>2026-03-29T07:54:16Z</time></trkpt><trkpt lat="43.71219033222853" lon="11.060971566060587"><ele>50.00000000000001</ele><time>2026-03-29T07:54:17Z</time></trkpt><trkpt lat="43.712140874470315" lon="11.061050303646095"><ele>50.0</ele><time>2026-03-29T07:54:18Z</time></trkpt><trkpt lat="43.712095516048144" lon="11.061130255726763"><ele>50.142857142857146</ele><time>2026-03-29T07:54:19Z</time></trkpt><trkpt lat="43.71204552678863" lon="11.061195315828424"><ele>50.285714285714285</ele><time>2026-03-29T07:54:20Z</time></trkpt><trkpt lat="43.71199991395603" lon="11.06126430596675"><ele>50.42857142857143</ele><time>2026-03-29T07:54:21Z</time></trkpt><trkpt lat="43.7119520218487" lon="11.061346041868248"><ele>50.57142857142857</ele><time>2026-03-29T07:54:22Z</time></trkpt><trkpt lat="43.71190475851736" lon="11.061418549470085"><ele>50.714285714285715</ele><time>2026-03-29T07:54:23Z</time></trkpt><trkpt lat="43.711858193949624" lon="11.061489596911242"><ele>50.85714285714286</ele><time>2026-03-29T07:54:24Z</time></trkpt><trkpt lat="43.71180692879088" lon="11.061559696332948"><ele>51.0</ele><time>2026-03-29T07:54:25Z</time></trkpt><trkpt lat="43.71175915736796" lon="11.061630608424354"><ele>50.57142857142857</ele><time>2026-03-29T07:54:26Z</time></trkpt><trkpt lat="43.71171011081061" lon="11.061694505691708"><ele>50.142857142857146</ele><time>2026-03-29T07:54:27Z</time></trkpt><trkpt lat="43.7116599645745" lon="11.061759831644116"><ele>49.71428571428571</ele><time>2026-03-29T07:54:28Z</time></trkpt><trkpt lat="43.71160628511783" lon="11.061816545384824"><ele>49.285714285714285</ele><time>2026-03-29T07:54:29Z</time></trkpt><trkpt lat="43.71155210010875" lon="11.061866664248862"><ele>48.857142857142854</ele><time>2026-03-29T07:54:30Z</time></trkpt><trkpt lat="43.71149657896636" lon="11.061919051102077"><ele>48.42857142857142</ele><time>2026-03-29T07:54:31Z</time></trkpt><trkpt lat="43.711433521507296" lon="11.061963665921052"><ele>48.0</ele><time>2026-03-29T07:54:32Z</time></trkpt><trkpt lat="43.711363602837594" lon="11.061982462031477"><ele>48.0</ele><time>2026-03-29T07:54:33Z</time></trkpt><trkpt lat="43.711248360940736" lon="11.061946700411529"><ele>48.0</ele><time>2026-03-29T07:54:35Z</time></trkpt><trkpt lat="43.71114629468949" lon="11.061876635507055"><ele>48.0</ele><time>2026-03-29T07:54:37Z</time></trkpt><trkpt lat="43.711039098730566" lon="11.061835866213473"><ele>48.0</ele><time>2026-03-29T07:54:39Z</time></trkpt><trkpt lat="43.710934178332984" lon="11.06184952037853"><ele>48.0</ele><time>2026-03-29T07:54:41Z</time></trkpt><trkpt lat="43.71084570701408" lon="11.061921356714928"><ele>47.75</ele><time>2026-03-29T07:54:43Z</time></trkpt><trkpt lat="43.71077516387079" lon="11.062029661908378"><ele>47.5</ele><time>2026-03-29T07:54:45Z</time></trkpt><trkpt lat="43.7107356752835" lon="11.06217949691499"><ele>47.25</ele><time>2026-03-29T07:54:47Z</time></trkpt><trkpt lat="43.710724574183374" lon="11.062339723667275"><ele>47.0</ele><time>2026-03-29T07:54:49Z</time></trkpt><trkpt lat="43.710753021297904" lon="11.062501106570139"><ele>47.0</ele><time>2026-03-29T07:54:51Z</time></trkpt><trkpt lat="43.710821340075704" lon="11.062644810386374"><ele>47.0</ele><time>2026-03-29T07:54:53Z</time></trkpt><trkpt lat="43.710873495016195" lon="11.062697973080525"><ele>47.0</ele><time>2026-03-29T07:54:54Z</time></trkpt><trkpt lat="43.7109962116833" lon="11.062731660240066"><ele>47.0</ele><time>2026-03-29T07:54:56Z</time></trkpt><trkpt lat="43.71110243948672" lon="11.062778101942246"><ele>47.0</ele><time>2026-03-29T07:54:58Z</time></trkpt><trkpt lat="43.711103565889495" lon="11.062973869849497"><ele>47.285714285714285</ele><time>2026-03-29T07:54:59Z</time></trkpt><trkpt lat="43.711112845156435" lon="11.063066371791924"><ele>47.57142857142857</ele><time>2026-03-29T07:55:00Z</time></trkpt><trkpt lat="43.71112192525118" lon="11.063160554657797"><ele>47.85714285714286</ele><time>2026-03-29T07:55:01Z</time></trkpt><trkpt lat="43.71113927541199" lon="11.06325247601778"><ele>48.14285714285714</ele><time>2026-03-29T07:55:02Z</time></trkpt><trkpt lat="43.71115607947951" lon="11.063348443345731"><ele>48.42857142857143</ele><time>2026-03-29T07:55:03Z</time></trkpt><trkpt lat="43.71118152889221" lon="11.063439745554005"><ele>48.714285714285715</ele><time>2026-03-29T07:55:04Z</time></trkpt><trkpt lat="43.711209221058375" lon="11.06352889451064"><ele>49.0</ele><time>2026-03-29T07:55:05Z</time></trkpt><trkpt lat="43.711235864553736" lon="11.063617357036444"><ele>49.49999999999999</ele><time>2026-03-29T07:55:06Z</time></trkpt><trkpt lat="43.71125537939953" lon="11.063705565034443"><ele>50.0</ele><time>2026-03-29T07:55:07Z</time></trkpt><trkpt lat="43.71126805221626" lon="11.063795782837463"><ele>50.5</ele><time>2026-03-29T07:55:08Z</time></trkpt><trkpt lat="43.71127215903278" lon="11.063887912640196"><ele>51.0</ele><time>2026-03-29T07:55:09Z</time></trkpt><trkpt lat="43.71127540895069" lon="11.063976200479216"><ele>51.49999999999999</ele><time>2026-03-29T07:55:10Z</time></trkpt><trkpt lat="43.711276660739344" lon="11.064066370943078"><ele>52.0</ele><time>2026-03-29T07:55:11Z</time></trkpt><trkpt lat="43.711258552012076" lon="11.064244342414701"><ele>52.8</ele><time>2026-03-29T07:55:13Z</time></trkpt><trkpt lat="43.71124635407074" lon="11.064415696102392"><ele>53.6</ele><time>2026-03-29T07:55:15Z</time></trkpt><trkpt lat="43.71124154157812" lon="11.06450638346555"><ele>54.39999999999999</ele><time>2026-03-29T07:55:16Z</time></trkpt><trkpt lat="43.71122584994589" lon="11.064678297811257"><ele>55.199999999999996</ele><time>2026-03-29T07:55:18Z</time></trkpt><trkpt lat="43.711213049967256" lon="11.064763889881153"><ele>56.0</ele><time>2026-03-29T07:55:19Z</time></trkpt><trkpt lat="43.71118586959905" lon="11.06493260659813"><ele>57.0</ele><time>2026-03-29T07:55:21Z</time></trkpt><trkpt lat="43.711149346827895" lon="11.065095474264874"><ele>57.99999999999999</ele><time>2026-03-29T07:55:23Z</time></trkpt><trkpt lat="43.71110385287963" lon="11.065256694737565"><ele>58.99999999999999</ele><time>2026-03-29T07:55:25Z</time></trkpt><trkpt lat="43.7110804158707" lon="11.065340652786556"><ele>60.0</ele><time>2026-03-29T07:55:26Z</time></trkpt><trkpt lat="43.71105858950949" lon="11.065423763072427"><ele>61.0</ele><time>2026-03-29T07:55:27Z</time></trkpt><trkpt lat="43.71101508137523" lon="11.065581644055698"><ele>59.33333333333333</ele><time>2026-03-29T07:55:29Z</time></trkpt><trkpt lat="43.71097337413334" lon="11.06573271194271"><ele>57.666666666666664</ele><time>2026-03-29T07:55:31Z</time></trkpt><trkpt lat="43.71092618158835" lon="11.065877304787314"><ele>56.0</ele><time>2026-03-29T07:55:33Z</time></trkpt><trkpt lat="43.71090368464302" lon="11.065960157542424"><ele>54.33333333333333</ele><time>2026-03-29T07:55:34Z</time></trkpt><trkpt lat="43.71088483968059" lon="11.066046506764701"><ele>52.666666666666664</ele><time>2026-03-29T07:55:35Z</time></trkpt><trkpt lat="43.710865830262264" lon="11.06613326661246"><ele>51.0</ele><time>2026-03-29T07:55:36Z</time></trkpt><trkpt lat="43.71084973544736" lon="11.066222967537731"><ele>51.0</ele><time>2026-03-29T07:55:37Z</time></trkpt><trkpt lat="43.71083497705777" lon="11.066313550978345"><ele>51.0</ele><time>2026-03-29T07:55:38Z</time></trkpt><trkpt lat="43.710818372116954" lon="11.066401905491242"><ele>51.0</ele><time>2026-03-29T07:55:39Z</time></trkpt><trkpt lat="43.710802625055464" lon="11.066489603692629"><ele>51.0</ele><time>2026-03-29T07:55:40Z</time></trkpt><trkpt lat="43.710780309905445" lon="11.066576576533606"><ele>51.0</ele><time>2026-03-29T07:55:41Z</time></trkpt><trkpt lat="43.71075990007783" lon="11.066663842208754"><ele>51.0</ele><time>2026-03-29T07:55:42Z</time></trkpt><trkpt lat="43.71074648876372" lon="11.06675083363464"><ele>51.0</ele><time>2026-03-29T07:55:43Z</time></trkpt><trkpt lat="43.71072926812911" lon="11.066837369127665"><ele>51.0</ele><time>2026-03-29T07:55:44Z</time></trkpt><trkpt lat="43.7107167048386" lon="11.066923483284775"><ele>51.0</ele><time>2026-03-29T07:55:45Z</time></trkpt><trkpt lat="43.7107033138044" lon="11.067009258355803"><ele>51.0</ele><time>2026-03-29T07:55:46Z</time></trkpt><trkpt lat="43.71068889715156" lon="11.06709520291256"><ele>51.0</ele><time>2026-03-29T07:55:47Z</time></trkpt><trkpt lat="43.710661711581935" lon="11.067260483814286"><ele>51.0</ele><time>2026-03-29T07:55:49Z</time></trkpt><trkpt lat="43.71063043149762" lon="11.06742393350268"><ele>51.0</ele><time>2026-03-29T07:55:51Z</time></trkpt><trkpt lat="43.71057794338736" lon="11.067573012562898"><ele>51.25</ele><time>2026-03-29T07:55:53Z</time></trkpt><trkpt lat="43.710527810442926" lon="11.067715093953346"><ele>51.5</ele><time>2026-03-29T07:55:55Z</time></trkpt><trkpt lat="43.7104796387889" lon="11.067863733693448"><ele>51.75</ele><time>2026-03-29T07:55:57Z</time></trkpt><trkpt lat="43.71042574003128" lon="11.068004906954988"><ele>52.0</ele><time>2026-03-29T07:55:59Z</time></trkpt><trkpt lat="43.71035438409358" lon="11.068135559370493"><ele>52.0</ele><time>2026-03-29T07:56:01Z</time></trkpt><trkpt lat="43.71027188047531" lon="11.068249926368374"><ele>52.0</ele><time>2026-03-29T07:56:03Z</time></trkpt><trkpt lat="43.71018884770932" lon="11.068355381005187"><ele>52.0</ele><time>2026-03-29T07:56:05Z</time></trkpt><trkpt lat="43.71010344350974" lon="11.068471431707657"><ele>52.0</ele><time>2026-03-29T07:56:07Z</time></trkpt><trkpt lat="43.71002982914106" lon="11.06858384427018"><ele>52.400000000000006</ele><time>2026-03-29T07:56:09Z</time></trkpt><trkpt lat="43.709969028414726" lon="11.068719162477496"><ele>52.800000000000004</ele><time>2026-03-29T07:56:11Z</time></trkpt><trkpt lat="43.70990333029036" lon="11.068867734932855"><ele>53.2</ele><time>2026-03-29T07:56:13Z</time></trkpt><trkpt lat="43.70984212853886" lon="11.069014523100234"><ele>53.6</ele><time>2026-03-29T07:56:15Z</time></trkpt><trkpt lat="43.709802755080794" lon="11.06909146421476"><ele>54.0</ele><time>2026-03-29T07:56:16Z</time></trkpt><trkpt lat="43.70973181514688" lon="11.069230657681844"><ele>54.0</ele><time>2026-03-29T07:56:18Z</time></trkpt><trkpt lat="43.70966814693926" lon="11.069374625535554"><ele>54.00000000000001</ele><time>2026-03-29T07:56:20Z</time></trkpt><trkpt lat="43.70963775184682" lon="11.069451843730318"><ele>54.00000000000001</ele><time>2026-03-29T07:56:21Z</time></trkpt><trkpt lat="43.70959161147647" lon="11.069606961795547"><ele>54.0</ele><time>2026-03-29T07:56:23Z</time></trkpt><trkpt lat="43.7095680381228" lon="11.06976910888001"><ele>54.0</ele><time>2026-03-29T07:56:25Z</time></trkpt><trkpt lat="43.70953690220141" lon="11.069929137736198"><ele>55.75</ele><time>2026-03-29T07:56:27Z</time></trkpt><trkpt lat="43.70950524617381" lon="11.07009097610818"><ele>57.5</ele><time>2026-03-29T07:56:29Z</time></trkpt><trkpt lat="43.70947950539207" lon="11.07025716494003"><ele>59.25</ele><time>2026-03-29T07:56:31Z</time></trkpt><trkpt lat="43.70946116605717" lon="11.070421624998138"><ele>61.0</ele><time>2026-03-29T07:56:33Z</time></trkpt><trkpt lat="43.709434284636856" lon="11.070585342117537"><ele>61.0</ele><time>2026-03-29T07:56:35Z</time></trkpt><trkpt lat="43.709421640660146" lon="11.070752246613253"><ele>61.0</ele><time>2026-03-29T07:56:37Z</time></trkpt><trkpt lat="43.70940745842753" lon="11.070918621792977"><ele>61.0</ele><time>2026-03-29T07:56:39Z</time></trkpt><trkpt lat="43.709378492521985" lon="11.071071873969906"><ele>61.0</ele><time>2026-03-29T07:56:41Z</time></trkpt><trkpt lat="43.7093142305088" lon="11.071204275715873"><ele>59.8</ele><time>2026-03-29T07:56:43Z</time></trkpt><trkpt lat="43.7092743879596" lon="11.071357261165302"><ele>58.599999999999994</ele><time>2026-03-29T07:56:45Z</time></trkpt><trkpt lat="43.70925205294632" lon="11.071439723147535"><ele>57.4</ele><time>2026-03-29T07:56:46Z</time></trkpt><trkpt lat="43.70922388965165" lon="11.07159040973505"><ele>56.2</ele><time>2026-03-29T07:56:48Z</time></trkpt><trkpt lat="43.709189957110155" lon="11.071734393873072"><ele>55.0</ele><time>2026-03-29T07:56:50Z</time></trkpt><trkpt lat="43.70913360090925" lon="11.071857397825152"><ele>55.0</ele><time>2026-03-29T07:56:52Z</time></trkpt><trkpt lat="43.709075051774654" lon="11.071971469611826"><ele>55.0</ele><time>2026-03-29T07:56:54Z</time></trkpt><trkpt lat="43.70901774801504" lon="11.072089860631962"><ele>55.0</ele><time>2026-03-29T07:56:56Z</time></trkpt><trkpt lat="43.70896141501833" lon="11.072195599306996"><ele>55.0</ele><time>2026-03-29T07:56:58Z</time></trkpt><trkpt lat="43.70890248044813" lon="11.072311895913328"><ele>55.0</ele><time>2026-03-29T07:57:00Z</time></trkpt><trkpt lat="43.70879052538927" lon="11.072278780499282"><ele>54.99999999999999</ele><time>2026-03-29T07:57:03Z</time></trkpt><trkpt lat="43.708731069830584" lon="11.072246206666636"><ele>55.0</ele><time>2026-03-29T07:57:05Z</time></trkpt><trkpt lat="43.708672604136545" lon="11.072178491185273"><ele>55.0</ele><time>2026-03-29T07:57:15Z</time></trkpt><trkpt lat="43.70870379340247" lon="11.072267654387518"><ele>55.0</ele><time>2026-03-29T08:03:13Z</time></trkpt><trkpt lat="43.708776843277356" lon="11.072312594312523"><ele>55.0</ele><time>2026-03-29T08:03:16Z</time></trkpt><trkpt lat="43.70883953163795" lon="11.072350543903207"><ele>54.99999999999999</ele><time>2026-03-29T08:03:18Z</time></trkpt><trkpt lat="43.708855034048604" lon="11.072455434156726"><ele>55.0</ele><time>2026-03-29T08:03:20Z</time></trkpt><trkpt lat="43.7088108063063" lon="11.072578477465486"><ele>56.0</ele><time>2026-03-29T08:03:22Z</time></trkpt><trkpt lat="43.70877871690388" lon="11.072709972575748"><ele>57.0</ele><time>2026-03-29T08:03:24Z</time></trkpt><trkpt lat="43.7087418492958" lon="11.072845326108176"><ele>58.0</ele><time>2026-03-29T08:03:26Z</time></trkpt><trkpt lat="43.70869983691126" lon="11.072986446633982"><ele>59.0</ele><time>2026-03-29T08:03:28Z</time></trkpt><trkpt lat="43.70866481885987" lon="11.073121710924143"><ele>60.0</ele><time>2026-03-29T08:03:30Z</time></trkpt><trkpt lat="43.7086291541653" lon="11.073255219111344"><ele>58.6</ele><time>2026-03-29T08:03:32Z</time></trkpt><trkpt lat="43.70859865409508" lon="11.073378159669526"><ele>57.2</ele><time>2026-03-29T08:03:34Z</time></trkpt><trkpt lat="43.708560788085826" lon="11.073514191334347"><ele>55.8</ele><time>2026-03-29T08:03:36Z</time></trkpt><trkpt lat="43.708518864679405" lon="11.07364768124003"><ele>54.4</ele><time>2026-03-29T08:03:38Z</time></trkpt><trkpt lat="43.70846592100973" lon="11.073774435900157"><ele>53.0</ele><time>2026-03-29T08:03:40Z</time></trkpt><trkpt lat="43.70843137712599" lon="11.073913801173251"><ele>53.0</ele><time>2026-03-29T08:03:42Z</time></trkpt><trkpt lat="43.70839415713952" lon="11.074043138456087"><ele>53.0</ele><time>2026-03-29T08:03:44Z</time></trkpt><trkpt lat="43.70836439788261" lon="11.074172216386176"><ele>53.0</ele><time>2026-03-29T08:03:46Z</time></trkpt><trkpt lat="43.708329893881576" lon="11.074290512942703"><ele>53.0</ele><time>2026-03-29T08:03:48Z</time></trkpt><trkpt lat="43.70828245299971" lon="11.074408008887962"><ele>53.0</ele><time>2026-03-29T08:03:50Z</time></trkpt><trkpt lat="43.70824965976518" lon="11.074557923270428"><ele>54.0</ele><time>2026-03-29T08:03:52Z</time></trkpt><trkpt lat="43.70823098969749" lon="11.074723775529018"><ele>55.0</ele><time>2026-03-29T08:03:54Z</time></trkpt><trkpt lat="43.708209878680805" lon="11.074889687523102"><ele>56.0</ele><time>2026-03-29T08:03:56Z</time></trkpt><trkpt lat="43.708188877964375" lon="11.075056380179642"><ele>57.0</ele><time>2026-03-29T08:03:58Z</time></trkpt><trkpt lat="43.70816547989284" lon="11.075225283957117"><ele>57.5</ele><time>2026-03-29T08:04:00Z</time></trkpt><trkpt lat="43.7081497541909" lon="11.075390546294466"><ele>58.0</ele><time>2026-03-29T08:04:02Z</time></trkpt><trkpt lat="43.708118483760664" lon="11.075552834886363"><ele>58.5</ele><time>2026-03-29T08:04:04Z</time></trkpt><trkpt lat="43.70808468807236" lon="11.0757081119294"><ele>59.0</ele><time>2026-03-29T08:04:06Z</time></trkpt><trkpt lat="43.70805061586068" lon="11.075870450556472"><ele>59.6</ele><time>2026-03-29T08:04:08Z</time></trkpt><trkpt lat="43.708020276027746" lon="11.076021860212864"><ele>60.2</ele><time>2026-03-29T08:04:10Z</time></trkpt><trkpt lat="43.70798302678832" lon="11.076168451132139"><ele>60.800000000000004</ele><time>2026-03-29T08:04:12Z</time></trkpt><trkpt lat="43.70794403596714" lon="11.076306279661084"><ele>61.400000000000006</ele><time>2026-03-29T08:04:14Z</time></trkpt><trkpt lat="43.70789763591224" lon="11.076436188414828"><ele>62.0</ele><time>2026-03-29T08:04:16Z</time></trkpt><trkpt lat="43.70785108599109" lon="11.076568898734783"><ele>63.5</ele><time>2026-03-29T08:04:18Z</time></trkpt><trkpt lat="43.70780949495327" lon="11.07671643866557"><ele>65.0</ele><time>2026-03-29T08:04:20Z</time></trkpt><trkpt lat="43.707756351956455" lon="11.076856726181518"><ele>66.5</ele><time>2026-03-29T08:04:22Z</time></trkpt><trkpt lat="43.70769686210789" lon="11.076991131440867"><ele>68.0</ele><time>2026-03-29T08:04:24Z</time></trkpt><trkpt lat="43.707650509368975" lon="11.077131497892305"><ele>65.25</ele><time>2026-03-29T08:04:26Z</time></trkpt><trkpt lat="43.707595590712664" lon="11.077283464169465"><ele>62.5</ele><time>2026-03-29T08:04:28Z</time></trkpt><trkpt lat="43.707544459787286" lon="11.077435991041382"><ele>59.75</ele><time>2026-03-29T08:04:30Z</time></trkpt><trkpt lat="43.70749926329442" lon="11.077592938232632"><ele>57.0</ele><time>2026-03-29T08:04:32Z</time></trkpt><trkpt lat="43.70745781016421" lon="11.077748631479315"><ele>57.0</ele><time>2026-03-29T08:04:34Z</time></trkpt><trkpt lat="43.70741229614607" lon="11.077904881880892"><ele>57.0</ele><time>2026-03-29T08:04:36Z</time></trkpt><trkpt lat="43.70736940401438" lon="11.07805799022803"><ele>57.0</ele><time>2026-03-29T08:04:38Z</time></trkpt><trkpt lat="43.707329633066905" lon="11.078198293885604"><ele>57.0</ele><time>2026-03-29T08:04:40Z</time></trkpt><trkpt lat="43.70728307393666" lon="11.078342443925719"><ele>57.75</ele><time>2026-03-29T08:04:42Z</time></trkpt><trkpt lat="43.70724144487937" lon="11.078489963764659"><ele>58.5</ele><time>2026-03-29T08:04:44Z</time></trkpt><trkpt lat="43.7072056436834" lon="11.078649772896698"><ele>59.25</ele><time>2026-03-29T08:04:46Z</time></trkpt><trkpt lat="43.70717573518836" lon="11.078808502347327"><ele>60.0</ele><time>2026-03-29T08:04:48Z</time></trkpt><trkpt lat="43.707138673080074" lon="11.078964960997892"><ele>61.0</ele><time>2026-03-29T08:04:50Z</time></trkpt><trkpt lat="43.70710975989737" lon="11.079121829581078"><ele>62.0</ele><time>2026-03-29T08:04:52Z</time></trkpt><trkpt lat="43.70705834628182" lon="11.079275278472515"><ele>63.0</ele><time>2026-03-29T08:04:54Z</time></trkpt><trkpt lat="43.707014732194715" lon="11.079422592674542"><ele>64.0</ele><time>2026-03-29T08:04:56Z</time></trkpt><trkpt lat="43.70695327060148" lon="11.079559028574735"><ele>62.6</ele><time>2026-03-29T08:04:58Z</time></trkpt><trkpt lat="43.706870443052445" lon="11.079640149807178"><ele>61.2</ele><time>2026-03-29T08:05:00Z</time></trkpt><trkpt lat="43.70678451915525" lon="11.079751909092813"><ele>59.800000000000004</ele><time>2026-03-29T08:05:02Z</time></trkpt><trkpt lat="43.706682111375336" lon="11.079848914888688"><ele>58.400000000000006</ele><time>2026-03-29T08:05:04Z</time></trkpt><trkpt lat="43.70663881140835" lon="11.07991889105181"><ele>57.0</ele><time>2026-03-29T08:05:05Z</time></trkpt><trkpt lat="43.70656290457954" lon="11.080057381561309"><ele>57.0</ele><time>2026-03-29T08:05:07Z</time></trkpt><trkpt lat="43.70653052580469" lon="11.080137411369844"><ele>57.0</ele><time>2026-03-29T08:05:08Z</time></trkpt><trkpt lat="43.70650210723326" lon="11.080293488454153"><ele>57.0</ele><time>2026-03-29T08:05:10Z</time></trkpt><trkpt lat="43.70646466350153" lon="11.080449329908058"><ele>57.0</ele><time>2026-03-29T08:05:12Z</time></trkpt><trkpt lat="43.70643961189774" lon="11.080604497379305"><ele>57.0</ele><time>2026-03-29T08:05:14Z</time></trkpt><trkpt lat="43.70641050403288" lon="11.080756189800113"><ele>58.25</ele><time>2026-03-29T08:05:16Z</time></trkpt><trkpt lat="43.70638174697732" lon="11.08091271490458"><ele>59.5</ele><time>2026-03-29T08:05:18Z</time></trkpt><trkpt lat="43.70636538078851" lon="11.081070990578352"><ele>60.75</ele><time>2026-03-29T08:05:20Z</time></trkpt><trkpt lat="43.70633814612826" lon="11.08122647720959"><ele>62.0</ele><time>2026-03-29T08:05:22Z</time></trkpt><trkpt lat="43.70631371196491" lon="11.081383289917607"><ele>62.0</ele><time>2026-03-29T08:05:24Z</time></trkpt><trkpt lat="43.706283127069696" lon="11.081537686590165"><ele>62.0</ele><time>2026-03-29T08:05:26Z</time></trkpt><trkpt lat="43.706261934564544" lon="11.08170001088555"><ele>62.0</ele><time>2026-03-29T08:05:28Z</time></trkpt><trkpt lat="43.70623462841495" lon="11.081866841690795"><ele>62.0</ele><time>2026-03-29T08:05:30Z</time></trkpt><trkpt lat="43.70622542193195" lon="11.081953338457083"><ele>62.0</ele><time>2026-03-29T08:05:31Z</time></trkpt><trkpt lat="43.706194572897296" lon="11.082117032087433"><ele>62.42857142857143</ele><time>2026-03-29T08:05:33Z</time></trkpt><trkpt lat="43.70617902686887" lon="11.082204626533095"><ele>62.85714285714286</ele><time>2026-03-29T08:05:34Z</time></trkpt><trkpt lat="43.70616043508403" lon="11.08229374243739"><ele>63.28571428571429</ele><time>2026-03-29T08:05:35Z</time></trkpt><trkpt lat="43.70614312248734" lon="11.082390393088268"><ele>63.71428571428572</ele><time>2026-03-29T08:05:36Z</time></trkpt><trkpt lat="43.706124963162935" lon="11.08248569849718"><ele>64.14285714285714</ele><time>2026-03-29T08:05:37Z</time></trkpt><trkpt lat="43.70610112285573" lon="11.082577412515692"><ele>64.57142857142858</ele><time>2026-03-29T08:05:38Z</time></trkpt><trkpt lat="43.70607391659197" lon="11.082666035684053"><ele>65.0</ele><time>2026-03-29T08:05:39Z</time></trkpt><trkpt lat="43.70605770474833" lon="11.082760105049234"><ele>65.0</ele><time>2026-03-29T08:05:40Z</time></trkpt><trkpt lat="43.706058479415724" lon="11.082855742545734"><ele>65.0</ele><time>2026-03-29T08:05:41Z</time></trkpt><trkpt lat="43.70605851797471" lon="11.082946325120389"><ele>65.0</ele><time>2026-03-29T08:05:42Z</time></trkpt><trkpt lat="43.70606770826596" lon="11.083126116836512"><ele>65.0</ele><time>2026-03-29T08:05:44Z</time></trkpt><trkpt lat="43.70607774161703" lon="11.083218461163108"><ele>65.0</ele><time>2026-03-29T08:05:45Z</time></trkpt><trkpt lat="43.70609620408807" lon="11.083307234875125"><ele>65.0</ele><time>2026-03-29T08:05:46Z</time></trkpt><trkpt lat="43.70611151059026" lon="11.083400937477398"><ele>65.0</ele><time>2026-03-29T08:05:47Z</time></trkpt><trkpt lat="43.70612221017895" lon="11.083493244866656"><ele>65.0</ele><time>2026-03-29T08:05:48Z</time></trkpt><trkpt lat="43.70613088422809" lon="11.083585384839283"><ele>65.0</ele><time>2026-03-29T08:05:49Z</time></trkpt><trkpt lat="43.70613377048489" lon="11.083675450167439"><ele>65.0</ele><time>2026-03-29T08:05:50Z</time></trkpt><trkpt lat="43.706133631916956" lon="11.083852271901824"><ele>65.0</ele><time>2026-03-29T08:05:52Z</time></trkpt><trkpt lat="43.706126082292286" lon="11.083940964673017"><ele>65.0</ele><time>2026-03-29T08:05:53Z</time></trkpt><trkpt lat="43.70610861910304" lon="11.084112412962186"><ele>64.8</ele><time>2026-03-29T08:05:55Z</time></trkpt><trkpt lat="43.706085997426065" lon="11.084280135203423"><ele>64.6</ele><time>2026-03-29T08:05:57Z</time></trkpt><trkpt lat="43.70607555855757" lon="11.084366223698463"><ele>64.4</ele><time>2026-03-29T08:05:58Z</time></trkpt><trkpt lat="43.70605828107817" lon="11.084532885911155"><ele>64.2</ele><time>2026-03-29T08:06:00Z</time></trkpt><trkpt lat="43.70603654462734" lon="11.084700155056174"><ele>64.0</ele><time>2026-03-29T08:06:02Z</time></trkpt><trkpt lat="43.706015056108484" lon="11.084863457031085"><ele>61.75</ele><time>2026-03-29T08:06:04Z</time></trkpt><trkpt lat="43.705994990934535" lon="11.085027734048653"><ele>59.5</ele><time>2026-03-29T08:06:06Z</time></trkpt><trkpt lat="43.70597476200545" lon="11.08518874806874"><ele>57.25</ele><time>2026-03-29T08:06:08Z</time></trkpt><trkpt lat="43.70594870700574" lon="11.085347452447742"><ele>55.0</ele><time>2026-03-29T08:06:10Z</time></trkpt><trkpt lat="43.70592835437429" lon="11.085508659800825"><ele>55.0</ele><time>2026-03-29T08:06:12Z</time></trkpt><trkpt lat="43.70590665436954" lon="11.085669506126823"><ele>55.0</ele><time>2026-03-29T08:06:14Z</time></trkpt><trkpt lat="43.70588771242833" lon="11.085822731481327"><ele>55.0</ele><time>2026-03-29T08:06:16Z</time></trkpt><trkpt lat="43.70586126950973" lon="11.08597021905431"><ele>55.0</ele><time>2026-03-29T08:06:18Z</time></trkpt><trkpt lat="43.705831139684655" lon="11.086108802252001"><ele>55.0</ele><time>2026-03-29T08:06:20Z</time></trkpt><trkpt lat="43.7058046821598" lon="11.086257534888611"><ele>55.0</ele><time>2026-03-29T08:06:22Z</time></trkpt><trkpt lat="43.70578251736164" lon="11.086417839050906"><ele>55.0</ele><time>2026-03-29T08:06:24Z</time></trkpt><trkpt lat="43.70574841817287" lon="11.086580787301795"><ele>55.0</ele><time>2026-03-29T08:06:26Z</time></trkpt><trkpt lat="43.70568905914763" lon="11.086729246115647"><ele>55.0</ele><time>2026-03-29T08:06:28Z</time></trkpt><trkpt lat="43.70561259134152" lon="11.08685931219953"><ele>55.5</ele><time>2026-03-29T08:06:30Z</time></trkpt><trkpt lat="43.70553405050811" lon="11.086977129959166"><ele>56.0</ele><time>2026-03-29T08:06:32Z</time></trkpt><trkpt lat="43.70544475145744" lon="11.087072985258452"><ele>56.5</ele><time>2026-03-29T08:06:34Z</time></trkpt><trkpt lat="43.70536213334286" lon="11.087171352223123"><ele>57.0</ele><time>2026-03-29T08:06:36Z</time></trkpt><trkpt lat="43.7052686221072" lon="11.087263572436777"><ele>56.400000000000006</ele><time>2026-03-29T08:06:38Z</time></trkpt><trkpt lat="43.705166375365955" lon="11.087331732279667"><ele>55.800000000000004</ele><time>2026-03-29T08:06:40Z</time></trkpt><trkpt lat="43.705057320698536" lon="11.087367168736053"><ele>55.2</ele><time>2026-03-29T08:06:42Z</time></trkpt><trkpt lat="43.70496240701906" lon="11.087378549782212"><ele>54.6</ele><time>2026-03-29T08:06:44Z</time></trkpt><trkpt lat="43.70488438679404" lon="11.087340462976794"><ele>54.0</ele><time>2026-03-29T08:06:46Z</time></trkpt><trkpt lat="43.7048045811944" lon="11.087251605706646"><ele>54.0</ele><time>2026-03-29T08:06:48Z</time></trkpt><trkpt lat="43.70470641674305" lon="11.087178557547368"><ele>54.0</ele><time>2026-03-29T08:06:50Z</time></trkpt><trkpt lat="43.70459089425698" lon="11.087198975609835"><ele>54.0</ele><time>2026-03-29T08:06:52Z</time></trkpt><trkpt lat="43.70450420767448" lon="11.087306358134505"><ele>54.0</ele><time>2026-03-29T08:06:54Z</time></trkpt><trkpt lat="43.704463173877116" lon="11.087462855310214"><ele>56.0</ele><time>2026-03-29T08:06:56Z</time></trkpt><trkpt lat="43.70448287646083" lon="11.08761893158254"><ele>58.00000000000001</ele><time>2026-03-29T08:06:58Z</time></trkpt><trkpt lat="43.70454933733653" lon="11.087747276383139"><ele>60.00000000000001</ele><time>2026-03-29T08:07:00Z</time></trkpt><trkpt lat="43.7046518953252" lon="11.087794813679896"><ele>62.0</ele><time>2026-03-29T08:07:02Z</time></trkpt><trkpt lat="43.70465800258064" lon="11.087934638306482"><ele>64.0</ele><time>2026-03-29T08:07:03Z</time></trkpt><trkpt lat="43.70466266747966" lon="11.088026561048565"><ele>64.0</ele><time>2026-03-29T08:07:04Z</time></trkpt><trkpt lat="43.7046798967167" lon="11.088187630665725"><ele>64.0</ele><time>2026-03-29T08:07:06Z</time></trkpt><trkpt lat="43.7046075031436" lon="11.088278711646348"><ele>64.0</ele><time>2026-03-29T08:07:07Z</time></trkpt><trkpt lat="43.70456070551089" lon="11.08842590337145"><ele>64.0</ele><time>2026-03-29T08:07:09Z</time></trkpt><trkpt lat="43.704492593407046" lon="11.088562093363995"><ele>62.25</ele><time>2026-03-29T08:07:11Z</time></trkpt><trkpt lat="43.70441429571342" lon="11.088686282852416"><ele>60.5</ele><time>2026-03-29T08:07:13Z</time></trkpt><trkpt lat="43.70434007691974" lon="11.08880333752015"><ele>58.75</ele><time>2026-03-29T08:07:15Z</time></trkpt><trkpt lat="43.704262778937405" lon="11.08892101371534"><ele>57.0</ele><time>2026-03-29T08:07:17Z</time></trkpt><trkpt lat="43.70418297326372" lon="11.089040291375703"><ele>59.5</ele><time>2026-03-29T08:07:19Z</time></trkpt><trkpt lat="43.704105252548175" lon="11.089153348855879"><ele>62.0</ele><time>2026-03-29T08:07:21Z</time></trkpt><trkpt lat="43.70402376824759" lon="11.089260193189087"><ele>64.5</ele><time>2026-03-29T08:07:23Z</time></trkpt><trkpt lat="43.70394250617972" lon="11.08937394101967"><ele>67.0</ele><time>2026-03-29T08:07:25Z</time></trkpt><trkpt lat="43.703853799306586" lon="11.089481495176768"><ele>67.0</ele><time>2026-03-29T08:07:27Z</time></trkpt><trkpt lat="43.70377062289846" lon="11.0896060535908"><ele>67.0</ele><time>2026-03-29T08:07:29Z</time></trkpt><trkpt lat="43.703690005640254" lon="11.089718805776418"><ele>67.0</ele><time>2026-03-29T08:07:31Z</time></trkpt><trkpt lat="43.70359250075843" lon="11.089821203782229"><ele>67.0</ele><time>2026-03-29T08:07:33Z</time></trkpt><trkpt lat="43.70351577067043" lon="11.089929181803136"><ele>66.2</ele><time>2026-03-29T08:07:35Z</time></trkpt><trkpt lat="43.703467862687916" lon="11.089986518630694"><ele>65.4</ele><time>2026-03-29T08:07:36Z</time></trkpt><trkpt lat="43.70338054201983" lon="11.09009394798856"><ele>64.6</ele><time>2026-03-29T08:07:38Z</time></trkpt><trkpt lat="43.70329291733988" lon="11.090205548483647"><ele>63.8</ele><time>2026-03-29T08:07:40Z</time></trkpt><trkpt lat="43.70322491981092" lon="11.090315831189493"><ele>63.0</ele><time>2026-03-29T08:07:42Z</time></trkpt><trkpt lat="43.70317766262519" lon="11.09038584298669"><ele>63.0</ele><time>2026-03-29T08:07:43Z</time></trkpt><trkpt lat="43.70312050404463" lon="11.090505506567604"><ele>63.0</ele><time>2026-03-29T08:07:45Z</time></trkpt><trkpt lat="43.70307971540308" lon="11.090577505442628"><ele>63.0</ele><time>2026-03-29T08:07:46Z</time></trkpt><trkpt lat="43.7030142381949" lon="11.0907123818665"><ele>63.0</ele><time>2026-03-29T08:07:48Z</time></trkpt><trkpt lat="43.70297923347072" lon="11.090784940130673"><ele>63.0</ele><time>2026-03-29T08:07:49Z</time></trkpt><trkpt lat="43.702923471908576" lon="11.090931172334193"><ele>62.333333333333336</ele><time>2026-03-29T08:07:51Z</time></trkpt><trkpt lat="43.70289464623478" lon="11.091012428375445"><ele>61.66666666666667</ele><time>2026-03-29T08:07:52Z</time></trkpt><trkpt lat="43.70284042486793" lon="11.091168404566117"><ele>61.0</ele><time>2026-03-29T08:07:54Z</time></trkpt><trkpt lat="43.70281239436617" lon="11.091248426125029"><ele>60.333333333333336</ele><time>2026-03-29T08:07:55Z</time></trkpt><trkpt lat="43.70278326799508" lon="11.091329013331539"><ele>59.66666666666667</ele><time>2026-03-29T08:07:56Z</time></trkpt><trkpt lat="43.702755352122146" lon="11.091409504210441"><ele>59.0</ele><time>2026-03-29T08:07:57Z</time></trkpt><trkpt lat="43.70269994428146" lon="11.091566004572403"><ele>59.0</ele><time>2026-03-29T08:07:59Z</time></trkpt><trkpt lat="43.70267318100784" lon="11.091648704556672"><ele>59.00000000000001</ele><time>2026-03-29T08:08:00Z</time></trkpt><trkpt lat="43.702627431100005" lon="11.091808493811076"><ele>59.00000000000001</ele><time>2026-03-29T08:08:02Z</time></trkpt><trkpt lat="43.702595919493035" lon="11.091889494172145"><ele>59.0</ele><time>2026-03-29T08:08:03Z</time></trkpt><trkpt lat="43.70254547564397" lon="11.092044222972822"><ele>59.0</ele><time>2026-03-29T08:08:05Z</time></trkpt><trkpt lat="43.702503815510426" lon="11.092190309039594"><ele>59.0</ele><time>2026-03-29T08:08:07Z</time></trkpt><trkpt lat="43.70247223724615" lon="11.09226804046579"><ele>59.00000000000001</ele><time>2026-03-29T08:08:08Z</time></trkpt><trkpt lat="43.702424346377185" lon="11.092405670720531"><ele>59.00000000000001</ele><time>2026-03-29T08:08:10Z</time></trkpt><trkpt lat="43.70238175330229" lon="11.092528540381796"><ele>59.0</ele><time>2026-03-29T08:08:12Z</time></trkpt><trkpt lat="43.70232525266524" lon="11.092651228627528"><ele>59.0</ele><time>2026-03-29T08:08:14Z</time></trkpt><trkpt lat="43.70225403777443" lon="11.09276241832905"><ele>59.5</ele><time>2026-03-29T08:08:16Z</time></trkpt><trkpt lat="43.702173685380444" lon="11.092875964232233"><ele>60.0</ele><time>2026-03-29T08:08:18Z</time></trkpt><trkpt lat="43.70209719287014" lon="11.092989870895378"><ele>60.5</ele><time>2026-03-29T08:08:20Z</time></trkpt><trkpt lat="43.70201821379038" lon="11.093114121415262"><ele>61.0</ele><time>2026-03-29T08:08:22Z</time></trkpt><trkpt lat="43.70193495850376" lon="11.093228533588071"><ele>60.5</ele><time>2026-03-29T08:08:24Z</time></trkpt><trkpt lat="43.701851624205545" lon="11.093342384521229"><ele>60.0</ele><time>2026-03-29T08:08:26Z</time></trkpt><trkpt lat="43.701773013096435" lon="11.09345538250394"><ele>59.5</ele><time>2026-03-29T08:08:28Z</time></trkpt><trkpt lat="43.70169412495666" lon="11.093575373406502"><ele>59.0</ele><time>2026-03-29T08:08:30Z</time></trkpt><trkpt lat="43.70160825563888" lon="11.09369163984927"><ele>59.0</ele><time>2026-03-29T08:08:32Z</time></trkpt><trkpt lat="43.70152466109535" lon="11.093804278370945"><ele>59.0</ele><time>2026-03-29T08:08:34Z</time></trkpt><trkpt lat="43.70143488453598" lon="11.093916093107957"><ele>59.0</ele><time>2026-03-29T08:08:36Z</time></trkpt><trkpt lat="43.70135706563049" lon="11.094028254060966"><ele>59.0</ele><time>2026-03-29T08:08:38Z</time></trkpt><trkpt lat="43.70128605101449" lon="11.094134896036405"><ele>59.6</ele><time>2026-03-29T08:08:40Z</time></trkpt><trkpt lat="43.701203074918595" lon="11.094244923681336"><ele>60.2</ele><time>2026-03-29T08:08:42Z</time></trkpt><trkpt lat="43.70112103144637" lon="11.094341923374625"><ele>60.800000000000004</ele><time>2026-03-29T08:08:44Z</time></trkpt><trkpt lat="43.70104874735942" lon="11.09444154859557"><ele>61.400000000000006</ele><time>2026-03-29T08:08:46Z</time></trkpt><trkpt lat="43.700987892950145" lon="11.094541494330304"><ele>62.0</ele><time>2026-03-29T08:08:48Z</time></trkpt><trkpt lat="43.700937171675626" lon="11.094654623686253"><ele>62.00000000000001</ele><time>2026-03-29T08:08:50Z</time></trkpt><trkpt lat="43.70087445426151" lon="11.094774913352914"><ele>62.0</ele><time>2026-03-29T08:08:52Z</time></trkpt><trkpt lat="43.70081640000328" lon="11.094921109328146"><ele>62.0</ele><time>2026-03-29T08:08:54Z</time></trkpt><trkpt lat="43.70078550061448" lon="11.095000227181764"><ele>62.0</ele><time>2026-03-29T08:08:55Z</time></trkpt><trkpt lat="43.700752696787696" lon="11.095078044605843"><ele>62.00000000000001</ele><time>2026-03-29T08:08:56Z</time></trkpt><trkpt lat="43.700712779395126" lon="11.09515449909427"><ele>62.0</ele><time>2026-03-29T08:08:57Z</time></trkpt><trkpt lat="43.70067420307441" lon="11.095235544961664"><ele>62.50000000000001</ele><time>2026-03-29T08:08:58Z</time></trkpt><trkpt lat="43.70062915081729" lon="11.095299654986446"><ele>63.0</ele><time>2026-03-29T08:08:59Z</time></trkpt><trkpt lat="43.70055738128527" lon="11.095429472027172"><ele>63.5</ele><time>2026-03-29T08:09:01Z</time></trkpt><trkpt lat="43.700503410842956" lon="11.095500543017017"><ele>64.0</ele><time>2026-03-29T08:09:02Z</time></trkpt><trkpt lat="43.70046405790581" lon="11.095586521126899"><ele>64.5</ele><time>2026-03-29T08:09:03Z</time></trkpt><trkpt lat="43.700415649367535" lon="11.09564562586285"><ele>65.0</ele><time>2026-03-29T08:09:04Z</time></trkpt><trkpt lat="43.70037782799015" lon="11.095716654925603"><ele>65.0</ele><time>2026-03-29T08:09:05Z</time></trkpt><trkpt lat="43.70030164867655" lon="11.095847400137155"><ele>65.0</ele><time>2026-03-29T08:09:07Z</time></trkpt><trkpt lat="43.700252778973685" lon="11.095999281034105"><ele>65.0</ele><time>2026-03-29T08:09:09Z</time></trkpt><trkpt lat="43.70020150657825" lon="11.096142774470653"><ele>65.0</ele><time>2026-03-29T08:09:11Z</time></trkpt><trkpt lat="43.70014338856831" lon="11.096276991250464"><ele>65.2</ele><time>2026-03-29T08:09:13Z</time></trkpt><trkpt lat="43.70009261484789" lon="11.096417889950455"><ele>65.4</ele><time>2026-03-29T08:09:15Z</time></trkpt><trkpt lat="43.700031518042515" lon="11.096543756862005"><ele>65.6</ele><time>2026-03-29T08:09:17Z</time></trkpt><trkpt lat="43.69998438147678" lon="11.09668383485591"><ele>65.8</ele><time>2026-03-29T08:09:19Z</time></trkpt><trkpt lat="43.699939742720524" lon="11.096816689352254"><ele>66.0</ele><time>2026-03-29T08:09:21Z</time></trkpt><trkpt lat="43.699880743062224" lon="11.0969392622452"><ele>66.0</ele><time>2026-03-29T08:09:23Z</time></trkpt><trkpt lat="43.69982663242795" lon="11.097068129925544"><ele>66.0</ele><time>2026-03-29T08:09:25Z</time></trkpt><trkpt lat="43.69977356069665" lon="11.097202551924195"><ele>66.0</ele><time>2026-03-29T08:09:27Z</time></trkpt><trkpt lat="43.6997294852651" lon="11.09732837195448"><ele>66.0</ele><time>2026-03-29T08:09:29Z</time></trkpt><trkpt lat="43.69967946563884" lon="11.09745188274295"><ele>66.0</ele><time>2026-03-29T08:09:31Z</time></trkpt><trkpt lat="43.6996313958238" lon="11.097573873773854"><ele>66.0</ele><time>2026-03-29T08:09:33Z</time></trkpt><trkpt lat="43.69958261807637" lon="11.097703727620338"><ele>66.0</ele><time>2026-03-29T08:09:35Z</time></trkpt><trkpt lat="43.69954019096659" lon="11.097824108572217"><ele>66.0</ele><time>2026-03-29T08:09:37Z</time></trkpt><trkpt lat="43.699473425415555" lon="11.097912644231123"><ele>66.0</ele><time>2026-03-29T08:09:39Z</time></trkpt><trkpt lat="43.69943563467366" lon="11.098052211619093"><ele>66.0</ele><time>2026-03-29T08:09:41Z</time></trkpt><trkpt lat="43.69937517120605" lon="11.098182067218675"><ele>66.5</ele><time>2026-03-29T08:09:43Z</time></trkpt><trkpt lat="43.69931815952367" lon="11.098325445435243"><ele>67.0</ele><time>2026-03-29T08:09:45Z</time></trkpt><trkpt lat="43.699271121703305" lon="11.098482755874452"><ele>67.5</ele><time>2026-03-29T08:09:47Z</time></trkpt><trkpt lat="43.69923531931182" lon="11.098566476561238"><ele>68.0</ele><time>2026-03-29T08:09:48Z</time></trkpt><trkpt lat="43.69920324838362" lon="11.098649888971627"><ele>68.5</ele><time>2026-03-29T08:09:49Z</time></trkpt><trkpt lat="43.699175648607714" lon="11.098733749315599"><ele>69.0</ele><time>2026-03-29T08:09:50Z</time></trkpt><trkpt lat="43.69914306557475" lon="11.098820259226978"><ele>69.0</ele><time>2026-03-29T08:09:51Z</time></trkpt><trkpt lat="43.69910799858767" lon="11.098903775655506"><ele>69.0</ele><time>2026-03-29T08:09:52Z</time></trkpt><trkpt lat="43.69907867165102" lon="11.098993147296996"><ele>69.0</ele><time>2026-03-29T08:09:53Z</time></trkpt><trkpt lat="43.69904313276782" lon="11.099076857154392"><ele>69.0</ele><time>2026-03-29T08:09:54Z</time></trkpt><trkpt lat="43.69901369138217" lon="11.099171111540388"><ele>69.0</ele><time>2026-03-29T08:09:55Z</time></trkpt><trkpt lat="43.698975300317564" lon="11.09926135722783"><ele>69.0</ele><time>2026-03-29T08:09:56Z</time></trkpt><trkpt lat="43.698941648524304" lon="11.099351529275136"><ele>69.0</ele><time>2026-03-29T08:09:57Z</time></trkpt><trkpt lat="43.69890601025355" lon="11.099442276303687"><ele>68.66666666666667</ele><time>2026-03-29T08:09:58Z</time></trkpt><trkpt lat="43.69887019669718" lon="11.099536488811653"><ele>68.33333333333333</ele><time>2026-03-29T08:09:59Z</time></trkpt><trkpt lat="43.6988292445307" lon="11.099624227221119"><ele>68.0</ele><time>2026-03-29T08:10:00Z</time></trkpt><trkpt lat="43.69878756349975" lon="11.099695630162365"><ele>67.66666666666666</ele><time>2026-03-29T08:10:01Z</time></trkpt><trkpt lat="43.69874238780258" lon="11.099785193786355"><ele>67.33333333333333</ele><time>2026-03-29T08:10:02Z</time></trkpt><trkpt lat="43.69868912524752" lon="11.099866805203012"><ele>67.0</ele><time>2026-03-29T08:10:03Z</time></trkpt><trkpt lat="43.69863137191516" lon="11.099946078087969"><ele>66.16666666666666</ele><time>2026-03-29T08:10:04Z</time></trkpt><trkpt lat="43.698576833756086" lon="11.099994049134859"><ele>65.33333333333333</ele><time>2026-03-29T08:10:05Z</time></trkpt><trkpt lat="43.69852035094583" lon="11.100046330331633"><ele>64.5</ele><time>2026-03-29T08:10:06Z</time></trkpt><trkpt lat="43.6984596969802" lon="11.100094566927615"><ele>63.66666666666667</ele><time>2026-03-29T08:10:07Z</time></trkpt><trkpt lat="43.698399507091835" lon="11.100135839074706"><ele>62.833333333333336</ele><time>2026-03-29T08:10:08Z</time></trkpt><trkpt lat="43.698336541889304" lon="11.100166616531641"><ele>62.0</ele><time>2026-03-29T08:10:09Z</time></trkpt><trkpt lat="43.69821775965061" lon="11.100214424342665"><ele>62.00000000000001</ele><time>2026-03-29T08:10:11Z</time></trkpt><trkpt lat="43.69809437802064" lon="11.100240153490349"><ele>62.0</ele><time>2026-03-29T08:10:13Z</time></trkpt><trkpt lat="43.69802900577491" lon="11.100256409253893"><ele>62.0</ele><time>2026-03-29T08:10:14Z</time></trkpt><trkpt lat="43.697904688983265" lon="11.10028387787298"><ele>62.0</ele><time>2026-03-29T08:10:16Z</time></trkpt><trkpt lat="43.69784120641199" lon="11.100295603273043"><ele>62.00000000000001</ele><time>2026-03-29T08:10:17Z</time></trkpt><trkpt lat="43.69777883711213" lon="11.100307899238121"><ele>62.0</ele><time>2026-03-29T08:10:18Z</time></trkpt><trkpt lat="43.69771423574689" lon="11.10032279533304"><ele>62.28571428571429</ele><time>2026-03-29T08:10:19Z</time></trkpt><trkpt lat="43.69764686322541" lon="11.10032618061418"><ele>62.57142857142858</ele><time>2026-03-29T08:10:20Z</time></trkpt><trkpt lat="43.69758341001965" lon="11.100306054098652"><ele>62.85714285714286</ele><time>2026-03-29T08:10:21Z</time></trkpt><trkpt lat="43.69751972694052" lon="11.100277309619244"><ele>63.14285714285714</ele><time>2026-03-29T08:10:22Z</time></trkpt><trkpt lat="43.69745888800512" lon="11.100239928462761"><ele>63.42857142857142</ele><time>2026-03-29T08:10:23Z</time></trkpt><trkpt lat="43.69739710220182" lon="11.100199867388033"><ele>63.71428571428571</ele><time>2026-03-29T08:10:24Z</time></trkpt><trkpt lat="43.697337418563016" lon="11.100162834790737"><ele>64.0</ele><time>2026-03-29T08:10:25Z</time></trkpt><trkpt lat="43.69728023175244" lon="11.10011996131834"><ele>63.99999999999999</ele><time>2026-03-29T08:10:26Z</time></trkpt><trkpt lat="43.69722697094415" lon="11.100070156524914"><ele>64.0</ele><time>2026-03-29T08:10:27Z</time></trkpt><trkpt lat="43.69715790601712" lon="11.099927897443713"><ele>64.0</ele><time>2026-03-29T08:10:29Z</time></trkpt><trkpt lat="43.69713888442034" lon="11.099843786054192"><ele>64.0</ele><time>2026-03-29T08:10:30Z</time></trkpt><trkpt lat="43.69706193778397" lon="11.099707559205262"><ele>63.99999999999999</ele><time>2026-03-29T08:10:32Z</time></trkpt><trkpt lat="43.6970024237056" lon="11.099668628693484"><ele>64.0</ele><time>2026-03-29T08:10:33Z</time></trkpt><trkpt lat="43.69693547567453" lon="11.099654812138667"><ele>63.6</ele><time>2026-03-29T08:10:34Z</time></trkpt><trkpt lat="43.69687318833223" lon="11.099691437845312"><ele>63.2</ele><time>2026-03-29T08:10:35Z</time></trkpt><trkpt lat="43.696820534828085" lon="11.099742699287738"><ele>62.800000000000004</ele><time>2026-03-29T08:10:36Z</time></trkpt><trkpt lat="43.69677207276212" lon="11.099891045144602"><ele>62.400000000000006</ele><time>2026-03-29T08:10:38Z</time></trkpt><trkpt lat="43.69676570576673" lon="11.100045403892624"><ele>62.0</ele><time>2026-03-29T08:10:40Z</time></trkpt><trkpt lat="43.696784582877626" lon="11.100208090092616"><ele>61.8</ele><time>2026-03-29T08:10:42Z</time></trkpt><trkpt lat="43.6967805854548" lon="11.100379011462563"><ele>61.6</ele><time>2026-03-29T08:10:44Z</time></trkpt><trkpt lat="43.69675326551101" lon="11.100548582339005"><ele>61.39999999999999</ele><time>2026-03-29T08:10:46Z</time></trkpt><trkpt lat="43.69673425369934" lon="11.100634060899015"><ele>61.199999999999996</ele><time>2026-03-29T08:10:47Z</time></trkpt><trkpt lat="43.69671050189231" lon="11.1007154227526"><ele>61.0</ele><time>2026-03-29T08:10:48Z</time></trkpt><trkpt lat="43.696645433907406" lon="11.10086625940642"><ele>61.4</ele><time>2026-03-29T08:10:50Z</time></trkpt><trkpt lat="43.6965715523494" lon="11.101005550418758"><ele>61.8</ele><time>2026-03-29T08:10:52Z</time></trkpt><trkpt lat="43.69653002137055" lon="11.101072767934875"><ele>62.199999999999996</ele><time>2026-03-29T08:10:53Z</time></trkpt><trkpt lat="43.69645121130881" lon="11.101209964764962"><ele>62.599999999999994</ele><time>2026-03-29T08:10:55Z</time></trkpt><trkpt lat="43.69641085380576" lon="11.10128343012228"><ele>63.0</ele><time>2026-03-29T08:10:56Z</time></trkpt><trkpt lat="43.69633236448729" lon="11.101420132600884"><ele>63.0</ele><time>2026-03-29T08:10:58Z</time></trkpt><trkpt lat="43.696291443369105" lon="11.101488783415506"><ele>63.0</ele><time>2026-03-29T08:10:59Z</time></trkpt><trkpt lat="43.69625043219722" lon="11.101562240129745"><ele>63.0</ele><time>2026-03-29T08:11:00Z</time></trkpt><trkpt lat="43.696210933878056" lon="11.101633676162114"><ele>63.0</ele><time>2026-03-29T08:11:01Z</time></trkpt><trkpt lat="43.6961669945968" lon="11.101700451151446"><ele>63.0</ele><time>2026-03-29T08:11:02Z</time></trkpt><trkpt lat="43.69608766821813" lon="11.101831682067086"><ele>63.0</ele><time>2026-03-29T08:11:04Z</time></trkpt><trkpt lat="43.69604627771318" lon="11.101898884613668"><ele>63.0</ele><time>2026-03-29T08:11:05Z</time></trkpt><trkpt lat="43.69597097434687" lon="11.102029034690279"><ele>63.166666666666664</ele><time>2026-03-29T08:11:07Z</time></trkpt><trkpt lat="43.69593280497107" lon="11.102099371355303"><ele>63.33333333333333</ele><time>2026-03-29T08:11:08Z</time></trkpt><trkpt lat="43.69590385523266" lon="11.10219030186994"><ele>63.5</ele><time>2026-03-29T08:11:09Z</time></trkpt><trkpt lat="43.695853369477994" lon="11.102260458743043"><ele>63.666666666666664</ele><time>2026-03-29T08:11:10Z</time></trkpt><trkpt lat="43.69577833763698" lon="11.10235659826718"><ele>63.83333333333333</ele><time>2026-03-29T08:11:12Z</time></trkpt><trkpt lat="43.69570406014333" lon="11.102491117222918"><ele>64.0</ele><time>2026-03-29T08:11:14Z</time></trkpt><trkpt lat="43.69567287630439" lon="11.102567016702396"><ele>64.16666666666666</ele><time>2026-03-29T08:11:15Z</time></trkpt><trkpt lat="43.69562114398814" lon="11.10271918798907"><ele>64.33333333333333</ele><time>2026-03-29T08:11:17Z</time></trkpt><trkpt lat="43.69559315368634" lon="11.102801364675484"><ele>64.5</ele><time>2026-03-29T08:11:18Z</time></trkpt><trkpt lat="43.69556723885013" lon="11.102885226135543"><ele>64.66666666666667</ele><time>2026-03-29T08:11:19Z</time></trkpt><trkpt lat="43.695547221354396" lon="11.102968882917128"><ele>64.83333333333334</ele><time>2026-03-29T08:11:20Z</time></trkpt><trkpt lat="43.69553329887598" lon="11.103054288909604"><ele>65.0</ele><time>2026-03-29T08:11:21Z</time></trkpt><trkpt lat="43.69550261793121" lon="11.103240578007068"><ele>65.2</ele><time>2026-03-29T08:11:23Z</time></trkpt><trkpt lat="43.69546939685558" lon="11.103403427558447"><ele>65.4</ele><time>2026-03-29T08:11:25Z</time></trkpt><trkpt lat="43.69543759885753" lon="11.103572896950801"><ele>65.6</ele><time>2026-03-29T08:11:27Z</time></trkpt><trkpt lat="43.6954185019706" lon="11.103661904927018"><ele>65.8</ele><time>2026-03-29T08:11:28Z</time></trkpt><trkpt lat="43.695387852433825" lon="11.103820767138616"><ele>66.0</ele><time>2026-03-29T08:11:30Z</time></trkpt><trkpt lat="43.695347089680105" lon="11.103975786213004"><ele>66.0</ele><time>2026-03-29T08:11:32Z</time></trkpt><trkpt lat="43.69533483924841" lon="11.104062393416228"><ele>66.0</ele><time>2026-03-29T08:11:33Z</time></trkpt><trkpt lat="43.69529036749309" lon="11.104214473039681"><ele>66.0</ele><time>2026-03-29T08:11:35Z</time></trkpt><trkpt lat="43.69523296263188" lon="11.104354239555658"><ele>66.0</ele><time>2026-03-29T08:11:37Z</time></trkpt><trkpt lat="43.69517036337656" lon="11.104384989297"><ele>66.0</ele><time>2026-03-29T08:11:38Z</time></trkpt><trkpt lat="43.695108226311206" lon="11.104514568361367"><ele>66.0</ele><time>2026-03-29T08:11:40Z</time></trkpt><trkpt lat="43.695114199996034" lon="11.104682975601678"><ele>66.0</ele><time>2026-03-29T08:11:42Z</time></trkpt><trkpt lat="43.69515601225939" lon="11.104840422882884"><ele>66.0</ele><time>2026-03-29T08:11:44Z</time></trkpt><trkpt lat="43.69516747153311" lon="11.105008311496173"><ele>66.0</ele><time>2026-03-29T08:11:46Z</time></trkpt><trkpt lat="43.69513604222225" lon="11.105093813648653"><ele>66.0</ele><time>2026-03-29T08:11:47Z</time></trkpt><trkpt lat="43.69511388667326" lon="11.105256193987682"><ele>66.0</ele><time>2026-03-29T08:11:49Z</time></trkpt><trkpt lat="43.6950838586993" lon="11.105417496192533"><ele>66.0</ele><time>2026-03-29T08:11:51Z</time></trkpt><trkpt lat="43.69505721373938" lon="11.105574500616564"><ele>66.0</ele><time>2026-03-29T08:11:53Z</time></trkpt><trkpt lat="43.695030530635925" lon="11.105734792916815"><ele>66.0</ele><time>2026-03-29T08:11:55Z</time></trkpt><trkpt lat="43.695000450758194" lon="11.105892624978482"><ele>66.25</ele><time>2026-03-29T08:11:57Z</time></trkpt><trkpt lat="43.69497703701851" lon="11.106054526600506"><ele>66.5</ele><time>2026-03-29T08:11:59Z</time></trkpt><trkpt lat="43.69494917895069" lon="11.106219606531699"><ele>66.75</ele><time>2026-03-29T08:12:01Z</time></trkpt><trkpt lat="43.69492139638497" lon="11.106382053448474"><ele>67.0</ele><time>2026-03-29T08:12:03Z</time></trkpt><trkpt lat="43.69489823833993" lon="11.10654120617587"><ele>67.25</ele><time>2026-03-29T08:12:05Z</time></trkpt><trkpt lat="43.69487020436763" lon="11.106697057115463"><ele>67.5</ele><time>2026-03-29T08:12:07Z</time></trkpt><trkpt lat="43.69483707170892" lon="11.106844910663714"><ele>67.75</ele><time>2026-03-29T08:12:09Z</time></trkpt><trkpt lat="43.694802822389" lon="11.106989198178532"><ele>68.0</ele><time>2026-03-29T08:12:11Z</time></trkpt><trkpt lat="43.694765775128246" lon="11.107135265332335"><ele>68.0</ele><time>2026-03-29T08:12:13Z</time></trkpt><trkpt lat="43.69473544601902" lon="11.107278215498146"><ele>68.0</ele><time>2026-03-29T08:12:15Z</time></trkpt><trkpt lat="43.69470405994672" lon="11.107418156334575"><ele>68.0</ele><time>2026-03-29T08:12:17Z</time></trkpt><trkpt lat="43.6946761336065" lon="11.107559957374168"><ele>68.0</ele><time>2026-03-29T08:12:19Z</time></trkpt><trkpt lat="43.694649064802775" lon="11.10770371870814"><ele>68.0</ele><time>2026-03-29T08:12:21Z</time></trkpt><trkpt lat="43.69462422053546" lon="11.107841109069069"><ele>68.0</ele><time>2026-03-29T08:12:23Z</time></trkpt><trkpt lat="43.69460291228256" lon="11.107987021569642"><ele>68.0</ele><time>2026-03-29T08:12:25Z</time></trkpt><trkpt lat="43.69457911444032" lon="11.108127847192728"><ele>68.0</ele><time>2026-03-29T08:12:27Z</time></trkpt><trkpt lat="43.694550267605315" lon="11.108264146958167"><ele>68.0</ele><time>2026-03-29T08:12:29Z</time></trkpt><trkpt lat="43.69452278333018" lon="11.108410437846933"><ele>68.0</ele><time>2026-03-29T08:12:31Z</time></trkpt><trkpt lat="43.69448676205921" lon="11.108556056777498"><ele>68.0</ele><time>2026-03-29T08:12:33Z</time></trkpt><trkpt lat="43.694442281806836" lon="11.108689688336618"><ele>68.0</ele><time>2026-03-29T08:12:35Z</time></trkpt><trkpt lat="43.69438965820884" lon="11.108823838710101"><ele>68.0</ele><time>2026-03-29T08:12:37Z</time></trkpt><trkpt lat="43.69433803268955" lon="11.108957229633635"><ele>68.0</ele><time>2026-03-29T08:12:39Z</time></trkpt><trkpt lat="43.6942889176413" lon="11.109093892487579"><ele>68.0</ele><time>2026-03-29T08:12:41Z</time></trkpt><trkpt lat="43.694228245862156" lon="11.109222554320663"><ele>68.75</ele><time>2026-03-29T08:12:43Z</time></trkpt><trkpt lat="43.69417411482067" lon="11.109359045033585"><ele>69.5</ele><time>2026-03-29T08:12:45Z</time></trkpt><trkpt lat="43.69411275611165" lon="11.1094937007158"><ele>70.25</ele><time>2026-03-29T08:12:47Z</time></trkpt><trkpt lat="43.6940504457637" lon="11.109633387928882"><ele>71.0</ele><time>2026-03-29T08:12:49Z</time></trkpt><trkpt lat="43.69399508147601" lon="11.109768899167126"><ele>71.0</ele><time>2026-03-29T08:12:51Z</time></trkpt><trkpt lat="43.69394233984779" lon="11.109903850564441"><ele>71.0</ele><time>2026-03-29T08:12:53Z</time></trkpt><trkpt lat="43.69389075617314" lon="11.110043320634686"><ele>71.0</ele><time>2026-03-29T08:12:55Z</time></trkpt><trkpt lat="43.693846187663276" lon="11.110177534171907"><ele>71.0</ele><time>2026-03-29T08:12:57Z</time></trkpt><trkpt lat="43.69380376543413" lon="11.110313978480907"><ele>71.0</ele><time>2026-03-29T08:12:59Z</time></trkpt><trkpt lat="43.693776190297584" lon="11.110444863131464"><ele>71.39999999999999</ele><time>2026-03-29T08:13:01Z</time></trkpt><trkpt lat="43.69374873421444" lon="11.110573738469764"><ele>71.8</ele><time>2026-03-29T08:13:03Z</time></trkpt><trkpt lat="43.693727789369575" lon="11.110706225534294"><ele>72.19999999999999</ele><time>2026-03-29T08:13:05Z</time></trkpt><trkpt lat="43.693711539903774" lon="11.11083470535397"><ele>72.6</ele><time>2026-03-29T08:13:07Z</time></trkpt><trkpt lat="43.693694268404926" lon="11.11096716452711"><ele>73.0</ele><time>2026-03-29T08:13:09Z</time></trkpt><trkpt lat="43.69368278449841" lon="11.111099553330137"><ele>72.8</ele><time>2026-03-29T08:13:11Z</time></trkpt><trkpt lat="43.69366987140421" lon="11.111226116152654"><ele>72.6</ele><time>2026-03-29T08:13:13Z</time></trkpt><trkpt lat="43.69365230231973" lon="11.11136286911703"><ele>72.4</ele><time>2026-03-29T08:13:15Z</time></trkpt><trkpt lat="43.693630550722425" lon="11.111497007850764"><ele>72.2</ele><time>2026-03-29T08:13:17Z</time></trkpt><trkpt lat="43.693594069065774" lon="11.11162406979317"><ele>72.0</ele><time>2026-03-29T08:13:19Z</time></trkpt><trkpt lat="43.693549229938185" lon="11.11174892927118"><ele>72.0</ele><time>2026-03-29T08:13:21Z</time></trkpt><trkpt lat="43.693485431244994" lon="11.1118638404193"><ele>72.0</ele><time>2026-03-29T08:13:23Z</time></trkpt><trkpt lat="43.693415501741235" lon="11.111989470667057"><ele>72.0</ele><time>2026-03-29T08:13:25Z</time></trkpt><trkpt lat="43.69337242065516" lon="11.11206207307003"><ele>72.0</ele><time>2026-03-29T08:13:26Z</time></trkpt><trkpt lat="43.69329212267508" lon="11.112201178038843"><ele>72.0</ele><time>2026-03-29T08:13:28Z</time></trkpt><trkpt lat="43.69325097612128" lon="11.112274626367492"><ele>72.00000000000001</ele><time>2026-03-29T08:13:29Z</time></trkpt><trkpt lat="43.69320411612104" lon="11.112351182726274"><ele>72.0</ele><time>2026-03-29T08:13:30Z</time></trkpt><trkpt lat="43.6931564336867" lon="11.112428385006556"><ele>72.0</ele><time>2026-03-29T08:13:31Z</time></trkpt><trkpt lat="43.693120360153564" lon="11.112502032107626"><ele>72.0</ele><time>2026-03-29T08:13:32Z</time></trkpt><trkpt lat="43.69307803945492" lon="11.112581864179935"><ele>72.0</ele><time>2026-03-29T08:13:33Z</time></trkpt><trkpt lat="43.69303141640826" lon="11.11266449787604"><ele>72.00000000000001</ele><time>2026-03-29T08:13:34Z</time></trkpt><trkpt lat="43.692992231186935" lon="11.112744418398595"><ele>72.0</ele><time>2026-03-29T08:13:35Z</time></trkpt><trkpt lat="43.69294840312607" lon="11.112823839688685"><ele>71.85714285714286</ele><time>2026-03-29T08:13:36Z</time></trkpt><trkpt lat="43.692904609068464" lon="11.112899452924662"><ele>71.71428571428572</ele><time>2026-03-29T08:13:37Z</time></trkpt><trkpt lat="43.692860783835386" lon="11.112977803871228"><ele>71.57142857142857</ele><time>2026-03-29T08:13:38Z</time></trkpt><trkpt lat="43.69280789077595" lon="11.113056484708796"><ele>71.42857142857143</ele><time>2026-03-29T08:13:39Z</time></trkpt><trkpt lat="43.692752515972735" lon="11.113117193588373"><ele>71.28571428571428</ele><time>2026-03-29T08:13:40Z</time></trkpt><trkpt lat="43.692697001145966" lon="11.113181421049665"><ele>71.14285714285714</ele><time>2026-03-29T08:13:41Z</time></trkpt><trkpt lat="43.692642222085425" lon="11.11324386226655"><ele>71.0</ele><time>2026-03-29T08:13:42Z</time></trkpt><trkpt lat="43.69258707187399" lon="11.113312930189055"><ele>71.28571428571428</ele><time>2026-03-29T08:13:43Z</time></trkpt><trkpt lat="43.69253609315586" lon="11.11337724497306"><ele>71.57142857142857</ele><time>2026-03-29T08:13:44Z</time></trkpt><trkpt lat="43.692485447900914" lon="11.113445029771505"><ele>71.85714285714286</ele><time>2026-03-29T08:13:45Z</time></trkpt><trkpt lat="43.692438691170615" lon="11.113508632324807"><ele>72.14285714285714</ele><time>2026-03-29T08:13:46Z</time></trkpt><trkpt lat="43.69239379324747" lon="11.113585136601685"><ele>72.42857142857143</ele><time>2026-03-29T08:13:47Z</time></trkpt><trkpt lat="43.692348304672876" lon="11.11365376688074"><ele>72.71428571428571</ele><time>2026-03-29T08:13:48Z</time></trkpt><trkpt lat="43.6923042549284" lon="11.11371808415471"><ele>73.0</ele><time>2026-03-29T08:13:49Z</time></trkpt><trkpt lat="43.692218708981" lon="11.11383553043876"><ele>73.0</ele><time>2026-03-29T08:13:51Z</time></trkpt><trkpt lat="43.69213971949151" lon="11.11395075861748"><ele>73.0</ele><time>2026-03-29T08:13:53Z</time></trkpt><trkpt lat="43.69205907573976" lon="11.114069572905324"><ele>73.0</ele><time>2026-03-29T08:13:55Z</time></trkpt><trkpt lat="43.69197180561208" lon="11.114197961818785"><ele>73.0</ele><time>2026-03-29T08:13:57Z</time></trkpt><trkpt lat="43.69192723274795" lon="11.114271996880344"><ele>73.0</ele><time>2026-03-29T08:13:58Z</time></trkpt><trkpt lat="43.691877544987186" lon="11.114336836755752"><ele>72.42857142857143</ele><time>2026-03-29T08:13:59Z</time></trkpt><trkpt lat="43.69183127749722" lon="11.1144080945623"><ele>71.85714285714286</ele><time>2026-03-29T08:14:00Z</time></trkpt><trkpt lat="43.691783880201776" lon="11.11449478245558"><ele>71.28571428571429</ele><time>2026-03-29T08:14:01Z</time></trkpt><trkpt lat="43.69173964422787" lon="11.114562272512329"><ele>70.71428571428572</ele><time>2026-03-29T08:14:02Z</time></trkpt><trkpt lat="43.69169478099281" lon="11.114641091778"><ele>70.14285714285715</ele><time>2026-03-29T08:14:03Z</time></trkpt><trkpt lat="43.69164898182142" lon="11.114721563964151"><ele>69.57142857142857</ele><time>2026-03-29T08:14:04Z</time></trkpt><trkpt lat="43.69160446266093" lon="11.114800240430569"><ele>69.0</ele><time>2026-03-29T08:14:05Z</time></trkpt><trkpt lat="43.69156322224474" lon="11.114885842310093"><ele>69.28571428571429</ele><time>2026-03-29T08:14:06Z</time></trkpt><trkpt lat="43.69151955316216" lon="11.114976919699435"><ele>69.57142857142858</ele><time>2026-03-29T08:14:07Z</time></trkpt><trkpt lat="43.69147675557776" lon="11.115054963311874"><ele>69.85714285714286</ele><time>2026-03-29T08:14:08Z</time></trkpt><trkpt lat="43.691433301820055" lon="11.115137282883405"><ele>70.14285714285714</ele><time>2026-03-29T08:14:09Z</time></trkpt><trkpt lat="43.69139468879422" lon="11.115221730633156"><ele>70.42857142857142</ele><time>2026-03-29T08:14:10Z</time></trkpt><trkpt lat="43.69136058938113" lon="11.115303868688757"><ele>70.71428571428571</ele><time>2026-03-29T08:14:11Z</time></trkpt><trkpt lat="43.691327198576" lon="11.11538937049973"><ele>71.0</ele><time>2026-03-29T08:14:12Z</time></trkpt><trkpt lat="43.69129647806716" lon="11.115479243553722"><ele>71.0</ele><time>2026-03-29T08:14:13Z</time></trkpt><trkpt lat="43.69126001256492" lon="11.11556063666998"><ele>71.0</ele><time>2026-03-29T08:14:14Z</time></trkpt><trkpt lat="43.691223636317474" lon="11.115646045760405"><ele>71.0</ele><time>2026-03-29T08:14:15Z</time></trkpt><trkpt lat="43.69118778869616" lon="11.115734524564235"><ele>71.0</ele><time>2026-03-29T08:14:16Z</time></trkpt><trkpt lat="43.69114981067935" lon="11.11582170426315"><ele>71.0</ele><time>2026-03-29T08:14:17Z</time></trkpt><trkpt lat="43.69111274205253" lon="11.115906051690146"><ele>71.0</ele><time>2026-03-29T08:14:18Z</time></trkpt><trkpt lat="43.6910774288479" lon="11.115988389494886"><ele>71.0</ele><time>2026-03-29T08:14:19Z</time></trkpt><trkpt lat="43.691041836502265" lon="11.116073194899448"><ele>71.0</ele><time>2026-03-29T08:14:20Z</time></trkpt><trkpt lat="43.69101075175284" lon="11.1161543162446"><ele>71.0</ele><time>2026-03-29T08:14:21Z</time></trkpt><trkpt lat="43.6909814799752" lon="11.116240761024315"><ele>71.0</ele><time>2026-03-29T08:14:22Z</time></trkpt><trkpt lat="43.69095542140948" lon="11.116324865001298"><ele>71.0</ele><time>2026-03-29T08:14:23Z</time></trkpt><trkpt lat="43.69093038320163" lon="11.116406553683179"><ele>71.0</ele><time>2026-03-29T08:14:24Z</time></trkpt><trkpt lat="43.690910926679095" lon="11.116489441935576"><ele>71.0</ele><time>2026-03-29T08:14:25Z</time></trkpt><trkpt lat="43.690888746714265" lon="11.11657464182286"><ele>71.0</ele><time>2026-03-29T08:14:26Z</time></trkpt><trkpt lat="43.69086644230038" lon="11.116661466305166"><ele>71.0</ele><time>2026-03-29T08:14:27Z</time></trkpt><trkpt lat="43.690821942157605" lon="11.11682782671842"><ele>71.0</ele><time>2026-03-29T08:14:29Z</time></trkpt><trkpt lat="43.690775952935525" lon="11.116989475148626"><ele>71.0</ele><time>2026-03-29T08:14:31Z</time></trkpt><trkpt lat="43.690748149539225" lon="11.117071006620698"><ele>71.0</ele><time>2026-03-29T08:14:32Z</time></trkpt><trkpt lat="43.69072454848711" lon="11.117154877776006"><ele>71.0</ele><time>2026-03-29T08:14:33Z</time></trkpt><trkpt lat="43.69066249480914" lon="11.11730630302598"><ele>71.0</ele><time>2026-03-29T08:14:35Z</time></trkpt><trkpt lat="43.69062941102838" lon="11.117380607095095"><ele>71.0</ele><time>2026-03-29T08:14:36Z</time></trkpt><trkpt lat="43.690557813292266" lon="11.117521268622948"><ele>71.0</ele><time>2026-03-29T08:14:38Z</time></trkpt><trkpt lat="43.69048680996954" lon="11.117655051068995"><ele>71.0</ele><time>2026-03-29T08:14:40Z</time></trkpt><trkpt lat="43.690447600584086" lon="11.117723638101689"><ele>71.0</ele><time>2026-03-29T08:14:41Z</time></trkpt><trkpt lat="43.69037292812044" lon="11.117857168322187"><ele>71.0</ele><time>2026-03-29T08:14:43Z</time></trkpt><trkpt lat="43.69033398382576" lon="11.117926236302486"><ele>71.0</ele><time>2026-03-29T08:14:44Z</time></trkpt><trkpt lat="43.69025079118197" lon="11.118059023366724"><ele>71.0</ele><time>2026-03-29T08:14:46Z</time></trkpt><trkpt lat="43.69020919415214" lon="11.118127964787512"><ele>71.0</ele><time>2026-03-29T08:14:47Z</time></trkpt><trkpt lat="43.690162391367984" lon="11.118190479430291"><ele>71.0</ele><time>2026-03-29T08:14:48Z</time></trkpt><trkpt lat="43.690113687369674" lon="11.118246141530372"><ele>71.0</ele><time>2026-03-29T08:14:49Z</time></trkpt><trkpt lat="43.690062371397275" lon="11.118300937083351"><ele>71.0</ele><time>2026-03-29T08:14:50Z</time></trkpt><trkpt lat="43.68996466057394" lon="11.11840784243294"><ele>71.25</ele><time>2026-03-29T08:14:52Z</time></trkpt><trkpt lat="43.68986376409971" lon="11.118500748192272"><ele>71.5</ele><time>2026-03-29T08:14:54Z</time></trkpt><trkpt lat="43.68975938858179" lon="11.11858610689763"><ele>71.75</ele><time>2026-03-29T08:14:56Z</time></trkpt><trkpt lat="43.689652620426266" lon="11.118672844318613"><ele>72.0</ele><time>2026-03-29T08:14:58Z</time></trkpt><trkpt lat="43.68955061620356" lon="11.118760985587182"><ele>72.0</ele><time>2026-03-29T08:15:00Z</time></trkpt><trkpt lat="43.68946372184354" lon="11.118863094888754"><ele>72.0</ele><time>2026-03-29T08:15:02Z</time></trkpt><trkpt lat="43.689392441957594" lon="11.11898246892233"><ele>72.0</ele><time>2026-03-29T08:15:04Z</time></trkpt><trkpt lat="43.68934347102947" lon="11.11912749507641"><ele>72.0</ele><time>2026-03-29T08:15:06Z</time></trkpt><trkpt lat="43.689311995947996" lon="11.119282839108278"><ele>72.0</ele><time>2026-03-29T08:15:08Z</time></trkpt><trkpt lat="43.6893023631682" lon="11.119440498058735"><ele>72.0</ele><time>2026-03-29T08:15:10Z</time></trkpt><trkpt lat="43.68930550801426" lon="11.119603028497979"><ele>72.0</ele><time>2026-03-29T08:15:12Z</time></trkpt><trkpt lat="43.68932039218094" lon="11.119766749325569"><ele>72.0</ele><time>2026-03-29T08:15:14Z</time></trkpt><trkpt lat="43.68933261861203" lon="11.119925051702497"><ele>72.0</ele><time>2026-03-29T08:15:16Z</time></trkpt><trkpt lat="43.68934489049775" lon="11.120091380858886"><ele>72.0</ele><time>2026-03-29T08:15:18Z</time></trkpt><trkpt lat="43.689346600473876" lon="11.12025697870763"><ele>72.0</ele><time>2026-03-29T08:15:20Z</time></trkpt><trkpt lat="43.68932770786181" lon="11.120423604387137"><ele>72.0</ele><time>2026-03-29T08:15:22Z</time></trkpt><trkpt lat="43.68930382615875" lon="11.120577795464628"><ele>72.0</ele><time>2026-03-29T08:15:24Z</time></trkpt><trkpt lat="43.689273078756614" lon="11.120726193501152"><ele>72.0</ele><time>2026-03-29T08:15:26Z</time></trkpt><trkpt lat="43.689236395919664" lon="11.120878022286604"><ele>72.0</ele><time>2026-03-29T08:15:28Z</time></trkpt><trkpt lat="43.68920588964832" lon="11.121037351713401"><ele>72.0</ele><time>2026-03-29T08:15:30Z</time></trkpt><trkpt lat="43.68918624803324" lon="11.121121042065486"><ele>72.0</ele><time>2026-03-29T08:15:31Z</time></trkpt><trkpt lat="43.689154948213314" lon="11.121280122458021"><ele>72.16666666666667</ele><time>2026-03-29T08:15:33Z</time></trkpt><trkpt lat="43.68913084828158" lon="11.12136211747602"><ele>72.33333333333333</ele><time>2026-03-29T08:15:34Z</time></trkpt><trkpt lat="43.68911823374858" lon="11.121451941133495"><ele>72.5</ele><time>2026-03-29T08:15:35Z</time></trkpt><trkpt lat="43.68908045375287" lon="11.12161322743502"><ele>72.66666666666666</ele><time>2026-03-29T08:15:37Z</time></trkpt><trkpt lat="43.68905965036011" lon="11.121704415196527"><ele>72.83333333333333</ele><time>2026-03-29T08:15:38Z</time></trkpt><trkpt lat="43.68903459633801" lon="11.121788311429816"><ele>73.0</ele><time>2026-03-29T08:15:39Z</time></trkpt><trkpt lat="43.68900212805682" lon="11.121869255229319"><ele>73.14285714285714</ele><time>2026-03-29T08:15:40Z</time></trkpt><trkpt lat="43.68896280387324" lon="11.121946077023342"><ele>73.28571428571429</ele><time>2026-03-29T08:15:41Z</time></trkpt><trkpt lat="43.68891900651347" lon="11.122011424785068"><ele>73.42857142857143</ele><time>2026-03-29T08:15:42Z</time></trkpt><trkpt lat="43.68887077944745" lon="11.12207389699086"><ele>73.57142857142857</ele><time>2026-03-29T08:15:43Z</time></trkpt><trkpt lat="43.68882357797582" lon="11.122131573694334"><ele>73.71428571428571</ele><time>2026-03-29T08:15:44Z</time></trkpt><trkpt lat="43.688775875680456" lon="11.122190600043377"><ele>73.85714285714286</ele><time>2026-03-29T08:15:45Z</time></trkpt><trkpt lat="43.688678342351444" lon="11.122291374026782"><ele>74.0</ele><time>2026-03-29T08:15:47Z</time></trkpt><trkpt lat="43.68858259555443" lon="11.122397937058707"><ele>74.2</ele><time>2026-03-29T08:15:49Z</time></trkpt><trkpt lat="43.68848838955595" lon="11.122493298731774"><ele>74.4</ele><time>2026-03-29T08:15:51Z</time></trkpt><trkpt lat="43.688394922324946" lon="11.122588005114983"><ele>74.6</ele><time>2026-03-29T08:15:53Z</time></trkpt><trkpt lat="43.688308528245024" lon="11.122690475625015"><ele>74.8</ele><time>2026-03-29T08:15:55Z</time></trkpt><trkpt lat="43.68823726484701" lon="11.122790765556667"><ele>75.0</ele><time>2026-03-29T08:15:57Z</time></trkpt><trkpt lat="43.68818411613482" lon="11.122903951147485"><ele>75.0</ele><time>2026-03-29T08:15:59Z</time></trkpt><trkpt lat="43.68813189540081" lon="11.123022929921284"><ele>75.0</ele><time>2026-03-29T08:16:01Z</time></trkpt><trkpt lat="43.68806820372616" lon="11.123139900655573"><ele>75.0</ele><time>2026-03-29T08:16:03Z</time></trkpt><trkpt lat="43.68798823575111" lon="11.123249359397422"><ele>75.0</ele><time>2026-03-29T08:16:05Z</time></trkpt><trkpt lat="43.68790312167993" lon="11.123356814815844"><ele>75.0</ele><time>2026-03-29T08:16:07Z</time></trkpt><trkpt lat="43.68781863237178" lon="11.12346606128402"><ele>74.75</ele><time>2026-03-29T08:16:09Z</time></trkpt><trkpt lat="43.68773684646625" lon="11.123580485953308"><ele>74.5</ele><time>2026-03-29T08:16:11Z</time></trkpt><trkpt lat="43.687653558327014" lon="11.12369176585932"><ele>74.25</ele><time>2026-03-29T08:16:13Z</time></trkpt><trkpt lat="43.68756159354876" lon="11.12380640229304"><ele>74.0</ele><time>2026-03-29T08:16:15Z</time></trkpt><trkpt lat="43.68748038090417" lon="11.123916553891924"><ele>74.0</ele><time>2026-03-29T08:16:17Z</time></trkpt><trkpt lat="43.687399592684365" lon="11.124027316874974"><ele>74.0</ele><time>2026-03-29T08:16:19Z</time></trkpt><trkpt lat="43.68731316873001" lon="11.124138388204843"><ele>74.0</ele><time>2026-03-29T08:16:21Z</time></trkpt><trkpt lat="43.687267984073316" lon="11.124199826618332"><ele>74.0</ele><time>2026-03-29T08:16:22Z</time></trkpt><trkpt lat="43.687191129610454" lon="11.124302603633346"><ele>74.0</ele><time>2026-03-29T08:16:24Z</time></trkpt><trkpt lat="43.68710040466991" lon="11.124421045000688"><ele>73.8</ele><time>2026-03-29T08:16:26Z</time></trkpt><trkpt lat="43.687014136923636" lon="11.124525486691223"><ele>73.60000000000001</ele><time>2026-03-29T08:16:28Z</time></trkpt><trkpt lat="43.68693517964382" lon="11.124627684985876"><ele>73.4</ele><time>2026-03-29T08:16:30Z</time></trkpt><trkpt lat="43.686860358674245" lon="11.124730896174594"><ele>73.2</ele><time>2026-03-29T08:16:32Z</time></trkpt><trkpt lat="43.68677211842917" lon="11.124837697440409"><ele>73.0</ele><time>2026-03-29T08:16:34Z</time></trkpt><trkpt lat="43.68669271577637" lon="11.124944902512807"><ele>74.0</ele><time>2026-03-29T08:16:36Z</time></trkpt><trkpt lat="43.6866148444785" lon="11.125056626656628"><ele>75.0</ele><time>2026-03-29T08:16:38Z</time></trkpt><trkpt lat="43.68653281182344" lon="11.125165214216489"><ele>76.0</ele><time>2026-03-29T08:16:40Z</time></trkpt><trkpt lat="43.686442628331974" lon="11.125272482670338"><ele>77.0</ele><time>2026-03-29T08:16:42Z</time></trkpt><trkpt lat="43.686351355502524" lon="11.125368741216995"><ele>77.0</ele><time>2026-03-29T08:16:44Z</time></trkpt><trkpt lat="43.68624640770196" lon="11.125470431316923"><ele>77.0</ele><time>2026-03-29T08:16:46Z</time></trkpt><trkpt lat="43.686179312496655" lon="11.125586320938796"><ele>77.0</ele><time>2026-03-29T08:16:48Z</time></trkpt><trkpt lat="43.6860827265322" lon="11.125674037320065"><ele>77.0</ele><time>2026-03-29T08:16:50Z</time></trkpt><trkpt lat="43.68599411152903" lon="11.125770258086947"><ele>77.25</ele><time>2026-03-29T08:16:52Z</time></trkpt><trkpt lat="43.68590355394184" lon="11.125859238349452"><ele>77.5</ele><time>2026-03-29T08:16:54Z</time></trkpt><trkpt lat="43.68581194289292" lon="11.125944073080552"><ele>77.75</ele><time>2026-03-29T08:16:56Z</time></trkpt><trkpt lat="43.685719070140955" lon="11.126039985215813"><ele>78.0</ele><time>2026-03-29T08:16:58Z</time></trkpt><trkpt lat="43.68562414699014" lon="11.126126964933334"><ele>78.0</ele><time>2026-03-29T08:17:00Z</time></trkpt><trkpt lat="43.68552386819103" lon="11.126215680242797"><ele>78.0</ele><time>2026-03-29T08:17:02Z</time></trkpt><trkpt lat="43.68542480083376" lon="11.126311993461513"><ele>78.0</ele><time>2026-03-29T08:17:04Z</time></trkpt><trkpt lat="43.68532480523487" lon="11.1264121647716"><ele>78.0</ele><time>2026-03-29T08:17:06Z</time></trkpt><trkpt lat="43.68522933159031" lon="11.126510975375036"><ele>78.4</ele><time>2026-03-29T08:17:08Z</time></trkpt><trkpt lat="43.685130055344494" lon="11.126595451792952"><ele>78.8</ele><time>2026-03-29T08:17:10Z</time></trkpt><trkpt lat="43.68507729906227" lon="11.126645812511532"><ele>79.2</ele><time>2026-03-29T08:17:11Z</time></trkpt><trkpt lat="43.68498357006921" lon="11.126746959683071"><ele>79.6</ele><time>2026-03-29T08:17:13Z</time></trkpt><trkpt lat="43.68488930583888" lon="11.126858055252931"><ele>80.0</ele><time>2026-03-29T08:17:15Z</time></trkpt><trkpt lat="43.68481147768055" lon="11.126975905833321"><ele>80.0</ele><time>2026-03-29T08:17:17Z</time></trkpt><trkpt lat="43.68472269798601" lon="11.127071568312639"><ele>80.0</ele><time>2026-03-29T08:17:19Z</time></trkpt><trkpt lat="43.68467713468517" lon="11.127139979578388"><ele>80.0</ele><time>2026-03-29T08:17:20Z</time></trkpt><trkpt lat="43.68459672842641" lon="11.127274269531663"><ele>80.0</ele><time>2026-03-29T08:17:22Z</time></trkpt><trkpt lat="43.68453303996369" lon="11.127412014127318"><ele>80.0</ele><time>2026-03-29T08:17:24Z</time></trkpt><trkpt lat="43.68445964079301" lon="11.127522770235839"><ele>80.33333333333334</ele><time>2026-03-29T08:17:26Z</time></trkpt><trkpt lat="43.68439388950279" lon="11.127630914631471"><ele>80.66666666666667</ele><time>2026-03-29T08:17:28Z</time></trkpt><trkpt lat="43.68435325197859" lon="11.127708838105319"><ele>81.0</ele><time>2026-03-29T08:17:30Z</time></trkpt><trkpt lat="43.68433280078556" lon="11.12779764899301"><ele>81.33333333333333</ele><time>2026-03-29T08:17:32Z</time></trkpt><trkpt lat="43.68435221335189" lon="11.127899493349195"><ele>81.66666666666666</ele><time>2026-03-29T08:17:34Z</time></trkpt><trkpt lat="43.6843782357113" lon="11.128003884992891"><ele>82.0</ele><time>2026-03-29T08:17:36Z</time></trkpt><trkpt lat="43.684394550530214" lon="11.1281037819463"><ele>82.39999999999999</ele><time>2026-03-29T08:17:38Z</time></trkpt><trkpt lat="43.68443507790963" lon="11.128219217411385"><ele>82.8</ele><time>2026-03-29T08:17:40Z</time></trkpt><trkpt lat="43.68449386767528" lon="11.128297514921615"><ele>83.2</ele><time>2026-03-29T08:17:42Z</time></trkpt><trkpt lat="43.68455867773319" lon="11.128408011504137"><ele>83.6</ele><time>2026-03-29T08:17:44Z</time></trkpt><trkpt lat="43.68460826171093" lon="11.128523003126759"><ele>84.0</ele><time>2026-03-29T08:17:46Z</time></trkpt><trkpt lat="43.684639858886484" lon="11.128640032761504"><ele>84.0</ele><time>2026-03-29T08:17:48Z</time></trkpt><trkpt lat="43.68467444798354" lon="11.128770533803992"><ele>84.0</ele><time>2026-03-29T08:17:50Z</time></trkpt><trkpt lat="43.68470489765863" lon="11.128902193582777"><ele>84.0</ele><time>2026-03-29T08:17:52Z</time></trkpt><trkpt lat="43.68474628937356" lon="11.129026901122092"><ele>84.0</ele><time>2026-03-29T08:17:54Z</time></trkpt><trkpt lat="43.68479149918377" lon="11.1291560597765"><ele>84.0</ele><time>2026-03-29T08:17:56Z</time></trkpt><trkpt lat="43.68482810694691" lon="11.12928636253182"><ele>84.2</ele><time>2026-03-29T08:17:58Z</time></trkpt><trkpt lat="43.684877274899364" lon="11.129403172006233"><ele>84.4</ele><time>2026-03-29T08:18:00Z</time></trkpt><trkpt lat="43.6849313278901" lon="11.129521350602193"><ele>84.6</ele><time>2026-03-29T08:18:02Z</time></trkpt><trkpt lat="43.684987738282565" lon="11.129635425346033"><ele>84.8</ele><time>2026-03-29T08:18:04Z</time></trkpt><trkpt lat="43.685065890465644" lon="11.129712456136112"><ele>85.0</ele><time>2026-03-29T08:18:06Z</time></trkpt><trkpt lat="43.685140163549214" lon="11.129799051850759"><ele>85.0</ele><time>2026-03-29T08:18:08Z</time></trkpt><trkpt lat="43.685212143428934" lon="11.129881033256842"><ele>85.0</ele><time>2026-03-29T08:18:10Z</time></trkpt><trkpt lat="43.68528094381272" lon="11.12995970870199"><ele>85.0</ele><time>2026-03-29T08:18:12Z</time></trkpt><trkpt lat="43.685354305547946" lon="11.130027452826118"><ele>85.0</ele><time>2026-03-29T08:18:14Z</time></trkpt><trkpt lat="43.68542711214678" lon="11.130102221060216"><ele>85.0</ele><time>2026-03-29T08:18:16Z</time></trkpt><trkpt lat="43.68549470439255" lon="11.130173713118193"><ele>85.0</ele><time>2026-03-29T08:18:18Z</time></trkpt><trkpt lat="43.68556374436933" lon="11.130245573849168"><ele>85.83333333333333</ele><time>2026-03-29T08:18:20Z</time></trkpt><trkpt lat="43.68563744769966" lon="11.130323167025507"><ele>86.66666666666666</ele><time>2026-03-29T08:18:22Z</time></trkpt><trkpt lat="43.68570037491705" lon="11.130399124098673"><ele>87.5</ele><time>2026-03-29T08:18:24Z</time></trkpt><trkpt lat="43.68576781082174" lon="11.13046085667477"><ele>88.33333333333333</ele><time>2026-03-29T08:18:26Z</time></trkpt><trkpt lat="43.68583391047114" lon="11.130529137886136"><ele>89.16666666666667</ele><time>2026-03-29T08:18:28Z</time></trkpt><trkpt lat="43.68590078210757" lon="11.130596695127096"><ele>90.0</ele><time>2026-03-29T08:18:30Z</time></trkpt><trkpt lat="43.68596273848236" lon="11.130667467071714"><ele>89.66666666666667</ele><time>2026-03-29T08:18:32Z</time></trkpt><trkpt lat="43.68602554224135" lon="11.130740388361954"><ele>89.33333333333333</ele><time>2026-03-29T08:18:34Z</time></trkpt><trkpt lat="43.68609242975752" lon="11.130800942004068"><ele>89.0</ele><time>2026-03-29T08:18:36Z</time></trkpt><trkpt lat="43.68615552565304" lon="11.130864061021416"><ele>88.66666666666666</ele><time>2026-03-29T08:18:38Z</time></trkpt><trkpt lat="43.68621877603625" lon="11.130933869718358"><ele>88.33333333333333</ele><time>2026-03-29T08:18:40Z</time></trkpt><trkpt lat="43.68627453117386" lon="11.1309948001688"><ele>88.0</ele><time>2026-03-29T08:18:42Z</time></trkpt><trkpt lat="43.6863444937261" lon="11.131067243506772"><ele>89.0</ele><time>2026-03-29T08:18:44Z</time></trkpt><trkpt lat="43.68640891282191" lon="11.131132924812961"><ele>90.0</ele><time>2026-03-29T08:18:46Z</time></trkpt><trkpt lat="43.68647202370143" lon="11.131199836673659"><ele>91.0</ele><time>2026-03-29T08:18:48Z</time></trkpt><trkpt lat="43.68654110502372" lon="11.131274760454021"><ele>92.0</ele><time>2026-03-29T08:18:50Z</time></trkpt><trkpt lat="43.68660395227624" lon="11.131353023443497"><ele>93.0</ele><time>2026-03-29T08:18:52Z</time></trkpt><trkpt lat="43.686665624774" lon="11.131426546378604"><ele>94.0</ele><time>2026-03-29T08:18:54Z</time></trkpt><trkpt lat="43.686723875745635" lon="11.13150637484402"><ele>93.83333333333333</ele><time>2026-03-29T08:18:56Z</time></trkpt><trkpt lat="43.686774703093874" lon="11.131591818399409"><ele>93.66666666666666</ele><time>2026-03-29T08:18:58Z</time></trkpt><trkpt lat="43.68682809698911" lon="11.131686828207433"><ele>93.5</ele><time>2026-03-29T08:19:00Z</time></trkpt><trkpt lat="43.68687670154959" lon="11.131772443905628"><ele>93.33333333333333</ele><time>2026-03-29T08:19:02Z</time></trkpt><trkpt lat="43.686927297252566" lon="11.131861494218532"><ele>93.16666666666667</ele><time>2026-03-29T08:19:04Z</time></trkpt><trkpt lat="43.68697654913871" lon="11.131949559700956"><ele>93.0</ele><time>2026-03-29T08:19:06Z</time></trkpt><trkpt lat="43.68703031125452" lon="11.132033013479413"><ele>93.66666666666667</ele><time>2026-03-29T08:19:08Z</time></trkpt><trkpt lat="43.68710130227861" lon="11.132124719080972"><ele>94.33333333333334</ele><time>2026-03-29T08:19:10Z</time></trkpt><trkpt lat="43.687137466141664" lon="11.132213370115634"><ele>95.0</ele><time>2026-03-29T08:19:12Z</time></trkpt><trkpt lat="43.68719143912131" lon="11.1322929293389"><ele>95.66666666666667</ele><time>2026-03-29T08:19:14Z</time></trkpt><trkpt lat="43.68723968313301" lon="11.132385339749721"><ele>96.33333333333334</ele><time>2026-03-29T08:19:16Z</time></trkpt><trkpt lat="43.687288917650484" lon="11.132463543693929"><ele>97.0</ele><time>2026-03-29T08:19:18Z</time></trkpt><trkpt lat="43.68733376331409" lon="11.132560135316488"><ele>97.50000000000001</ele><time>2026-03-29T08:19:20Z</time></trkpt><trkpt lat="43.687374961944464" lon="11.132653857461259"><ele>98.0</ele><time>2026-03-29T08:19:22Z</time></trkpt><trkpt lat="43.68741084358833" lon="11.132753183435389"><ele>98.5</ele><time>2026-03-29T08:19:24Z</time></trkpt><trkpt lat="43.68743436068512" lon="11.132861497685742"><ele>99.0</ele><time>2026-03-29T08:19:26Z</time></trkpt><trkpt lat="43.68745509775607" lon="11.132982441751183"><ele>99.50000000000001</ele><time>2026-03-29T08:19:28Z</time></trkpt><trkpt lat="43.6874733617151" lon="11.133084243629996"><ele>100.0</ele><time>2026-03-29T08:19:30Z</time></trkpt><trkpt lat="43.687473328988574" lon="11.133191414523312"><ele>100.16666666666667</ele><time>2026-03-29T08:19:32Z</time></trkpt><trkpt lat="43.68748481749468" lon="11.133306297622013"><ele>100.33333333333334</ele><time>2026-03-29T08:19:34Z</time></trkpt><trkpt lat="43.68749261009537" lon="11.133419929538146"><ele>100.5</ele><time>2026-03-29T08:19:36Z</time></trkpt><trkpt lat="43.68750279350415" lon="11.133543707973157"><ele>100.66666666666666</ele><time>2026-03-29T08:19:38Z</time></trkpt><trkpt lat="43.68752515971982" lon="11.133664477628573"><ele>100.83333333333333</ele><time>2026-03-29T08:19:40Z</time></trkpt><trkpt lat="43.687544675664505" lon="11.133793530668903"><ele>101.0</ele><time>2026-03-29T08:19:42Z</time></trkpt><trkpt lat="43.68757462589766" lon="11.133918555900511"><ele>101.0</ele><time>2026-03-29T08:19:44Z</time></trkpt><trkpt lat="43.687607203190645" lon="11.134044795117047"><ele>101.0</ele><time>2026-03-29T08:19:46Z</time></trkpt><trkpt lat="43.687638045507036" lon="11.134184813556647"><ele>101.0</ele><time>2026-03-29T08:19:48Z</time></trkpt><trkpt lat="43.68767383646544" lon="11.134327801102364"><ele>101.0</ele><time>2026-03-29T08:19:50Z</time></trkpt><trkpt lat="43.687709680759426" lon="11.134471667434816"><ele>101.0</ele><time>2026-03-29T08:19:52Z</time></trkpt><trkpt lat="43.68773385866951" lon="11.134628563471875"><ele>100.8</ele><time>2026-03-29T08:19:54Z</time></trkpt><trkpt lat="43.687759439395116" lon="11.134778136143478"><ele>100.6</ele><time>2026-03-29T08:19:56Z</time></trkpt><trkpt lat="43.68777813859444" lon="11.134936145137285"><ele>100.4</ele><time>2026-03-29T08:19:58Z</time></trkpt><trkpt lat="43.68778665709844" lon="11.135087785879987"><ele>100.2</ele><time>2026-03-29T08:20:00Z</time></trkpt><trkpt lat="43.68779276934534" lon="11.135226142990112"><ele>100.0</ele><time>2026-03-29T08:20:02Z</time></trkpt><trkpt lat="43.68777445516636" lon="11.135359076816446"><ele>99.4</ele><time>2026-03-29T08:20:04Z</time></trkpt><trkpt lat="43.68775605791154" lon="11.135491763806131"><ele>98.8</ele><time>2026-03-29T08:20:06Z</time></trkpt><trkpt lat="43.68773912723563" lon="11.135621737282682"><ele>98.19999999999999</ele><time>2026-03-29T08:20:08Z</time></trkpt><trkpt lat="43.68772493070461" lon="11.135741438907477"><ele>97.6</ele><time>2026-03-29T08:20:10Z</time></trkpt><trkpt lat="43.687711303954295" lon="11.135865437027281"><ele>97.0</ele><time>2026-03-29T08:20:12Z</time></trkpt><trkpt lat="43.6876795465161" lon="11.135978438197414"><ele>97.0</ele><time>2026-03-29T08:20:14Z</time></trkpt><trkpt lat="43.68761080253624" lon="11.13606211421748"><ele>97.0</ele><time>2026-03-29T08:20:16Z</time></trkpt><trkpt lat="43.68753411792601" lon="11.13609698784922"><ele>97.0</ele><time>2026-03-29T08:20:18Z</time></trkpt><trkpt lat="43.68748174776477" lon="11.13617326419872"><ele>97.0</ele><time>2026-03-29T08:20:20Z</time></trkpt><trkpt lat="43.68744005016472" lon="11.136289307440553"><ele>97.0</ele><time>2026-03-29T08:22:32Z</time></trkpt><trkpt lat="43.6875234051252" lon="11.136413876429543"><ele>97.0</ele><time>2026-03-29T08:22:33Z</time></trkpt><trkpt lat="43.687530688498626" lon="11.13654209810413"><ele>97.0</ele><time>2026-03-29T08:22:35Z</time></trkpt><trkpt lat="43.687500795368415" lon="11.136721179911039"><ele>97.0</ele><time>2026-03-29T08:22:37Z</time></trkpt><trkpt lat="43.687547385546814" lon="11.136836319549626"><ele>97.0</ele><time>2026-03-29T08:22:39Z</time></trkpt><trkpt lat="43.687570264942124" lon="11.136957098665176"><ele>97.0</ele><time>2026-03-29T08:22:41Z</time></trkpt><trkpt lat="43.68755165523594" lon="11.137115719718034"><ele>97.25</ele><time>2026-03-29T08:22:43Z</time></trkpt><trkpt lat="43.68753116896211" lon="11.137277391194758"><ele>97.5</ele><time>2026-03-29T08:22:45Z</time></trkpt><trkpt lat="43.687509399404924" lon="11.137443432179282"><ele>97.75</ele><time>2026-03-29T08:22:47Z</time></trkpt><trkpt lat="43.687493991296606" lon="11.13760534969757"><ele>98.0</ele><time>2026-03-29T08:22:49Z</time></trkpt><trkpt lat="43.687476303694076" lon="11.137763081707213"><ele>98.0</ele><time>2026-03-29T08:22:51Z</time></trkpt><trkpt lat="43.68747496556725" lon="11.137919488158822"><ele>98.0</ele><time>2026-03-29T08:22:53Z</time></trkpt><trkpt lat="43.68748397370981" lon="11.138071522167536"><ele>98.0</ele><time>2026-03-29T08:22:55Z</time></trkpt><trkpt lat="43.68749646982799" lon="11.138228663998058"><ele>98.0</ele><time>2026-03-29T08:22:57Z</time></trkpt><trkpt lat="43.68751155688956" lon="11.13839145059795"><ele>98.25</ele><time>2026-03-29T08:22:59Z</time></trkpt><trkpt lat="43.68752807562695" lon="11.138549569291824"><ele>98.5</ele><time>2026-03-29T08:23:01Z</time></trkpt><trkpt lat="43.68754209182565" lon="11.138709200949501"><ele>98.75</ele><time>2026-03-29T08:23:03Z</time></trkpt><trkpt lat="43.687555664320875" lon="11.138863952350158"><ele>99.0</ele><time>2026-03-29T08:23:05Z</time></trkpt><trkpt lat="43.68756352202384" lon="11.139011311821573"><ele>99.0</ele><time>2026-03-29T08:23:07Z</time></trkpt><trkpt lat="43.687577267287075" lon="11.139159304595479"><ele>99.0</ele><time>2026-03-29T08:23:09Z</time></trkpt><trkpt lat="43.687599628165344" lon="11.139304723985608"><ele>99.0</ele><time>2026-03-29T08:23:11Z</time></trkpt><trkpt lat="43.68761242835543" lon="11.139449060909023"><ele>99.0</ele><time>2026-03-29T08:23:13Z</time></trkpt><trkpt lat="43.687637447227246" lon="11.139591417719128"><ele>99.0</ele><time>2026-03-29T08:23:15Z</time></trkpt><trkpt lat="43.687661055109764" lon="11.1397300175538"><ele>99.0</ele><time>2026-03-29T08:23:17Z</time></trkpt><trkpt lat="43.68768261305119" lon="11.139871967941797"><ele>99.0</ele><time>2026-03-29T08:23:19Z</time></trkpt><trkpt lat="43.68771083610763" lon="11.140012096245563"><ele>99.0</ele><time>2026-03-29T08:23:21Z</time></trkpt><trkpt lat="43.68773493714082" lon="11.140155682696694"><ele>99.0</ele><time>2026-03-29T08:23:23Z</time></trkpt><trkpt lat="43.68776356918078" lon="11.140292845498225"><ele>99.0</ele><time>2026-03-29T08:23:25Z</time></trkpt><trkpt lat="43.68779501336899" lon="11.140431683682548"><ele>100.80000000000001</ele><time>2026-03-29T08:23:27Z</time></trkpt><trkpt lat="43.68782578292381" lon="11.140568964901341"><ele>102.60000000000001</ele><time>2026-03-29T08:23:29Z</time></trkpt><trkpt lat="43.68785816448126" lon="11.140707376129106"><ele>104.4</ele><time>2026-03-29T08:23:31Z</time></trkpt><trkpt lat="43.687894015439" lon="11.140847717105762"><ele>106.2</ele><time>2026-03-29T08:23:33Z</time></trkpt><trkpt lat="43.68792823039456" lon="11.140980532165857"><ele>108.0</ele><time>2026-03-29T08:23:35Z</time></trkpt><trkpt lat="43.68795503318085" lon="11.141115094158192"><ele>108.0</ele><time>2026-03-29T08:23:37Z</time></trkpt><trkpt lat="43.68796607737094" lon="11.141270797254888"><ele>108.0</ele><time>2026-03-29T08:23:39Z</time></trkpt><trkpt lat="43.68797435902109" lon="11.141430517087164"><ele>108.0</ele><time>2026-03-29T08:23:41Z</time></trkpt><trkpt lat="43.68796978081348" lon="11.141589285619926"><ele>108.0</ele><time>2026-03-29T08:23:43Z</time></trkpt><trkpt lat="43.687937200960135" lon="11.141741653562804"><ele>108.0</ele><time>2026-03-29T08:23:45Z</time></trkpt><trkpt lat="43.687890099199834" lon="11.141888270934908"><ele>108.0</ele><time>2026-03-29T08:23:47Z</time></trkpt><trkpt lat="43.68784107301811" lon="11.142034878200885"><ele>108.0</ele><time>2026-03-29T08:23:49Z</time></trkpt><trkpt lat="43.68777103959966" lon="11.14215770344904"><ele>108.0</ele><time>2026-03-29T08:23:51Z</time></trkpt><trkpt lat="43.687712742046465" lon="11.142295459290322"><ele>107.2</ele><time>2026-03-29T08:23:53Z</time></trkpt><trkpt lat="43.687660497272255" lon="11.14243081133359"><ele>106.4</ele><time>2026-03-29T08:23:55Z</time></trkpt><trkpt lat="43.68760823528645" lon="11.142568499623712"><ele>105.60000000000001</ele><time>2026-03-29T08:23:57Z</time></trkpt><trkpt lat="43.68755505134969" lon="11.142702886737156"><ele>104.80000000000001</ele><time>2026-03-29T08:23:59Z</time></trkpt><trkpt lat="43.68750426940308" lon="11.142843210006287"><ele>104.0</ele><time>2026-03-29T08:24:01Z</time></trkpt><trkpt lat="43.687462262282835" lon="11.14299073862559"><ele>104.0</ele><time>2026-03-29T08:24:03Z</time></trkpt><trkpt lat="43.68743420524627" lon="11.143143532576563"><ele>104.0</ele><time>2026-03-29T08:24:05Z</time></trkpt><trkpt lat="43.68741461649048" lon="11.143299480713285"><ele>104.0</ele><time>2026-03-29T08:24:07Z</time></trkpt><trkpt lat="43.68741379826204" lon="11.143463980639007"><ele>104.0</ele><time>2026-03-29T08:24:09Z</time></trkpt><trkpt lat="43.68742750917673" lon="11.14362983342251"><ele>104.0</ele><time>2026-03-29T08:24:11Z</time></trkpt><trkpt lat="43.68744271636556" lon="11.143798478520711"><ele>104.0</ele><time>2026-03-29T08:24:13Z</time></trkpt><trkpt lat="43.68745654532327" lon="11.14396527641902"><ele>104.0</ele><time>2026-03-29T08:24:15Z</time></trkpt><trkpt lat="43.6874843786201" lon="11.14413117935454"><ele>104.0</ele><time>2026-03-29T08:24:17Z</time></trkpt><trkpt lat="43.68752389785701" lon="11.144290665793083"><ele>104.0</ele><time>2026-03-29T08:24:19Z</time></trkpt><trkpt lat="43.68755150841285" lon="11.144369996137208"><ele>104.0</ele><time>2026-03-29T08:24:20Z</time></trkpt><trkpt lat="43.687612232513196" lon="11.144520945804793"><ele>104.0</ele><time>2026-03-29T08:24:22Z</time></trkpt><trkpt lat="43.687685939667546" lon="11.144654994643847"><ele>104.0</ele><time>2026-03-29T08:24:24Z</time></trkpt><trkpt lat="43.68777253606758" lon="11.144778339242144"><ele>104.0</ele><time>2026-03-29T08:24:26Z</time></trkpt><trkpt lat="43.68780966285572" lon="11.144849495969122"><ele>106.75</ele><time>2026-03-29T08:24:27Z</time></trkpt><trkpt lat="43.68786769250041" lon="11.14500192683052"><ele>109.5</ele><time>2026-03-29T08:24:29Z</time></trkpt><trkpt lat="43.687908385226436" lon="11.145158553030676"><ele>112.25</ele><time>2026-03-29T08:24:31Z</time></trkpt><trkpt lat="43.68793446027753" lon="11.145322917336856"><ele>115.0</ele><time>2026-03-29T08:24:33Z</time></trkpt><trkpt lat="43.68793776155528" lon="11.145486455010781"><ele>115.0</ele><time>2026-03-29T08:24:35Z</time></trkpt><trkpt lat="43.687919754761026" lon="11.1456439538217"><ele>115.0</ele><time>2026-03-29T08:24:37Z</time></trkpt><trkpt lat="43.68788612268627" lon="11.145795084089317"><ele>115.0</ele><time>2026-03-29T08:24:39Z</time></trkpt><trkpt lat="43.68784185343897" lon="11.145935583156598"><ele>115.0</ele><time>2026-03-29T08:24:41Z</time></trkpt><trkpt lat="43.68779194375108" lon="11.146074575743308"><ele>113.4</ele><time>2026-03-29T08:24:43Z</time></trkpt><trkpt lat="43.687738835533885" lon="11.146217084840584"><ele>111.8</ele><time>2026-03-29T08:24:45Z</time></trkpt><trkpt lat="43.68769091088453" lon="11.146357148091203"><ele>110.19999999999999</ele><time>2026-03-29T08:24:47Z</time></trkpt><trkpt lat="43.68765854475711" lon="11.146433414860233"><ele>108.6</ele><time>2026-03-29T08:24:48Z</time></trkpt><trkpt lat="43.68760821711757" lon="11.146572089745169"><ele>107.0</ele><time>2026-03-29T08:24:50Z</time></trkpt><trkpt lat="43.68755895053595" lon="11.14670791850072"><ele>107.0</ele><time>2026-03-29T08:24:52Z</time></trkpt><trkpt lat="43.687504394897324" lon="11.146842537998506"><ele>106.99999999999999</ele><time>2026-03-29T08:24:54Z</time></trkpt><trkpt lat="43.68745724571305" lon="11.146987924595365"><ele>106.99999999999999</ele><time>2026-03-29T08:24:56Z</time></trkpt><trkpt lat="43.687422776199554" lon="11.147129979045957"><ele>107.0</ele><time>2026-03-29T08:24:58Z</time></trkpt><trkpt lat="43.687403681175475" lon="11.147284994689164"><ele>107.0</ele><time>2026-03-29T08:25:00Z</time></trkpt><trkpt lat="43.68739530098436" lon="11.147441246633193"><ele>108.25</ele><time>2026-03-29T08:25:02Z</time></trkpt><trkpt lat="43.68740631553323" lon="11.147599798128102"><ele>109.5</ele><time>2026-03-29T08:25:04Z</time></trkpt><trkpt lat="43.68744424285466" lon="11.14775290516554"><ele>110.75</ele><time>2026-03-29T08:25:06Z</time></trkpt><trkpt lat="43.68749831387046" lon="11.147899581687298"><ele>112.0</ele><time>2026-03-29T08:25:08Z</time></trkpt><trkpt lat="43.68756265457079" lon="11.148043395681492"><ele>112.0</ele><time>2026-03-29T08:25:10Z</time></trkpt><trkpt lat="43.687624458724144" lon="11.148188847371436"><ele>111.99999999999999</ele><time>2026-03-29T08:25:12Z</time></trkpt><trkpt lat="43.68766727497522" lon="11.148331554831788"><ele>111.99999999999999</ele><time>2026-03-29T08:25:14Z</time></trkpt><trkpt lat="43.68769518066369" lon="11.148410183122735"><ele>112.0</ele><time>2026-03-29T08:25:15Z</time></trkpt><trkpt lat="43.68773341873533" lon="11.14855471785039"><ele>112.0</ele><time>2026-03-29T08:25:17Z</time></trkpt><trkpt lat="43.68775375126643" lon="11.148715928250763"><ele>112.00000000000001</ele><time>2026-03-29T08:25:19Z</time></trkpt><trkpt lat="43.6877677834294" lon="11.148868906525331"><ele>112.0</ele><time>2026-03-29T08:25:21Z</time></trkpt><trkpt lat="43.68775983150447" lon="11.14902106865406"><ele>112.0</ele><time>2026-03-29T08:25:23Z</time></trkpt><trkpt lat="43.68776868572159" lon="11.149112639856021"><ele>112.0</ele><time>2026-03-29T08:25:24Z</time></trkpt><trkpt lat="43.687759489355955" lon="11.149244937839075"><ele>112.00000000000001</ele><time>2026-03-29T08:25:26Z</time></trkpt><trkpt lat="43.6877493787467" lon="11.149332354164384"><ele>112.0</ele><time>2026-03-29T08:25:27Z</time></trkpt><trkpt lat="43.6877355348903" lon="11.14948242933603"><ele>112.0</ele><time>2026-03-29T08:25:29Z</time></trkpt><trkpt lat="43.68772432049968" lon="11.149638532079777"><ele>111.99999999999999</ele><time>2026-03-29T08:25:31Z</time></trkpt><trkpt lat="43.68771000885419" lon="11.149794751976785"><ele>111.99999999999999</ele><time>2026-03-29T08:25:33Z</time></trkpt><trkpt lat="43.68769726395151" lon="11.14993860323206"><ele>112.0</ele><time>2026-03-29T08:25:35Z</time></trkpt><trkpt lat="43.68768746211236" lon="11.150088066799915"><ele>112.0</ele><time>2026-03-29T08:25:37Z</time></trkpt><trkpt lat="43.68767692585497" lon="11.150232330429304"><ele>111.8</ele><time>2026-03-29T08:25:39Z</time></trkpt><trkpt lat="43.687664604023084" lon="11.150373265907792"><ele>111.6</ele><time>2026-03-29T08:25:41Z</time></trkpt><trkpt lat="43.68765512910816" lon="11.150517672190073"><ele>111.39999999999999</ele><time>2026-03-29T08:25:43Z</time></trkpt><trkpt lat="43.6876472974449" lon="11.150663811025376"><ele>111.19999999999999</ele><time>2026-03-29T08:25:45Z</time></trkpt><trkpt lat="43.6876425506045" lon="11.150806869297023"><ele>111.0</ele><time>2026-03-29T08:25:47Z</time></trkpt><trkpt lat="43.68764065766122" lon="11.150944599468641"><ele>111.0</ele><time>2026-03-29T08:25:49Z</time></trkpt><trkpt lat="43.687640905745134" lon="11.15109095429902"><ele>111.0</ele><time>2026-03-29T08:25:51Z</time></trkpt><trkpt lat="43.68764958978797" lon="11.151223768432127"><ele>111.0</ele><time>2026-03-29T08:25:53Z</time></trkpt><trkpt lat="43.68767403466634" lon="11.151354618480221"><ele>111.0</ele><time>2026-03-29T08:25:55Z</time></trkpt><trkpt lat="43.687699143860016" lon="11.151497799046833"><ele>111.0</ele><time>2026-03-29T08:25:57Z</time></trkpt><trkpt lat="43.68771699470516" lon="11.15163862168735"><ele>111.6</ele><time>2026-03-29T08:25:59Z</time></trkpt><trkpt lat="43.687739956483895" lon="11.151796196884733"><ele>112.19999999999999</ele><time>2026-03-29T08:26:01Z</time></trkpt><trkpt lat="43.68776302701802" lon="11.151915353402163"><ele>112.80000000000001</ele><time>2026-03-29T08:26:03Z</time></trkpt><trkpt lat="43.68778113295755" lon="11.15206052959988"><ele>113.4</ele><time>2026-03-29T08:26:05Z</time></trkpt><trkpt lat="43.68779857455136" lon="11.152195826495138"><ele>114.0</ele><time>2026-03-29T08:26:07Z</time></trkpt><trkpt lat="43.687823371536204" lon="11.152334981603689"><ele>115.2</ele><time>2026-03-29T08:26:09Z</time></trkpt><trkpt lat="43.687847283980176" lon="11.152470610592168"><ele>116.4</ele><time>2026-03-29T08:26:11Z</time></trkpt><trkpt lat="43.68787952422692" lon="11.152601017668614"><ele>117.6</ele><time>2026-03-29T08:26:13Z</time></trkpt><trkpt lat="43.687918032401875" lon="11.152731931130422"><ele>118.8</ele><time>2026-03-29T08:26:15Z</time></trkpt><trkpt lat="43.687960947267975" lon="11.15285567881536"><ele>120.0</ele><time>2026-03-29T08:26:17Z</time></trkpt><trkpt lat="43.68801577782941" lon="11.152982494680227"><ele>120.0</ele><time>2026-03-29T08:26:19Z</time></trkpt><trkpt lat="43.688064813129294" lon="11.153107653448808"><ele>120.0</ele><time>2026-03-29T08:26:21Z</time></trkpt><trkpt lat="43.68811485020561" lon="11.153243834496969"><ele>120.0</ele><time>2026-03-29T08:26:23Z</time></trkpt><trkpt lat="43.68815875459416" lon="11.153382768025361"><ele>120.0</ele><time>2026-03-29T08:26:25Z</time></trkpt><trkpt lat="43.68819529148378" lon="11.153514263528093"><ele>120.0</ele><time>2026-03-29T08:26:27Z</time></trkpt><trkpt lat="43.688215433223576" lon="11.153653707962672"><ele>119.6</ele><time>2026-03-29T08:26:29Z</time></trkpt><trkpt lat="43.6882668197904" lon="11.15379223542782"><ele>119.2</ele><time>2026-03-29T08:26:31Z</time></trkpt><trkpt lat="43.68830524066444" lon="11.153926812284148"><ele>118.80000000000001</ele><time>2026-03-29T08:26:33Z</time></trkpt><trkpt lat="43.68834291566791" lon="11.15405239605266"><ele>118.4</ele><time>2026-03-29T08:26:35Z</time></trkpt><trkpt lat="43.688389441107546" lon="11.154180144538525"><ele>118.0</ele><time>2026-03-29T08:26:37Z</time></trkpt><trkpt lat="43.68845208844898" lon="11.154301780786872"><ele>117.80000000000001</ele><time>2026-03-29T08:26:39Z</time></trkpt><trkpt lat="43.688517440287086" lon="11.154416158459666"><ele>117.60000000000001</ele><time>2026-03-29T08:26:41Z</time></trkpt><trkpt lat="43.68858139584377" lon="11.154536031296528"><ele>117.39999999999999</ele><time>2026-03-29T08:26:43Z</time></trkpt><trkpt lat="43.68864585584238" lon="11.154643579470978"><ele>117.19999999999999</ele><time>2026-03-29T08:26:45Z</time></trkpt><trkpt lat="43.68871251813404" lon="11.15476129597049"><ele>117.0</ele><time>2026-03-29T08:26:47Z</time></trkpt><trkpt lat="43.68875277061256" lon="11.154886340764453"><ele>118.39999999999999</ele><time>2026-03-29T08:26:49Z</time></trkpt><trkpt lat="43.68876892883568" lon="11.15502418292249"><ele>119.79999999999998</ele><time>2026-03-29T08:26:51Z</time></trkpt><trkpt lat="43.68878844090475" lon="11.155177344134888"><ele>121.2</ele><time>2026-03-29T08:26:53Z</time></trkpt><trkpt lat="43.688726530542475" lon="11.15528608520002"><ele>122.6</ele><time>2026-03-29T08:26:55Z</time></trkpt><trkpt lat="43.68872453000352" lon="11.155373143301054"><ele>124.0</ele><time>2026-03-29T08:26:56Z</time></trkpt><trkpt lat="43.68869125237217" lon="11.155497931052103"><ele>124.0</ele><time>2026-03-29T08:26:58Z</time></trkpt><trkpt lat="43.6886608420335" lon="11.155623730285091"><ele>124.0</ele><time>2026-03-29T08:27:00Z</time></trkpt><trkpt lat="43.6886331395174" lon="11.155755270575964"><ele>124.0</ele><time>2026-03-29T08:27:02Z</time></trkpt><trkpt lat="43.68861883531311" lon="11.155882093427058"><ele>124.0</ele><time>2026-03-29T08:27:04Z</time></trkpt><trkpt lat="43.688615437219674" lon="11.156008238656016"><ele>124.0</ele><time>2026-03-29T08:27:06Z</time></trkpt><trkpt lat="43.688659420498645" lon="11.156127408419124"><ele>124.2</ele><time>2026-03-29T08:27:08Z</time></trkpt><trkpt lat="43.6887189256129" lon="11.156239277295501"><ele>124.4</ele><time>2026-03-29T08:27:10Z</time></trkpt><trkpt lat="43.688777984915156" lon="11.156349154657727"><ele>124.6</ele><time>2026-03-29T08:27:12Z</time></trkpt><trkpt lat="43.68884081626379" lon="11.156466265161207"><ele>124.8</ele><time>2026-03-29T08:27:14Z</time></trkpt><trkpt lat="43.68890179000777" lon="11.156588346397868"><ele>125.0</ele><time>2026-03-29T08:27:16Z</time></trkpt><trkpt lat="43.68894792330285" lon="11.156712956269043"><ele>125.0</ele><time>2026-03-29T08:27:18Z</time></trkpt><trkpt lat="43.68898505254231" lon="11.156851680341676"><ele>125.0</ele><time>2026-03-29T08:27:20Z</time></trkpt><trkpt lat="43.68897697759188" lon="11.156988874399678"><ele>125.0</ele><time>2026-03-29T08:27:22Z</time></trkpt><trkpt lat="43.6889660292736" lon="11.157133252257033"><ele>125.0</ele><time>2026-03-29T08:27:24Z</time></trkpt><trkpt lat="43.688955491858344" lon="11.157268757393684"><ele>125.0</ele><time>2026-03-29T08:27:26Z</time></trkpt><trkpt lat="43.688955743850336" lon="11.157409106491933"><ele>125.2</ele><time>2026-03-29T08:27:28Z</time></trkpt><trkpt lat="43.688952442146736" lon="11.157539269868074"><ele>125.4</ele><time>2026-03-29T08:27:30Z</time></trkpt><trkpt lat="43.68896199778094" lon="11.157664360912435"><ele>125.6</ele><time>2026-03-29T08:27:32Z</time></trkpt><trkpt lat="43.68898943529283" lon="11.157784197208985"><ele>125.8</ele><time>2026-03-29T08:27:34Z</time></trkpt><trkpt lat="43.68903109442811" lon="11.157904102817778"><ele>126.0</ele><time>2026-03-29T08:27:36Z</time></trkpt><trkpt lat="43.689081306052394" lon="11.158015583999106"><ele>126.0</ele><time>2026-03-29T08:27:38Z</time></trkpt><trkpt lat="43.68915311592404" lon="11.15812039807646"><ele>126.0</ele><time>2026-03-29T08:27:40Z</time></trkpt><trkpt lat="43.68922543208673" lon="11.158211605573431"><ele>126.0</ele><time>2026-03-29T08:27:42Z</time></trkpt><trkpt lat="43.68930437600767" lon="11.15829794075926"><ele>126.0</ele><time>2026-03-29T08:27:44Z</time></trkpt><trkpt lat="43.68937705251442" lon="11.158390653583398"><ele>126.0</ele><time>2026-03-29T08:27:46Z</time></trkpt><trkpt lat="43.68942727228762" lon="11.158499360399547"><ele>126.0</ele><time>2026-03-29T08:27:48Z</time></trkpt><trkpt lat="43.689468066690615" lon="11.158635474000343"><ele>126.0</ele><time>2026-03-29T08:27:50Z</time></trkpt><trkpt lat="43.689484393213576" lon="11.158771753544555"><ele>126.0</ele><time>2026-03-29T08:27:52Z</time></trkpt><trkpt lat="43.68948250968017" lon="11.15891298050868"><ele>126.0</ele><time>2026-03-29T08:27:54Z</time></trkpt><trkpt lat="43.68947766371582" lon="11.159053264617569"><ele>126.0</ele><time>2026-03-29T08:27:56Z</time></trkpt><trkpt lat="43.68947762875571" lon="11.159198845280715"><ele>126.0</ele><time>2026-03-29T08:27:58Z</time></trkpt><trkpt lat="43.689486940809076" lon="11.159340500346401"><ele>126.0</ele><time>2026-03-29T08:28:00Z</time></trkpt><trkpt lat="43.68947575396453" lon="11.159484463314103"><ele>126.0</ele><time>2026-03-29T08:28:02Z</time></trkpt><trkpt lat="43.68946251031083" lon="11.159622135752327"><ele>126.0</ele><time>2026-03-29T08:28:04Z</time></trkpt><trkpt lat="43.68946777167495" lon="11.159767718395683"><ele>126.0</ele><time>2026-03-29T08:28:06Z</time></trkpt><trkpt lat="43.6894663211552" lon="11.15990345034236"><ele>125.6</ele><time>2026-03-29T08:28:08Z</time></trkpt><trkpt lat="43.68948841634638" lon="11.160031342649326"><ele>125.19999999999999</ele><time>2026-03-29T08:28:10Z</time></trkpt><trkpt lat="43.68950286363937" lon="11.160172061201804"><ele>124.80000000000001</ele><time>2026-03-29T08:28:12Z</time></trkpt><trkpt lat="43.689519242017596" lon="11.160307494994536"><ele>124.4</ele><time>2026-03-29T08:28:14Z</time></trkpt><trkpt lat="43.68953346287121" lon="11.160447196091894"><ele>124.0</ele><time>2026-03-29T08:28:16Z</time></trkpt><trkpt lat="43.68955609636029" lon="11.160582412941704"><ele>124.2</ele><time>2026-03-29T08:28:18Z</time></trkpt><trkpt lat="43.68957233518404" lon="11.160720467854825"><ele>124.4</ele><time>2026-03-29T08:28:20Z</time></trkpt><trkpt lat="43.689586424278154" lon="11.160860767968341"><ele>124.6</ele><time>2026-03-29T08:28:22Z</time></trkpt><trkpt lat="43.68960372559833" lon="11.161004389122644"><ele>124.8</ele><time>2026-03-29T08:28:24Z</time></trkpt><trkpt lat="43.689625851441" lon="11.161139259320194"><ele>125.0</ele><time>2026-03-29T08:28:26Z</time></trkpt><trkpt lat="43.68964762394947" lon="11.16127638598617"><ele>125.0</ele><time>2026-03-29T08:28:28Z</time></trkpt><trkpt lat="43.68965949634961" lon="11.161418533884298"><ele>125.0</ele><time>2026-03-29T08:28:30Z</time></trkpt><trkpt lat="43.68967789854805" lon="11.161548249177125"><ele>125.0</ele><time>2026-03-29T08:28:32Z</time></trkpt><trkpt lat="43.68970573203272" lon="11.161682685024465"><ele>125.0</ele><time>2026-03-29T08:28:34Z</time></trkpt><trkpt lat="43.689738783469444" lon="11.161814307566623"><ele>125.0</ele><time>2026-03-29T08:28:36Z</time></trkpt><trkpt lat="43.689776402101714" lon="11.161937273936468"><ele>125.2</ele><time>2026-03-29T08:28:38Z</time></trkpt><trkpt lat="43.68982143955069" lon="11.162060493983555"><ele>125.4</ele><time>2026-03-29T08:28:40Z</time></trkpt><trkpt lat="43.68987537280581" lon="11.162174813906214"><ele>125.6</ele><time>2026-03-29T08:28:42Z</time></trkpt><trkpt lat="43.68992850818317" lon="11.16229483153205"><ele>125.8</ele><time>2026-03-29T08:28:44Z</time></trkpt><trkpt lat="43.68997903730368" lon="11.162416094487705"><ele>126.0</ele><time>2026-03-29T08:28:46Z</time></trkpt><trkpt lat="43.69003986141276" lon="11.162536308145594"><ele>126.4</ele><time>2026-03-29T08:28:48Z</time></trkpt><trkpt lat="43.69009736360983" lon="11.162659337019242"><ele>126.8</ele><time>2026-03-29T08:28:50Z</time></trkpt><trkpt lat="43.690155374156944" lon="11.162779071452482"><ele>127.20000000000002</ele><time>2026-03-29T08:28:52Z</time></trkpt><trkpt lat="43.69020781623531" lon="11.162903243256645"><ele>127.60000000000001</ele><time>2026-03-29T08:28:54Z</time></trkpt><trkpt lat="43.69028435130381" lon="11.163025713697355"><ele>128.0</ele><time>2026-03-29T08:28:56Z</time></trkpt><trkpt lat="43.69035357727622" lon="11.163146175438639"><ele>128.20000000000002</ele><time>2026-03-29T08:28:58Z</time></trkpt><trkpt lat="43.690430316899395" lon="11.163264520048372"><ele>128.4</ele><time>2026-03-29T08:29:00Z</time></trkpt><trkpt lat="43.69051137158611" lon="11.163378246064708"><ele>128.60000000000002</ele><time>2026-03-29T08:29:02Z</time></trkpt><trkpt lat="43.690586864155364" lon="11.16350269857087"><ele>128.8</ele><time>2026-03-29T08:29:04Z</time></trkpt><trkpt lat="43.690646325145444" lon="11.163616451667075"><ele>129.0</ele><time>2026-03-29T08:29:06Z</time></trkpt><trkpt lat="43.69070408810747" lon="11.163712890525527"><ele>129.0</ele><time>2026-03-29T08:29:08Z</time></trkpt><trkpt lat="43.690773123997886" lon="11.163817146521904"><ele>129.0</ele><time>2026-03-29T08:29:10Z</time></trkpt><trkpt lat="43.69082774591098" lon="11.163929527338656"><ele>129.0</ele><time>2026-03-29T08:29:12Z</time></trkpt><trkpt lat="43.69089683411167" lon="11.16404412708196"><ele>129.0</ele><time>2026-03-29T08:29:14Z</time></trkpt><trkpt lat="43.690956470532335" lon="11.164169618520397"><ele>129.0</ele><time>2026-03-29T08:29:16Z</time></trkpt><trkpt lat="43.69102226303948" lon="11.164271373847354"><ele>130.0</ele><time>2026-03-29T08:29:18Z</time></trkpt><trkpt lat="43.69109530584946" lon="11.164385985263205"><ele>131.0</ele><time>2026-03-29T08:29:20Z</time></trkpt><trkpt lat="43.69116378930887" lon="11.16450090317719"><ele>132.0</ele><time>2026-03-29T08:29:22Z</time></trkpt><trkpt lat="43.69124077652446" lon="11.164614812562782"><ele>133.0</ele><time>2026-03-29T08:29:24Z</time></trkpt><trkpt lat="43.69130997033291" lon="11.16472966666225"><ele>134.0</ele><time>2026-03-29T08:29:26Z</time></trkpt><trkpt lat="43.69137923908082" lon="11.164835941921691"><ele>134.2</ele><time>2026-03-29T08:29:28Z</time></trkpt><trkpt lat="43.69144214113936" lon="11.164932910686854"><ele>134.4</ele><time>2026-03-29T08:29:30Z</time></trkpt><trkpt lat="43.69150579741231" lon="11.165036301843928"><ele>134.6</ele><time>2026-03-29T08:29:32Z</time></trkpt><trkpt lat="43.691576738434755" lon="11.165154327247151"><ele>134.8</ele><time>2026-03-29T08:29:34Z</time></trkpt><trkpt lat="43.691645795202945" lon="11.165270133562943"><ele>135.0</ele><time>2026-03-29T08:29:36Z</time></trkpt><trkpt lat="43.69171305144628" lon="11.165376354341792"><ele>135.0</ele><time>2026-03-29T08:29:38Z</time></trkpt><trkpt lat="43.6917672807602" lon="11.165475634608002"><ele>135.0</ele><time>2026-03-29T08:29:40Z</time></trkpt><trkpt lat="43.691811865690035" lon="11.165582142171688"><ele>135.0</ele><time>2026-03-29T08:29:42Z</time></trkpt><trkpt lat="43.69185159737957" lon="11.165688255094713"><ele>135.0</ele><time>2026-03-29T08:29:44Z</time></trkpt><trkpt lat="43.69188114034509" lon="11.165807495145563"><ele>135.0</ele><time>2026-03-29T08:29:46Z</time></trkpt><trkpt lat="43.69190608961145" lon="11.165916886439659"><ele>135.0</ele><time>2026-03-29T08:29:48Z</time></trkpt><trkpt lat="43.691931060767885" lon="11.166017118469735"><ele>136.33333333333334</ele><time>2026-03-29T08:29:50Z</time></trkpt><trkpt lat="43.691953849295906" lon="11.166109553043293"><ele>137.66666666666666</ele><time>2026-03-29T08:29:52Z</time></trkpt><trkpt lat="43.691983052962236" lon="11.166204109027388"><ele>139.0</ele><time>2026-03-29T08:29:54Z</time></trkpt><trkpt lat="43.692016311632806" lon="11.166297478603907"><ele>140.33333333333331</ele><time>2026-03-29T08:29:56Z</time></trkpt><trkpt lat="43.692059704894326" lon="11.1663879702311"><ele>141.66666666666666</ele><time>2026-03-29T08:29:58Z</time></trkpt><trkpt lat="43.69209873747394" lon="11.166487963124435"><ele>143.0</ele><time>2026-03-29T08:30:00Z</time></trkpt><trkpt lat="43.69214487542571" lon="11.166570999175798"><ele>143.0</ele><time>2026-03-29T08:30:02Z</time></trkpt><trkpt lat="43.69218700118614" lon="11.16666296899047"><ele>143.0</ele><time>2026-03-29T08:30:04Z</time></trkpt><trkpt lat="43.69223284976742" lon="11.166745145984988"><ele>143.0</ele><time>2026-03-29T08:30:06Z</time></trkpt><trkpt lat="43.692285922737604" lon="11.166824659342723"><ele>143.0</ele><time>2026-03-29T08:30:08Z</time></trkpt><trkpt lat="43.69234074016703" lon="11.16689518791263"><ele>143.0</ele><time>2026-03-29T08:30:10Z</time></trkpt><trkpt lat="43.692403100166075" lon="11.166969332364157"><ele>143.0</ele><time>2026-03-29T08:30:12Z</time></trkpt><trkpt lat="43.69246457272927" lon="11.167026517020755"><ele>143.0</ele><time>2026-03-29T08:30:14Z</time></trkpt><trkpt lat="43.69253190759036" lon="11.167091769352114"><ele>143.0</ele><time>2026-03-29T08:30:16Z</time></trkpt><trkpt lat="43.69259827833185" lon="11.167146357697987"><ele>143.0</ele><time>2026-03-29T08:30:18Z</time></trkpt><trkpt lat="43.69266300394706" lon="11.167201887334155"><ele>143.0</ele><time>2026-03-29T08:30:20Z</time></trkpt><trkpt lat="43.69272658516138" lon="11.167253085172252"><ele>143.0</ele><time>2026-03-29T08:30:22Z</time></trkpt><trkpt lat="43.6927936025372" lon="11.167303084388779"><ele>143.0</ele><time>2026-03-29T08:30:24Z</time></trkpt><trkpt lat="43.69286642907526" lon="11.167356250689986"><ele>144.16666666666666</ele><time>2026-03-29T08:30:26Z</time></trkpt><trkpt lat="43.69293648464686" lon="11.167413147192148"><ele>145.33333333333331</ele><time>2026-03-29T08:30:28Z</time></trkpt><trkpt lat="43.69300952096917" lon="11.167461217447615"><ele>146.5</ele><time>2026-03-29T08:30:30Z</time></trkpt><trkpt lat="43.693082609476754" lon="11.1675177465148"><ele>147.66666666666666</ele><time>2026-03-29T08:30:32Z</time></trkpt><trkpt lat="43.6931565140916" lon="11.16756885920735"><ele>148.83333333333334</ele><time>2026-03-29T08:30:34Z</time></trkpt><trkpt lat="43.6932286745053" lon="11.167628603399304"><ele>150.0</ele><time>2026-03-29T08:30:36Z</time></trkpt><trkpt lat="43.693299372838965" lon="11.167689369020591"><ele>150.0</ele><time>2026-03-29T08:30:38Z</time></trkpt><trkpt lat="43.69337276061979" lon="11.167745402999293"><ele>150.0</ele><time>2026-03-29T08:30:40Z</time></trkpt><trkpt lat="43.69344742369443" lon="11.167789916435021"><ele>150.0</ele><time>2026-03-29T08:30:42Z</time></trkpt><trkpt lat="43.693525577951384" lon="11.167821595977312"><ele>150.0</ele><time>2026-03-29T08:30:44Z</time></trkpt><trkpt lat="43.69361178632175" lon="11.167828789308642"><ele>150.0</ele><time>2026-03-29T08:30:46Z</time></trkpt><trkpt lat="43.69369810079504" lon="11.167822570323597"><ele>150.0</ele><time>2026-03-29T08:30:48Z</time></trkpt><trkpt lat="43.69377950109955" lon="11.167792082082132"><ele>151.0</ele><time>2026-03-29T08:30:50Z</time></trkpt><trkpt lat="43.69385798314648" lon="11.167762859585784"><ele>152.0</ele><time>2026-03-29T08:30:52Z</time></trkpt><trkpt lat="43.69393306520685" lon="11.167727386758264"><ele>153.0</ele><time>2026-03-29T08:30:54Z</time></trkpt><trkpt lat="43.694009931455334" lon="11.167699182567963"><ele>154.0</ele><time>2026-03-29T08:30:56Z</time></trkpt><trkpt lat="43.69409265334272" lon="11.16766786180771"><ele>155.0</ele><time>2026-03-29T08:30:58Z</time></trkpt><trkpt lat="43.694177188162165" lon="11.167648889382217"><ele>156.0</ele><time>2026-03-29T08:31:00Z</time></trkpt><trkpt lat="43.69426613174899" lon="11.167665423140493"><ele>156.0</ele><time>2026-03-29T08:31:02Z</time></trkpt><trkpt lat="43.69433403415978" lon="11.167720218702366"><ele>156.0</ele><time>2026-03-29T08:31:04Z</time></trkpt><trkpt lat="43.69438049477913" lon="11.167797479384921"><ele>156.0</ele><time>2026-03-29T08:31:06Z</time></trkpt><trkpt lat="43.694410312810454" lon="11.167893287895998"><ele>156.0</ele><time>2026-03-29T08:31:08Z</time></trkpt><trkpt lat="43.6944196012921" lon="11.167997323529638"><ele>156.0</ele><time>2026-03-29T08:31:10Z</time></trkpt><trkpt lat="43.694416132184976" lon="11.168100276596673"><ele>156.0</ele><time>2026-03-29T08:31:12Z</time></trkpt><trkpt lat="43.694400343916264" lon="11.168200263146307"><ele>155.5</ele><time>2026-03-29T08:31:14Z</time></trkpt><trkpt lat="43.69438186910728" lon="11.168300841045857"><ele>155.0</ele><time>2026-03-29T08:31:16Z</time></trkpt><trkpt lat="43.69436361188588" lon="11.16840031119585"><ele>154.5</ele><time>2026-03-29T08:31:18Z</time></trkpt><trkpt lat="43.69434681617524" lon="11.168501636880436"><ele>154.0</ele><time>2026-03-29T08:31:20Z</time></trkpt><trkpt lat="43.69432988837308" lon="11.168604081675191"><ele>153.5</ele><time>2026-03-29T08:31:22Z</time></trkpt><trkpt lat="43.69431122635794" lon="11.168706023005464"><ele>153.0</ele><time>2026-03-29T08:31:24Z</time></trkpt><trkpt lat="43.694295661679114" lon="11.168809679535322"><ele>153.0</ele><time>2026-03-29T08:31:26Z</time></trkpt><trkpt lat="43.69427714192604" lon="11.168910004240029"><ele>153.0</ele><time>2026-03-29T08:31:28Z</time></trkpt><trkpt lat="43.6942713838421" lon="11.169011641520637"><ele>153.0</ele><time>2026-03-29T08:31:30Z</time></trkpt><trkpt lat="43.694264791222906" lon="11.1691144367465"><ele>153.0</ele><time>2026-03-29T08:31:32Z</time></trkpt><trkpt lat="43.69426322474681" lon="11.169207045653431"><ele>153.0</ele><time>2026-03-29T08:31:34Z</time></trkpt><trkpt lat="43.69426788631932" lon="11.16930322900446"><ele>153.0</ele><time>2026-03-29T08:31:36Z</time></trkpt><trkpt lat="43.6942755044595" lon="11.169394319775789"><ele>153.0</ele><time>2026-03-29T08:31:38Z</time></trkpt><trkpt lat="43.69428916159236" lon="11.169483442688842"><ele>153.57142857142856</ele><time>2026-03-29T08:31:40Z</time></trkpt><trkpt lat="43.69431701705116" lon="11.169571399481992"><ele>154.14285714285714</ele><time>2026-03-29T08:31:42Z</time></trkpt><trkpt lat="43.69434811159033" lon="11.169659502954381"><ele>154.71428571428572</ele><time>2026-03-29T08:31:44Z</time></trkpt><trkpt lat="43.69438297235004" lon="11.169742701552662"><ele>155.28571428571428</ele><time>2026-03-29T08:31:46Z</time></trkpt><trkpt lat="43.69441865517102" lon="11.169820213007307"><ele>155.85714285714286</ele><time>2026-03-29T08:31:48Z</time></trkpt><trkpt lat="43.69447082105987" lon="11.169922475352148"><ele>156.42857142857142</ele><time>2026-03-29T08:31:51Z</time></trkpt><trkpt lat="43.69450958266646" lon="11.170000301986505"><ele>157.0</ele><time>2026-03-29T08:31:53Z</time></trkpt><trkpt lat="43.694547144468416" lon="11.170077601022415"><ele>160.16666666666669</ele><time>2026-03-29T08:31:55Z</time></trkpt><trkpt lat="43.6945800792943" lon="11.170159753015826"><ele>163.33333333333334</ele><time>2026-03-29T08:31:57Z</time></trkpt><trkpt lat="43.694628886997414" lon="11.170266291260958"><ele>166.5</ele><time>2026-03-29T08:32:00Z</time></trkpt><trkpt lat="43.6946804235653" lon="11.170371270467768"><ele>169.66666666666666</ele><time>2026-03-29T08:32:03Z</time></trkpt><trkpt lat="43.6947193739866" lon="11.170453602826178"><ele>172.83333333333331</ele><time>2026-03-29T08:32:05Z</time></trkpt><trkpt lat="43.69475200047158" lon="11.170538205742076"><ele>176.0</ele><time>2026-03-29T08:32:07Z</time></trkpt><trkpt lat="43.69476416951313" lon="11.170643809706707"><ele>175.83333333333331</ele><time>2026-03-29T08:32:09Z</time></trkpt><trkpt lat="43.69474781796725" lon="11.170768485023386"><ele>175.66666666666666</ele><time>2026-03-29T08:32:11Z</time></trkpt><trkpt lat="43.69469949183165" lon="11.170827553457153"><ele>175.5</ele><time>2026-03-29T08:32:13Z</time></trkpt><trkpt lat="43.69472489928782" lon="11.170913900025566"><ele>175.33333333333334</ele><time>2026-03-29T08:32:16Z</time></trkpt><trkpt lat="43.69470944840044" lon="11.17101992385175"><ele>175.16666666666669</ele><time>2026-03-29T08:32:17Z</time></trkpt><trkpt lat="43.69478084618658" lon="11.171086469778764"><ele>175.0</ele><time>2026-03-29T08:32:19Z</time></trkpt><trkpt lat="43.694851808389274" lon="11.171152608394666"><ele>175.0</ele><time>2026-03-29T08:32:21Z</time></trkpt><trkpt lat="43.69487534270459" lon="11.171306769377704"><ele>175.0</ele><time>2026-03-29T08:32:23Z</time></trkpt><trkpt lat="43.69491728579844" lon="11.171389318148664"><ele>175.0</ele><time>2026-03-29T08:32:25Z</time></trkpt><trkpt lat="43.69495768979042" lon="11.171474363589773"><ele>175.0</ele><time>2026-03-29T08:32:27Z</time></trkpt><trkpt lat="43.69501117848097" lon="11.171548320871779"><ele>175.0</ele><time>2026-03-29T08:32:29Z</time></trkpt><trkpt lat="43.69506261941514" lon="11.171624723612247"><ele>175.0</ele><time>2026-03-29T08:32:31Z</time></trkpt><trkpt lat="43.69512207723535" lon="11.171690358735367"><ele>176.0</ele><time>2026-03-29T08:32:33Z</time></trkpt><trkpt lat="43.69518587527928" lon="11.171745613144967"><ele>177.0</ele><time>2026-03-29T08:32:35Z</time></trkpt><trkpt lat="43.6952478251334" lon="11.171805570253566"><ele>178.0</ele><time>2026-03-29T08:32:37Z</time></trkpt><trkpt lat="43.69531785631857" lon="11.171852526680372"><ele>179.0</ele><time>2026-03-29T08:32:39Z</time></trkpt><trkpt lat="43.69539279394835" lon="11.17189810721571"><ele>180.0</ele><time>2026-03-29T08:32:41Z</time></trkpt><trkpt lat="43.695462710587925" lon="11.171941089921365"><ele>181.0</ele><time>2026-03-29T08:32:43Z</time></trkpt><trkpt lat="43.69552986295914" lon="11.171987834365789"><ele>181.33333333333334</ele><time>2026-03-29T08:32:45Z</time></trkpt><trkpt lat="43.695597324965654" lon="11.172030998522343"><ele>181.66666666666669</ele><time>2026-03-29T08:32:47Z</time></trkpt><trkpt lat="43.695669280188426" lon="11.172084986867803"><ele>182.0</ele><time>2026-03-29T08:32:49Z</time></trkpt><trkpt lat="43.69574270396976" lon="11.17213191645225"><ele>182.33333333333334</ele><time>2026-03-29T08:32:51Z</time></trkpt><trkpt lat="43.69581666021118" lon="11.172173721420217"><ele>182.66666666666666</ele><time>2026-03-29T08:32:53Z</time></trkpt><trkpt lat="43.695895792815065" lon="11.172226776060695"><ele>183.0</ele><time>2026-03-29T08:32:55Z</time></trkpt><trkpt lat="43.69596887933376" lon="11.172288332891712"><ele>182.8</ele><time>2026-03-29T08:32:57Z</time></trkpt><trkpt lat="43.69604811830801" lon="11.172366126493365"><ele>182.60000000000002</ele><time>2026-03-29T08:32:59Z</time></trkpt><trkpt lat="43.69612283936415" lon="11.172440269692565"><ele>182.39999999999998</ele><time>2026-03-29T08:33:01Z</time></trkpt><trkpt lat="43.696203468764" lon="11.172518676219841"><ele>182.2</ele><time>2026-03-29T08:33:03Z</time></trkpt><trkpt lat="43.696291063669115" lon="11.172618580232648"><ele>182.0</ele><time>2026-03-29T08:33:05Z</time></trkpt><trkpt lat="43.69635414013157" lon="11.172736312086371"><ele>182.0</ele><time>2026-03-29T08:33:07Z</time></trkpt><trkpt lat="43.6964127204017" lon="11.172852739154301"><ele>182.0</ele><time>2026-03-29T08:33:09Z</time></trkpt><trkpt lat="43.696467321732264" lon="11.172972593121745"><ele>182.0</ele><time>2026-03-29T08:33:11Z</time></trkpt><trkpt lat="43.696530578152114" lon="11.1730917875734"><ele>182.0</ele><time>2026-03-29T08:33:13Z</time></trkpt><trkpt lat="43.69659690858207" lon="11.173211804386261"><ele>182.0</ele><time>2026-03-29T08:33:15Z</time></trkpt><trkpt lat="43.69666646835269" lon="11.173325697631117"><ele>182.0</ele><time>2026-03-29T08:33:17Z</time></trkpt><trkpt lat="43.696731218325546" lon="11.17343820398909"><ele>182.0</ele><time>2026-03-29T08:33:19Z</time></trkpt><trkpt lat="43.69679847767524" lon="11.17355236229902"><ele>182.0</ele><time>2026-03-29T08:33:21Z</time></trkpt><trkpt lat="43.696861061993665" lon="11.17366995575249"><ele>182.0</ele><time>2026-03-29T08:33:23Z</time></trkpt><trkpt lat="43.6969140068503" lon="11.173791832070904"><ele>182.0</ele><time>2026-03-29T08:33:25Z</time></trkpt><trkpt lat="43.69697918224367" lon="11.173899307983895"><ele>180.6</ele><time>2026-03-29T08:33:27Z</time></trkpt><trkpt lat="43.69704403906262" lon="11.174006867295583"><ele>179.2</ele><time>2026-03-29T08:33:29Z</time></trkpt><trkpt lat="43.697115609371004" lon="11.17411377974132"><ele>177.8</ele><time>2026-03-29T08:33:31Z</time></trkpt><trkpt lat="43.69718752325358" lon="11.174226171022"><ele>176.4</ele><time>2026-03-29T08:33:33Z</time></trkpt><trkpt lat="43.69726019212428" lon="11.174329992132407"><ele>175.0</ele><time>2026-03-29T08:33:35Z</time></trkpt><trkpt lat="43.69732996323216" lon="11.174436101761183"><ele>174.8</ele><time>2026-03-29T08:33:37Z</time></trkpt><trkpt lat="43.697396726415036" lon="11.174548739306827"><ele>174.6</ele><time>2026-03-29T08:33:39Z</time></trkpt><trkpt lat="43.697462945356925" lon="11.174669154169338"><ele>174.39999999999998</ele><time>2026-03-29T08:33:41Z</time></trkpt><trkpt lat="43.69751597505405" lon="11.174789973497942"><ele>174.2</ele><time>2026-03-29T08:33:43Z</time></trkpt><trkpt lat="43.697569434405246" lon="11.174913334274441"><ele>174.0</ele><time>2026-03-29T08:33:45Z</time></trkpt><trkpt lat="43.6976074251401" lon="11.1750345159462"><ele>175.0</ele><time>2026-03-29T08:33:47Z</time></trkpt><trkpt lat="43.69764770291877" lon="11.17515445077101"><ele>176.0</ele><time>2026-03-29T08:33:49Z</time></trkpt><trkpt lat="43.69768547508596" lon="11.175277078310629"><ele>177.0</ele><time>2026-03-29T08:33:51Z</time></trkpt><trkpt lat="43.697734489802" lon="11.175406412684108"><ele>178.0</ele><time>2026-03-29T08:33:53Z</time></trkpt><trkpt lat="43.69777969855439" lon="11.175530410810971"><ele>179.0</ele><time>2026-03-29T08:33:55Z</time></trkpt><trkpt lat="43.69783831342517" lon="11.175654976916336"><ele>178.79999999999998</ele><time>2026-03-29T08:33:57Z</time></trkpt><trkpt lat="43.697907990096674" lon="11.175767577848347"><ele>178.6</ele><time>2026-03-29T08:33:59Z</time></trkpt><trkpt lat="43.6979744995356" lon="11.17588815399067"><ele>178.4</ele><time>2026-03-29T08:34:01Z</time></trkpt><trkpt lat="43.698031940930676" lon="11.176004059614634"><ele>178.2</ele><time>2026-03-29T08:34:03Z</time></trkpt><trkpt lat="43.69809124616585" lon="11.176119928988747"><ele>178.0</ele><time>2026-03-29T08:34:05Z</time></trkpt><trkpt lat="43.69814761162626" lon="11.176236683942884"><ele>178.0</ele><time>2026-03-29T08:34:07Z</time></trkpt><trkpt lat="43.69819465398677" lon="11.176353415838935"><ele>178.0</ele><time>2026-03-29T08:34:09Z</time></trkpt><trkpt lat="43.69823341669616" lon="11.17646884763716"><ele>178.0</ele><time>2026-03-29T08:34:11Z</time></trkpt><trkpt lat="43.698270930406814" lon="11.17659597901524"><ele>178.0</ele><time>2026-03-29T08:34:13Z</time></trkpt><trkpt lat="43.6982971294423" lon="11.176723856889911"><ele>178.0</ele><time>2026-03-29T08:34:15Z</time></trkpt><trkpt lat="43.69831913592171" lon="11.17685676445508"><ele>179.0</ele><time>2026-03-29T08:34:17Z</time></trkpt><trkpt lat="43.69835028779755" lon="11.176990015918452"><ele>180.0</ele><time>2026-03-29T08:34:19Z</time></trkpt><trkpt lat="43.69837693856101" lon="11.17711431628381"><ele>181.0</ele><time>2026-03-29T08:34:21Z</time></trkpt><trkpt lat="43.69842250180705" lon="11.177226996931259"><ele>182.0</ele><time>2026-03-29T08:34:23Z</time></trkpt><trkpt lat="43.698499174699755" lon="11.177324915861991"><ele>183.0</ele><time>2026-03-29T08:34:25Z</time></trkpt><trkpt lat="43.6985768953925" lon="11.177406594091416"><ele>182.60000000000002</ele><time>2026-03-29T08:34:27Z</time></trkpt><trkpt lat="43.698666049923084" lon="11.177461005380225"><ele>182.20000000000002</ele><time>2026-03-29T08:34:29Z</time></trkpt><trkpt lat="43.698758671681446" lon="11.177525522002972"><ele>181.8</ele><time>2026-03-29T08:34:31Z</time></trkpt><trkpt lat="43.69883144653949" lon="11.177588011498523"><ele>181.4</ele><time>2026-03-29T08:34:33Z</time></trkpt><trkpt lat="43.698902312323035" lon="11.177642775288808"><ele>181.0</ele><time>2026-03-29T08:34:35Z</time></trkpt><trkpt lat="43.69897551340931" lon="11.177700395148921"><ele>181.0</ele><time>2026-03-29T08:34:37Z</time></trkpt><trkpt lat="43.699051197092146" lon="11.177765379045788"><ele>181.0</ele><time>2026-03-29T08:34:39Z</time></trkpt><trkpt lat="43.699122866993164" lon="11.177832398890928"><ele>181.0</ele><time>2026-03-29T08:34:41Z</time></trkpt><trkpt lat="43.69919624723974" lon="11.177903943321121"><ele>181.0</ele><time>2026-03-29T08:34:43Z</time></trkpt><trkpt lat="43.69926155893419" lon="11.177988066639239"><ele>181.0</ele><time>2026-03-29T08:34:45Z</time></trkpt><trkpt lat="43.6993132976013" lon="11.178077538044413"><ele>181.0</ele><time>2026-03-29T08:34:47Z</time></trkpt><trkpt lat="43.69935682693209" lon="11.17816645997252"><ele>181.83333333333334</ele><time>2026-03-29T08:34:49Z</time></trkpt><trkpt lat="43.6994110071024" lon="11.17826299529684"><ele>182.66666666666669</ele><time>2026-03-29T08:34:51Z</time></trkpt><trkpt lat="43.69945479142184" lon="11.178365131504718"><ele>183.5</ele><time>2026-03-29T08:34:53Z</time></trkpt><trkpt lat="43.69950585550987" lon="11.178467490409043"><ele>184.33333333333334</ele><time>2026-03-29T08:34:55Z</time></trkpt><trkpt lat="43.699561581592015" lon="11.178569034405522"><ele>185.16666666666666</ele><time>2026-03-29T08:34:57Z</time></trkpt><trkpt lat="43.69961690736566" lon="11.178666496194323"><ele>186.0</ele><time>2026-03-29T08:34:59Z</time></trkpt><trkpt lat="43.69966513413212" lon="11.178760166734294"><ele>186.0</ele><time>2026-03-29T08:35:01Z</time></trkpt><trkpt lat="43.69971599485149" lon="11.178853383645013"><ele>186.0</ele><time>2026-03-29T08:35:03Z</time></trkpt><trkpt lat="43.69977278329271" lon="11.17894715391465"><ele>186.0</ele><time>2026-03-29T08:35:05Z</time></trkpt><trkpt lat="43.69982705887245" lon="11.179045220238175"><ele>186.0</ele><time>2026-03-29T08:35:07Z</time></trkpt><trkpt lat="43.6998806122276" lon="11.179134727682206"><ele>186.0</ele><time>2026-03-29T08:35:09Z</time></trkpt><trkpt lat="43.69994033255486" lon="11.179205894497636"><ele>186.0</ele><time>2026-03-29T08:35:11Z</time></trkpt><trkpt lat="43.70002512627175" lon="11.179251295460167"><ele>187.20000000000002</ele><time>2026-03-29T08:35:13Z</time></trkpt><trkpt lat="43.70012135191273" lon="11.179260138447525"><ele>188.4</ele><time>2026-03-29T08:35:15Z</time></trkpt><trkpt lat="43.700219033713296" lon="11.179235677567487"><ele>189.6</ele><time>2026-03-29T08:35:17Z</time></trkpt><trkpt lat="43.700321084851154" lon="11.179197467367802"><ele>190.8</ele><time>2026-03-29T08:35:19Z</time></trkpt><trkpt lat="43.700407230655244" lon="11.179176160682838"><ele>192.0</ele><time>2026-03-29T08:35:21Z</time></trkpt><trkpt lat="43.70048880653467" lon="11.179159076454939"><ele>192.0</ele><time>2026-03-29T08:35:23Z</time></trkpt><trkpt lat="43.700571312113915" lon="11.179139302264495"><ele>192.0</ele><time>2026-03-29T08:35:25Z</time></trkpt><trkpt lat="43.7006538091688" lon="11.179127222733152"><ele>192.0</ele><time>2026-03-29T08:35:27Z</time></trkpt><trkpt lat="43.70072676862393" lon="11.179112942861794"><ele>192.0</ele><time>2026-03-29T08:35:29Z</time></trkpt><trkpt lat="43.70080753022705" lon="11.179088311950833"><ele>192.0</ele><time>2026-03-29T08:35:31Z</time></trkpt><trkpt lat="43.700883976678135" lon="11.179077767187763"><ele>192.0</ele><time>2026-03-29T08:35:33Z</time></trkpt><trkpt lat="43.700954064409665" lon="11.179058466671034"><ele>191.99999999999997</ele><time>2026-03-29T08:35:35Z</time></trkpt><trkpt lat="43.70102372034957" lon="11.179035089558253"><ele>192.0</ele><time>2026-03-29T08:35:37Z</time></trkpt><trkpt lat="43.70109790108744" lon="11.17900559092841"><ele>192.0</ele><time>2026-03-29T08:35:39Z</time></trkpt><trkpt lat="43.7011677674827" lon="11.178984286653742"><ele>192.0</ele><time>2026-03-29T08:35:41Z</time></trkpt><trkpt lat="43.70124039643268" lon="11.178959356383091"><ele>192.0</ele><time>2026-03-29T08:35:43Z</time></trkpt><trkpt lat="43.70130544774984" lon="11.178935784009875"><ele>191.99999999999997</ele><time>2026-03-29T08:35:45Z</time></trkpt><trkpt lat="43.70137196201086" lon="11.178902120001446"><ele>192.0</ele><time>2026-03-29T08:35:47Z</time></trkpt><trkpt lat="43.701434621088" lon="11.17887050822044"><ele>194.57142857142856</ele><time>2026-03-29T08:35:49Z</time></trkpt><trkpt lat="43.70150455430566" lon="11.178830529275738"><ele>197.14285714285714</ele><time>2026-03-29T08:35:51Z</time></trkpt><trkpt lat="43.70156623185566" lon="11.178803000551504"><ele>199.71428571428572</ele><time>2026-03-29T08:35:53Z</time></trkpt><trkpt lat="43.70164072377301" lon="11.17876891173429"><ele>202.28571428571428</ele><time>2026-03-29T08:35:55Z</time></trkpt><trkpt lat="43.701704872799624" lon="11.178747144734661"><ele>204.85714285714286</ele><time>2026-03-29T08:35:57Z</time></trkpt><trkpt lat="43.70178362388375" lon="11.1787479415831"><ele>207.42857142857142</ele><time>2026-03-29T08:35:59Z</time></trkpt><trkpt lat="43.70185444105" lon="11.17878377751041"><ele>210.0</ele><time>2026-03-29T08:36:01Z</time></trkpt><trkpt lat="43.701906793772444" lon="11.178881740750274"><ele>211.28571428571428</ele><time>2026-03-29T08:36:04Z</time></trkpt><trkpt lat="43.70192396647027" lon="11.178978996674907"><ele>212.57142857142856</ele><time>2026-03-29T08:36:06Z</time></trkpt><trkpt lat="43.70191067413765" lon="11.179078673887505"><ele>213.85714285714286</ele><time>2026-03-29T08:36:08Z</time></trkpt><trkpt lat="43.701890712487995" lon="11.179164487128542"><ele>215.14285714285714</ele><time>2026-03-29T08:36:10Z</time></trkpt><trkpt lat="43.70189488628273" lon="11.179261057518323"><ele>216.42857142857142</ele><time>2026-03-29T08:36:12Z</time></trkpt><trkpt lat="43.70189523182099" lon="11.179349068100896"><ele>217.71428571428572</ele><time>2026-03-29T08:36:14Z</time></trkpt><trkpt lat="43.70189840478221" lon="11.17944666957901"><ele>219.0</ele><time>2026-03-29T08:36:16Z</time></trkpt><trkpt lat="43.70191184951533" lon="11.179542016521301"><ele>218.57142857142858</ele><time>2026-03-29T08:36:18Z</time></trkpt><trkpt lat="43.70194389827769" lon="11.179625769513251"><ele>218.14285714285714</ele><time>2026-03-29T08:36:20Z</time></trkpt><trkpt lat="43.70198488995469" lon="11.17970418946819"><ele>217.71428571428572</ele><time>2026-03-29T08:36:22Z</time></trkpt><trkpt lat="43.70203274574566" lon="11.17976928446387"><ele>217.28571428571428</ele><time>2026-03-29T08:36:24Z</time></trkpt><trkpt lat="43.702093968463785" lon="11.179822304149265"><ele>216.85714285714283</ele><time>2026-03-29T08:36:26Z</time></trkpt><trkpt lat="43.70215904164942" lon="11.179866207201442"><ele>216.42857142857142</ele><time>2026-03-29T08:36:28Z</time></trkpt><trkpt lat="43.70222054837885" lon="11.179907941620547"><ele>216.0</ele><time>2026-03-29T08:36:30Z</time></trkpt><trkpt lat="43.70229043733921" lon="11.17994114452009"><ele>215.33333333333334</ele><time>2026-03-29T08:36:32Z</time></trkpt><trkpt lat="43.70233342590392" lon="11.180011829127963"><ele>214.66666666666669</ele><time>2026-03-29T08:36:34Z</time></trkpt><trkpt lat="43.70241602276269" lon="11.18006956516166"><ele>214.0</ele><time>2026-03-29T08:36:37Z</time></trkpt><trkpt lat="43.70247584387686" lon="11.180112311181862"><ele>213.33333333333334</ele><time>2026-03-29T08:36:39Z</time></trkpt><trkpt lat="43.70253490520221" lon="11.180156313098383"><ele>212.66666666666669</ele><time>2026-03-29T08:36:41Z</time></trkpt><trkpt lat="43.70259069459126" lon="11.18020100196266"><ele>212.0</ele><time>2026-03-29T08:36:43Z</time></trkpt><trkpt lat="43.702674388515554" lon="11.180261890102068"><ele>212.0</ele><time>2026-03-29T08:36:46Z</time></trkpt><trkpt lat="43.70273249044318" lon="11.180309668805073"><ele>212.0</ele><time>2026-03-29T08:36:48Z</time></trkpt><trkpt lat="43.702788477613545" lon="11.18035325855349"><ele>212.0</ele><time>2026-03-29T08:36:50Z</time></trkpt><trkpt lat="43.70284692475473" lon="11.180400596965649"><ele>212.0</ele><time>2026-03-29T08:36:52Z</time></trkpt><trkpt lat="43.702903806510704" lon="11.180450050059141"><ele>212.0</ele><time>2026-03-29T08:36:54Z</time></trkpt><trkpt lat="43.70295411753329" lon="11.180511188701058"><ele>212.0</ele><time>2026-03-29T08:36:56Z</time></trkpt><trkpt lat="43.702994816029936" lon="11.1805835305709"><ele>212.0</ele><time>2026-03-29T08:36:58Z</time></trkpt><trkpt lat="43.703033921465575" lon="11.180694984337016"><ele>213.50000000000003</ele><time>2026-03-29T08:37:01Z</time></trkpt><trkpt lat="43.703063034132576" lon="11.180813325376642"><ele>215.0</ele><time>2026-03-29T08:37:04Z</time></trkpt><trkpt lat="43.70309489331724" lon="11.180930431014211"><ele>216.5</ele><time>2026-03-29T08:37:07Z</time></trkpt><trkpt lat="43.70312304843832" lon="11.181011564345605"><ele>218.0</ele><time>2026-03-29T08:37:09Z</time></trkpt><trkpt lat="43.70314844209083" lon="11.18109312089952"><ele>219.50000000000003</ele><time>2026-03-29T08:37:11Z</time></trkpt><trkpt lat="43.70319357755275" lon="11.181207065514553"><ele>221.0</ele><time>2026-03-29T08:37:14Z</time></trkpt><trkpt lat="43.703244568049705" lon="11.181316111541769"><ele>221.00000000000003</ele><time>2026-03-29T08:37:17Z</time></trkpt><trkpt lat="43.703296140975795" lon="11.18142275564742"><ele>221.0</ele><time>2026-03-29T08:37:20Z</time></trkpt><trkpt lat="43.70334778795683" lon="11.181528418782488"><ele>221.0</ele><time>2026-03-29T08:37:23Z</time></trkpt><trkpt lat="43.70338258272249" lon="11.181601584894105"><ele>221.0</ele><time>2026-03-29T08:37:25Z</time></trkpt><trkpt lat="43.7034214844226" lon="11.181674886369331"><ele>221.00000000000003</ele><time>2026-03-29T08:37:27Z</time></trkpt><trkpt lat="43.70345374262442" lon="11.181753418709445"><ele>221.0</ele><time>2026-03-29T08:37:29Z</time></trkpt><trkpt lat="43.703503307602205" lon="11.181865911224305"><ele>220.2857142857143</ele><time>2026-03-29T08:37:32Z</time></trkpt><trkpt lat="43.70353805221529" lon="11.181944289151625"><ele>219.57142857142858</ele><time>2026-03-29T08:37:34Z</time></trkpt><trkpt lat="43.70356807381906" lon="11.182020944592244"><ele>218.85714285714286</ele><time>2026-03-29T08:37:36Z</time></trkpt><trkpt lat="43.703601808941336" lon="11.182095561243809"><ele>218.14285714285717</ele><time>2026-03-29T08:37:38Z</time></trkpt><trkpt lat="43.70363453240829" lon="11.18217272814249"><ele>217.42857142857142</ele><time>2026-03-29T08:37:40Z</time></trkpt><trkpt lat="43.70366739727105" lon="11.182250443732546"><ele>216.71428571428572</ele><time>2026-03-29T08:37:42Z</time></trkpt><trkpt lat="43.70369593094774" lon="11.18232895680043"><ele>216.0</ele><time>2026-03-29T08:37:44Z</time></trkpt><trkpt lat="43.70373806622371" lon="11.182441969161431"><ele>218.71428571428572</ele><time>2026-03-29T08:37:47Z</time></trkpt><trkpt lat="43.70376096693759" lon="11.18252395860812"><ele>221.42857142857142</ele><time>2026-03-29T08:37:49Z</time></trkpt><trkpt lat="43.70378095225006" lon="11.182608719552123"><ele>224.14285714285714</ele><time>2026-03-29T08:37:51Z</time></trkpt><trkpt lat="43.703795170962394" lon="11.182696577906398"><ele>226.85714285714283</ele><time>2026-03-29T08:37:53Z</time></trkpt><trkpt lat="43.703827858298915" lon="11.182820004241586"><ele>229.57142857142856</ele><time>2026-03-29T08:37:56Z</time></trkpt><trkpt lat="43.70386157717792" lon="11.182938763308254"><ele>232.28571428571428</ele><time>2026-03-29T08:37:59Z</time></trkpt><trkpt lat="43.7038828661543" lon="11.183021148368805"><ele>235.0</ele><time>2026-03-29T08:38:01Z</time></trkpt><trkpt lat="43.70392653967627" lon="11.183139000775927"><ele>233.7142857142857</ele><time>2026-03-29T08:38:04Z</time></trkpt><trkpt lat="43.703969325338136" lon="11.183204871697175"><ele>232.4285714285714</ele><time>2026-03-29T08:38:06Z</time></trkpt><trkpt lat="43.70402856785052" lon="11.183304680462502"><ele>231.14285714285714</ele><time>2026-03-29T08:38:09Z</time></trkpt><trkpt lat="43.70409207203622" lon="11.183399997463754"><ele>229.85714285714283</ele><time>2026-03-29T08:38:12Z</time></trkpt><trkpt lat="43.704131335836955" lon="11.183471014927017"><ele>228.57142857142856</ele><time>2026-03-29T08:38:14Z</time></trkpt><trkpt lat="43.704167630782145" lon="11.183545286441406"><ele>227.28571428571428</ele><time>2026-03-29T08:38:16Z</time></trkpt><trkpt lat="43.704198497044324" lon="11.183622049917071"><ele>226.0</ele><time>2026-03-29T08:38:18Z</time></trkpt><trkpt lat="43.704231477834625" lon="11.183698440627275"><ele>225.99999999999997</ele><time>2026-03-29T08:38:20Z</time></trkpt><trkpt lat="43.704260155089706" lon="11.18377729356539"><ele>226.0</ele><time>2026-03-29T08:38:22Z</time></trkpt><trkpt lat="43.70429721864553" lon="11.183898936739471"><ele>226.0</ele><time>2026-03-29T08:38:25Z</time></trkpt><trkpt lat="43.70432383162937" lon="11.183980813128956"><ele>226.0</ele><time>2026-03-29T08:38:27Z</time></trkpt><trkpt lat="43.704358992746386" lon="11.184105605268105"><ele>225.99999999999997</ele><time>2026-03-29T08:38:30Z</time></trkpt><trkpt lat="43.7043860608825" lon="11.18419056010787"><ele>226.0</ele><time>2026-03-29T08:38:32Z</time></trkpt><trkpt lat="43.70441122877379" lon="11.184271239285305"><ele>226.85714285714286</ele><time>2026-03-29T08:38:34Z</time></trkpt><trkpt lat="43.704450512086765" lon="11.184393505092764"><ele>227.71428571428572</ele><time>2026-03-29T08:38:37Z</time></trkpt><trkpt lat="43.70447422659703" lon="11.184475920226163"><ele>228.57142857142858</ele><time>2026-03-29T08:38:39Z</time></trkpt><trkpt lat="43.70450263123877" lon="11.184553810172078"><ele>229.42857142857144</ele><time>2026-03-29T08:38:41Z</time></trkpt><trkpt lat="43.7045272203595" lon="11.184639218096141"><ele>230.28571428571428</ele><time>2026-03-29T08:38:43Z</time></trkpt><trkpt lat="43.70454481510272" lon="11.184726194463952"><ele>231.14285714285717</ele><time>2026-03-29T08:38:45Z</time></trkpt><trkpt lat="43.70457677211565" lon="11.184813455799567"><ele>232.00000000000003</ele><time>2026-03-29T08:38:47Z</time></trkpt><trkpt lat="43.704608876383396" lon="11.18489966462893"><ele>232.00000000000003</ele><time>2026-03-29T08:38:49Z</time></trkpt><trkpt lat="43.70464252062115" lon="11.184991293705911"><ele>232.0</ele><time>2026-03-29T08:38:51Z</time></trkpt><trkpt lat="43.704659293145106" lon="11.185079394822143"><ele>232.00000000000003</ele><time>2026-03-29T08:38:53Z</time></trkpt><trkpt lat="43.70468202236575" lon="11.1851700375235"><ele>232.00000000000003</ele><time>2026-03-29T08:38:55Z</time></trkpt><trkpt lat="43.70470666484574" lon="11.1852589348477"><ele>232.0</ele><time>2026-03-29T08:38:57Z</time></trkpt><trkpt lat="43.704723545103235" lon="11.185347387782407"><ele>232.00000000000003</ele><time>2026-03-29T08:38:59Z</time></trkpt><trkpt lat="43.70473815357985" lon="11.185440868649328"><ele>232.00000000000003</ele><time>2026-03-29T08:39:01Z</time></trkpt><trkpt lat="43.70476050957921" lon="11.185529694841126"><ele>231.99999999999997</ele><time>2026-03-29T08:39:03Z</time></trkpt><trkpt lat="43.70479458624564" lon="11.185613995969444"><ele>232.0</ele><time>2026-03-29T08:39:05Z</time></trkpt><trkpt lat="43.704830542374935" lon="11.185696568803008"><ele>232.0</ele><time>2026-03-29T08:39:07Z</time></trkpt><trkpt lat="43.704869449813955" lon="11.18578406001122"><ele>232.0</ele><time>2026-03-29T08:39:09Z</time></trkpt><trkpt lat="43.704914865794564" lon="11.185862898532726"><ele>231.99999999999997</ele><time>2026-03-29T08:39:11Z</time></trkpt><trkpt lat="43.704968890935554" lon="11.185942996673532"><ele>232.0</ele><time>2026-03-29T08:39:13Z</time></trkpt><trkpt lat="43.7050414961847" lon="11.186006984261525"><ele>232.0</ele><time>2026-03-29T08:39:15Z</time></trkpt><trkpt lat="43.70512166370588" lon="11.186060093793126"><ele>232.0</ele><time>2026-03-29T08:39:17Z</time></trkpt><trkpt lat="43.70521159808532" lon="11.186116216619574"><ele>232.0</ele><time>2026-03-29T08:39:19Z</time></trkpt><trkpt lat="43.705308068059665" lon="11.186162777943341"><ele>232.0</ele><time>2026-03-29T08:39:21Z</time></trkpt><trkpt lat="43.70541754689626" lon="11.186200326500243"><ele>232.0</ele><time>2026-03-29T08:39:23Z</time></trkpt><trkpt lat="43.70551291455984" lon="11.186245548219276"><ele>232.39999999999998</ele><time>2026-03-29T08:39:25Z</time></trkpt><trkpt lat="43.705622631180496" lon="11.18626111445989"><ele>232.79999999999998</ele><time>2026-03-29T08:39:27Z</time></trkpt><trkpt lat="43.70573927821246" lon="11.18629175183639"><ele>233.2</ele><time>2026-03-29T08:39:29Z</time></trkpt><trkpt lat="43.70584926178897" lon="11.186327616320362"><ele>233.6</ele><time>2026-03-29T08:39:31Z</time></trkpt><trkpt lat="43.70591337956709" lon="11.18630956044768"><ele>234.0</ele><time>2026-03-29T08:39:32Z</time></trkpt><trkpt lat="43.70603672392756" lon="11.186324709523237"><ele>233.5</ele><time>2026-03-29T08:39:34Z</time></trkpt><trkpt lat="43.70610250102931" lon="11.186341244569409"><ele>233.0</ele><time>2026-03-29T08:39:35Z</time></trkpt><trkpt lat="43.70617406729386" lon="11.186356216040338"><ele>232.5</ele><time>2026-03-29T08:39:36Z</time></trkpt><trkpt lat="43.70624871920301" lon="11.186389117579582"><ele>232.0</ele><time>2026-03-29T08:39:37Z</time></trkpt><trkpt lat="43.70632113432848" lon="11.186400266761037"><ele>231.5</ele><time>2026-03-29T08:39:38Z</time></trkpt><trkpt lat="43.706400017219686" lon="11.186402262441973"><ele>231.0</ele><time>2026-03-29T08:39:39Z</time></trkpt><trkpt lat="43.706477490938724" lon="11.18644333958763"><ele>231.0</ele><time>2026-03-29T08:39:40Z</time></trkpt><trkpt lat="43.70655766325607" lon="11.18648552554859"><ele>231.00000000000003</ele><time>2026-03-29T08:39:41Z</time></trkpt><trkpt lat="43.70664326787887" lon="11.186547243287485"><ele>231.00000000000003</ele><time>2026-03-29T08:39:42Z</time></trkpt><trkpt lat="43.706721297956996" lon="11.186610920511656"><ele>231.0</ele><time>2026-03-29T08:39:43Z</time></trkpt><trkpt lat="43.70679680411101" lon="11.186695833173216"><ele>231.0</ele><time>2026-03-29T08:39:44Z</time></trkpt><trkpt lat="43.70688695466078" lon="11.186762127530427"><ele>229.4</ele><time>2026-03-29T08:39:45Z</time></trkpt><trkpt lat="43.706987603704015" lon="11.186787034856208"><ele>227.8</ele><time>2026-03-29T08:39:46Z</time></trkpt><trkpt lat="43.70707894022252" lon="11.186826053219518"><ele>226.20000000000002</ele><time>2026-03-29T08:39:47Z</time></trkpt><trkpt lat="43.707175877579466" lon="11.186861457282935"><ele>224.60000000000002</ele><time>2026-03-29T08:39:48Z</time></trkpt><trkpt lat="43.707276124731976" lon="11.1868833027669"><ele>223.0</ele><time>2026-03-29T08:39:49Z</time></trkpt><trkpt lat="43.70737688778567" lon="11.186902526925113"><ele>223.0</ele><time>2026-03-29T08:39:50Z</time></trkpt><trkpt lat="43.70747754922715" lon="11.18692622656133"><ele>223.0</ele><time>2026-03-29T08:39:51Z</time></trkpt><trkpt lat="43.70758446703472" lon="11.186945345324062"><ele>223.0</ele><time>2026-03-29T08:39:52Z</time></trkpt><trkpt lat="43.70768343281758" lon="11.186988984232956"><ele>223.0</ele><time>2026-03-29T08:39:53Z</time></trkpt><trkpt lat="43.70779011959467" lon="11.186992221658281"><ele>223.0</ele><time>2026-03-29T08:39:54Z</time></trkpt><trkpt lat="43.70788842120065" lon="11.187028596132746"><ele>221.8</ele><time>2026-03-29T08:39:55Z</time></trkpt><trkpt lat="43.70798830286591" lon="11.187050098675853"><ele>220.60000000000002</ele><time>2026-03-29T08:39:56Z</time></trkpt><trkpt lat="43.708088383075236" lon="11.18707922699989"><ele>219.39999999999998</ele><time>2026-03-29T08:39:57Z</time></trkpt><trkpt lat="43.70818661071686" lon="11.18710378940288"><ele>218.2</ele><time>2026-03-29T08:39:58Z</time></trkpt><trkpt lat="43.70828128786748" lon="11.187130616043412"><ele>217.0</ele><time>2026-03-29T08:39:59Z</time></trkpt><trkpt lat="43.70836791078843" lon="11.187174267326947"><ele>217.0</ele><time>2026-03-29T08:40:00Z</time></trkpt><trkpt lat="43.70845503024759" lon="11.18723245762045"><ele>217.0</ele><time>2026-03-29T08:40:01Z</time></trkpt><trkpt lat="43.70853794691941" lon="11.187303803112194"><ele>217.0</ele><time>2026-03-29T08:40:02Z</time></trkpt><trkpt lat="43.70860892469935" lon="11.187384535189556"><ele>217.0</ele><time>2026-03-29T08:40:03Z</time></trkpt><trkpt lat="43.708685113418" lon="11.18745906670282"><ele>217.0</ele><time>2026-03-29T08:40:04Z</time></trkpt><trkpt lat="43.708759741299545" lon="11.187535365691705"><ele>216.33333333333331</ele><time>2026-03-29T08:40:05Z</time></trkpt><trkpt lat="43.70882958909437" lon="11.18760709979872"><ele>215.66666666666666</ele><time>2026-03-29T08:40:06Z</time></trkpt><trkpt lat="43.708901424329746" lon="11.187672268771411"><ele>215.0</ele><time>2026-03-29T08:40:07Z</time></trkpt><trkpt lat="43.70897255911162" lon="11.187739906622253"><ele>214.33333333333331</ele><time>2026-03-29T08:40:08Z</time></trkpt><trkpt lat="43.70904015823521" lon="11.187806588498232"><ele>213.66666666666666</ele><time>2026-03-29T08:40:09Z</time></trkpt><trkpt lat="43.70911025596748" lon="11.187867828267413"><ele>213.0</ele><time>2026-03-29T08:40:10Z</time></trkpt><trkpt lat="43.709178034889334" lon="11.18793595548287"><ele>213.0</ele><time>2026-03-29T08:40:11Z</time></trkpt><trkpt lat="43.70924458793285" lon="11.188000781841644"><ele>213.0</ele><time>2026-03-29T08:40:12Z</time></trkpt><trkpt lat="43.70931423149846" lon="11.188058156153192"><ele>213.0</ele><time>2026-03-29T08:40:13Z</time></trkpt><trkpt lat="43.709379240439574" lon="11.18811781354653"><ele>213.0</ele><time>2026-03-29T08:40:14Z</time></trkpt><trkpt lat="43.70944110920746" lon="11.188179525339084"><ele>213.0</ele><time>2026-03-29T08:40:15Z</time></trkpt><trkpt lat="43.709502302626056" lon="11.188238246968668"><ele>213.0</ele><time>2026-03-29T08:40:16Z</time></trkpt><trkpt lat="43.70956326658893" lon="11.188294125085527"><ele>212.99999999999997</ele><time>2026-03-29T08:40:17Z</time></trkpt><trkpt lat="43.70962651417626" lon="11.188339775090851"><ele>213.0</ele><time>2026-03-29T08:40:18Z</time></trkpt><trkpt lat="43.7096911478543" lon="11.188389170689307"><ele>213.0</ele><time>2026-03-29T08:40:19Z</time></trkpt><trkpt lat="43.70975454430824" lon="11.188435325926582"><ele>213.0</ele><time>2026-03-29T08:40:20Z</time></trkpt><trkpt lat="43.70981576806714" lon="11.188481853019567"><ele>213.0</ele><time>2026-03-29T08:40:21Z</time></trkpt><trkpt lat="43.70987516528638" lon="11.188530245188712"><ele>212.99999999999997</ele><time>2026-03-29T08:40:22Z</time></trkpt><trkpt lat="43.70993444488679" lon="11.188579271543524"><ele>213.0</ele><time>2026-03-29T08:40:23Z</time></trkpt><trkpt lat="43.709991754851835" lon="11.18862498222417"><ele>213.0</ele><time>2026-03-29T08:40:24Z</time></trkpt><trkpt lat="43.71004690008898" lon="11.18866743933614"><ele>213.0</ele><time>2026-03-29T08:40:25Z</time></trkpt><trkpt lat="43.710106905388585" lon="11.188712387746364"><ele>213.0</ele><time>2026-03-29T08:40:26Z</time></trkpt><trkpt lat="43.71016413022376" lon="11.188751778800457"><ele>213.0</ele><time>2026-03-29T08:40:27Z</time></trkpt><trkpt lat="43.71022062353818" lon="11.188794260935065"><ele>213.0</ele><time>2026-03-29T08:40:28Z</time></trkpt><trkpt lat="43.710326123459424" lon="11.188868594726001"><ele>213.0</ele><time>2026-03-29T08:40:30Z</time></trkpt><trkpt lat="43.710426226005964" lon="11.18891661870286"><ele>213.25</ele><time>2026-03-29T08:40:32Z</time></trkpt><trkpt lat="43.710527739840686" lon="11.188955006449387"><ele>213.5</ele><time>2026-03-29T08:40:34Z</time></trkpt><trkpt lat="43.71063934001465" lon="11.188991200753"><ele>213.75</ele><time>2026-03-29T08:40:36Z</time></trkpt><trkpt lat="43.7107529185268" lon="11.189031176085802"><ele>214.0</ele><time>2026-03-29T08:40:38Z</time></trkpt><trkpt lat="43.710867705726535" lon="11.189073151953068"><ele>214.0</ele><time>2026-03-29T08:40:40Z</time></trkpt><trkpt lat="43.71098617622968" lon="11.189110512012846"><ele>214.0</ele><time>2026-03-29T08:40:42Z</time></trkpt><trkpt lat="43.71110464583678" lon="11.189154219897564"><ele>214.0</ele><time>2026-03-29T08:40:44Z</time></trkpt><trkpt lat="43.7112222187725" lon="11.189188375011273"><ele>214.0</ele><time>2026-03-29T08:40:46Z</time></trkpt><trkpt lat="43.71133716889612" lon="11.18920087343026"><ele>214.39999999999998</ele><time>2026-03-29T08:40:48Z</time></trkpt><trkpt lat="43.71145041022689" lon="11.18920439091336"><ele>214.79999999999998</ele><time>2026-03-29T08:40:50Z</time></trkpt><trkpt lat="43.71156839165965" lon="11.189198961664836"><ele>215.20000000000002</ele><time>2026-03-29T08:40:52Z</time></trkpt><trkpt lat="43.71169052142579" lon="11.189192353481147"><ele>215.60000000000002</ele><time>2026-03-29T08:40:54Z</time></trkpt><trkpt lat="43.71175766744572" lon="11.189184609036785"><ele>216.0</ele><time>2026-03-29T08:40:55Z</time></trkpt><trkpt lat="43.711825136107976" lon="11.189174771015043"><ele>216.0</ele><time>2026-03-29T08:40:56Z</time></trkpt><trkpt lat="43.711894102326426" lon="11.189164561531708"><ele>216.0</ele><time>2026-03-29T08:40:57Z</time></trkpt><trkpt lat="43.71196311948219" lon="11.189158255041256"><ele>216.0</ele><time>2026-03-29T08:40:58Z</time></trkpt><trkpt lat="43.71203405562892" lon="11.189149522143314"><ele>216.0</ele><time>2026-03-29T08:40:59Z</time></trkpt><trkpt lat="43.71210601031215" lon="11.189138795414367"><ele>216.0</ele><time>2026-03-29T08:41:00Z</time></trkpt><trkpt lat="43.71217716465929" lon="11.18911971700516"><ele>216.0</ele><time>2026-03-29T08:41:01Z</time></trkpt><trkpt lat="43.7122474634318" lon="11.189087572520673"><ele>216.0</ele><time>2026-03-29T08:41:02Z</time></trkpt><trkpt lat="43.71231343645999" lon="11.189051809517899"><ele>215.71428571428572</ele><time>2026-03-29T08:41:03Z</time></trkpt><trkpt lat="43.71237581938768" lon="11.18900418604792"><ele>215.42857142857142</ele><time>2026-03-29T08:41:04Z</time></trkpt><trkpt lat="43.71243024680692" lon="11.188940463545999"><ele>215.14285714285717</ele><time>2026-03-29T08:41:05Z</time></trkpt><trkpt lat="43.712478212609376" lon="11.188873530429152"><ele>214.85714285714286</ele><time>2026-03-29T08:41:06Z</time></trkpt><trkpt lat="43.71252360549095" lon="11.188803808457273"><ele>214.57142857142858</ele><time>2026-03-29T08:41:07Z</time></trkpt><trkpt lat="43.71256460415019" lon="11.188728112537161"><ele>214.2857142857143</ele><time>2026-03-29T08:41:08Z</time></trkpt><trkpt lat="43.712589870091485" lon="11.188636966275"><ele>214.0</ele><time>2026-03-29T08:41:09Z</time></trkpt><trkpt lat="43.712614522893446" lon="11.18854746584444"><ele>214.00000000000003</ele><time>2026-03-29T08:41:10Z</time></trkpt><trkpt lat="43.712637661305436" lon="11.18845989362836"><ele>214.0</ele><time>2026-03-29T08:41:11Z</time></trkpt><trkpt lat="43.71265406689478" lon="11.188365976076515"><ele>214.0</ele><time>2026-03-29T08:41:12Z</time></trkpt><trkpt lat="43.71267144486408" lon="11.188276507648808"><ele>214.0</ele><time>2026-03-29T08:41:13Z</time></trkpt><trkpt lat="43.712694157439685" lon="11.188188536652198"><ele>214.0</ele><time>2026-03-29T08:41:14Z</time></trkpt><trkpt lat="43.71271860956097" lon="11.188100245843925"><ele>214.00000000000003</ele><time>2026-03-29T08:41:15Z</time></trkpt><trkpt lat="43.71274733459586" lon="11.188014374609873"><ele>214.0</ele><time>2026-03-29T08:41:16Z</time></trkpt><trkpt lat="43.712790363486825" lon="11.18794088008263"><ele>213.85714285714286</ele><time>2026-03-29T08:41:17Z</time></trkpt><trkpt lat="43.71283843604922" lon="11.187868435083345"><ele>213.71428571428572</ele><time>2026-03-29T08:41:18Z</time></trkpt><trkpt lat="43.71288926909697" lon="11.187798419675731"><ele>213.57142857142856</ele><time>2026-03-29T08:41:19Z</time></trkpt><trkpt lat="43.71294299505695" lon="11.187734422035383"><ele>213.42857142857144</ele><time>2026-03-29T08:41:20Z</time></trkpt><trkpt lat="43.71299951518749" lon="11.187670352496223"><ele>213.28571428571428</ele><time>2026-03-29T08:41:21Z</time></trkpt><trkpt lat="43.71305955002325" lon="11.187618450637718"><ele>213.14285714285714</ele><time>2026-03-29T08:41:22Z</time></trkpt><trkpt lat="43.71312586607992" lon="11.187580014377065"><ele>213.0</ele><time>2026-03-29T08:41:23Z</time></trkpt><trkpt lat="43.71319466564216" lon="11.187549436866933"><ele>213.0</ele><time>2026-03-29T08:41:24Z</time></trkpt><trkpt lat="43.71326361365753" lon="11.187522133164002"><ele>213.0</ele><time>2026-03-29T08:41:25Z</time></trkpt><trkpt lat="43.71333547097706" lon="11.187493598757912"><ele>213.0</ele><time>2026-03-29T08:41:26Z</time></trkpt><trkpt lat="43.71341454451325" lon="11.18747643851853"><ele>213.0</ele><time>2026-03-29T08:41:27Z</time></trkpt><trkpt lat="43.713491765793314" lon="11.187457373514095"><ele>213.0</ele><time>2026-03-29T08:41:28Z</time></trkpt><trkpt lat="43.71357317962574" lon="11.187437959263317"><ele>213.0</ele><time>2026-03-29T08:41:29Z</time></trkpt><trkpt lat="43.71365633736683" lon="11.18741995530903"><ele>212.2</ele><time>2026-03-29T08:41:30Z</time></trkpt><trkpt lat="43.713741014969436" lon="11.18740164561324"><ele>211.4</ele><time>2026-03-29T08:41:31Z</time></trkpt><trkpt lat="43.71382776825244" lon="11.187393352085202"><ele>210.6</ele><time>2026-03-29T08:41:32Z</time></trkpt><trkpt lat="43.71391760973432" lon="11.187392408657592"><ele>209.79999999999998</ele><time>2026-03-29T08:41:33Z</time></trkpt><trkpt lat="43.71401170509113" lon="11.187391706455228"><ele>209.0</ele><time>2026-03-29T08:41:34Z</time></trkpt><trkpt lat="43.71410571437177" lon="11.18739012501079"><ele>209.0</ele><time>2026-03-29T08:41:35Z</time></trkpt><trkpt lat="43.71420386431225" lon="11.187392518112373"><ele>209.0</ele><time>2026-03-29T08:41:36Z</time></trkpt><trkpt lat="43.71429872206216" lon="11.187401493456294"><ele>209.0</ele><time>2026-03-29T08:41:37Z</time></trkpt><trkpt lat="43.71439777665193" lon="11.187417623295385"><ele>209.0</ele><time>2026-03-29T08:41:38Z</time></trkpt><trkpt lat="43.714497735512325" lon="11.18744947931746"><ele>209.0</ele><time>2026-03-29T08:41:39Z</time></trkpt><trkpt lat="43.714594427315674" lon="11.187509564317036"><ele>206.0</ele><time>2026-03-29T08:41:40Z</time></trkpt><trkpt lat="43.71468380101817" lon="11.187581800315444"><ele>203.0</ele><time>2026-03-29T08:41:41Z</time></trkpt><trkpt lat="43.7147753186371" lon="11.187666824003086"><ele>200.0</ele><time>2026-03-29T08:41:42Z</time></trkpt><trkpt lat="43.71486565003816" lon="11.187749552569256"><ele>197.0</ele><time>2026-03-29T08:41:43Z</time></trkpt><trkpt lat="43.71495637705521" lon="11.187822955488373"><ele>194.0</ele><time>2026-03-29T08:41:44Z</time></trkpt><trkpt lat="43.71504461913869" lon="11.187903130303953"><ele>194.0</ele><time>2026-03-29T08:41:45Z</time></trkpt><trkpt lat="43.71514048972041" lon="11.187986730474032"><ele>194.0</ele><time>2026-03-29T08:41:46Z</time></trkpt><trkpt lat="43.71522881675392" lon="11.188066741524581"><ele>194.0</ele><time>2026-03-29T08:41:47Z</time></trkpt><trkpt lat="43.7153284026083" lon="11.188137897574508"><ele>194.0</ele><time>2026-03-29T08:41:48Z</time></trkpt><trkpt lat="43.715420589361706" lon="11.188221109345683"><ele>194.0</ele><time>2026-03-29T08:41:49Z</time></trkpt><trkpt lat="43.71551336322419" lon="11.188306554223425"><ele>193.25</ele><time>2026-03-29T08:41:50Z</time></trkpt><trkpt lat="43.71561328373081" lon="11.188388621431807"><ele>192.5</ele><time>2026-03-29T08:41:51Z</time></trkpt><trkpt lat="43.71570562807648" lon="11.188479106853"><ele>191.75</ele><time>2026-03-29T08:41:52Z</time></trkpt><trkpt lat="43.715798324928976" lon="11.18858787813018"><ele>191.0</ele><time>2026-03-29T08:41:53Z</time></trkpt><trkpt lat="43.71588008459435" lon="11.18871135358031"><ele>191.0</ele><time>2026-03-29T08:41:54Z</time></trkpt><trkpt lat="43.7159531714822" lon="11.188844415814392"><ele>191.0</ele><time>2026-03-29T08:41:55Z</time></trkpt><trkpt lat="43.716026245047054" lon="11.18897001731685"><ele>191.0</ele><time>2026-03-29T08:41:56Z</time></trkpt><trkpt lat="43.716113294403186" lon="11.189082848040668"><ele>191.0</ele><time>2026-03-29T08:41:57Z</time></trkpt><trkpt lat="43.71620948162625" lon="11.189189549856234"><ele>188.0</ele><time>2026-03-29T08:41:58Z</time></trkpt><trkpt lat="43.71630837805024" lon="11.189300875221306"><ele>185.0</ele><time>2026-03-29T08:41:59Z</time></trkpt><trkpt lat="43.716382865486295" lon="11.189432763545083"><ele>182.0</ele><time>2026-03-29T08:42:00Z</time></trkpt><trkpt lat="43.71642945470402" lon="11.189602412890435"><ele>179.0</ele><time>2026-03-29T08:42:01Z</time></trkpt><trkpt lat="43.71645390528771" lon="11.189774255739755"><ele>179.0</ele><time>2026-03-29T08:42:02Z</time></trkpt><trkpt lat="43.71646219087406" lon="11.18995057995086"><ele>179.0</ele><time>2026-03-29T08:42:03Z</time></trkpt><trkpt lat="43.71647016107476" lon="11.190122974716196"><ele>179.0</ele><time>2026-03-29T08:42:04Z</time></trkpt><trkpt lat="43.716482789106486" lon="11.190294194291704"><ele>179.0</ele><time>2026-03-29T08:42:05Z</time></trkpt><trkpt lat="43.71648355540129" lon="11.190467112972748"><ele>179.0</ele><time>2026-03-29T08:42:06Z</time></trkpt><trkpt lat="43.71646827160594" lon="11.190645522736478"><ele>179.0</ele><time>2026-03-29T08:42:07Z</time></trkpt><trkpt lat="43.71643800854454" lon="11.190815517164147"><ele>179.0</ele><time>2026-03-29T08:42:08Z</time></trkpt><trkpt lat="43.71638634576485" lon="11.190975060005151"><ele>179.0</ele><time>2026-03-29T08:42:09Z</time></trkpt><trkpt lat="43.716324642971806" lon="11.191127706126823"><ele>179.0</ele><time>2026-03-29T08:42:10Z</time></trkpt><trkpt lat="43.716267151690694" lon="11.191274412983033"><ele>179.0</ele><time>2026-03-29T08:42:11Z</time></trkpt><trkpt lat="43.716216885632925" lon="11.19142408737282"><ele>179.0</ele><time>2026-03-29T08:42:12Z</time></trkpt><trkpt lat="43.716192446214436" lon="11.191577378135818"><ele>179.0</ele><time>2026-03-29T08:42:13Z</time></trkpt><trkpt lat="43.716194437597146" lon="11.19174815145131"><ele>179.0</ele><time>2026-03-29T08:42:14Z</time></trkpt><trkpt lat="43.71622898533142" lon="11.191894632158496"><ele>179.0</ele><time>2026-03-29T08:42:15Z</time></trkpt><trkpt lat="43.7162965280207" lon="11.19202415684362"><ele>179.0</ele><time>2026-03-29T08:42:16Z</time></trkpt><trkpt lat="43.716354911385615" lon="11.192135066805408"><ele>179.0</ele><time>2026-03-29T08:42:17Z</time></trkpt><trkpt lat="43.716434500766034" lon="11.19225730881821"><ele>179.0</ele><time>2026-03-29T08:42:18Z</time></trkpt><trkpt lat="43.71650334737379" lon="11.192358451111959"><ele>178.5</ele><time>2026-03-29T08:42:19Z</time></trkpt><trkpt lat="43.71656438981627" lon="11.192485127865709"><ele>178.0</ele><time>2026-03-29T08:42:20Z</time></trkpt><trkpt lat="43.71662660602573" lon="11.192561455668761"><ele>177.5</ele><time>2026-03-29T08:42:21Z</time></trkpt><trkpt lat="43.71667498923615" lon="11.192662636813463"><ele>177.0</ele><time>2026-03-29T08:42:22Z</time></trkpt><trkpt lat="43.71673089739548" lon="11.19275538602873"><ele>176.5</ele><time>2026-03-29T08:42:23Z</time></trkpt><trkpt lat="43.71678544415945" lon="11.19282607700634"><ele>176.0</ele><time>2026-03-29T08:42:24Z</time></trkpt><trkpt lat="43.71684483854829" lon="11.192896047430814"><ele>176.0</ele><time>2026-03-29T08:42:25Z</time></trkpt><trkpt lat="43.716885111332644" lon="11.192963936342107"><ele>176.0</ele><time>2026-03-29T08:42:26Z</time></trkpt><trkpt lat="43.71693497234222" lon="11.193032011920753"><ele>176.0</ele><time>2026-03-29T08:42:27Z</time></trkpt><trkpt lat="43.71699450088473" lon="11.19309336278912"><ele>176.0</ele><time>2026-03-29T08:42:28Z</time></trkpt><trkpt lat="43.71704398635072" lon="11.193150604833091"><ele>176.0</ele><time>2026-03-29T08:42:29Z</time></trkpt><trkpt lat="43.7170914501911" lon="11.193210745750473"><ele>176.0</ele><time>2026-03-29T08:42:30Z</time></trkpt><trkpt lat="43.71718955324638" lon="11.19331226541805"><ele>177.0</ele><time>2026-03-29T08:42:32Z</time></trkpt><trkpt lat="43.717298231630856" lon="11.193388487661368"><ele>178.0</ele><time>2026-03-29T08:42:34Z</time></trkpt><trkpt lat="43.7173968146463" lon="11.193476862087495"><ele>179.0</ele><time>2026-03-29T08:42:36Z</time></trkpt><trkpt lat="43.717503949001134" lon="11.193549640588024"><ele>180.0</ele><time>2026-03-29T08:42:38Z</time></trkpt><trkpt lat="43.71761201407048" lon="11.193622537936312"><ele>180.0</ele><time>2026-03-29T08:42:40Z</time></trkpt><trkpt lat="43.71771620639113" lon="11.193697958710542"><ele>180.0</ele><time>2026-03-29T08:42:42Z</time></trkpt><trkpt lat="43.71782201425013" lon="11.193770052098836"><ele>180.0</ele><time>2026-03-29T08:42:44Z</time></trkpt><trkpt lat="43.717926114312945" lon="11.193844320834723"><ele>180.0</ele><time>2026-03-29T08:42:46Z</time></trkpt><trkpt lat="43.718039897640885" lon="11.193914751087949"><ele>180.25</ele><time>2026-03-29T08:42:48Z</time></trkpt><trkpt lat="43.718141551114144" lon="11.193990118367482"><ele>180.5</ele><time>2026-03-29T08:42:50Z</time></trkpt><trkpt lat="43.718247183197924" lon="11.194067278023828"><ele>180.75</ele><time>2026-03-29T08:42:52Z</time></trkpt><trkpt lat="43.71833198125487" lon="11.194151785480768"><ele>181.0</ele><time>2026-03-29T08:42:54Z</time></trkpt><trkpt lat="43.718456778398114" lon="11.194186681809835"><ele>181.0</ele><time>2026-03-29T08:42:56Z</time></trkpt><trkpt lat="43.71852060555094" lon="11.19418482089183"><ele>181.0</ele><time>2026-03-29T08:42:57Z</time></trkpt><trkpt lat="43.71863361181555" lon="11.194128136764698"><ele>181.0</ele><time>2026-03-29T08:42:59Z</time></trkpt><trkpt lat="43.71873043322875" lon="11.194067491937698"><ele>181.0</ele><time>2026-03-29T08:43:01Z</time></trkpt><trkpt lat="43.71882377514097" lon="11.193976819858026"><ele>181.0</ele><time>2026-03-29T08:43:03Z</time></trkpt><trkpt lat="43.71892409565458" lon="11.193898821728354"><ele>180.75</ele><time>2026-03-29T08:43:05Z</time></trkpt><trkpt lat="43.71902077955278" lon="11.193818988051351"><ele>180.5</ele><time>2026-03-29T08:43:07Z</time></trkpt><trkpt lat="43.71912231483011" lon="11.19373002601005"><ele>180.25</ele><time>2026-03-29T08:43:09Z</time></trkpt><trkpt lat="43.71921653896102" lon="11.193649816016126"><ele>180.0</ele><time>2026-03-29T08:43:11Z</time></trkpt><trkpt lat="43.71931144805466" lon="11.19357074483036"><ele>181.8</ele><time>2026-03-29T08:43:13Z</time></trkpt><trkpt lat="43.719406074861766" lon="11.193491507061438"><ele>183.6</ele><time>2026-03-29T08:43:15Z</time></trkpt><trkpt lat="43.719501440072555" lon="11.193421412958019"><ele>185.39999999999998</ele><time>2026-03-29T08:43:17Z</time></trkpt><trkpt lat="43.71960143343046" lon="11.193340501780108"><ele>187.2</ele><time>2026-03-29T08:43:19Z</time></trkpt><trkpt lat="43.719697822368225" lon="11.193265774189609"><ele>189.0</ele><time>2026-03-29T08:43:21Z</time></trkpt><trkpt lat="43.71979637484331" lon="11.19319429245599"><ele>188.0</ele><time>2026-03-29T08:43:23Z</time></trkpt><trkpt lat="43.719894848169425" lon="11.19310119658852"><ele>187.0</ele><time>2026-03-29T08:43:25Z</time></trkpt><trkpt lat="43.71998730717665" lon="11.19302833887416"><ele>186.0</ele><time>2026-03-29T08:43:27Z</time></trkpt><trkpt lat="43.720084527075976" lon="11.192956811297046"><ele>185.0</ele><time>2026-03-29T08:43:29Z</time></trkpt><trkpt lat="43.72018422457455" lon="11.192894134700682"><ele>184.0</ele><time>2026-03-29T08:43:31Z</time></trkpt><trkpt lat="43.72028280584113" lon="11.192821751063178"><ele>184.0</ele><time>2026-03-29T08:43:33Z</time></trkpt><trkpt lat="43.72038152026572" lon="11.19276638210916"><ele>184.0</ele><time>2026-03-29T08:43:35Z</time></trkpt><trkpt lat="43.72049562108092" lon="11.192775480437785"><ele>184.0</ele><time>2026-03-29T08:43:37Z</time></trkpt><trkpt lat="43.72060910305197" lon="11.192824249088046"><ele>184.0</ele><time>2026-03-29T08:43:39Z</time></trkpt><trkpt lat="43.72070499394743" lon="11.192922342801754"><ele>184.0</ele><time>2026-03-29T08:43:41Z</time></trkpt><trkpt lat="43.72076659884743" lon="11.193077348475374"><ele>184.0</ele><time>2026-03-29T08:43:43Z</time></trkpt><trkpt lat="43.720786449797295" lon="11.193170520048751"><ele>184.0</ele><time>2026-03-29T08:43:44Z</time></trkpt><trkpt lat="43.72078660746699" lon="11.193262554881738"><ele>184.0</ele><time>2026-03-29T08:43:45Z</time></trkpt><trkpt lat="43.720773899742596" lon="11.193359818707718"><ele>184.0</ele><time>2026-03-29T08:43:46Z</time></trkpt><trkpt lat="43.720754757453676" lon="11.193454562023875"><ele>184.0</ele><time>2026-03-29T08:43:47Z</time></trkpt><trkpt lat="43.72073050153419" lon="11.19354774927442"><ele>184.0</ele><time>2026-03-29T08:43:48Z</time></trkpt><trkpt lat="43.720704146877196" lon="11.193641835022074"><ele>184.0</ele><time>2026-03-29T08:43:49Z</time></trkpt><trkpt lat="43.720673107569624" lon="11.193733585084711"><ele>184.0</ele><time>2026-03-29T08:43:50Z</time></trkpt><trkpt lat="43.720641199080774" lon="11.19382788670805"><ele>184.0</ele><time>2026-03-29T08:43:51Z</time></trkpt><trkpt lat="43.72060815979029" lon="11.193918862081672"><ele>184.0</ele><time>2026-03-29T08:43:52Z</time></trkpt><trkpt lat="43.72057836529194" lon="11.194012205585318"><ele>184.0</ele><time>2026-03-29T08:43:53Z</time></trkpt><trkpt lat="43.720549722124396" lon="11.19410513588439"><ele>184.0</ele><time>2026-03-29T08:43:54Z</time></trkpt><trkpt lat="43.7205227191922" lon="11.194200236647527"><ele>183.14285714285714</ele><time>2026-03-29T08:43:55Z</time></trkpt><trkpt lat="43.72049768466192" lon="11.194303101449979"><ele>182.28571428571428</ele><time>2026-03-29T08:43:56Z</time></trkpt><trkpt lat="43.72047866349761" lon="11.19439885898511"><ele>181.42857142857142</ele><time>2026-03-29T08:43:57Z</time></trkpt><trkpt lat="43.72046073711036" lon="11.194497436338592"><ele>180.57142857142856</ele><time>2026-03-29T08:43:58Z</time></trkpt><trkpt lat="43.72044859672165" lon="11.194597411360919"><ele>179.71428571428572</ele><time>2026-03-29T08:43:59Z</time></trkpt><trkpt lat="43.720443980708986" lon="11.194701102621291"><ele>178.85714285714283</ele><time>2026-03-29T08:44:00Z</time></trkpt><trkpt lat="43.72044139073122" lon="11.194802187116528"><ele>178.0</ele><time>2026-03-29T08:44:01Z</time></trkpt><trkpt lat="43.72044017482789" lon="11.194904177815433"><ele>177.16666666666669</ele><time>2026-03-29T08:44:02Z</time></trkpt><trkpt lat="43.72044969360226" lon="11.195005715037059"><ele>176.33333333333334</ele><time>2026-03-29T08:44:03Z</time></trkpt><trkpt lat="43.72046088577229" lon="11.195106548831218"><ele>175.5</ele><time>2026-03-29T08:44:04Z</time></trkpt><trkpt lat="43.72047300233042" lon="11.195207820574913"><ele>174.66666666666666</ele><time>2026-03-29T08:44:05Z</time></trkpt><trkpt lat="43.720489850958955" lon="11.195309625719606"><ele>173.83333333333331</ele><time>2026-03-29T08:44:06Z</time></trkpt><trkpt lat="43.72051080618502" lon="11.195410323748165"><ele>173.0</ele><time>2026-03-29T08:44:07Z</time></trkpt><trkpt lat="43.72053381260024" lon="11.195512004788899"><ele>173.0</ele><time>2026-03-29T08:44:08Z</time></trkpt><trkpt lat="43.72055531927646" lon="11.195614755401767"><ele>173.0</ele><time>2026-03-29T08:44:09Z</time></trkpt><trkpt lat="43.720578170736765" lon="11.195716207660334"><ele>173.0</ele><time>2026-03-29T08:44:10Z</time></trkpt><trkpt lat="43.72060150964212" lon="11.195816683175925"><ele>173.0</ele><time>2026-03-29T08:44:11Z</time></trkpt><trkpt lat="43.72062330427664" lon="11.195918363108264"><ele>173.0</ele><time>2026-03-29T08:44:12Z</time></trkpt><trkpt lat="43.72064574126319" lon="11.196018503755466"><ele>173.0</ele><time>2026-03-29T08:44:13Z</time></trkpt><trkpt lat="43.720670336269734" lon="11.196118847667572"><ele>173.28571428571428</ele><time>2026-03-29T08:44:14Z</time></trkpt><trkpt lat="43.72069455400027" lon="11.19621675068926"><ele>173.57142857142858</ele><time>2026-03-29T08:44:15Z</time></trkpt><trkpt lat="43.72071574763388" lon="11.196315100983457"><ele>173.85714285714286</ele><time>2026-03-29T08:44:16Z</time></trkpt><trkpt lat="43.72073823105239" lon="11.196414116244355"><ele>174.14285714285714</ele><time>2026-03-29T08:44:17Z</time></trkpt><trkpt lat="43.720759742105585" lon="11.196514130224148"><ele>174.42857142857144</ele><time>2026-03-29T08:44:18Z</time></trkpt><trkpt lat="43.72077748528628" lon="11.196611211221532"><ele>174.71428571428572</ele><time>2026-03-29T08:44:19Z</time></trkpt><trkpt lat="43.72080087818637" lon="11.196712736305404"><ele>175.0</ele><time>2026-03-29T08:44:20Z</time></trkpt><trkpt lat="43.72082372927295" lon="11.196812060603857"><ele>175.5</ele><time>2026-03-29T08:44:21Z</time></trkpt><trkpt lat="43.7208431661504" lon="11.196909741710796"><ele>176.0</ele><time>2026-03-29T08:44:22Z</time></trkpt><trkpt lat="43.72086711388963" lon="11.197011364325634"><ele>176.5</ele><time>2026-03-29T08:44:23Z</time></trkpt><trkpt lat="43.72089020059176" lon="11.197112029792233"><ele>177.0</ele><time>2026-03-29T08:44:24Z</time></trkpt><trkpt lat="43.720913694884494" lon="11.197210501055386"><ele>177.5</ele><time>2026-03-29T08:44:25Z</time></trkpt><trkpt lat="43.72093516946884" lon="11.19730966469724"><ele>178.0</ele><time>2026-03-29T08:44:26Z</time></trkpt><trkpt lat="43.72095731903674" lon="11.1974089222368"><ele>178.5</ele><time>2026-03-29T08:44:27Z</time></trkpt><trkpt lat="43.72098015657917" lon="11.197509100448743"><ele>179.0</ele><time>2026-03-29T08:44:28Z</time></trkpt><trkpt lat="43.72100088543455" lon="11.197611366827056"><ele>179.5</ele><time>2026-03-29T08:44:29Z</time></trkpt><trkpt lat="43.72102041110569" lon="11.197709123183511"><ele>180.0</ele><time>2026-03-29T08:44:30Z</time></trkpt><trkpt lat="43.7210404898755" lon="11.197810573019725"><ele>180.5</ele><time>2026-03-29T08:44:31Z</time></trkpt><trkpt lat="43.72106148172061" lon="11.197913910902608"><ele>181.0</ele><time>2026-03-29T08:44:32Z</time></trkpt><trkpt lat="43.72108727142817" lon="11.198020351113446"><ele>179.83333333333334</ele><time>2026-03-29T08:44:33Z</time></trkpt><trkpt lat="43.72110662504253" lon="11.198122715404647"><ele>178.66666666666669</ele><time>2026-03-29T08:44:34Z</time></trkpt><trkpt lat="43.72112626570936" lon="11.198227300183957"><ele>177.5</ele><time>2026-03-29T08:44:35Z</time></trkpt><trkpt lat="43.72114934274557" lon="11.198331495224332"><ele>176.33333333333334</ele><time>2026-03-29T08:44:36Z</time></trkpt><trkpt lat="43.72116653207779" lon="11.198435708128628"><ele>175.16666666666666</ele><time>2026-03-29T08:44:37Z</time></trkpt><trkpt lat="43.72119292104628" lon="11.198543974336816"><ele>174.0</ele><time>2026-03-29T08:44:38Z</time></trkpt><trkpt lat="43.72121833597311" lon="11.19865045346541"><ele>174.0</ele><time>2026-03-29T08:44:39Z</time></trkpt><trkpt lat="43.7212516989506" lon="11.19875310619582"><ele>174.0</ele><time>2026-03-29T08:44:40Z</time></trkpt><trkpt lat="43.721308604589034" lon="11.198860575103414"><ele>174.0</ele><time>2026-03-29T08:44:41Z</time></trkpt><trkpt lat="43.721359883402435" lon="11.198945110659169"><ele>174.0</ele><time>2026-03-29T08:44:42Z</time></trkpt><trkpt lat="43.72141819726455" lon="11.199028001209292"><ele>174.0</ele><time>2026-03-29T08:44:43Z</time></trkpt><trkpt lat="43.721476794536144" lon="11.19910108288628"><ele>174.0</ele><time>2026-03-29T08:44:44Z</time></trkpt><trkpt lat="43.72154427570415" lon="11.19915996463476"><ele>173.66666666666666</ele><time>2026-03-29T08:44:45Z</time></trkpt><trkpt lat="43.72161629533941" lon="11.199202472600787"><ele>173.33333333333334</ele><time>2026-03-29T08:44:46Z</time></trkpt><trkpt lat="43.72169145390844" lon="11.19923129851779"><ele>173.0</ele><time>2026-03-29T08:44:47Z</time></trkpt><trkpt lat="43.721769375321415" lon="11.199247775357112"><ele>172.66666666666669</ele><time>2026-03-29T08:44:48Z</time></trkpt><trkpt lat="43.72184516784879" lon="11.199261105753754"><ele>172.33333333333334</ele><time>2026-03-29T08:44:49Z</time></trkpt><trkpt lat="43.7219235060831" lon="11.199269699327226"><ele>172.0</ele><time>2026-03-29T08:44:50Z</time></trkpt><trkpt lat="43.72199867093525" lon="11.199273235603798"><ele>171.66666666666669</ele><time>2026-03-29T08:44:51Z</time></trkpt><trkpt lat="43.72206912424155" lon="11.199276336787456"><ele>171.33333333333334</ele><time>2026-03-29T08:44:52Z</time></trkpt><trkpt lat="43.7221391777571" lon="11.199282465483256"><ele>171.0</ele><time>2026-03-29T08:44:53Z</time></trkpt><trkpt lat="43.72220700816996" lon="11.199286877286754"><ele>170.66666666666666</ele><time>2026-03-29T08:44:54Z</time></trkpt><trkpt lat="43.72227215944762" lon="11.19928726290474"><ele>170.33333333333331</ele><time>2026-03-29T08:44:55Z</time></trkpt><trkpt lat="43.72239583961399" lon="11.199286937510337"><ele>170.0</ele><time>2026-03-29T08:44:57Z</time></trkpt><trkpt lat="43.722514332966306" lon="11.199293820722154"><ele>170.0</ele><time>2026-03-29T08:44:59Z</time></trkpt><trkpt lat="43.72263620954113" lon="11.199289823405069"><ele>170.0</ele><time>2026-03-29T08:45:01Z</time></trkpt><trkpt lat="43.722753296918185" lon="11.199277664048367"><ele>170.0</ele><time>2026-03-29T08:45:03Z</time></trkpt><trkpt lat="43.72286468943684" lon="11.199239546435612"><ele>170.0</ele><time>2026-03-29T08:45:05Z</time></trkpt><trkpt lat="43.722972894096365" lon="11.199184138691445"><ele>171.0</ele><time>2026-03-29T08:45:07Z</time></trkpt><trkpt lat="43.72307970641846" lon="11.199130593474218"><ele>172.0</ele><time>2026-03-29T08:45:09Z</time></trkpt><trkpt lat="43.72318172123698" lon="11.199079630374667"><ele>173.0</ele><time>2026-03-29T08:45:11Z</time></trkpt><trkpt lat="43.723286854857726" lon="11.199031027144533"><ele>174.0</ele><time>2026-03-29T08:45:13Z</time></trkpt><trkpt lat="43.723386140890966" lon="11.198974611467754"><ele>175.0</ele><time>2026-03-29T08:45:15Z</time></trkpt><trkpt lat="43.723484040037626" lon="11.198916712381616"><ele>176.6</ele><time>2026-03-29T08:45:17Z</time></trkpt><trkpt lat="43.723581088646185" lon="11.19886577202971"><ele>178.2</ele><time>2026-03-29T08:45:19Z</time></trkpt><trkpt lat="43.72367533670469" lon="11.198822439221969"><ele>179.8</ele><time>2026-03-29T08:45:21Z</time></trkpt><trkpt lat="43.72377072140594" lon="11.198809894832824"><ele>181.4</ele><time>2026-03-29T08:45:23Z</time></trkpt><trkpt lat="43.72387192745965" lon="11.19878549197393"><ele>183.0</ele><time>2026-03-29T08:45:25Z</time></trkpt><trkpt lat="43.72397767110265" lon="11.198767246458022"><ele>183.0</ele><time>2026-03-29T08:45:27Z</time></trkpt><trkpt lat="43.72408941548691" lon="11.198753529216301"><ele>183.0</ele><time>2026-03-29T08:45:29Z</time></trkpt><trkpt lat="43.72421199263428" lon="11.198743669328394"><ele>183.0</ele><time>2026-03-29T08:45:31Z</time></trkpt><trkpt lat="43.72428068206786" lon="11.198741407054028"><ele>183.0</ele><time>2026-03-29T08:45:32Z</time></trkpt><trkpt lat="43.72434997792079" lon="11.198738084280192"><ele>183.0</ele><time>2026-03-29T08:45:33Z</time></trkpt><trkpt lat="43.724420843328595" lon="11.198748958194944"><ele>183.0</ele><time>2026-03-29T08:45:34Z</time></trkpt><trkpt lat="43.7244910300017" lon="11.198777488789553"><ele>183.83333333333334</ele><time>2026-03-29T08:45:35Z</time></trkpt><trkpt lat="43.72455412666397" lon="11.19881814315361"><ele>184.66666666666666</ele><time>2026-03-29T08:45:36Z</time></trkpt><trkpt lat="43.72461642455478" lon="11.198874288041504"><ele>185.5</ele><time>2026-03-29T08:45:37Z</time></trkpt><trkpt lat="43.724675939415796" lon="11.198941469865687"><ele>186.33333333333331</ele><time>2026-03-29T08:45:38Z</time></trkpt><trkpt lat="43.72473270698682" lon="11.199013580235706"><ele>187.16666666666666</ele><time>2026-03-29T08:45:39Z</time></trkpt><trkpt lat="43.724788201996915" lon="11.199087731245001"><ele>188.0</ele><time>2026-03-29T08:45:40Z</time></trkpt><trkpt lat="43.72484322428197" lon="11.199158598284551"><ele>186.33333333333331</ele><time>2026-03-29T08:45:41Z</time></trkpt><trkpt lat="43.7249029533439" lon="11.199227857836197"><ele>184.66666666666666</ele><time>2026-03-29T08:45:42Z</time></trkpt><trkpt lat="43.72496609889699" lon="11.199289405304544"><ele>183.0</ele><time>2026-03-29T08:45:43Z</time></trkpt><trkpt lat="43.72502739688079" lon="11.199354129419282"><ele>181.33333333333334</ele><time>2026-03-29T08:45:44Z</time></trkpt><trkpt lat="43.725085783679845" lon="11.199421438408045"><ele>179.66666666666669</ele><time>2026-03-29T08:45:45Z</time></trkpt><trkpt lat="43.725146250354925" lon="11.199486648578915"><ele>178.0</ele><time>2026-03-29T08:45:46Z</time></trkpt><trkpt lat="43.725207950036676" lon="11.199550975062142"><ele>177.99999999999997</ele><time>2026-03-29T08:45:47Z</time></trkpt><trkpt lat="43.72527112673613" lon="11.199618234957434"><ele>178.0</ele><time>2026-03-29T08:45:48Z</time></trkpt><trkpt lat="43.72533029556675" lon="11.199685183438042"><ele>178.0</ele><time>2026-03-29T08:45:49Z</time></trkpt><trkpt lat="43.725387240897376" lon="11.199748696285328"><ele>178.0</ele><time>2026-03-29T08:45:50Z</time></trkpt><trkpt lat="43.72544476868414" lon="11.199806780713002"><ele>178.0</ele><time>2026-03-29T08:45:51Z</time></trkpt><trkpt lat="43.725499612224375" lon="11.199866376291668"><ele>177.99999999999997</ele><time>2026-03-29T08:45:52Z</time></trkpt><trkpt lat="43.7255545524032" lon="11.199927253089536"><ele>178.0</ele><time>2026-03-29T08:45:53Z</time></trkpt><trkpt lat="43.72560849004712" lon="11.199987577567416"><ele>178.0</ele><time>2026-03-29T08:45:54Z</time></trkpt><trkpt lat="43.72566069941024" lon="11.200048140057229"><ele>178.0</ele><time>2026-03-29T08:45:55Z</time></trkpt><trkpt lat="43.725711401579765" lon="11.200106981375397"><ele>178.0</ele><time>2026-03-29T08:45:56Z</time></trkpt><trkpt lat="43.725763460207745" lon="11.200162683839729"><ele>178.0</ele><time>2026-03-29T08:45:57Z</time></trkpt><trkpt lat="43.725816685086315" lon="11.200215030133988"><ele>178.0</ele><time>2026-03-29T08:45:58Z</time></trkpt><trkpt lat="43.72587369537316" lon="11.20026436262542"><ele>178.0</ele><time>2026-03-29T08:45:59Z</time></trkpt><trkpt lat="43.7259814860931" lon="11.200362224349869"><ele>178.16666666666669</ele><time>2026-03-29T08:46:01Z</time></trkpt><trkpt lat="43.726085803486384" lon="11.20044045251585"><ele>178.33333333333334</ele><time>2026-03-29T08:46:03Z</time></trkpt><trkpt lat="43.726146895792496" lon="11.200480702168864"><ele>178.5</ele><time>2026-03-29T08:46:04Z</time></trkpt><trkpt lat="43.72621174545206" lon="11.200519934651524"><ele>178.66666666666666</ele><time>2026-03-29T08:46:05Z</time></trkpt><trkpt lat="43.726280368391016" lon="11.20055094858274"><ele>178.83333333333331</ele><time>2026-03-29T08:46:06Z</time></trkpt><trkpt lat="43.72634640496128" lon="11.200587847597482"><ele>179.0</ele><time>2026-03-29T08:46:07Z</time></trkpt><trkpt lat="43.72641867425159" lon="11.200625520215574"><ele>178.0</ele><time>2026-03-29T08:46:08Z</time></trkpt><trkpt lat="43.72649624253967" lon="11.200669161745505"><ele>177.0</ele><time>2026-03-29T08:46:09Z</time></trkpt><trkpt lat="43.726567383231426" lon="11.200716221363363"><ele>176.0</ele><time>2026-03-29T08:46:10Z</time></trkpt><trkpt lat="43.726645286092875" lon="11.200767421487015"><ele>175.0</ele><time>2026-03-29T08:46:11Z</time></trkpt><trkpt lat="43.72672367257815" lon="11.20081974038179"><ele>174.0</ele><time>2026-03-29T08:46:12Z</time></trkpt><trkpt lat="43.72680169853557" lon="11.200876712729935"><ele>173.0</ele><time>2026-03-29T08:46:13Z</time></trkpt><trkpt lat="43.72687926634392" lon="11.200943530543762"><ele>174.2</ele><time>2026-03-29T08:46:14Z</time></trkpt><trkpt lat="43.72695589791535" lon="11.20101139230372"><ele>175.4</ele><time>2026-03-29T08:46:15Z</time></trkpt><trkpt lat="43.72703295575474" lon="11.201082802147932"><ele>176.6</ele><time>2026-03-29T08:46:16Z</time></trkpt><trkpt lat="43.72710735649082" lon="11.201158910482881"><ele>177.79999999999998</ele><time>2026-03-29T08:46:17Z</time></trkpt><trkpt lat="43.727181964435935" lon="11.20123863469818"><ele>179.0</ele><time>2026-03-29T08:46:18Z</time></trkpt><trkpt lat="43.72725395886871" lon="11.201318381421533"><ele>179.0</ele><time>2026-03-29T08:46:19Z</time></trkpt><trkpt lat="43.72732020199105" lon="11.201404641022117"><ele>179.0</ele><time>2026-03-29T08:46:20Z</time></trkpt><trkpt lat="43.72738589247721" lon="11.20148963926975"><ele>179.0</ele><time>2026-03-29T08:46:21Z</time></trkpt><trkpt lat="43.72745138099465" lon="11.201572116877033"><ele>179.0</ele><time>2026-03-29T08:46:22Z</time></trkpt><trkpt lat="43.727514015742514" lon="11.201651824664165"><ele>179.0</ele><time>2026-03-29T08:46:23Z</time></trkpt><trkpt lat="43.72758079154726" lon="11.201732470600405"><ele>179.0</ele><time>2026-03-29T08:46:24Z</time></trkpt><trkpt lat="43.72764340180502" lon="11.201814265616358"><ele>176.83333333333331</ele><time>2026-03-29T08:46:25Z</time></trkpt><trkpt lat="43.72770754507464" lon="11.20189564314889"><ele>174.66666666666666</ele><time>2026-03-29T08:46:26Z</time></trkpt><trkpt lat="43.727772665754514" lon="11.201973210577535"><ele>172.5</ele><time>2026-03-29T08:46:27Z</time></trkpt><trkpt lat="43.72783918205624" lon="11.20204586485159"><ele>170.33333333333334</ele><time>2026-03-29T08:46:28Z</time></trkpt><trkpt lat="43.72790314520534" lon="11.202120977449466"><ele>168.16666666666669</ele><time>2026-03-29T08:46:29Z</time></trkpt><trkpt lat="43.72796538399461" lon="11.202193880553029"><ele>166.0</ele><time>2026-03-29T08:46:30Z</time></trkpt><trkpt lat="43.72802622634733" lon="11.202269470363081"><ele>165.33333333333334</ele><time>2026-03-29T08:46:31Z</time></trkpt><trkpt lat="43.72809140442244" lon="11.202346290455168"><ele>164.66666666666669</ele><time>2026-03-29T08:46:32Z</time></trkpt><trkpt lat="43.72815540031276" lon="11.202417669236784"><ele>164.0</ele><time>2026-03-29T08:46:33Z</time></trkpt><trkpt lat="43.728221096611925" lon="11.202482793666162"><ele>163.33333333333334</ele><time>2026-03-29T08:46:34Z</time></trkpt><trkpt lat="43.72828633678765" lon="11.202546099966755"><ele>162.66666666666666</ele><time>2026-03-29T08:46:35Z</time></trkpt><trkpt lat="43.72834975685051" lon="11.202611642591012"><ele>162.0</ele><time>2026-03-29T08:46:36Z</time></trkpt><trkpt lat="43.72841488650011" lon="11.202673702910499"><ele>162.0</ele><time>2026-03-29T08:46:37Z</time></trkpt><trkpt lat="43.72847892181945" lon="11.20273080808887"><ele>162.0</ele><time>2026-03-29T08:46:38Z</time></trkpt><trkpt lat="43.72854008859428" lon="11.202790549467593"><ele>162.0</ele><time>2026-03-29T08:46:39Z</time></trkpt><trkpt lat="43.7286000946951" lon="11.202850993481745"><ele>162.0</ele><time>2026-03-29T08:46:40Z</time></trkpt><trkpt lat="43.72865952406577" lon="11.202911152016057"><ele>162.0</ele><time>2026-03-29T08:46:41Z</time></trkpt><trkpt lat="43.72871233836499" lon="11.202970145716552"><ele>162.0</ele><time>2026-03-29T08:46:42Z</time></trkpt><trkpt lat="43.72876817870962" lon="11.20302965371301"><ele>162.0</ele><time>2026-03-29T08:46:43Z</time></trkpt><trkpt lat="43.728822571040595" lon="11.20308833749607"><ele>161.2</ele><time>2026-03-29T08:46:44Z</time></trkpt><trkpt lat="43.72887528949116" lon="11.203146906930781"><ele>160.39999999999998</ele><time>2026-03-29T08:46:45Z</time></trkpt><trkpt lat="43.72896874343126" lon="11.203259838045836"><ele>159.60000000000002</ele><time>2026-03-29T08:46:47Z</time></trkpt><trkpt lat="43.72905141087779" lon="11.203379072613025"><ele>158.8</ele><time>2026-03-29T08:46:49Z</time></trkpt><trkpt lat="43.72913235013147" lon="11.203510066576754"><ele>158.0</ele><time>2026-03-29T08:46:51Z</time></trkpt><trkpt lat="43.729212211171884" lon="11.203633732585445"><ele>159.0</ele><time>2026-03-29T08:46:53Z</time></trkpt><trkpt lat="43.72929464383186" lon="11.20375509489673"><ele>160.0</ele><time>2026-03-29T08:46:55Z</time></trkpt><trkpt lat="43.72937930714365" lon="11.203864461851744"><ele>161.0</ele><time>2026-03-29T08:46:57Z</time></trkpt><trkpt lat="43.729464082984336" lon="11.203968514480868"><ele>162.0</ele><time>2026-03-29T08:46:59Z</time></trkpt><trkpt lat="43.72954948232895" lon="11.204068706358763"><ele>162.0</ele><time>2026-03-29T08:47:01Z</time></trkpt><trkpt lat="43.72960005433105" lon="11.20415799880185"><ele>162.0</ele><time>2026-03-29T08:47:03Z</time></trkpt><trkpt lat="43.729731328283826" lon="11.20406498167157"><ele>162.0</ele><time>2026-03-29T08:47:05Z</time></trkpt><trkpt lat="43.72982040105177" lon="11.204006340273985"><ele>162.0</ele><time>2026-03-29T08:47:07Z</time></trkpt><trkpt lat="43.729924655821975" lon="11.203955088342353"><ele>162.0</ele><time>2026-03-29T08:47:09Z</time></trkpt><trkpt lat="43.7300382882387" lon="11.203887998973718"><ele>162.0</ele><time>2026-03-29T08:47:11Z</time></trkpt><trkpt lat="43.73009956623828" lon="11.203867062592751"><ele>162.0</ele><time>2026-03-29T08:47:12Z</time></trkpt><trkpt lat="43.73016108164771" lon="11.20383710908011"><ele>162.0</ele><time>2026-03-29T08:47:13Z</time></trkpt><trkpt lat="43.73022053605297" lon="11.203806142850087"><ele>162.0</ele><time>2026-03-29T08:47:14Z</time></trkpt><trkpt lat="43.73028152980354" lon="11.203775772773868"><ele>162.0</ele><time>2026-03-29T08:47:15Z</time></trkpt><trkpt lat="43.73034831206159" lon="11.203748934993857"><ele>162.0</ele><time>2026-03-29T08:47:16Z</time></trkpt><trkpt lat="43.730419553330016" lon="11.203733952953286"><ele>162.0</ele><time>2026-03-29T08:47:17Z</time></trkpt><trkpt lat="43.73049382237478" lon="11.203739875850305"><ele>161.66666666666666</ele><time>2026-03-29T08:47:18Z</time></trkpt><trkpt lat="43.73056707941518" lon="11.203733247198624"><ele>161.33333333333334</ele><time>2026-03-29T08:47:19Z</time></trkpt><trkpt lat="43.73064239008198" lon="11.203720489044695"><ele>161.0</ele><time>2026-03-29T08:47:20Z</time></trkpt><trkpt lat="43.730723744191344" lon="11.203720733748678"><ele>160.66666666666669</ele><time>2026-03-29T08:47:21Z</time></trkpt><trkpt lat="43.73080947161376" lon="11.203730815242693"><ele>160.33333333333334</ele><time>2026-03-29T08:47:22Z</time></trkpt><trkpt lat="43.730901958039745" lon="11.2037241433826"><ele>160.0</ele><time>2026-03-29T08:47:23Z</time></trkpt><trkpt lat="43.7309965185942" lon="11.20372185367378"><ele>159.4</ele><time>2026-03-29T08:47:24Z</time></trkpt><trkpt lat="43.73109190164853" lon="11.203716401139772"><ele>158.8</ele><time>2026-03-29T08:47:25Z</time></trkpt><trkpt lat="43.731190016234166" lon="11.203700266033753"><ele>158.2</ele><time>2026-03-29T08:47:26Z</time></trkpt><trkpt lat="43.73128542319474" lon="11.203691264721462"><ele>157.6</ele><time>2026-03-29T08:47:27Z</time></trkpt><trkpt lat="43.73138492721718" lon="11.203667936494954"><ele>157.0</ele><time>2026-03-29T08:47:28Z</time></trkpt><trkpt lat="43.73148777463127" lon="11.203650184217091"><ele>157.0</ele><time>2026-03-29T08:47:29Z</time></trkpt><trkpt lat="43.73159149670521" lon="11.20364031291859"><ele>157.0</ele><time>2026-03-29T08:47:30Z</time></trkpt><trkpt lat="43.731694469903054" lon="11.203632490604036"><ele>157.0</ele><time>2026-03-29T08:47:31Z</time></trkpt><trkpt lat="43.73180158420556" lon="11.203635955394397"><ele>157.0</ele><time>2026-03-29T08:47:32Z</time></trkpt><trkpt lat="43.73189952253068" lon="11.203632578577706"><ele>157.0</ele><time>2026-03-29T08:47:33Z</time></trkpt><trkpt lat="43.731991092672004" lon="11.203598097152796"><ele>157.8</ele><time>2026-03-29T08:47:34Z</time></trkpt><trkpt lat="43.73207158813413" lon="11.20352399679179"><ele>158.6</ele><time>2026-03-29T08:47:35Z</time></trkpt><trkpt lat="43.732109584685055" lon="11.203413135510335"><ele>159.4</ele><time>2026-03-29T08:47:36Z</time></trkpt><trkpt lat="43.73214143883817" lon="11.203237480925843"><ele>160.20000000000002</ele><time>2026-03-29T08:47:37Z</time></trkpt><trkpt lat="43.73215806269817" lon="11.203100081204749"><ele>161.0</ele><time>2026-03-29T08:47:38Z</time></trkpt><trkpt lat="43.73218381528658" lon="11.2029605658888"><ele>161.0</ele><time>2026-03-29T08:47:39Z</time></trkpt><trkpt lat="43.732198429076064" lon="11.202859510766407"><ele>161.0</ele><time>2026-03-29T08:47:40Z</time></trkpt><trkpt lat="43.73221893022767" lon="11.202751383948646"><ele>161.0</ele><time>2026-03-29T08:47:41Z</time></trkpt><trkpt lat="43.73224124579178" lon="11.202654063771993"><ele>161.0</ele><time>2026-03-29T08:47:42Z</time></trkpt><trkpt lat="43.73225572668108" lon="11.20255398926824"><ele>161.0</ele><time>2026-03-29T08:47:43Z</time></trkpt><trkpt lat="43.732278052448244" lon="11.202467162834182"><ele>161.0</ele><time>2026-03-29T08:47:44Z</time></trkpt><trkpt lat="43.732317175945035" lon="11.202305532735553"><ele>160.4</ele><time>2026-03-29T08:47:46Z</time></trkpt><trkpt lat="43.73234903649788" lon="11.202160696091951"><ele>159.8</ele><time>2026-03-29T08:47:48Z</time></trkpt><trkpt lat="43.73237796924923" lon="11.202016266046844"><ele>159.20000000000002</ele><time>2026-03-29T08:47:50Z</time></trkpt><trkpt lat="43.73240667021451" lon="11.201878555358174"><ele>158.60000000000002</ele><time>2026-03-29T08:47:52Z</time></trkpt><trkpt lat="43.732425628594065" lon="11.20174112653194"><ele>158.0</ele><time>2026-03-29T08:47:54Z</time></trkpt><trkpt lat="43.73242915629416" lon="11.201594668777508"><ele>157.33333333333331</ele><time>2026-03-29T08:47:56Z</time></trkpt><trkpt lat="43.73240005940252" lon="11.201431185458945"><ele>156.66666666666666</ele><time>2026-03-29T08:47:58Z</time></trkpt><trkpt lat="43.73238352739839" lon="11.20134030172494"><ele>156.0</ele><time>2026-03-29T08:47:59Z</time></trkpt><trkpt lat="43.73236331137315" lon="11.201238793998337"><ele>155.33333333333334</ele><time>2026-03-29T08:48:00Z</time></trkpt><trkpt lat="43.73234148416346" lon="11.201128313623784"><ele>154.66666666666669</ele><time>2026-03-29T08:48:01Z</time></trkpt><trkpt lat="43.73231756580304" lon="11.201005835611445"><ele>154.0</ele><time>2026-03-29T08:48:02Z</time></trkpt><trkpt lat="43.732293084694334" lon="11.20087279896747"><ele>154.0</ele><time>2026-03-29T08:48:03Z</time></trkpt><trkpt lat="43.73226735174985" lon="11.200729978841451"><ele>154.0</ele><time>2026-03-29T08:48:04Z</time></trkpt><trkpt lat="43.73223967179489" lon="11.20057487156467"><ele>154.0</ele><time>2026-03-29T08:48:05Z</time></trkpt><trkpt lat="43.73221267228034" lon="11.200412064499128"><ele>154.0</ele><time>2026-03-29T08:48:06Z</time></trkpt><trkpt lat="43.73217898643615" lon="11.200241297703625"><ele>151.75</ele><time>2026-03-29T08:48:07Z</time></trkpt><trkpt lat="43.73214433690128" lon="11.200062756436731"><ele>149.5</ele><time>2026-03-29T08:48:08Z</time></trkpt><trkpt lat="43.732108191559824" lon="11.199881852881818"><ele>147.25</ele><time>2026-03-29T08:48:09Z</time></trkpt><trkpt lat="43.73207576171271" lon="11.19969354162548"><ele>145.0</ele><time>2026-03-29T08:48:10Z</time></trkpt><trkpt lat="43.732040335986916" lon="11.19950998448347"><ele>142.75</ele><time>2026-03-29T08:48:11Z</time></trkpt><trkpt lat="43.732012193665994" lon="11.199316796200462"><ele>140.5</ele><time>2026-03-29T08:48:12Z</time></trkpt><trkpt lat="43.73200423883516" lon="11.199117412420641"><ele>138.25</ele><time>2026-03-29T08:48:13Z</time></trkpt><trkpt lat="43.73202200956133" lon="11.198923478400221"><ele>136.0</ele><time>2026-03-29T08:48:14Z</time></trkpt><trkpt lat="43.732065665901004" lon="11.198735738519611"><ele>135.25</ele><time>2026-03-29T08:48:15Z</time></trkpt><trkpt lat="43.73213757740427" lon="11.19856566407063"><ele>134.5</ele><time>2026-03-29T08:48:16Z</time></trkpt><trkpt lat="43.732184362337044" lon="11.198379072431004"><ele>133.75</ele><time>2026-03-29T08:48:17Z</time></trkpt><trkpt lat="43.73224652476813" lon="11.19820612018856"><ele>133.0</ele><time>2026-03-29T08:48:18Z</time></trkpt><trkpt lat="43.732307745141505" lon="11.198028780216976"><ele>132.25</ele><time>2026-03-29T08:48:19Z</time></trkpt><trkpt lat="43.732384789911535" lon="11.197865750294527"><ele>131.5</ele><time>2026-03-29T08:48:20Z</time></trkpt><trkpt lat="43.73247083086682" lon="11.197716723002381"><ele>130.75</ele><time>2026-03-29T08:48:21Z</time></trkpt><trkpt lat="43.73257595170657" lon="11.197590466714013"><ele>130.0</ele><time>2026-03-29T08:48:22Z</time></trkpt><trkpt lat="43.732688752618756" lon="11.197478488082922"><ele>129.0</ele><time>2026-03-29T08:48:23Z</time></trkpt><trkpt lat="43.73279726160867" lon="11.19735285630749"><ele>128.0</ele><time>2026-03-29T08:48:24Z</time></trkpt><trkpt lat="43.7328825800845" lon="11.197226745109635"><ele>127.0</ele><time>2026-03-29T08:48:25Z</time></trkpt><trkpt lat="43.73295479803107" lon="11.197082237285999"><ele>126.0</ele><time>2026-03-29T08:48:26Z</time></trkpt><trkpt lat="43.73299317400308" lon="11.19691945096761"><ele>125.0</ele><time>2026-03-29T08:48:27Z</time></trkpt><trkpt lat="43.73299742458038" lon="11.19675480568652"><ele>124.0</ele><time>2026-03-29T08:48:28Z</time></trkpt><trkpt lat="43.732978090356646" lon="11.196599564600003"><ele>123.0</ele><time>2026-03-29T08:48:29Z</time></trkpt><trkpt lat="43.73295136323829" lon="11.196449579596074"><ele>122.0</ele><time>2026-03-29T08:48:30Z</time></trkpt><trkpt lat="43.732929761348984" lon="11.196302764797835"><ele>121.6</ele><time>2026-03-29T08:48:31Z</time></trkpt><trkpt lat="43.73289420024746" lon="11.196143623583882"><ele>121.19999999999999</ele><time>2026-03-29T08:48:32Z</time></trkpt><trkpt lat="43.73286880148248" lon="11.196009266949071"><ele>120.8</ele><time>2026-03-29T08:48:33Z</time></trkpt><trkpt lat="43.73284455001174" lon="11.195878332114932"><ele>120.4</ele><time>2026-03-29T08:48:34Z</time></trkpt><trkpt lat="43.73282185830962" lon="11.195752573174506"><ele>120.0</ele><time>2026-03-29T08:48:35Z</time></trkpt><trkpt lat="43.732803641038366" lon="11.195629871570318"><ele>120.0</ele><time>2026-03-29T08:48:36Z</time></trkpt><trkpt lat="43.73278494893568" lon="11.195512912603682"><ele>120.0</ele><time>2026-03-29T08:48:37Z</time></trkpt><trkpt lat="43.732775428836035" lon="11.195398904599466"><ele>120.0</ele><time>2026-03-29T08:48:38Z</time></trkpt><trkpt lat="43.73277661237339" lon="11.19528962510469"><ele>120.0</ele><time>2026-03-29T08:48:39Z</time></trkpt><trkpt lat="43.73278717593726" lon="11.195186470064806"><ele>120.0</ele><time>2026-03-29T08:48:40Z</time></trkpt><trkpt lat="43.732825572068805" lon="11.19509628089547"><ele>120.0</ele><time>2026-03-29T08:48:41Z</time></trkpt><trkpt lat="43.73285899768228" lon="11.19501252650246"><ele>120.0</ele><time>2026-03-29T08:48:42Z</time></trkpt><trkpt lat="43.732901409841915" lon="11.194940037235652"><ele>120.0</ele><time>2026-03-29T08:48:43Z</time></trkpt><trkpt lat="43.73294622064793" lon="11.194868338492162"><ele>120.0</ele><time>2026-03-29T08:48:44Z</time></trkpt><trkpt lat="43.73299861532171" lon="11.19480880611181"><ele>120.0</ele><time>2026-03-29T08:48:45Z</time></trkpt><trkpt lat="43.733045917519476" lon="11.194738852130804"><ele>120.0</ele><time>2026-03-29T08:48:46Z</time></trkpt><trkpt lat="43.73311522050138" lon="11.194702406109428"><ele>120.0</ele><time>2026-03-29T08:48:47Z</time></trkpt><trkpt lat="43.73317726024917" lon="11.19464712805841"><ele>120.0</ele><time>2026-03-29T08:48:48Z</time></trkpt><trkpt lat="43.73323812156594" lon="11.194594971388982"><ele>120.16666666666667</ele><time>2026-03-29T08:48:49Z</time></trkpt><trkpt lat="43.73330036154689" lon="11.194541633280247"><ele>120.33333333333334</ele><time>2026-03-29T08:48:50Z</time></trkpt><trkpt lat="43.733364502346824" lon="11.194486056389605"><ele>120.5</ele><time>2026-03-29T08:48:51Z</time></trkpt><trkpt lat="43.73342812747902" lon="11.194421246630348"><ele>120.66666666666667</ele><time>2026-03-29T08:48:52Z</time></trkpt><trkpt lat="43.7334947422443" lon="11.194367276428691"><ele>120.83333333333334</ele><time>2026-03-29T08:48:53Z</time></trkpt><trkpt lat="43.73355847099992" lon="11.19430506753887"><ele>121.0</ele><time>2026-03-29T08:48:54Z</time></trkpt><trkpt lat="43.73362463235662" lon="11.194246526470256"><ele>121.00000000000001</ele><time>2026-03-29T08:48:55Z</time></trkpt><trkpt lat="43.733690385411975" lon="11.194183688283974"><ele>121.0</ele><time>2026-03-29T08:48:56Z</time></trkpt><trkpt lat="43.73375813538368" lon="11.194124013036657"><ele>121.0</ele><time>2026-03-29T08:48:57Z</time></trkpt><trkpt lat="43.73383067574851" lon="11.194069247604924"><ele>121.0</ele><time>2026-03-29T08:48:58Z</time></trkpt><trkpt lat="43.73390566848119" lon="11.194017151448547"><ele>121.00000000000001</ele><time>2026-03-29T08:48:59Z</time></trkpt><trkpt lat="43.73398820596601" lon="11.193987538364578"><ele>121.0</ele><time>2026-03-29T08:49:00Z</time></trkpt><trkpt lat="43.734056835003486" lon="11.193930126763492"><ele>121.16666666666667</ele><time>2026-03-29T08:49:01Z</time></trkpt><trkpt lat="43.73413068244411" lon="11.193881810639901"><ele>121.33333333333334</ele><time>2026-03-29T08:49:02Z</time></trkpt><trkpt lat="43.73421233920336" lon="11.193865933530555"><ele>121.5</ele><time>2026-03-29T08:49:03Z</time></trkpt><trkpt lat="43.73428917637544" lon="11.193836181002911"><ele>121.66666666666666</ele><time>2026-03-29T08:49:04Z</time></trkpt><trkpt lat="43.73436841736954" lon="11.193807389740442"><ele>121.83333333333333</ele><time>2026-03-29T08:49:05Z</time></trkpt><trkpt lat="43.734445862045995" lon="11.193779251234098"><ele>122.0</ele><time>2026-03-29T08:49:06Z</time></trkpt><trkpt lat="43.73452398292323" lon="11.193751092026702"><ele>121.99999999999999</ele><time>2026-03-29T08:49:07Z</time></trkpt><trkpt lat="43.73460187956332" lon="11.193724021113404"><ele>122.0</ele><time>2026-03-29T08:49:08Z</time></trkpt><trkpt lat="43.73468080298889" lon="11.193682371889714"><ele>122.0</ele><time>2026-03-29T08:49:09Z</time></trkpt><trkpt lat="43.73475917463206" lon="11.193650487217212"><ele>122.0</ele><time>2026-03-29T08:49:10Z</time></trkpt><trkpt lat="43.73483774140802" lon="11.193621623946608"><ele>121.99999999999999</ele><time>2026-03-29T08:49:11Z</time></trkpt><trkpt lat="43.734917421909806" lon="11.193595849322389"><ele>122.0</ele><time>2026-03-29T08:49:12Z</time></trkpt><trkpt lat="43.73499997101036" lon="11.193590435639834"><ele>121.99999999999999</ele><time>2026-03-29T08:49:13Z</time></trkpt><trkpt lat="43.7350767739838" lon="11.193564368459818"><ele>122.0</ele><time>2026-03-29T08:49:14Z</time></trkpt><trkpt lat="43.73515342160673" lon="11.193538354031482"><ele>122.0</ele><time>2026-03-29T08:49:15Z</time></trkpt><trkpt lat="43.73522904821033" lon="11.193512686117208"><ele>122.0</ele><time>2026-03-29T08:49:16Z</time></trkpt><trkpt lat="43.73530338262847" lon="11.19348742464304"><ele>121.99999999999999</ele><time>2026-03-29T08:49:17Z</time></trkpt><trkpt lat="43.73538004287852" lon="11.19345823374062"><ele>122.0</ele><time>2026-03-29T08:49:18Z</time></trkpt><trkpt lat="43.73544999179943" lon="11.193407776295112"><ele>121.49999999999999</ele><time>2026-03-29T08:49:19Z</time></trkpt><trkpt lat="43.73551574817985" lon="11.193358368370504"><ele>121.0</ele><time>2026-03-29T08:49:20Z</time></trkpt><trkpt lat="43.73557601685513" lon="11.19329982185997"><ele>120.5</ele><time>2026-03-29T08:49:21Z</time></trkpt><trkpt lat="43.73562626921832" lon="11.193225521141535"><ele>120.0</ele><time>2026-03-29T08:49:22Z</time></trkpt><trkpt lat="43.73566778144688" lon="11.19314927758333"><ele>119.49999999999999</ele><time>2026-03-29T08:49:23Z</time></trkpt><trkpt lat="43.7357203179469" lon="11.193000328670456"><ele>119.0</ele><time>2026-03-29T08:49:25Z</time></trkpt><trkpt lat="43.735779144937794" lon="11.192852106211353"><ele>118.99999999999999</ele><time>2026-03-29T08:49:27Z</time></trkpt><trkpt lat="43.73586631316097" lon="11.192728743928798"><ele>119.0</ele><time>2026-03-29T08:49:29Z</time></trkpt><trkpt lat="43.73592201544554" lon="11.192682236741263"><ele>119.0</ele><time>2026-03-29T08:49:30Z</time></trkpt><trkpt lat="43.73597934188225" lon="11.192642299444836"><ele>119.0</ele><time>2026-03-29T08:49:31Z</time></trkpt><trkpt lat="43.73604308063391" lon="11.192601023123055"><ele>118.99999999999999</ele><time>2026-03-29T08:49:32Z</time></trkpt><trkpt lat="43.73611371952029" lon="11.192557809515925"><ele>119.0</ele><time>2026-03-29T08:49:33Z</time></trkpt><trkpt lat="43.736187282573006" lon="11.192512725341363"><ele>118.16666666666666</ele><time>2026-03-29T08:49:34Z</time></trkpt><trkpt lat="43.736262910269666" lon="11.192466375852767"><ele>117.33333333333333</ele><time>2026-03-29T08:49:35Z</time></trkpt><trkpt lat="43.736341339723396" lon="11.192417660959547"><ele>116.5</ele><time>2026-03-29T08:49:36Z</time></trkpt><trkpt lat="43.73642354353636" lon="11.192366283556144"><ele>115.66666666666666</ele><time>2026-03-29T08:49:37Z</time></trkpt><trkpt lat="43.73650784706683" lon="11.192313593816836"><ele>114.83333333333333</ele><time>2026-03-29T08:49:38Z</time></trkpt><trkpt lat="43.73658928435634" lon="11.192237924160048"><ele>114.0</ele><time>2026-03-29T08:49:39Z</time></trkpt><trkpt lat="43.736681335195115" lon="11.192187544471324"><ele>113.2</ele><time>2026-03-29T08:49:40Z</time></trkpt><trkpt lat="43.73677432742542" lon="11.19213311509609"><ele>112.4</ele><time>2026-03-29T08:49:41Z</time></trkpt><trkpt lat="43.73686369726168" lon="11.192071355250233"><ele>111.6</ele><time>2026-03-29T08:49:42Z</time></trkpt><trkpt lat="43.73695603515478" lon="11.192009518932501"><ele>110.8</ele><time>2026-03-29T08:49:43Z</time></trkpt><trkpt lat="43.73705045361367" lon="11.191945765844325"><ele>110.0</ele><time>2026-03-29T08:49:44Z</time></trkpt><trkpt lat="43.73714970734839" lon="11.19188708784562"><ele>109.2</ele><time>2026-03-29T08:49:45Z</time></trkpt><trkpt lat="43.73724576270102" lon="11.191818134250418"><ele>108.4</ele><time>2026-03-29T08:49:46Z</time></trkpt><trkpt lat="43.737343592196886" lon="11.191754862834639"><ele>107.6</ele><time>2026-03-29T08:49:47Z</time></trkpt><trkpt lat="43.73743976670634" lon="11.191688704545408"><ele>106.8</ele><time>2026-03-29T08:49:48Z</time></trkpt><trkpt lat="43.7375375031206" lon="11.191619543708395"><ele>106.0</ele><time>2026-03-29T08:49:49Z</time></trkpt><trkpt lat="43.73764045991361" lon="11.191553765684061"><ele>104.75</ele><time>2026-03-29T08:49:50Z</time></trkpt><trkpt lat="43.73774651244377" lon="11.191491209455021"><ele>103.5</ele><time>2026-03-29T08:49:51Z</time></trkpt><trkpt lat="43.73784625629602" lon="11.191417966647393"><ele>102.25</ele><time>2026-03-29T08:49:52Z</time></trkpt><trkpt lat="43.73795341260533" lon="11.191347641668488"><ele>101.0</ele><time>2026-03-29T08:49:53Z</time></trkpt><trkpt lat="43.73805293719639" lon="11.191260966533354"><ele>101.0</ele><time>2026-03-29T08:49:54Z</time></trkpt><trkpt lat="43.738151269452786" lon="11.191163314684866"><ele>101.0</ele><time>2026-03-29T08:49:55Z</time></trkpt><trkpt lat="43.73824547347231" lon="11.191049970351765"><ele>101.0</ele><time>2026-03-29T08:49:56Z</time></trkpt><trkpt lat="43.73833345733204" lon="11.19093209639799"><ele>101.0</ele><time>2026-03-29T08:49:57Z</time></trkpt><trkpt lat="43.73842116068829" lon="11.190797495065146"><ele>99.75</ele><time>2026-03-29T08:49:58Z</time></trkpt><trkpt lat="43.73849551569834" lon="11.190670089432423"><ele>98.5</ele><time>2026-03-29T08:49:59Z</time></trkpt><trkpt lat="43.738574176197844" lon="11.19054005748322"><ele>97.25</ele><time>2026-03-29T08:50:00Z</time></trkpt><trkpt lat="43.7386481847954" lon="11.190406462442708"><ele>96.0</ele><time>2026-03-29T08:50:01Z</time></trkpt><trkpt lat="43.73871964991161" lon="11.190275110970788"><ele>95.5</ele><time>2026-03-29T08:50:02Z</time></trkpt><trkpt lat="43.73879385204605" lon="11.190153336148919"><ele>95.0</ele><time>2026-03-29T08:50:03Z</time></trkpt><trkpt lat="43.73886640254728" lon="11.190027034944972"><ele>94.5</ele><time>2026-03-29T08:50:04Z</time></trkpt><trkpt lat="43.73894235147579" lon="11.189904526926505"><ele>94.0</ele><time>2026-03-29T08:50:05Z</time></trkpt><trkpt lat="43.73901620482001" lon="11.189773580640814"><ele>93.0</ele><time>2026-03-29T08:50:06Z</time></trkpt><trkpt lat="43.73909077811531" lon="11.189643223000887"><ele>92.0</ele><time>2026-03-29T08:50:07Z</time></trkpt><trkpt lat="43.7391644770442" lon="11.189512372765938"><ele>91.0</ele><time>2026-03-29T08:50:08Z</time></trkpt><trkpt lat="43.739233327292084" lon="11.189374349294207"><ele>90.0</ele><time>2026-03-29T08:50:09Z</time></trkpt><trkpt lat="43.73930311061594" lon="11.18924026675976"><ele>90.0</ele><time>2026-03-29T08:50:10Z</time></trkpt><trkpt lat="43.73936934934586" lon="11.189095929814757"><ele>90.0</ele><time>2026-03-29T08:50:11Z</time></trkpt><trkpt lat="43.73943628238908" lon="11.188943259447589"><ele>90.0</ele><time>2026-03-29T08:50:12Z</time></trkpt><trkpt lat="43.73950187486473" lon="11.188783750617215"><ele>90.0</ele><time>2026-03-29T08:50:13Z</time></trkpt><trkpt lat="43.73956584419591" lon="11.188632503193501"><ele>87.75</ele><time>2026-03-29T08:50:14Z</time></trkpt><trkpt lat="43.739637191169244" lon="11.188480561335975"><ele>85.5</ele><time>2026-03-29T08:50:15Z</time></trkpt><trkpt lat="43.73970762392648" lon="11.188326537298332"><ele>83.25</ele><time>2026-03-29T08:50:16Z</time></trkpt><trkpt lat="43.73977592350908" lon="11.188168625736107"><ele>81.0</ele><time>2026-03-29T08:50:17Z</time></trkpt><trkpt lat="43.73984555715992" lon="11.188009128020006"><ele>81.0</ele><time>2026-03-29T08:50:18Z</time></trkpt><trkpt lat="43.73991863621278" lon="11.187851974404541"><ele>81.0</ele><time>2026-03-29T08:50:19Z</time></trkpt><trkpt lat="43.739980328719135" lon="11.187700648839332"><ele>81.0</ele><time>2026-03-29T08:50:20Z</time></trkpt><trkpt lat="43.74004334910546" lon="11.187576826923335"><ele>81.0</ele><time>2026-03-29T08:50:21Z</time></trkpt><trkpt lat="43.740102529062035" lon="11.187444271921489"><ele>80.6</ele><time>2026-03-29T08:50:22Z</time></trkpt><trkpt lat="43.740158691357756" lon="11.187316063352682"><ele>80.19999999999999</ele><time>2026-03-29T08:50:23Z</time></trkpt><trkpt lat="43.7402233194339" lon="11.187189525284344"><ele>79.80000000000001</ele><time>2026-03-29T08:50:24Z</time></trkpt><trkpt lat="43.7402755252094" lon="11.187049851372198"><ele>79.4</ele><time>2026-03-29T08:50:25Z</time></trkpt><trkpt lat="43.74032216018634" lon="11.186915234130357"><ele>79.0</ele><time>2026-03-29T08:50:26Z</time></trkpt><trkpt lat="43.74036779840631" lon="11.18677537995253"><ele>77.4</ele><time>2026-03-29T08:50:27Z</time></trkpt><trkpt lat="43.740423045409926" lon="11.186651855646867"><ele>75.80000000000001</ele><time>2026-03-29T08:50:28Z</time></trkpt><trkpt lat="43.74047002431683" lon="11.186517851066952"><ele>74.19999999999999</ele><time>2026-03-29T08:50:29Z</time></trkpt><trkpt lat="43.74051539501826" lon="11.1863919064473"><ele>72.6</ele><time>2026-03-29T08:50:30Z</time></trkpt><trkpt lat="43.74056247174084" lon="11.186258865451066"><ele>71.0</ele><time>2026-03-29T08:50:31Z</time></trkpt><trkpt lat="43.74062432401401" lon="11.186152646179844"><ele>70.2</ele><time>2026-03-29T08:50:32Z</time></trkpt><trkpt lat="43.740675026352676" lon="11.186039353962668"><ele>69.39999999999999</ele><time>2026-03-29T08:50:33Z</time></trkpt><trkpt lat="43.740718446225614" lon="11.185916800335635"><ele>68.6</ele><time>2026-03-29T08:50:34Z</time></trkpt><trkpt lat="43.740800329963605" lon="11.185827377198107"><ele>67.8</ele><time>2026-03-29T08:50:35Z</time></trkpt><trkpt lat="43.74086990197015" lon="11.185725934129001"><ele>67.0</ele><time>2026-03-29T08:50:36Z</time></trkpt><trkpt lat="43.74093352373579" lon="11.185624370106353"><ele>65.25</ele><time>2026-03-29T08:50:37Z</time></trkpt><trkpt lat="43.74100990021402" lon="11.185497563232186"><ele>63.5</ele><time>2026-03-29T08:50:38Z</time></trkpt><trkpt lat="43.74106528268107" lon="11.185347098073516"><ele>61.75</ele><time>2026-03-29T08:50:39Z</time></trkpt><trkpt lat="43.741126162737174" lon="11.185191690410585"><ele>60.0</ele><time>2026-03-29T08:50:40Z</time></trkpt><trkpt lat="43.7411579841938" lon="11.185007660849482"><ele>59.0</ele><time>2026-03-29T08:50:41Z</time></trkpt><trkpt lat="43.74119199090007" lon="11.184813512444034"><ele>58.0</ele><time>2026-03-29T08:50:42Z</time></trkpt><trkpt lat="43.7412185047928" lon="11.184633842283425"><ele>57.0</ele><time>2026-03-29T08:50:43Z</time></trkpt><trkpt lat="43.741242964429645" lon="11.184468092527636"><ele>56.0</ele><time>2026-03-29T08:50:44Z</time></trkpt><trkpt lat="43.74125127914389" lon="11.184324412986145"><ele>56.00000000000001</ele><time>2026-03-29T08:50:45Z</time></trkpt><trkpt lat="43.74126818172767" lon="11.184194605343167"><ele>56.0</ele><time>2026-03-29T08:50:46Z</time></trkpt><trkpt lat="43.74129246732532" lon="11.18408147868284"><ele>56.0</ele><time>2026-03-29T08:50:47Z</time></trkpt><trkpt lat="43.74135264381174" lon="11.184000693169946"><ele>56.0</ele><time>2026-03-29T08:50:48Z</time></trkpt><trkpt lat="43.74141627482771" lon="11.183951124991065"><ele>56.00000000000001</ele><time>2026-03-29T08:50:49Z</time></trkpt><trkpt lat="43.74147337264928" lon="11.18387187900217"><ele>56.0</ele><time>2026-03-29T08:50:50Z</time></trkpt><trkpt lat="43.74154664242965" lon="11.183833216628813"><ele>55.857142857142854</ele><time>2026-03-29T08:50:51Z</time></trkpt><trkpt lat="43.74161759887484" lon="11.183789454636306"><ele>55.714285714285715</ele><time>2026-03-29T08:50:52Z</time></trkpt><trkpt lat="43.741683048953504" lon="11.18374431652977"><ele>55.57142857142857</ele><time>2026-03-29T08:50:53Z</time></trkpt><trkpt lat="43.741755642955695" lon="11.183716495330648"><ele>55.42857142857143</ele><time>2026-03-29T08:50:54Z</time></trkpt><trkpt lat="43.74181333271642" lon="11.183659671195516"><ele>55.285714285714285</ele><time>2026-03-29T08:50:55Z</time></trkpt><trkpt lat="43.74187217435511" lon="11.183609812051118"><ele>55.14285714285714</ele><time>2026-03-29T08:50:56Z</time></trkpt><trkpt lat="43.74193636218486" lon="11.183570699898725"><ele>55.0</ele><time>2026-03-29T08:50:57Z</time></trkpt><trkpt lat="43.74199594857485" lon="11.183522118217365"><ele>54.857142857142854</ele><time>2026-03-29T08:50:58Z</time></trkpt><trkpt lat="43.74205668325494" lon="11.183475292680383"><ele>54.714285714285715</ele><time>2026-03-29T08:50:59Z</time></trkpt><trkpt lat="43.74211123443314" lon="11.183430824442512"><ele>54.57142857142857</ele><time>2026-03-29T08:51:00Z</time></trkpt><trkpt lat="43.74216366317061" lon="11.183377875358829"><ele>54.42857142857143</ele><time>2026-03-29T08:51:01Z</time></trkpt><trkpt lat="43.74221372870397" lon="11.18331997715926"><ele>54.285714285714285</ele><time>2026-03-29T08:51:02Z</time></trkpt><trkpt lat="43.74226153670732" lon="11.183255125624973"><ele>54.14285714285714</ele><time>2026-03-29T08:51:03Z</time></trkpt><trkpt lat="43.742302656729144" lon="11.18318304148372"><ele>54.0</ele><time>2026-03-29T08:51:04Z</time></trkpt><trkpt lat="43.74234428887871" lon="11.183114383078564"><ele>54.0</ele><time>2026-03-29T08:51:05Z</time></trkpt><trkpt lat="43.74238171897395" lon="11.183034568883192"><ele>54.0</ele><time>2026-03-29T08:51:06Z</time></trkpt><trkpt lat="43.74242502132703" lon="11.182964352835043"><ele>54.0</ele><time>2026-03-29T08:51:07Z</time></trkpt><trkpt lat="43.74246756529746" lon="11.18289653923564"><ele>54.0</ele><time>2026-03-29T08:51:08Z</time></trkpt><trkpt lat="43.74251501425024" lon="11.18282096719209"><ele>54.0</ele><time>2026-03-29T08:51:09Z</time></trkpt><trkpt lat="43.742559758186275" lon="11.18275223542784"><ele>54.0</ele><time>2026-03-29T08:51:10Z</time></trkpt><trkpt lat="43.74261031225744" lon="11.182682639995038"><ele>54.0</ele><time>2026-03-29T08:51:11Z</time></trkpt><trkpt lat="43.74265387818164" lon="11.182611292692194"><ele>54.0</ele><time>2026-03-29T08:51:12Z</time></trkpt><trkpt lat="43.74270385855722" lon="11.182546187330043"><ele>54.0</ele><time>2026-03-29T08:51:13Z</time></trkpt><trkpt lat="43.7427581458505" lon="11.182487053251327"><ele>54.0</ele><time>2026-03-29T08:51:14Z</time></trkpt><trkpt lat="43.74281432930085" lon="11.182428944534626"><ele>54.0</ele><time>2026-03-29T08:51:15Z</time></trkpt><trkpt lat="43.742872201543115" lon="11.182377206508148"><ele>54.0</ele><time>2026-03-29T08:51:16Z</time></trkpt><trkpt lat="43.74292649100637" lon="11.182326009107802"><ele>54.0</ele><time>2026-03-29T08:51:17Z</time></trkpt><trkpt lat="43.74298487346189" lon="11.182277312099178"><ele>54.0</ele><time>2026-03-29T08:51:18Z</time></trkpt><trkpt lat="43.743040449072105" lon="11.182224787780925"><ele>54.0</ele><time>2026-03-29T08:51:19Z</time></trkpt><trkpt lat="43.74309852089852" lon="11.182174600402218"><ele>54.0</ele><time>2026-03-29T08:51:20Z</time></trkpt><trkpt lat="43.743150557882565" lon="11.182120951344602"><ele>54.0</ele><time>2026-03-29T08:51:21Z</time></trkpt><trkpt lat="43.74319577755039" lon="11.182051278127604"><ele>54.0</ele><time>2026-03-29T08:51:22Z</time></trkpt><trkpt lat="43.74324264066837" lon="11.181977369278544"><ele>54.0</ele><time>2026-03-29T08:51:23Z</time></trkpt><trkpt lat="43.74327922213272" lon="11.181901573581735"><ele>54.0</ele><time>2026-03-29T08:51:24Z</time></trkpt><trkpt lat="43.74331016520484" lon="11.181820945683864"><ele>54.0</ele><time>2026-03-29T08:51:25Z</time></trkpt><trkpt lat="43.74333298834459" lon="11.181734446034065"><ele>54.0</ele><time>2026-03-29T08:51:26Z</time></trkpt><trkpt lat="43.74334290022472" lon="11.181642494525743"><ele>54.00000000000001</ele><time>2026-03-29T08:51:27Z</time></trkpt><trkpt lat="43.74338300160569" lon="11.181564413243334"><ele>54.00000000000001</ele><time>2026-03-29T08:51:28Z</time></trkpt><trkpt lat="43.74343746252471" lon="11.181509248860252"><ele>54.0</ele><time>2026-03-29T08:51:29Z</time></trkpt><trkpt lat="43.74349396666903" lon="11.181417105868515"><ele>54.0</ele><time>2026-03-29T08:51:31Z</time></trkpt><trkpt lat="43.74364159267657" lon="11.181557887892252"><ele>54.0</ele><time>2026-03-29T08:51:32Z</time></trkpt><trkpt lat="43.74369717686319" lon="11.18161422515063"><ele>54.0</ele><time>2026-03-29T08:51:33Z</time></trkpt><trkpt lat="43.743752195613105" lon="11.18166572767552"><ele>54.0</ele><time>2026-03-29T08:51:34Z</time></trkpt><trkpt lat="43.743812778473675" lon="11.18171129250605"><ele>54.0</ele><time>2026-03-29T08:51:35Z</time></trkpt><trkpt lat="43.74387274821543" lon="11.181754816024071"><ele>54.0</ele><time>2026-03-29T08:51:36Z</time></trkpt><trkpt lat="43.74393518909525" lon="11.181791966868646"><ele>54.0</ele><time>2026-03-29T08:51:37Z</time></trkpt><trkpt lat="43.743999810881974" lon="11.1818219051242"><ele>54.0</ele><time>2026-03-29T08:51:38Z</time></trkpt><trkpt lat="43.744067465368" lon="11.181838525309177"><ele>54.0</ele><time>2026-03-29T08:51:39Z</time></trkpt><trkpt lat="43.74413643610781" lon="11.181839762863513"><ele>54.0</ele><time>2026-03-29T08:51:40Z</time></trkpt><trkpt lat="43.74420610867043" lon="11.181821942058383"><ele>54.0</ele><time>2026-03-29T08:51:41Z</time></trkpt><trkpt lat="43.74427494509239" lon="11.181803682336888"><ele>54.0</ele><time>2026-03-29T08:51:42Z</time></trkpt><trkpt lat="43.744341362343526" lon="11.181772153756999"><ele>54.0</ele><time>2026-03-29T08:51:43Z</time></trkpt><trkpt lat="43.74440608063676" lon="11.181746707256588"><ele>54.0</ele><time>2026-03-29T08:51:44Z</time></trkpt><trkpt lat="43.74447204506983" lon="11.181717498537598"><ele>54.0</ele><time>2026-03-29T08:51:45Z</time></trkpt><trkpt lat="43.74453484523546" lon="11.181677383771783"><ele>54.0</ele><time>2026-03-29T08:51:46Z</time></trkpt><trkpt lat="43.74459991632331" lon="11.181650875449284"><ele>54.0</ele><time>2026-03-29T08:51:47Z</time></trkpt><trkpt lat="43.74466571474275" lon="11.181615410358026"><ele>54.0</ele><time>2026-03-29T08:51:48Z</time></trkpt><trkpt lat="43.74473125744891" lon="11.181583956909432"><ele>54.0</ele><time>2026-03-29T08:51:49Z</time></trkpt><trkpt lat="43.74479659683775" lon="11.18155308694693"><ele>54.0</ele><time>2026-03-29T08:51:50Z</time></trkpt><trkpt lat="43.744863811795945" lon="11.181525599576599"><ele>54.0</ele><time>2026-03-29T08:51:51Z</time></trkpt><trkpt lat="43.744927575313575" lon="11.181491661991378"><ele>54.0</ele><time>2026-03-29T08:51:52Z</time></trkpt><trkpt lat="43.744992418497006" lon="11.181451690456573"><ele>54.0</ele><time>2026-03-29T08:51:53Z</time></trkpt><trkpt lat="43.745054613375096" lon="11.181412429737117"><ele>54.0</ele><time>2026-03-29T08:51:54Z</time></trkpt><trkpt lat="43.74511636426959" lon="11.181381378126767"><ele>54.0</ele><time>2026-03-29T08:51:55Z</time></trkpt><trkpt lat="43.74518238753492" lon="11.18134795049664"><ele>54.0</ele><time>2026-03-29T08:51:56Z</time></trkpt><trkpt lat="43.745245193812735" lon="11.181307053527094"><ele>54.0</ele><time>2026-03-29T08:51:57Z</time></trkpt><trkpt lat="43.745304616593984" lon="11.181262705310553"><ele>54.0</ele><time>2026-03-29T08:51:58Z</time></trkpt><trkpt lat="43.74536684083494" lon="11.181222732291259"><ele>54.0</ele><time>2026-03-29T08:51:59Z</time></trkpt><trkpt lat="43.74542836341667" lon="11.181178568876797"><ele>53.857142857142854</ele><time>2026-03-29T08:52:00Z</time></trkpt><trkpt lat="43.74548999945725" lon="11.181133367846298"><ele>53.71428571428571</ele><time>2026-03-29T08:52:01Z</time></trkpt><trkpt lat="43.745553488104854" lon="11.181091294233086"><ele>53.57142857142857</ele><time>2026-03-29T08:52:02Z</time></trkpt><trkpt lat="43.74561935461829" lon="11.181057929974852"><ele>53.42857142857143</ele><time>2026-03-29T08:52:03Z</time></trkpt><trkpt lat="43.745688362727314" lon="11.181037870683479"><ele>53.285714285714285</ele><time>2026-03-29T08:52:04Z</time></trkpt><trkpt lat="43.74574360798091" lon="11.180982712298409"><ele>53.142857142857146</ele><time>2026-03-29T08:52:05Z</time></trkpt><trkpt lat="43.74580115228321" lon="11.18093190157805"><ele>53.0</ele><time>2026-03-29T08:52:06Z</time></trkpt><trkpt lat="43.745853779178056" lon="11.18087352127661"><ele>53.0</ele><time>2026-03-29T08:52:07Z</time></trkpt><trkpt lat="43.745907343481626" lon="11.180817691615202"><ele>53.0</ele><time>2026-03-29T08:52:08Z</time></trkpt><trkpt lat="43.745959629258984" lon="11.180757821664686"><ele>53.0</ele><time>2026-03-29T08:52:09Z</time></trkpt><trkpt lat="43.74600901769308" lon="11.180693411405727"><ele>53.0</ele><time>2026-03-29T08:52:10Z</time></trkpt><trkpt lat="43.746066469888014" lon="11.18063992218111"><ele>53.0</ele><time>2026-03-29T08:52:11Z</time></trkpt><trkpt lat="43.746116840948076" lon="11.180586438511384"><ele>53.0</ele><time>2026-03-29T08:52:12Z</time></trkpt><trkpt lat="43.74617303482692" lon="11.180528112898282"><ele>53.0</ele><time>2026-03-29T08:52:13Z</time></trkpt><trkpt lat="43.74622439903914" lon="11.180464497598724"><ele>52.66666666666667</ele><time>2026-03-29T08:52:14Z</time></trkpt><trkpt lat="43.74628316183752" lon="11.180413910472607"><ele>52.333333333333336</ele><time>2026-03-29T08:52:15Z</time></trkpt><trkpt lat="43.74642701232501" lon="11.180468945398509"><ele>52.0</ele><time>2026-03-29T08:52:17Z</time></trkpt><trkpt lat="43.74647800859401" lon="11.180546992421833"><ele>51.66666666666667</ele><time>2026-03-29T08:52:18Z</time></trkpt><trkpt lat="43.74652110619089" lon="11.180631152833826"><ele>51.333333333333336</ele><time>2026-03-29T08:52:19Z</time></trkpt><trkpt lat="43.74657128245896" lon="11.180699728891762"><ele>51.0</ele><time>2026-03-29T08:52:20Z</time></trkpt><trkpt lat="43.74662580578207" lon="11.180771311512341"><ele>51.0</ele><time>2026-03-29T08:52:21Z</time></trkpt><trkpt lat="43.74668143526679" lon="11.180842071527723"><ele>51.0</ele><time>2026-03-29T08:52:22Z</time></trkpt><trkpt lat="43.74672661245951" lon="11.180916575775155"><ele>51.0</ele><time>2026-03-29T08:52:23Z</time></trkpt><trkpt lat="43.7467900566004" lon="11.18098574850679"><ele>51.0</ele><time>2026-03-29T08:52:24Z</time></trkpt><trkpt lat="43.74683806715328" lon="11.181059308550164"><ele>51.0</ele><time>2026-03-29T08:52:25Z</time></trkpt><trkpt lat="43.7468904013472" lon="11.18112961845277"><ele>51.0</ele><time>2026-03-29T08:52:26Z</time></trkpt><trkpt lat="43.74693571322549" lon="11.181201957164342"><ele>51.0</ele><time>2026-03-29T08:52:27Z</time></trkpt><trkpt lat="43.74699108353053" lon="11.18126950760804"><ele>51.0</ele><time>2026-03-29T08:52:28Z</time></trkpt><trkpt lat="43.747043402176345" lon="11.181335001993011"><ele>51.0</ele><time>2026-03-29T08:52:29Z</time></trkpt><trkpt lat="43.74709694839811" lon="11.181401140755577"><ele>51.0</ele><time>2026-03-29T08:52:30Z</time></trkpt><trkpt lat="43.74714179974907" lon="11.181473292059602"><ele>51.0</ele><time>2026-03-29T08:52:31Z</time></trkpt><trkpt lat="43.74718734330909" lon="11.181544361358812"><ele>51.0</ele><time>2026-03-29T08:52:32Z</time></trkpt><trkpt lat="43.74723200433966" lon="11.181617220461952"><ele>51.0</ele><time>2026-03-29T08:52:33Z</time></trkpt><trkpt lat="43.74727917787918" lon="11.181685208579175"><ele>51.0</ele><time>2026-03-29T08:52:34Z</time></trkpt><trkpt lat="43.747323778677725" lon="11.18175429427833"><ele>51.0</ele><time>2026-03-29T08:52:35Z</time></trkpt><trkpt lat="43.747384195211744" lon="11.181819772807922"><ele>51.0</ele><time>2026-03-29T08:52:36Z</time></trkpt><trkpt lat="43.747470358957294" lon="11.181942937950183"><ele>51.0</ele><time>2026-03-29T08:52:38Z</time></trkpt><trkpt lat="43.747533951002275" lon="11.181999366728355"><ele>51.0</ele><time>2026-03-29T08:52:39Z</time></trkpt><trkpt lat="43.74760398242696" lon="11.182043831074035"><ele>51.0</ele><time>2026-03-29T08:52:40Z</time></trkpt><trkpt lat="43.74766603237072" lon="11.182093395043003"><ele>51.0</ele><time>2026-03-29T08:52:41Z</time></trkpt><trkpt lat="43.74772187935705" lon="11.182142969311249"><ele>51.0</ele><time>2026-03-29T08:52:42Z</time></trkpt><trkpt lat="43.74778352260057" lon="11.182195419486778"><ele>51.0</ele><time>2026-03-29T08:52:43Z</time></trkpt><trkpt lat="43.747846075840656" lon="11.182242692395242"><ele>51.0</ele><time>2026-03-29T08:52:44Z</time></trkpt><trkpt lat="43.74791123409337" lon="11.182292037779522"><ele>51.0</ele><time>2026-03-29T08:52:45Z</time></trkpt><trkpt lat="43.747971457512406" lon="11.182341964176082"><ele>51.0</ele><time>2026-03-29T08:52:46Z</time></trkpt><trkpt lat="43.74803076058524" lon="11.18239477548243"><ele>51.0</ele><time>2026-03-29T08:52:47Z</time></trkpt><trkpt lat="43.748095563822275" lon="11.182440260400996"><ele>51.0</ele><time>2026-03-29T08:52:48Z</time></trkpt><trkpt lat="43.74815765617804" lon="11.182487007449526"><ele>50.833333333333336</ele><time>2026-03-29T08:52:49Z</time></trkpt><trkpt lat="43.748218590243965" lon="11.182540217794"><ele>50.66666666666667</ele><time>2026-03-29T08:52:50Z</time></trkpt><trkpt lat="43.74828232543043" lon="11.182592869315267"><ele>50.5</ele><time>2026-03-29T08:52:51Z</time></trkpt><trkpt lat="43.7483479796393" lon="11.182641019580613"><ele>50.333333333333336</ele><time>2026-03-29T08:52:52Z</time></trkpt><trkpt lat="43.74841242695092" lon="11.1826877033712"><ele>50.16666666666667</ele><time>2026-03-29T08:52:53Z</time></trkpt><trkpt lat="43.74847162346881" lon="11.182734557826274"><ele>50.0</ele><time>2026-03-29T08:52:54Z</time></trkpt><trkpt lat="43.748552378233754" lon="11.182791724300182"><ele>50.0</ele><time>2026-03-29T08:52:56Z</time></trkpt><trkpt lat="43.748608397268576" lon="11.182861071294713"><ele>50.0</ele><time>2026-03-29T08:52:58Z</time></trkpt><trkpt lat="43.74866900674675" lon="11.182900631393261"><ele>50.0</ele><time>2026-03-29T08:53:01Z</time></trkpt><trkpt lat="43.7487374564826" lon="11.182971056069784"><ele>50.0</ele><time>2026-03-29T08:53:03Z</time></trkpt><trkpt lat="43.748827911615905" lon="11.183060552725138"><ele>50.0</ele><time>2026-03-29T08:53:05Z</time></trkpt><trkpt lat="43.74892381359062" lon="11.18316398375201"><ele>49.833333333333336</ele><time>2026-03-29T08:53:07Z</time></trkpt><trkpt lat="43.7489689194415" lon="11.183225583598684"><ele>49.66666666666667</ele><time>2026-03-29T08:53:08Z</time></trkpt><trkpt lat="43.74901653465882" lon="11.183285129288395"><ele>49.5</ele><time>2026-03-29T08:53:09Z</time></trkpt><trkpt lat="43.749110292558676" lon="11.183411801452595"><ele>49.33333333333333</ele><time>2026-03-29T08:53:11Z</time></trkpt><trkpt lat="43.74915756005499" lon="11.183479068565601"><ele>49.166666666666664</ele><time>2026-03-29T08:53:12Z</time></trkpt><trkpt lat="43.749201808315796" lon="11.183548500570588"><ele>49.0</ele><time>2026-03-29T08:53:13Z</time></trkpt><trkpt lat="43.7492504460956" lon="11.183616996596328"><ele>49.0</ele><time>2026-03-29T08:53:14Z</time></trkpt><trkpt lat="43.74929238517518" lon="11.18369095224936"><ele>49.0</ele><time>2026-03-29T08:53:15Z</time></trkpt><trkpt lat="43.74934050363617" lon="11.183755823842134"><ele>49.0</ele><time>2026-03-29T08:53:16Z</time></trkpt><trkpt lat="43.74938718158253" lon="11.183821418522237"><ele>49.0</ele><time>2026-03-29T08:53:17Z</time></trkpt><trkpt lat="43.74943503527743" lon="11.183886549616782"><ele>49.0</ele><time>2026-03-29T08:53:18Z</time></trkpt><trkpt lat="43.74948202642993" lon="11.18395551702106"><ele>49.0</ele><time>2026-03-29T08:53:19Z</time></trkpt><trkpt lat="43.74953067080445" lon="11.184016167325932"><ele>49.0</ele><time>2026-03-29T08:53:20Z</time></trkpt><trkpt lat="43.749581062591" lon="11.18408052366044"><ele>49.0</ele><time>2026-03-29T08:53:21Z</time></trkpt><trkpt lat="43.749627941122334" lon="11.184150577476991"><ele>49.0</ele><time>2026-03-29T08:53:22Z</time></trkpt><trkpt lat="43.74967374437678" lon="11.184222877314143"><ele>49.0</ele><time>2026-03-29T08:53:23Z</time></trkpt><trkpt lat="43.74972105807075" lon="11.184293046923115"><ele>49.0</ele><time>2026-03-29T08:53:24Z</time></trkpt><trkpt lat="43.749768482237776" lon="11.184361488720652"><ele>49.0</ele><time>2026-03-29T08:53:25Z</time></trkpt><trkpt lat="43.749816531000526" lon="11.184429155290326"><ele>49.0</ele><time>2026-03-29T08:53:26Z</time></trkpt><trkpt lat="43.74985879265867" lon="11.1845000721681"><ele>49.0</ele><time>2026-03-29T08:53:27Z</time></trkpt><trkpt lat="43.749907399663485" lon="11.184568652937378"><ele>49.0</ele><time>2026-03-29T08:53:28Z</time></trkpt><trkpt lat="43.74995922533513" lon="11.184634553815338"><ele>49.0</ele><time>2026-03-29T08:53:29Z</time></trkpt><trkpt lat="43.750011478666295" lon="11.184700318285499"><ele>49.0</ele><time>2026-03-29T08:53:30Z</time></trkpt><trkpt lat="43.75005154615056" lon="11.184771440725852"><ele>49.0</ele><time>2026-03-29T08:53:31Z</time></trkpt><trkpt lat="43.75009874695602" lon="11.184845657509074"><ele>49.0</ele><time>2026-03-29T08:53:32Z</time></trkpt><trkpt lat="43.75014299536763" lon="11.184914789906554"><ele>49.0</ele><time>2026-03-29T08:53:33Z</time></trkpt><trkpt lat="43.75018707268413" lon="11.184988193823274"><ele>49.0</ele><time>2026-03-29T08:53:34Z</time></trkpt><trkpt lat="43.750219792229295" lon="11.185074691759768"><ele>48.666666666666664</ele><time>2026-03-29T08:53:35Z</time></trkpt><trkpt lat="43.750261733188125" lon="11.185150639727718"><ele>48.33333333333333</ele><time>2026-03-29T08:53:36Z</time></trkpt><trkpt lat="43.750305624952595" lon="11.185230120116328"><ele>48.0</ele><time>2026-03-29T08:53:37Z</time></trkpt><trkpt lat="43.75034807417841" lon="11.185306988329813"><ele>47.666666666666664</ele><time>2026-03-29T08:53:38Z</time></trkpt><trkpt lat="43.750396140206554" lon="11.185393066195374"><ele>47.33333333333333</ele><time>2026-03-29T08:53:39Z</time></trkpt><trkpt lat="43.75047107526351" lon="11.185514505562587"><ele>47.0</ele><time>2026-03-29T08:53:41Z</time></trkpt><trkpt lat="43.75051686924433" lon="11.18557702794422"><ele>47.0</ele><time>2026-03-29T08:53:42Z</time></trkpt><trkpt lat="43.75056786474191" lon="11.185642696569392"><ele>47.0</ele><time>2026-03-29T08:53:43Z</time></trkpt><trkpt lat="43.75061668583865" lon="11.185705410823754"><ele>47.0</ele><time>2026-03-29T08:53:44Z</time></trkpt><trkpt lat="43.75066493064231" lon="11.185767384704436"><ele>47.0</ele><time>2026-03-29T08:53:45Z</time></trkpt><trkpt lat="43.75071433850824" lon="11.185830852577633"><ele>47.0</ele><time>2026-03-29T08:53:46Z</time></trkpt><trkpt lat="43.750762181817905" lon="11.185892310675287"><ele>47.0</ele><time>2026-03-29T08:53:47Z</time></trkpt><trkpt lat="43.750811032488215" lon="11.185955062827691"><ele>47.0</ele><time>2026-03-29T08:53:48Z</time></trkpt><trkpt lat="43.75089715056573" lon="11.18606568676409"><ele>47.0</ele><time>2026-03-29T08:53:50Z</time></trkpt><trkpt lat="43.75099445741232" lon="11.186168570581048"><ele>47.0</ele><time>2026-03-29T08:53:52Z</time></trkpt><trkpt lat="43.75103894127151" lon="11.186235137842827"><ele>47.0</ele><time>2026-03-29T08:53:53Z</time></trkpt><trkpt lat="43.75113781187669" lon="11.186352501414724"><ele>47.0</ele><time>2026-03-29T08:53:55Z</time></trkpt><trkpt lat="43.75117887245698" lon="11.186420638935942"><ele>47.0</ele><time>2026-03-29T08:53:56Z</time></trkpt><trkpt lat="43.75122813468773" lon="11.186487081426947"><ele>46.8</ele><time>2026-03-29T08:53:57Z</time></trkpt><trkpt lat="43.751316984627735" lon="11.186612627410861"><ele>46.6</ele><time>2026-03-29T08:53:59Z</time></trkpt><trkpt lat="43.75141394458097" lon="11.186737688503747"><ele>46.4</ele><time>2026-03-29T08:54:01Z</time></trkpt><trkpt lat="43.75148923595918" lon="11.186866266211199"><ele>46.199999999999996</ele><time>2026-03-29T08:54:03Z</time></trkpt><trkpt lat="43.751534646550226" lon="11.186932217230996"><ele>46.0</ele><time>2026-03-29T08:54:04Z</time></trkpt><trkpt lat="43.75157851076636" lon="11.186995974620151"><ele>46.0</ele><time>2026-03-29T08:54:05Z</time></trkpt><trkpt lat="43.751623422179364" lon="11.187060844433091"><ele>46.0</ele><time>2026-03-29T08:54:06Z</time></trkpt><trkpt lat="43.751671034412865" lon="11.187127717866558"><ele>46.0</ele><time>2026-03-29T08:54:07Z</time></trkpt><trkpt lat="43.75175888204948" lon="11.187249652819501"><ele>46.0</ele><time>2026-03-29T08:54:09Z</time></trkpt><trkpt lat="43.75180372329486" lon="11.187312198672025"><ele>46.0</ele><time>2026-03-29T08:54:10Z</time></trkpt><trkpt lat="43.75185950231678" lon="11.187362341126562"><ele>46.0</ele><time>2026-03-29T08:54:11Z</time></trkpt><trkpt lat="43.751962623309645" lon="11.187454544751962"><ele>46.199999999999996</ele><time>2026-03-29T08:54:13Z</time></trkpt><trkpt lat="43.752048251332305" lon="11.187542507435788"><ele>46.4</ele><time>2026-03-29T08:54:15Z</time></trkpt><trkpt lat="43.752072191827764" lon="11.187635742930466"><ele>46.6</ele><time>2026-03-29T08:54:17Z</time></trkpt><trkpt lat="43.75196126647835" lon="11.187754850737415"><ele>46.8</ele><time>2026-03-29T08:54:20Z</time></trkpt><trkpt lat="43.75188469255767" lon="11.18782574335791"><ele>47.0</ele><time>2026-03-29T08:54:22Z</time></trkpt><trkpt lat="43.751819752031565" lon="11.18790455772216"><ele>47.0</ele><time>2026-03-29T08:54:24Z</time></trkpt><trkpt lat="43.751751701091784" lon="11.187988774669586"><ele>47.0</ele><time>2026-03-29T08:54:26Z</time></trkpt><trkpt lat="43.75168671365843" lon="11.18808394389745"><ele>47.0</ele><time>2026-03-29T08:54:28Z</time></trkpt><trkpt lat="43.75161796958049" lon="11.188169922130749"><ele>47.0</ele><time>2026-03-29T08:54:30Z</time></trkpt><trkpt lat="43.751544105956434" lon="11.18825360913464"><ele>47.0</ele><time>2026-03-29T08:54:32Z</time></trkpt><trkpt lat="43.7514688082898" lon="11.188338922276877"><ele>47.0</ele><time>2026-03-29T08:54:34Z</time></trkpt><trkpt lat="43.751403703551986" lon="11.188438341228277"><ele>47.0</ele><time>2026-03-29T08:54:36Z</time></trkpt><trkpt lat="43.75131748743568" lon="11.1885300869986"><ele>47.0</ele><time>2026-03-29T08:54:38Z</time></trkpt><trkpt lat="43.751235931994486" lon="11.188617350198095"><ele>47.0</ele><time>2026-03-29T08:54:40Z</time></trkpt><trkpt lat="43.751162895250054" lon="11.18871416384147"><ele>47.0</ele><time>2026-03-29T08:54:42Z</time></trkpt><trkpt lat="43.751088704740134" lon="11.188804201501442"><ele>47.2</ele><time>2026-03-29T08:54:44Z</time></trkpt><trkpt lat="43.75102852116965" lon="11.188904638890314"><ele>47.400000000000006</ele><time>2026-03-29T08:54:46Z</time></trkpt><trkpt lat="43.751036395054186" lon="11.18903338026119"><ele>47.599999999999994</ele><time>2026-03-29T08:54:48Z</time></trkpt><trkpt lat="43.7510949573625" lon="11.189137723286418"><ele>47.8</ele><time>2026-03-29T08:54:50Z</time></trkpt><trkpt lat="43.75116078913813" lon="11.189234092458362"><ele>48.0</ele><time>2026-03-29T08:54:52Z</time></trkpt><trkpt lat="43.75122405751701" lon="11.189333791687151"><ele>48.0</ele><time>2026-03-29T08:54:54Z</time></trkpt><trkpt lat="43.751296817965006" lon="11.189434705052367"><ele>48.0</ele><time>2026-03-29T08:54:56Z</time></trkpt><trkpt lat="43.75137298065163" lon="11.18954119774448"><ele>48.0</ele><time>2026-03-29T08:54:58Z</time></trkpt><trkpt lat="43.75144348528158" lon="11.189660825722047"><ele>48.0</ele><time>2026-03-29T08:55:00Z</time></trkpt><trkpt lat="43.75151787151877" lon="11.189774013934437"><ele>48.0</ele><time>2026-03-29T08:55:02Z</time></trkpt><trkpt lat="43.75158703404442" lon="11.18988569211389"><ele>48.0</ele><time>2026-03-29T08:55:04Z</time></trkpt><trkpt lat="43.75165566854169" lon="11.190002336021669"><ele>48.0</ele><time>2026-03-29T08:55:06Z</time></trkpt><trkpt lat="43.7517320790791" lon="11.190109869553341"><ele>48.0</ele><time>2026-03-29T08:55:08Z</time></trkpt><trkpt lat="43.75180782788546" lon="11.190202747687204"><ele>48.0</ele><time>2026-03-29T08:55:10Z</time></trkpt><trkpt lat="43.751874988018955" lon="11.190307607169428"><ele>48.0</ele><time>2026-03-29T08:55:12Z</time></trkpt><trkpt lat="43.75194573365499" lon="11.190406883119696"><ele>48.0</ele><time>2026-03-29T08:55:14Z</time></trkpt><trkpt lat="43.752021368261396" lon="11.19050884486677"><ele>48.0</ele><time>2026-03-29T08:55:16Z</time></trkpt><trkpt lat="43.75209171277917" lon="11.190620404019644"><ele>48.0</ele><time>2026-03-29T08:55:18Z</time></trkpt><trkpt lat="43.75216743384736" lon="11.190737132302505"><ele>48.0</ele><time>2026-03-29T08:55:20Z</time></trkpt><trkpt lat="43.752253379785216" lon="11.190849610232712"><ele>48.0</ele><time>2026-03-29T08:55:22Z</time></trkpt><trkpt lat="43.752334520683966" lon="11.190967103143329"><ele>48.0</ele><time>2026-03-29T08:55:24Z</time></trkpt><trkpt lat="43.75241893982685" lon="11.191086541717686"><ele>48.0</ele><time>2026-03-29T08:55:26Z</time></trkpt><trkpt lat="43.752503676622" lon="11.191210335222928"><ele>48.0</ele><time>2026-03-29T08:55:28Z</time></trkpt><trkpt lat="43.75254731482969" lon="11.191275993731388"><ele>48.0</ele><time>2026-03-29T08:55:29Z</time></trkpt><trkpt lat="43.75262595757443" lon="11.19140267566081"><ele>48.0</ele><time>2026-03-29T08:55:31Z</time></trkpt><trkpt lat="43.75269514758935" lon="11.191532535694796"><ele>47.8</ele><time>2026-03-29T08:55:33Z</time></trkpt><trkpt lat="43.7527902044543" lon="11.191613682660906"><ele>47.599999999999994</ele><time>2026-03-29T08:55:35Z</time></trkpt><trkpt lat="43.75286906679185" lon="11.191723115570996"><ele>47.400000000000006</ele><time>2026-03-29T08:55:37Z</time></trkpt><trkpt lat="43.75293208399364" lon="11.191839810349919"><ele>47.2</ele><time>2026-03-29T08:55:39Z</time></trkpt><trkpt lat="43.75300893914541" lon="11.191940302518114"><ele>47.0</ele><time>2026-03-29T08:55:41Z</time></trkpt><trkpt lat="43.75306747068638" lon="11.192060129669347"><ele>47.0</ele><time>2026-03-29T08:55:43Z</time></trkpt><trkpt lat="43.753128619943396" lon="11.192173916171704"><ele>47.0</ele><time>2026-03-29T08:55:45Z</time></trkpt><trkpt lat="43.75319863096571" lon="11.192259677821248"><ele>47.0</ele><time>2026-03-29T08:55:47Z</time></trkpt><trkpt lat="43.75326345097831" lon="11.192367543653024"><ele>47.0</ele><time>2026-03-29T08:55:49Z</time></trkpt><trkpt lat="43.753306515058746" lon="11.192485033728774"><ele>47.0</ele><time>2026-03-29T08:55:51Z</time></trkpt><trkpt lat="43.75333999518491" lon="11.192606241338908"><ele>46.8</ele><time>2026-03-29T08:55:53Z</time></trkpt><trkpt lat="43.753378374449134" lon="11.1927285205918"><ele>46.6</ele><time>2026-03-29T08:55:55Z</time></trkpt><trkpt lat="43.75341753434736" lon="11.192817607911445"><ele>46.4</ele><time>2026-03-29T08:55:57Z</time></trkpt><trkpt lat="43.75355528323573" lon="11.192744591850829"><ele>46.199999999999996</ele><time>2026-03-29T08:55:59Z</time></trkpt><trkpt lat="43.7536476575675" lon="11.192678481534436"><ele>46.0</ele><time>2026-03-29T08:56:01Z</time></trkpt><trkpt lat="43.753749869196454" lon="11.192598573465395"><ele>46.4</ele><time>2026-03-29T08:56:03Z</time></trkpt><trkpt lat="43.75385091591959" lon="11.192535397597174"><ele>46.8</ele><time>2026-03-29T08:56:05Z</time></trkpt><trkpt lat="43.7539598399771" lon="11.19248049790485"><ele>47.199999999999996</ele><time>2026-03-29T08:56:07Z</time></trkpt><trkpt lat="43.754060151216976" lon="11.192425294149833"><ele>47.599999999999994</ele><time>2026-03-29T08:56:09Z</time></trkpt><trkpt lat="43.754153929722825" lon="11.192367175549395"><ele>48.0</ele><time>2026-03-29T08:56:11Z</time></trkpt><trkpt lat="43.75424677592115" lon="11.192503160507625"><ele>48.0</ele><time>2026-03-29T08:56:14Z</time></trkpt><trkpt lat="43.75429329308018" lon="11.192638479736878"><ele>48.0</ele><time>2026-03-29T08:56:16Z</time></trkpt><trkpt lat="43.75434964271751" lon="11.192766325318972"><ele>48.0</ele><time>2026-03-29T08:56:18Z</time></trkpt><trkpt lat="43.75440363488462" lon="11.192901515214409"><ele>48.0</ele><time>2026-03-29T08:56:20Z</time></trkpt><trkpt lat="43.754467662964785" lon="11.19303836364697"><ele>48.0</ele><time>2026-03-29T08:56:22Z</time></trkpt><trkpt lat="43.75453011364279" lon="11.19317318306006"><ele>47.0</ele><time>2026-03-29T08:56:24Z</time></trkpt><trkpt lat="43.754591457428454" lon="11.193320633492336"><ele>46.0</ele><time>2026-03-29T08:56:26Z</time></trkpt><trkpt lat="43.75465631883196" lon="11.193465190596473"><ele>45.0</ele><time>2026-03-29T08:56:28Z</time></trkpt><trkpt lat="43.75472455037649" lon="11.193592168405893"><ele>44.0</ele><time>2026-03-29T08:56:30Z</time></trkpt><trkpt lat="43.7547872014524" lon="11.193723472116268"><ele>44.0</ele><time>2026-03-29T08:56:32Z</time></trkpt><trkpt lat="43.754852286882496" lon="11.193860397949107"><ele>44.0</ele><time>2026-03-29T08:56:34Z</time></trkpt><trkpt lat="43.7549266601559" lon="11.194005808595012"><ele>44.0</ele><time>2026-03-29T08:56:36Z</time></trkpt><trkpt lat="43.754963521466514" lon="11.194083342084681"><ele>44.0</ele><time>2026-03-29T08:56:37Z</time></trkpt><trkpt lat="43.75499698419557" lon="11.194163670486473"><ele>44.0</ele><time>2026-03-29T08:56:38Z</time></trkpt><trkpt lat="43.7550326966412" lon="11.1942439151196"><ele>44.0</ele><time>2026-03-29T08:56:39Z</time></trkpt><trkpt lat="43.75507341047069" lon="11.194327540449352"><ele>44.142857142857146</ele><time>2026-03-29T08:56:40Z</time></trkpt><trkpt lat="43.75512418111505" lon="11.194408562662455"><ele>44.285714285714285</ele><time>2026-03-29T08:56:41Z</time></trkpt><trkpt lat="43.75516750063925" lon="11.194486942049128"><ele>44.42857142857143</ele><time>2026-03-29T08:56:42Z</time></trkpt><trkpt lat="43.75520430305091" lon="11.194569035807"><ele>44.57142857142857</ele><time>2026-03-29T08:56:43Z</time></trkpt><trkpt lat="43.75524358441091" lon="11.19464246989334"><ele>44.714285714285715</ele><time>2026-03-29T08:56:44Z</time></trkpt><trkpt lat="43.75528685798035" lon="11.194716696183473"><ele>44.857142857142854</ele><time>2026-03-29T08:56:45Z</time></trkpt><trkpt lat="43.755333372026726" lon="11.194793826688834"><ele>45.0</ele><time>2026-03-29T08:56:46Z</time></trkpt><trkpt lat="43.75537549442636" lon="11.194875638707654"><ele>45.0</ele><time>2026-03-29T08:56:47Z</time></trkpt><trkpt lat="43.75541305509972" lon="11.19495831822872"><ele>45.0</ele><time>2026-03-29T08:56:48Z</time></trkpt><trkpt lat="43.75544801159324" lon="11.195033356629871"><ele>45.0</ele><time>2026-03-29T08:56:49Z</time></trkpt><trkpt lat="43.75548729628536" lon="11.195109499405207"><ele>45.0</ele><time>2026-03-29T08:56:50Z</time></trkpt><trkpt lat="43.75551891267882" lon="11.195186009741613"><ele>45.0</ele><time>2026-03-29T08:56:51Z</time></trkpt><trkpt lat="43.75555085224914" lon="11.195264683909336"><ele>45.0</ele><time>2026-03-29T08:56:52Z</time></trkpt><trkpt lat="43.75558006071513" lon="11.195348305182067"><ele>45.0</ele><time>2026-03-29T08:56:53Z</time></trkpt><trkpt lat="43.75560848347703" lon="11.195431461838634"><ele>45.0</ele><time>2026-03-29T08:56:54Z</time></trkpt><trkpt lat="43.755630915062994" lon="11.195516329595598"><ele>45.0</ele><time>2026-03-29T08:56:55Z</time></trkpt><trkpt lat="43.75565514726956" lon="11.19560144342484"><ele>45.0</ele><time>2026-03-29T08:56:56Z</time></trkpt><trkpt lat="43.75568246624209" lon="11.19568686758019"><ele>45.0</ele><time>2026-03-29T08:56:57Z</time></trkpt><trkpt lat="43.755712706416794" lon="11.195770219736895"><ele>45.0</ele><time>2026-03-29T08:56:58Z</time></trkpt><trkpt lat="43.75574026005565" lon="11.195851922942895"><ele>45.0</ele><time>2026-03-29T08:56:59Z</time></trkpt><trkpt lat="43.755766499624606" lon="11.195937121801038"><ele>45.0</ele><time>2026-03-29T08:57:00Z</time></trkpt><trkpt lat="43.75578948880309" lon="11.196022465177784"><ele>45.0</ele><time>2026-03-29T08:57:01Z</time></trkpt><trkpt lat="43.75581622746381" lon="11.196108669056985"><ele>45.0</ele><time>2026-03-29T08:57:02Z</time></trkpt><trkpt lat="43.7558448219612" lon="11.19619055473746"><ele>45.0</ele><time>2026-03-29T08:57:03Z</time></trkpt><trkpt lat="43.75586866131564" lon="11.19627918531259"><ele>45.0</ele><time>2026-03-29T08:57:04Z</time></trkpt><trkpt lat="43.75589460170596" lon="11.196361174127636"><ele>45.0</ele><time>2026-03-29T08:57:05Z</time></trkpt><trkpt lat="43.7559206635014" lon="11.196442384906785"><ele>45.0</ele><time>2026-03-29T08:57:06Z</time></trkpt><trkpt lat="43.75594997513786" lon="11.196523170377331"><ele>45.0</ele><time>2026-03-29T08:57:07Z</time></trkpt><trkpt lat="43.75597674502876" lon="11.196607813378412"><ele>45.0</ele><time>2026-03-29T08:57:08Z</time></trkpt><trkpt lat="43.756005329046694" lon="11.196686816988889"><ele>45.0</ele><time>2026-03-29T08:57:09Z</time></trkpt><trkpt lat="43.75605969317608" lon="11.196842632361971"><ele>45.0</ele><time>2026-03-29T08:57:11Z</time></trkpt><trkpt lat="43.7561212413112" lon="11.196997625122783"><ele>45.0</ele><time>2026-03-29T08:57:13Z</time></trkpt><trkpt lat="43.75618393723573" lon="11.197147872577526"><ele>45.0</ele><time>2026-03-29T08:57:15Z</time></trkpt><trkpt lat="43.75621700901823" lon="11.197223883702328"><ele>45.8</ele><time>2026-03-29T08:57:16Z</time></trkpt><trkpt lat="43.756277445190314" lon="11.197379238066347"><ele>46.6</ele><time>2026-03-29T08:57:18Z</time></trkpt><trkpt lat="43.756297203450956" lon="11.197483563757507"><ele>47.400000000000006</ele><time>2026-03-29T08:57:19Z</time></trkpt><trkpt lat="43.75638532792326" lon="11.197600057497562"><ele>48.2</ele><time>2026-03-29T08:57:21Z</time></trkpt><trkpt lat="43.756453449745905" lon="11.197738221551893"><ele>49.0</ele><time>2026-03-29T08:57:23Z</time></trkpt><trkpt lat="43.756534121252685" lon="11.197862920605472"><ele>49.0</ele><time>2026-03-29T08:57:25Z</time></trkpt><trkpt lat="43.75659238838298" lon="11.197953571801474"><ele>49.0</ele><time>2026-03-29T08:57:26Z</time></trkpt><trkpt lat="43.756641446965645" lon="11.198046691675762"><ele>49.0</ele><time>2026-03-29T08:57:28Z</time></trkpt><trkpt lat="43.75670964993399" lon="11.198167733108928"><ele>49.0</ele><time>2026-03-29T08:57:30Z</time></trkpt><trkpt lat="43.756766274214506" lon="11.198274895887087"><ele>49.0</ele><time>2026-03-29T08:57:32Z</time></trkpt><trkpt lat="43.756796766309925" lon="11.198373718799894"><ele>48.83333333333333</ele><time>2026-03-29T08:57:34Z</time></trkpt><trkpt lat="43.75685312758601" lon="11.198453105820667"><ele>48.666666666666664</ele><time>2026-03-29T08:57:37Z</time></trkpt><trkpt lat="43.756909264331746" lon="11.198505561641024"><ele>48.5</ele><time>2026-03-29T08:58:27Z</time></trkpt><trkpt lat="43.75695718709614" lon="11.1986061805079"><ele>48.33333333333333</ele><time>2026-03-29T08:58:30Z</time></trkpt><trkpt lat="43.75701108728914" lon="11.198718917425866"><ele>48.166666666666664</ele><time>2026-03-29T08:58:33Z</time></trkpt><trkpt lat="43.75705348773983" lon="11.198811215399603"><ele>48.0</ele><time>2026-03-29T08:58:35Z</time></trkpt><trkpt lat="43.75710274244181" lon="11.198923181300518"><ele>47.8</ele><time>2026-03-29T08:58:37Z</time></trkpt><trkpt lat="43.75715446424097" lon="11.199046808046527"><ele>47.599999999999994</ele><time>2026-03-29T08:58:39Z</time></trkpt><trkpt lat="43.757207618734846" lon="11.199180913444168"><ele>47.400000000000006</ele><time>2026-03-29T08:58:41Z</time></trkpt><trkpt lat="43.75726062244861" lon="11.199314638389549"><ele>47.2</ele><time>2026-03-29T08:58:43Z</time></trkpt><trkpt lat="43.757312749669104" lon="11.199446486019573"><ele>47.0</ele><time>2026-03-29T08:58:45Z</time></trkpt><trkpt lat="43.75736576079017" lon="11.199577538476976"><ele>47.0</ele><time>2026-03-29T08:58:47Z</time></trkpt><trkpt lat="43.757429210142185" lon="11.199724728930073"><ele>47.0</ele><time>2026-03-29T08:58:49Z</time></trkpt><trkpt lat="43.7574914176068" lon="11.199857344141337"><ele>47.0</ele><time>2026-03-29T08:58:51Z</time></trkpt><trkpt lat="43.75755515499824" lon="11.199991696080344"><ele>47.0</ele><time>2026-03-29T08:58:53Z</time></trkpt><trkpt lat="43.75762145919737" lon="11.200129784618916"><ele>46.8</ele><time>2026-03-29T08:58:55Z</time></trkpt><trkpt lat="43.75768935682083" lon="11.200267547907476"><ele>46.6</ele><time>2026-03-29T08:58:57Z</time></trkpt><trkpt lat="43.75777281611089" lon="11.200395211572332"><ele>46.4</ele><time>2026-03-29T08:58:59Z</time></trkpt><trkpt lat="43.75781675513302" lon="11.20045826824918"><ele>46.199999999999996</ele><time>2026-03-29T08:59:00Z</time></trkpt><trkpt lat="43.75788310356633" lon="11.200604308918999"><ele>46.0</ele><time>2026-03-29T08:59:02Z</time></trkpt><trkpt lat="43.75791599753537" lon="11.200680649046532"><ele>46.25</ele><time>2026-03-29T08:59:03Z</time></trkpt><trkpt lat="43.75794943418911" lon="11.200756389529424"><ele>46.5</ele><time>2026-03-29T08:59:04Z</time></trkpt><trkpt lat="43.75798265008748" lon="11.200831923188957"><ele>46.75</ele><time>2026-03-29T08:59:05Z</time></trkpt><trkpt lat="43.75801566624886" lon="11.200906181755105"><ele>47.0</ele><time>2026-03-29T08:59:06Z</time></trkpt><trkpt lat="43.758046753838265" lon="11.20098209322953"><ele>47.25</ele><time>2026-03-29T08:59:07Z</time></trkpt><trkpt lat="43.75808110759597" lon="11.201055880969214"><ele>47.5</ele><time>2026-03-29T08:59:08Z</time></trkpt><trkpt lat="43.75811696518543" lon="11.201128808819183"><ele>47.75</ele><time>2026-03-29T08:59:09Z</time></trkpt><trkpt lat="43.758149745725994" lon="11.201203900446997"><ele>48.0</ele><time>2026-03-29T08:59:10Z</time></trkpt><trkpt lat="43.75818169693935" lon="11.201280341276968"><ele>48.0</ele><time>2026-03-29T08:59:11Z</time></trkpt><trkpt lat="43.75821914177734" lon="11.201353619733283"><ele>48.0</ele><time>2026-03-29T08:59:12Z</time></trkpt><trkpt lat="43.75828354291144" lon="11.201502262061856"><ele>48.0</ele><time>2026-03-29T08:59:14Z</time></trkpt><trkpt lat="43.758307694440816" lon="11.201584745272292"><ele>48.0</ele><time>2026-03-29T08:59:15Z</time></trkpt><trkpt lat="43.75833474732685" lon="11.201668359713643"><ele>48.0</ele><time>2026-03-29T08:59:16Z</time></trkpt><trkpt lat="43.758367433331514" lon="11.201745934521101"><ele>48.0</ele><time>2026-03-29T08:59:17Z</time></trkpt><trkpt lat="43.75840569201165" lon="11.201825576617793"><ele>47.99999999999999</ele><time>2026-03-29T08:59:18Z</time></trkpt><trkpt lat="43.75844151644015" lon="11.201901631190367"><ele>48.0</ele><time>2026-03-29T08:59:19Z</time></trkpt><trkpt lat="43.7584776932269" lon="11.201974982649476"><ele>48.0</ele><time>2026-03-29T08:59:20Z</time></trkpt><trkpt lat="43.75851168930234" lon="11.202048936091465"><ele>48.0</ele><time>2026-03-29T08:59:21Z</time></trkpt><trkpt lat="43.75854445236286" lon="11.202124112636866"><ele>48.0</ele><time>2026-03-29T08:59:22Z</time></trkpt><trkpt lat="43.75858008036971" lon="11.202203021814318"><ele>47.99999999999999</ele><time>2026-03-29T08:59:23Z</time></trkpt><trkpt lat="43.758651647209724" lon="11.202343226292822"><ele>48.0</ele><time>2026-03-29T08:59:25Z</time></trkpt><trkpt lat="43.758685406137566" lon="11.202419365452222"><ele>47.833333333333336</ele><time>2026-03-29T08:59:26Z</time></trkpt><trkpt lat="43.7587204833752" lon="11.202494663919856"><ele>47.666666666666664</ele><time>2026-03-29T08:59:27Z</time></trkpt><trkpt lat="43.75878662869649" lon="11.20264113882749"><ele>47.5</ele><time>2026-03-29T08:59:29Z</time></trkpt><trkpt lat="43.75882202812847" lon="11.20271549994113"><ele>47.33333333333333</ele><time>2026-03-29T08:59:30Z</time></trkpt><trkpt lat="43.758853757774524" lon="11.202792111443467"><ele>47.166666666666664</ele><time>2026-03-29T08:59:31Z</time></trkpt><trkpt lat="43.75891129626456" lon="11.202945375646722"><ele>47.0</ele><time>2026-03-29T08:59:33Z</time></trkpt><trkpt lat="43.758916011394284" lon="11.203124265846697"><ele>47.0</ele><time>2026-03-29T08:59:35Z</time></trkpt><trkpt lat="43.758935892093994" lon="11.203207443109424"><ele>47.0</ele><time>2026-03-29T08:59:36Z</time></trkpt><trkpt lat="43.75903636011167" lon="11.203318613592192"><ele>47.0</ele><time>2026-03-29T08:59:38Z</time></trkpt><trkpt lat="43.75909368323451" lon="11.20336282453532"><ele>47.0</ele><time>2026-03-29T08:59:39Z</time></trkpt><trkpt lat="43.75919150252494" lon="11.20347648149404"><ele>47.0</ele><time>2026-03-29T08:59:41Z</time></trkpt><trkpt lat="43.75923655195891" lon="11.203544664950407"><ele>47.0</ele><time>2026-03-29T08:59:42Z</time></trkpt><trkpt lat="43.75928120706025" lon="11.20360964333646"><ele>47.0</ele><time>2026-03-29T08:59:43Z</time></trkpt><trkpt lat="43.759327146222255" lon="11.203680222060457"><ele>47.0</ele><time>2026-03-29T08:59:44Z</time></trkpt><trkpt lat="43.7593701659056" lon="11.203750428481444"><ele>47.0</ele><time>2026-03-29T08:59:45Z</time></trkpt><trkpt lat="43.759414467942456" lon="11.203825093173975"><ele>47.0</ele><time>2026-03-29T08:59:46Z</time></trkpt><trkpt lat="43.75945278780535" lon="11.203898642736362"><ele>47.0</ele><time>2026-03-29T08:59:47Z</time></trkpt><trkpt lat="43.75949023898937" lon="11.203978158252873"><ele>47.0</ele><time>2026-03-29T08:59:48Z</time></trkpt><trkpt lat="43.75953212497159" lon="11.204051327423699"><ele>46.57142857142857</ele><time>2026-03-29T08:59:49Z</time></trkpt><trkpt lat="43.75957954054604" lon="11.204122560540204"><ele>46.14285714285714</ele><time>2026-03-29T08:59:50Z</time></trkpt><trkpt lat="43.75962448002189" lon="11.204194613234472"><ele>45.714285714285715</ele><time>2026-03-29T08:59:51Z</time></trkpt><trkpt lat="43.75966656530581" lon="11.204265778002728"><ele>45.285714285714285</ele><time>2026-03-29T08:59:52Z</time></trkpt><trkpt lat="43.759712401076904" lon="11.204338916520888"><ele>44.857142857142854</ele><time>2026-03-29T08:59:53Z</time></trkpt><trkpt lat="43.759757010295985" lon="11.204417805070698"><ele>44.42857142857143</ele><time>2026-03-29T08:59:54Z</time></trkpt><trkpt lat="43.759803789781046" lon="11.204490404788016"><ele>44.0</ele><time>2026-03-29T08:59:55Z</time></trkpt><trkpt lat="43.759845995392986" lon="11.204560668992363"><ele>44.0</ele><time>2026-03-29T08:59:56Z</time></trkpt><trkpt lat="43.75988500758761" lon="11.20464159178128"><ele>44.0</ele><time>2026-03-29T08:59:57Z</time></trkpt><trkpt lat="43.759928666727276" lon="11.20471062575202"><ele>44.0</ele><time>2026-03-29T08:59:58Z</time></trkpt><trkpt lat="43.759972898073705" lon="11.204781796125928"><ele>44.0</ele><time>2026-03-29T08:59:59Z</time></trkpt><trkpt lat="43.76001589918486" lon="11.20484599986583"><ele>44.0</ele><time>2026-03-29T09:00:00Z</time></trkpt><trkpt lat="43.76006026007271" lon="11.204914465003997"><ele>44.0</ele><time>2026-03-29T09:00:01Z</time></trkpt><trkpt lat="43.76010792163415" lon="11.204974211145199"><ele>44.0</ele><time>2026-03-29T09:00:02Z</time></trkpt><trkpt lat="43.76015666572048" lon="11.20503200409371"><ele>43.714285714285715</ele><time>2026-03-29T09:00:03Z</time></trkpt><trkpt lat="43.76020279288889" lon="11.205099862295148"><ele>43.42857142857143</ele><time>2026-03-29T09:00:04Z</time></trkpt><trkpt lat="43.76024780540828" lon="11.205163021602745"><ele>43.14285714285714</ele><time>2026-03-29T09:00:05Z</time></trkpt><trkpt lat="43.76029768078008" lon="11.205220898666266"><ele>42.85714285714286</ele><time>2026-03-29T09:00:06Z</time></trkpt><trkpt lat="43.760349021642845" lon="11.205279383774108"><ele>42.57142857142857</ele><time>2026-03-29T09:00:07Z</time></trkpt><trkpt lat="43.76039945632255" lon="11.205338654704136"><ele>42.285714285714285</ele><time>2026-03-29T09:00:08Z</time></trkpt><trkpt lat="43.76044626146201" lon="11.205402819659053"><ele>42.0</ele><time>2026-03-29T09:00:09Z</time></trkpt><trkpt lat="43.760498728808706" lon="11.205456848857938"><ele>42.0</ele><time>2026-03-29T09:00:10Z</time></trkpt><trkpt lat="43.760547139499316" lon="11.205517979885256"><ele>42.0</ele><time>2026-03-29T09:00:11Z</time></trkpt><trkpt lat="43.760593615695484" lon="11.205581360226583"><ele>42.0</ele><time>2026-03-29T09:00:12Z</time></trkpt><trkpt lat="43.76064813318843" lon="11.205642773342202"><ele>42.0</ele><time>2026-03-29T09:00:13Z</time></trkpt><trkpt lat="43.760699033167285" lon="11.205700156134577"><ele>42.0</ele><time>2026-03-29T09:00:14Z</time></trkpt><trkpt lat="43.760747507150576" lon="11.205761613460178"><ele>42.0</ele><time>2026-03-29T09:00:15Z</time></trkpt><trkpt lat="43.760792183720135" lon="11.205829326576655"><ele>42.0</ele><time>2026-03-29T09:00:16Z</time></trkpt><trkpt lat="43.76083851051244" lon="11.205898075958686"><ele>42.142857142857146</ele><time>2026-03-29T09:00:17Z</time></trkpt><trkpt lat="43.76088792634736" lon="11.205961612269052"><ele>42.285714285714285</ele><time>2026-03-29T09:00:18Z</time></trkpt><trkpt lat="43.76093472096283" lon="11.206025721264801"><ele>42.42857142857143</ele><time>2026-03-29T09:00:19Z</time></trkpt><trkpt lat="43.76098135432693" lon="11.206089780648012"><ele>42.57142857142857</ele><time>2026-03-29T09:00:20Z</time></trkpt><trkpt lat="43.76102923425032" lon="11.20615410057547"><ele>42.714285714285715</ele><time>2026-03-29T09:00:21Z</time></trkpt><trkpt lat="43.76107835736053" lon="11.206217294054289"><ele>42.85714285714286</ele><time>2026-03-29T09:00:22Z</time></trkpt><trkpt lat="43.7611185318014" lon="11.206295243423728"><ele>43.0</ele><time>2026-03-29T09:00:23Z</time></trkpt><trkpt lat="43.76117102279467" lon="11.206349462377151"><ele>42.85714285714286</ele><time>2026-03-29T09:00:24Z</time></trkpt><trkpt lat="43.761221930890486" lon="11.206407612375644"><ele>42.714285714285715</ele><time>2026-03-29T09:00:25Z</time></trkpt><trkpt lat="43.76127072847372" lon="11.206473982949024"><ele>42.57142857142857</ele><time>2026-03-29T09:00:26Z</time></trkpt><trkpt lat="43.76132439272102" lon="11.206519698250565"><ele>42.42857142857143</ele><time>2026-03-29T09:00:27Z</time></trkpt><trkpt lat="43.76138330928132" lon="11.206563816909224"><ele>42.285714285714285</ele><time>2026-03-29T09:00:28Z</time></trkpt><trkpt lat="43.7614437838755" lon="11.206603000139733"><ele>42.142857142857146</ele><time>2026-03-29T09:00:29Z</time></trkpt><trkpt lat="43.761499628428105" lon="11.206653284382366"><ele>42.0</ele><time>2026-03-29T09:00:30Z</time></trkpt><trkpt lat="43.761566355178495" lon="11.20667602487662"><ele>42.0</ele><time>2026-03-29T09:00:31Z</time></trkpt><trkpt lat="43.761625480834226" lon="11.206711836042492"><ele>42.0</ele><time>2026-03-29T09:00:32Z</time></trkpt><trkpt lat="43.76168799395689" lon="11.206747346411083"><ele>42.0</ele><time>2026-03-29T09:00:33Z</time></trkpt><trkpt lat="43.7617497269641" lon="11.206786037777203"><ele>42.0</ele><time>2026-03-29T09:00:34Z</time></trkpt><trkpt lat="43.76181174118636" lon="11.20682459024043"><ele>42.0</ele><time>2026-03-29T09:00:35Z</time></trkpt><trkpt lat="43.76186960566685" lon="11.206881652585011"><ele>42.0</ele><time>2026-03-29T09:00:36Z</time></trkpt><trkpt lat="43.76193916330789" lon="11.206899828618496"><ele>42.0</ele><time>2026-03-29T09:00:37Z</time></trkpt><trkpt lat="43.76200023166077" lon="11.206946112988199"><ele>42.0</ele><time>2026-03-29T09:00:38Z</time></trkpt><trkpt lat="43.76206515573624" lon="11.20698176363607"><ele>42.0</ele><time>2026-03-29T09:00:39Z</time></trkpt><trkpt lat="43.762127174736946" lon="11.207023337826715"><ele>42.0</ele><time>2026-03-29T09:00:40Z</time></trkpt><trkpt lat="43.76218924229976" lon="11.20706530356886"><ele>42.0</ele><time>2026-03-29T09:00:41Z</time></trkpt><trkpt lat="43.76224735451062" lon="11.207108288997254"><ele>42.0</ele><time>2026-03-29T09:00:42Z</time></trkpt><trkpt lat="43.76230870898683" lon="11.207149676063976"><ele>42.0</ele><time>2026-03-29T09:00:43Z</time></trkpt><trkpt lat="43.76236811207694" lon="11.207196858446986"><ele>42.0</ele><time>2026-03-29T09:00:44Z</time></trkpt><trkpt lat="43.762427230534676" lon="11.207242040650671"><ele>42.0</ele><time>2026-03-29T09:00:45Z</time></trkpt><trkpt lat="43.76248470105231" lon="11.207291080504442"><ele>42.0</ele><time>2026-03-29T09:00:46Z</time></trkpt><trkpt lat="43.7625426167037" lon="11.207340346005562"><ele>42.0</ele><time>2026-03-29T09:00:47Z</time></trkpt><trkpt lat="43.76259907315306" lon="11.207391251297953"><ele>42.0</ele><time>2026-03-29T09:00:48Z</time></trkpt><trkpt lat="43.762656196959576" lon="11.207441708389833"><ele>42.0</ele><time>2026-03-29T09:00:49Z</time></trkpt><trkpt lat="43.762712070351576" lon="11.2074926455242"><ele>42.0</ele><time>2026-03-29T09:00:50Z</time></trkpt><trkpt lat="43.76276363849454" lon="11.207548715532365"><ele>42.0</ele><time>2026-03-29T09:00:51Z</time></trkpt><trkpt lat="43.76281602628447" lon="11.207607713056905"><ele>42.142857142857146</ele><time>2026-03-29T09:00:52Z</time></trkpt><trkpt lat="43.762869225128355" lon="11.207663887545829"><ele>42.285714285714285</ele><time>2026-03-29T09:00:53Z</time></trkpt><trkpt lat="43.76292314285501" lon="11.207725174715586"><ele>42.42857142857143</ele><time>2026-03-29T09:00:54Z</time></trkpt><trkpt lat="43.76297990897926" lon="11.207768522617071"><ele>42.57142857142857</ele><time>2026-03-29T09:00:55Z</time></trkpt><trkpt lat="43.763037879680816" lon="11.207816024120516"><ele>42.714285714285715</ele><time>2026-03-29T09:00:56Z</time></trkpt><trkpt lat="43.76310442180994" lon="11.207849038144376"><ele>42.85714285714286</ele><time>2026-03-29T09:00:57Z</time></trkpt><trkpt lat="43.76316077039391" lon="11.207896917634285"><ele>43.0</ele><time>2026-03-29T09:00:58Z</time></trkpt><trkpt lat="43.763217434445664" lon="11.207942207479062"><ele>43.0</ele><time>2026-03-29T09:00:59Z</time></trkpt><trkpt lat="43.763275169178584" lon="11.207992362059096"><ele>43.0</ele><time>2026-03-29T09:01:00Z</time></trkpt><trkpt lat="43.7633781705234" lon="11.208098862917405"><ele>43.0</ele><time>2026-03-29T09:01:02Z</time></trkpt><trkpt lat="43.76343266708856" lon="11.208154473838384"><ele>43.0</ele><time>2026-03-29T09:01:03Z</time></trkpt><trkpt lat="43.76348550912555" lon="11.208209781616882"><ele>43.0</ele><time>2026-03-29T09:01:04Z</time></trkpt><trkpt lat="43.76353798858294" lon="11.20826585322357"><ele>43.0</ele><time>2026-03-29T09:01:05Z</time></trkpt><trkpt lat="43.76358840343858" lon="11.208319539441364"><ele>42.57142857142858</ele><time>2026-03-29T09:01:06Z</time></trkpt><trkpt lat="43.76363210901204" lon="11.208384291333067"><ele>42.142857142857146</ele><time>2026-03-29T09:01:07Z</time></trkpt><trkpt lat="43.76368085485266" lon="11.208446068000107"><ele>41.714285714285715</ele><time>2026-03-29T09:01:08Z</time></trkpt><trkpt lat="43.763730331243046" lon="11.208510165671767"><ele>41.28571428571429</ele><time>2026-03-29T09:01:09Z</time></trkpt><trkpt lat="43.763777143762304" lon="11.208572782589501"><ele>40.85714285714286</ele><time>2026-03-29T09:01:10Z</time></trkpt><trkpt lat="43.76381107483721" lon="11.208651934411845"><ele>40.42857142857143</ele><time>2026-03-29T09:01:11Z</time></trkpt><trkpt lat="43.76385763582643" lon="11.208716414117506"><ele>40.0</ele><time>2026-03-29T09:01:12Z</time></trkpt><trkpt lat="43.76390220435277" lon="11.208779526556183"><ele>40.0</ele><time>2026-03-29T09:01:13Z</time></trkpt><trkpt lat="43.763956783520186" lon="11.20883233944985"><ele>40.0</ele><time>2026-03-29T09:01:14Z</time></trkpt><trkpt lat="43.7640007479565" lon="11.208896107280049"><ele>40.0</ele><time>2026-03-29T09:01:15Z</time></trkpt><trkpt lat="43.764047104966075" lon="11.208966204009759"><ele>40.0</ele><time>2026-03-29T09:01:16Z</time></trkpt><trkpt lat="43.764089617178556" lon="11.209036376276833"><ele>40.0</ele><time>2026-03-29T09:01:17Z</time></trkpt><trkpt lat="43.764134623661825" lon="11.209106477619063"><ele>40.0</ele><time>2026-03-29T09:01:18Z</time></trkpt><trkpt lat="43.76417573084208" lon="11.209178350145315"><ele>40.0</ele><time>2026-03-29T09:01:19Z</time></trkpt><trkpt lat="43.764248284716885" lon="11.209322695101962"><ele>40.4</ele><time>2026-03-29T09:01:21Z</time></trkpt><trkpt lat="43.76429025711627" lon="11.209391444155637"><ele>40.8</ele><time>2026-03-29T09:01:22Z</time></trkpt><trkpt lat="43.764352833758004" lon="11.20953430663238"><ele>41.2</ele><time>2026-03-29T09:01:24Z</time></trkpt><trkpt lat="43.76442088758502" lon="11.209666881404578"><ele>41.6</ele><time>2026-03-29T09:01:26Z</time></trkpt><trkpt lat="43.76448214307228" lon="11.20977944877549"><ele>42.0</ele><time>2026-03-29T09:01:28Z</time></trkpt><trkpt lat="43.76437532976647" lon="11.209924660539649"><ele>42.2</ele><time>2026-03-29T09:01:31Z</time></trkpt><trkpt lat="43.76430980561189" lon="11.21002209155864"><ele>42.400000000000006</ele><time>2026-03-29T09:01:33Z</time></trkpt><trkpt lat="43.764237373751804" lon="11.210149938217945"><ele>42.599999999999994</ele><time>2026-03-29T09:01:35Z</time></trkpt><trkpt lat="43.764172505758125" lon="11.210281295726068"><ele>42.8</ele><time>2026-03-29T09:01:37Z</time></trkpt><trkpt lat="43.7640965004894" lon="11.210400579904878"><ele>43.0</ele><time>2026-03-29T09:01:39Z</time></trkpt><trkpt lat="43.76402454156322" lon="11.210527181025501"><ele>43.0</ele><time>2026-03-29T09:01:41Z</time></trkpt><trkpt lat="43.763954713583196" lon="11.210651571169052"><ele>43.0</ele><time>2026-03-29T09:01:43Z</time></trkpt><trkpt lat="43.76388543996439" lon="11.210776281249672"><ele>43.0</ele><time>2026-03-29T09:01:45Z</time></trkpt><trkpt lat="43.76382055273263" lon="11.210901408120941"><ele>43.0</ele><time>2026-03-29T09:01:47Z</time></trkpt><trkpt lat="43.76375146466079" lon="11.210999106506325"><ele>43.0</ele><time>2026-03-29T09:01:49Z</time></trkpt><trkpt lat="43.763692981747134" lon="11.211105326562008"><ele>43.0</ele><time>2026-03-29T09:01:51Z</time></trkpt><trkpt lat="43.76363198819193" lon="11.21118944715919"><ele>43.0</ele><time>2026-03-29T09:01:53Z</time></trkpt><trkpt lat="43.76356859199851" lon="11.211289781754157"><ele>43.0</ele><time>2026-03-29T09:01:55Z</time></trkpt><trkpt lat="43.763483448770465" lon="11.211377932893058"><ele>43.0</ele><time>2026-03-29T09:01:57Z</time></trkpt><trkpt lat="43.763408310208085" lon="11.21147469686844"><ele>43.0</ele><time>2026-03-29T09:01:59Z</time></trkpt><trkpt lat="43.763358139779164" lon="11.211614132803124"><ele>43.0</ele><time>2026-03-29T09:02:01Z</time></trkpt><trkpt lat="43.76333482572166" lon="11.211766176002566"><ele>43.0</ele><time>2026-03-29T09:02:03Z</time></trkpt><trkpt lat="43.76332689613461" lon="11.2119214915303"><ele>43.0</ele><time>2026-03-29T09:02:05Z</time></trkpt><trkpt lat="43.76331907627464" lon="11.21206724707101"><ele>43.0</ele><time>2026-03-29T09:02:07Z</time></trkpt><trkpt lat="43.76329502118395" lon="11.2122225052561"><ele>43.0</ele><time>2026-03-29T09:02:09Z</time></trkpt><trkpt lat="43.763234994999586" lon="11.212349945005336"><ele>43.0</ele><time>2026-03-29T09:02:11Z</time></trkpt><trkpt lat="43.76314388008361" lon="11.212441754547042"><ele>43.0</ele><time>2026-03-29T09:02:13Z</time></trkpt><trkpt lat="43.76306086982876" lon="11.212512972271538"><ele>43.0</ele><time>2026-03-29T09:02:15Z</time></trkpt><trkpt lat="43.76297284104159" lon="11.212550994957612"><ele>43.0</ele><time>2026-03-29T09:02:17Z</time></trkpt><trkpt lat="43.76288084760413" lon="11.212625120744786"><ele>43.0</ele><time>2026-03-29T09:02:19Z</time></trkpt><trkpt lat="43.7627961092421" lon="11.212685657378094"><ele>43.0</ele><time>2026-03-29T09:02:21Z</time></trkpt><trkpt lat="43.76272053022193" lon="11.21280284630888"><ele>43.0</ele><time>2026-03-29T09:02:23Z</time></trkpt><trkpt lat="43.76264258154115" lon="11.212903462686148"><ele>43.0</ele><time>2026-03-29T09:02:25Z</time></trkpt><trkpt lat="43.76255717704161" lon="11.213008698121008"><ele>43.0</ele><time>2026-03-29T09:02:27Z</time></trkpt><trkpt lat="43.76247720068546" lon="11.213118306660753"><ele>43.0</ele><time>2026-03-29T09:02:29Z</time></trkpt><trkpt lat="43.76239403579169" lon="11.213221160367368"><ele>43.0</ele><time>2026-03-29T09:02:31Z</time></trkpt><trkpt lat="43.762315616371374" lon="11.21333454435315"><ele>43.0</ele><time>2026-03-29T09:02:33Z</time></trkpt><trkpt lat="43.7622321310767" lon="11.213439218315525"><ele>43.0</ele><time>2026-03-29T09:02:35Z</time></trkpt><trkpt lat="43.76214632364772" lon="11.213532774101493"><ele>43.0</ele><time>2026-03-29T09:02:37Z</time></trkpt><trkpt lat="43.76206017169184" lon="11.213626804885935"><ele>43.0</ele><time>2026-03-29T09:02:39Z</time></trkpt><trkpt lat="43.76198231375423" lon="11.213735162404168"><ele>43.0</ele><time>2026-03-29T09:02:41Z</time></trkpt><trkpt lat="43.76192292206252" lon="11.213865704723803"><ele>43.0</ele><time>2026-03-29T09:02:43Z</time></trkpt><trkpt lat="43.76189957158387" lon="11.214021497116606"><ele>43.0</ele><time>2026-03-29T09:02:45Z</time></trkpt><trkpt lat="43.761896435677386" lon="11.214171617472177"><ele>43.0</ele><time>2026-03-29T09:02:47Z</time></trkpt><trkpt lat="43.761897570642425" lon="11.214329150828881"><ele>43.0</ele><time>2026-03-29T09:02:49Z</time></trkpt><trkpt lat="43.76189427676641" lon="11.21448357825226"><ele>43.75</ele><time>2026-03-29T09:02:51Z</time></trkpt><trkpt lat="43.76188110475358" lon="11.214644888539057"><ele>44.5</ele><time>2026-03-29T09:02:53Z</time></trkpt><trkpt lat="43.76185732788388" lon="11.214799549431762"><ele>45.25</ele><time>2026-03-29T09:02:55Z</time></trkpt><trkpt lat="43.76182605393505" lon="11.214951349098028"><ele>46.0</ele><time>2026-03-29T09:02:57Z</time></trkpt><trkpt lat="43.76179358169132" lon="11.215098412179396"><ele>46.8</ele><time>2026-03-29T09:02:59Z</time></trkpt><trkpt lat="43.76175447619269" lon="11.215247112435906"><ele>47.599999999999994</ele><time>2026-03-29T09:03:01Z</time></trkpt><trkpt lat="43.761702264198405" lon="11.215381809835382"><ele>48.4</ele><time>2026-03-29T09:03:03Z</time></trkpt><trkpt lat="43.76165352635353" lon="11.215522350525738"><ele>49.2</ele><time>2026-03-29T09:03:05Z</time></trkpt><trkpt lat="43.76160081541074" lon="11.215646631127445"><ele>50.0</ele><time>2026-03-29T09:03:07Z</time></trkpt><trkpt lat="43.761542562398645" lon="11.215780408190602"><ele>50.16666666666667</ele><time>2026-03-29T09:03:09Z</time></trkpt><trkpt lat="43.76149930002108" lon="11.215907864994774"><ele>50.333333333333336</ele><time>2026-03-29T09:03:11Z</time></trkpt><trkpt lat="43.76145983286594" lon="11.216010961779084"><ele>50.5</ele><time>2026-03-29T09:03:13Z</time></trkpt><trkpt lat="43.76141851287836" lon="11.216119793791428"><ele>50.66666666666667</ele><time>2026-03-29T09:03:15Z</time></trkpt><trkpt lat="43.761381469678454" lon="11.216222187605046"><ele>50.833333333333336</ele><time>2026-03-29T09:03:18Z</time></trkpt><trkpt lat="43.76135041725694" lon="11.216309267541227"><ele>51.0</ele><time>2026-03-29T09:03:20Z</time></trkpt><trkpt lat="43.76136213374865" lon="11.216404794977956"><ele>51.199999999999996</ele><time>2026-03-29T09:03:23Z</time></trkpt><trkpt lat="43.761435267896026" lon="11.21649235869366"><ele>51.4</ele><time>2026-03-29T09:03:25Z</time></trkpt><trkpt lat="43.761522730035544" lon="11.216569065024396"><ele>51.6</ele><time>2026-03-29T09:03:27Z</time></trkpt><trkpt lat="43.76161693928259" lon="11.216633802878796"><ele>51.8</ele><time>2026-03-29T09:03:29Z</time></trkpt><trkpt lat="43.76170123637947" lon="11.21668779089863"><ele>52.0</ele><time>2026-03-29T09:03:31Z</time></trkpt><trkpt lat="43.76178314290861" lon="11.216738984432306"><ele>52.2</ele><time>2026-03-29T09:03:33Z</time></trkpt><trkpt lat="43.761869108966" lon="11.21679151334637"><ele>52.400000000000006</ele><time>2026-03-29T09:03:35Z</time></trkpt><trkpt lat="43.76195739149246" lon="11.216841995135393"><ele>52.599999999999994</ele><time>2026-03-29T09:03:37Z</time></trkpt><trkpt lat="43.762057209093314" lon="11.216874744917046"><ele>52.8</ele><time>2026-03-29T09:03:39Z</time></trkpt><trkpt lat="43.762148945074" lon="11.216932031215153"><ele>53.0</ele><time>2026-03-29T09:03:41Z</time></trkpt><trkpt lat="43.76225278598541" lon="11.216990677153461"><ele>53.0</ele><time>2026-03-29T09:03:43Z</time></trkpt><trkpt lat="43.76236221760268" lon="11.21700552925388"><ele>53.0</ele><time>2026-03-29T09:03:45Z</time></trkpt><trkpt lat="43.76247909955933" lon="11.217047759852298"><ele>53.0</ele><time>2026-03-29T09:03:47Z</time></trkpt><trkpt lat="43.762589066005255" lon="11.217101631859602"><ele>53.0</ele><time>2026-03-29T09:03:49Z</time></trkpt><trkpt lat="43.7626849279861" lon="11.217166714583392"><ele>52.4</ele><time>2026-03-29T09:03:51Z</time></trkpt><trkpt lat="43.76278659381295" lon="11.217211070470917"><ele>51.8</ele><time>2026-03-29T09:03:53Z</time></trkpt><trkpt lat="43.762883284620706" lon="11.217282032405373"><ele>51.2</ele><time>2026-03-29T09:03:55Z</time></trkpt><trkpt lat="43.76297360314026" lon="11.217371672531568"><ele>50.6</ele><time>2026-03-29T09:03:57Z</time></trkpt><trkpt lat="43.763068668014355" lon="11.217473105860284"><ele>50.0</ele><time>2026-03-29T09:03:59Z</time></trkpt><trkpt lat="43.76315235130824" lon="11.217583036720375"><ele>49.25</ele><time>2026-03-29T09:04:01Z</time></trkpt><trkpt lat="43.76322808942471" lon="11.217707204434033"><ele>48.5</ele><time>2026-03-29T09:04:03Z</time></trkpt><trkpt lat="43.76331811908652" lon="11.217827973533153"><ele>47.75</ele><time>2026-03-29T09:04:05Z</time></trkpt><trkpt lat="43.76340795486097" lon="11.217933110100867"><ele>47.0</ele><time>2026-03-29T09:04:07Z</time></trkpt><trkpt lat="43.76349606351014" lon="11.218047807033313"><ele>47.25</ele><time>2026-03-29T09:04:09Z</time></trkpt><trkpt lat="43.763576668095986" lon="11.218166260477346"><ele>47.5</ele><time>2026-03-29T09:04:11Z</time></trkpt><trkpt lat="43.76366893731156" lon="11.218255320951906"><ele>47.75</ele><time>2026-03-29T09:04:13Z</time></trkpt><trkpt lat="43.76375116127846" lon="11.218354179295572"><ele>48.0</ele><time>2026-03-29T09:04:15Z</time></trkpt><trkpt lat="43.7638336671235" lon="11.218457047721191"><ele>48.0</ele><time>2026-03-29T09:04:17Z</time></trkpt><trkpt lat="43.76391840483613" lon="11.218546728099806"><ele>48.0</ele><time>2026-03-29T09:04:19Z</time></trkpt><trkpt lat="43.76400305567297" lon="11.218625904061454"><ele>48.0</ele><time>2026-03-29T09:04:21Z</time></trkpt><trkpt lat="43.76409248528452" lon="11.218728094835596"><ele>48.0</ele><time>2026-03-29T09:04:23Z</time></trkpt><trkpt lat="43.76419571024393" lon="11.218817829166237"><ele>48.0</ele><time>2026-03-29T09:04:25Z</time></trkpt><trkpt lat="43.764244912418604" lon="11.218876036435878"><ele>48.166666666666664</ele><time>2026-03-29T09:04:26Z</time></trkpt><trkpt lat="43.76434466285462" lon="11.218987227376902"><ele>48.33333333333333</ele><time>2026-03-29T09:04:28Z</time></trkpt><trkpt lat="43.764397274734456" lon="11.219037617667595"><ele>48.5</ele><time>2026-03-29T09:04:29Z</time></trkpt><trkpt lat="43.76445090947913" lon="11.219085972086736"><ele>48.666666666666664</ele><time>2026-03-29T09:04:30Z</time></trkpt><trkpt lat="43.76450503255194" lon="11.219134956221554"><ele>48.83333333333333</ele><time>2026-03-29T09:04:31Z</time></trkpt><trkpt lat="43.76460363064503" lon="11.219232265955165"><ele>49.0</ele><time>2026-03-29T09:04:33Z</time></trkpt><trkpt lat="43.7646703206035" lon="11.219272514127193"><ele>48.99999999999999</ele><time>2026-03-29T09:04:34Z</time></trkpt><trkpt lat="43.76471863919586" lon="11.219345101070859"><ele>49.0</ele><time>2026-03-29T09:04:35Z</time></trkpt><trkpt lat="43.76478253953019" lon="11.21938155863935"><ele>49.0</ele><time>2026-03-29T09:04:36Z</time></trkpt><trkpt lat="43.76487642178018" lon="11.219502866416411"><ele>49.0</ele><time>2026-03-29T09:04:38Z</time></trkpt><trkpt lat="43.764934933469135" lon="11.219543332977576"><ele>48.99999999999999</ele><time>2026-03-29T09:04:39Z</time></trkpt><trkpt lat="43.76499887971564" lon="11.219573268035182"><ele>49.0</ele><time>2026-03-29T09:04:40Z</time></trkpt><trkpt lat="43.76511468391291" lon="11.219620936241238"><ele>48.75</ele><time>2026-03-29T09:04:42Z</time></trkpt><trkpt lat="43.765203756618874" lon="11.21965850993117"><ele>48.5</ele><time>2026-03-29T09:04:44Z</time></trkpt><trkpt lat="43.76528485049791" lon="11.21941755940601"><ele>48.25</ele><time>2026-03-29T09:04:46Z</time></trkpt><trkpt lat="43.76533191515179" lon="11.219294009521509"><ele>48.0</ele><time>2026-03-29T09:04:48Z</time></trkpt><trkpt lat="43.76536389427783" lon="11.219152462560995"><ele>48.0</ele><time>2026-03-29T09:04:50Z</time></trkpt><trkpt lat="43.76542520795207" lon="11.219017503473868"><ele>48.0</ele><time>2026-03-29T09:04:52Z</time></trkpt><trkpt lat="43.765480161641435" lon="11.218876165907979"><ele>48.0</ele><time>2026-03-29T09:04:54Z</time></trkpt><trkpt lat="43.76553312383528" lon="11.218730486502801"><ele>48.0</ele><time>2026-03-29T09:04:56Z</time></trkpt><trkpt lat="43.76558661825178" lon="11.21857650362044"><ele>47.857142857142854</ele><time>2026-03-29T09:04:58Z</time></trkpt><trkpt lat="43.76564436028445" lon="11.218426022500584"><ele>47.714285714285715</ele><time>2026-03-29T09:05:00Z</time></trkpt><trkpt lat="43.76567099624417" lon="11.218344351575755"><ele>47.57142857142857</ele><time>2026-03-29T09:05:01Z</time></trkpt><trkpt lat="43.76569988390491" lon="11.218264970838446"><ele>47.42857142857143</ele><time>2026-03-29T09:05:02Z</time></trkpt><trkpt lat="43.76573114162984" lon="11.218185134829769"><ele>47.285714285714285</ele><time>2026-03-29T09:05:03Z</time></trkpt><trkpt lat="43.765756622835774" lon="11.218102046768058"><ele>47.14285714285714</ele><time>2026-03-29T09:05:04Z</time></trkpt><trkpt lat="43.76577954903672" lon="11.218017897771125"><ele>47.0</ele><time>2026-03-29T09:05:05Z</time></trkpt><trkpt lat="43.76583658399892" lon="11.217852976630994"><ele>47.0</ele><time>2026-03-29T09:05:07Z</time></trkpt><trkpt lat="43.76589774383028" lon="11.21770219682791"><ele>47.0</ele><time>2026-03-29T09:05:09Z</time></trkpt><trkpt lat="43.76595103550039" lon="11.21755769845873"><ele>47.0</ele><time>2026-03-29T09:05:11Z</time></trkpt><trkpt lat="43.76602155109892" lon="11.21743338798882"><ele>47.0</ele><time>2026-03-29T09:05:13Z</time></trkpt><trkpt lat="43.76605463500611" lon="11.217351714549675"><ele>47.0</ele><time>2026-03-29T09:05:15Z</time></trkpt><trkpt lat="43.766214410847915" lon="11.217476631719911"><ele>47.0</ele><time>2026-03-29T09:05:17Z</time></trkpt><trkpt lat="43.76630252106432" lon="11.217546584233041"><ele>47.0</ele><time>2026-03-29T09:05:19Z</time></trkpt><trkpt lat="43.76635265415085" lon="11.217607481415744"><ele>47.0</ele><time>2026-03-29T09:05:21Z</time></trkpt><trkpt lat="43.76643780313652" lon="11.217452172191457"><ele>47.0</ele><time>2026-03-29T09:05:22Z</time></trkpt><trkpt lat="43.76648150217888" lon="11.217332636549461"><ele>47.0</ele><time>2026-03-29T09:05:24Z</time></trkpt><trkpt lat="43.76654869418825" lon="11.217207339795973"><ele>47.0</ele><time>2026-03-29T09:05:26Z</time></trkpt><trkpt lat="43.766600267837404" lon="11.217075573617873"><ele>47.0</ele><time>2026-03-29T09:05:28Z</time></trkpt><trkpt lat="43.76665221166191" lon="11.21696257519431"><ele>47.0</ele><time>2026-03-29T09:05:30Z</time></trkpt><trkpt lat="43.76670406207677" lon="11.216845744366658"><ele>47.0</ele><time>2026-03-29T09:05:32Z</time></trkpt><trkpt lat="43.766730639230424" lon="11.216763357107322"><ele>47.0</ele><time>2026-03-29T09:05:35Z</time></trkpt></trkseg></trk></gpx>